<?xml version="1.0" encoding="UTF-8" standalone="no" ?>
<gpx xmlns="http://www.topografix.com/GPX/1/1" xmlns:xsi="http://www.w3.org/2001/XMLSchema-instance" xsi:schemaLocation="http://www.topografix.com/GPX/1/1 http://www.topografix.com/GPX/1/1/gpx.xsd" version="1.1" creator="VisuGPX - https://www.visugpx.com">
  <metadata>
    <name>2020-01-10 08:37:52 [Suunto App]</name>
  </metadata>
  <trk>
    <name><![CDATA[2020-01-10 08:37:52 [Suunto App]_1]]></name>
    <trkseg>
      <trkpt lat="45.4944" lon="6.92715">
        <ele>1796</ele>
        <time>2020-01-10T07:37:52Z</time>
      </trkpt>
      <trkpt lat="45.49448" lon="6.92711">
        <ele>1796</ele>
        <time>2020-01-10T07:38:02Z</time>
      </trkpt>
      <trkpt lat="45.49455" lon="6.92702">
        <ele>1796</ele>
        <time>2020-01-10T07:38:10Z</time>
      </trkpt>
      <trkpt lat="45.49458" lon="6.92689">
        <ele>1796.2</ele>
        <time>2020-01-10T07:38:17Z</time>
      </trkpt>
      <trkpt lat="45.49466" lon="6.92682">
        <ele>1796.4</ele>
        <time>2020-01-10T07:38:23Z</time>
      </trkpt>
      <trkpt lat="45.49475" lon="6.92676">
        <ele>1796.9</ele>
        <time>2020-01-10T07:38:30Z</time>
      </trkpt>
      <trkpt lat="45.49484" lon="6.92675">
        <ele>1797.6</ele>
        <time>2020-01-10T07:38:36Z</time>
      </trkpt>
      <trkpt lat="45.4949" lon="6.92666">
        <ele>1798.9</ele>
        <time>2020-01-10T07:38:45Z</time>
      </trkpt>
      <trkpt lat="45.49495" lon="6.92655">
        <ele>1799.2</ele>
        <time>2020-01-10T07:38:53Z</time>
      </trkpt>
      <trkpt lat="45.49503" lon="6.92646">
        <ele>1799.1</ele>
        <time>2020-01-10T07:39:01Z</time>
      </trkpt>
      <trkpt lat="45.49511" lon="6.92637">
        <ele>1759.6</ele>
        <time>2020-01-10T07:39:08Z</time>
      </trkpt>
      <trkpt lat="45.49513" lon="6.92624">
        <ele>1759.6</ele>
        <time>2020-01-10T07:39:15Z</time>
      </trkpt>
      <trkpt lat="45.49517" lon="6.92612">
        <ele>1759.6</ele>
        <time>2020-01-10T07:39:22Z</time>
      </trkpt>
      <trkpt lat="45.49519" lon="6.92598">
        <ele>1759.6</ele>
        <time>2020-01-10T07:39:29Z</time>
      </trkpt>
      <trkpt lat="45.49521" lon="6.92585">
        <ele>1759.6</ele>
        <time>2020-01-10T07:39:37Z</time>
      </trkpt>
      <trkpt lat="45.49525" lon="6.92572">
        <ele>1759.6</ele>
        <time>2020-01-10T07:39:44Z</time>
      </trkpt>
      <trkpt lat="45.49532" lon="6.92563">
        <ele>1759.6</ele>
        <time>2020-01-10T07:39:51Z</time>
      </trkpt>
      <trkpt lat="45.49534" lon="6.92559">
        <ele>1759.6</ele>
        <time>2020-01-10T07:39:53Z</time>
      </trkpt>
      <trkpt lat="45.49536" lon="6.92556">
        <ele>1759.6</ele>
        <time>2020-01-10T07:39:55Z</time>
      </trkpt>
      <trkpt lat="45.49537" lon="6.92553">
        <ele>1759.6</ele>
        <time>2020-01-10T07:39:57Z</time>
      </trkpt>
      <trkpt lat="45.49537" lon="6.92546">
        <ele>1759.6</ele>
        <time>2020-01-10T07:40:01Z</time>
      </trkpt>
      <trkpt lat="45.4954" lon="6.92532">
        <ele>1768.4</ele>
        <time>2020-01-10T07:40:08Z</time>
      </trkpt>
      <trkpt lat="45.49539" lon="6.92519">
        <ele>1768.4</ele>
        <time>2020-01-10T07:40:15Z</time>
      </trkpt>
      <trkpt lat="45.49538" lon="6.92505">
        <ele>1768.4</ele>
        <time>2020-01-10T07:40:23Z</time>
      </trkpt>
      <trkpt lat="45.49539" lon="6.92492">
        <ele>1768.4</ele>
        <time>2020-01-10T07:40:29Z</time>
      </trkpt>
      <trkpt lat="45.4954" lon="6.92485">
        <ele>1768.4</ele>
        <time>2020-01-10T07:40:33Z</time>
      </trkpt>
      <trkpt lat="45.49546" lon="6.92476">
        <ele>1768.4</ele>
        <time>2020-01-10T07:40:39Z</time>
      </trkpt>
      <trkpt lat="45.49553" lon="6.92466">
        <ele>1768.4</ele>
        <time>2020-01-10T07:40:46Z</time>
      </trkpt>
      <trkpt lat="45.49555" lon="6.92459">
        <ele>1768.4</ele>
        <time>2020-01-10T07:40:53Z</time>
      </trkpt>
      <trkpt lat="45.49559" lon="6.92446">
        <ele>1768.4</ele>
        <time>2020-01-10T07:41:22Z</time>
      </trkpt>
      <trkpt lat="45.49564" lon="6.92434">
        <ele>1768.4</ele>
        <time>2020-01-10T07:41:29Z</time>
      </trkpt>
      <trkpt lat="45.49571" lon="6.92424">
        <ele>1768.4</ele>
        <time>2020-01-10T07:41:36Z</time>
      </trkpt>
      <trkpt lat="45.49573" lon="6.92411">
        <ele>1768.4</ele>
        <time>2020-01-10T07:41:47Z</time>
      </trkpt>
      <trkpt lat="45.49575" lon="6.92397">
        <ele>1794</ele>
        <time>2020-01-10T07:41:58Z</time>
      </trkpt>
      <trkpt lat="45.4958" lon="6.92387">
        <ele>1794</ele>
        <time>2020-01-10T07:42:06Z</time>
      </trkpt>
      <trkpt lat="45.49583" lon="6.92384">
        <ele>1794</ele>
        <time>2020-01-10T07:42:09Z</time>
      </trkpt>
      <trkpt lat="45.49585" lon="6.92381">
        <ele>1794</ele>
        <time>2020-01-10T07:42:11Z</time>
      </trkpt>
      <trkpt lat="45.49595" lon="6.92375">
        <ele>1801.4</ele>
        <time>2020-01-10T07:42:18Z</time>
      </trkpt>
      <trkpt lat="45.49596" lon="6.92372">
        <ele>1801.4</ele>
        <time>2020-01-10T07:42:20Z</time>
      </trkpt>
      <trkpt lat="45.49603" lon="6.92363">
        <ele>1804.2</ele>
        <time>2020-01-10T07:42:28Z</time>
      </trkpt>
      <trkpt lat="45.49604" lon="6.9236">
        <ele>1804.2</ele>
        <time>2020-01-10T07:42:30Z</time>
      </trkpt>
      <trkpt lat="45.49606" lon="6.92356">
        <ele>1804.2</ele>
        <time>2020-01-10T07:42:32Z</time>
      </trkpt>
      <trkpt lat="45.49608" lon="6.92354">
        <ele>1804.2</ele>
        <time>2020-01-10T07:42:34Z</time>
      </trkpt>
      <trkpt lat="45.49611" lon="6.92352">
        <ele>1804.2</ele>
        <time>2020-01-10T07:42:36Z</time>
      </trkpt>
      <trkpt lat="45.49612" lon="6.92346">
        <ele>1804.2</ele>
        <time>2020-01-10T07:42:40Z</time>
      </trkpt>
      <trkpt lat="45.49615" lon="6.92344">
        <ele>1804.2</ele>
        <time>2020-01-10T07:42:42Z</time>
      </trkpt>
      <trkpt lat="45.49617" lon="6.9234">
        <ele>1804.2</ele>
        <time>2020-01-10T07:42:44Z</time>
      </trkpt>
      <trkpt lat="45.49619" lon="6.92338">
        <ele>1804.2</ele>
        <time>2020-01-10T07:42:46Z</time>
      </trkpt>
      <trkpt lat="45.49621" lon="6.92336">
        <ele>1811</ele>
        <time>2020-01-10T07:42:48Z</time>
      </trkpt>
      <trkpt lat="45.49623" lon="6.92334">
        <ele>1811</ele>
        <time>2020-01-10T07:42:50Z</time>
      </trkpt>
      <trkpt lat="45.49625" lon="6.92332">
        <ele>1811</ele>
        <time>2020-01-10T07:42:52Z</time>
      </trkpt>
      <trkpt lat="45.49626" lon="6.92328">
        <ele>1811</ele>
        <time>2020-01-10T07:42:54Z</time>
      </trkpt>
      <trkpt lat="45.49627" lon="6.92326">
        <ele>1811</ele>
        <time>2020-01-10T07:42:56Z</time>
      </trkpt>
      <trkpt lat="45.49628" lon="6.92322">
        <ele>1814.6</ele>
        <time>2020-01-10T07:42:58Z</time>
      </trkpt>
      <trkpt lat="45.49628" lon="6.92318">
        <ele>1814.6</ele>
        <time>2020-01-10T07:43:01Z</time>
      </trkpt>
      <trkpt lat="45.49627" lon="6.92316">
        <ele>1814.6</ele>
        <time>2020-01-10T07:43:03Z</time>
      </trkpt>
      <trkpt lat="45.49617" lon="6.92314">
        <ele>1814.6</ele>
        <time>2020-01-10T07:43:11Z</time>
      </trkpt>
      <trkpt lat="45.49616" lon="6.92302">
        <ele>1814.6</ele>
        <time>2020-01-10T07:43:19Z</time>
      </trkpt>
      <trkpt lat="45.49617" lon="6.92296">
        <ele>1814.6</ele>
        <time>2020-01-10T07:43:23Z</time>
      </trkpt>
      <trkpt lat="45.49617" lon="6.92292">
        <ele>1814.6</ele>
        <time>2020-01-10T07:43:25Z</time>
      </trkpt>
      <trkpt lat="45.49616" lon="6.92289">
        <ele>1814.6</ele>
        <time>2020-01-10T07:43:27Z</time>
      </trkpt>
      <trkpt lat="45.49612" lon="6.92277">
        <ele>1814.6</ele>
        <time>2020-01-10T07:43:37Z</time>
      </trkpt>
      <trkpt lat="45.49613" lon="6.92267">
        <ele>1814.6</ele>
        <time>2020-01-10T07:43:46Z</time>
      </trkpt>
      <trkpt lat="45.49613" lon="6.92264">
        <ele>1826.6</ele>
        <time>2020-01-10T07:43:48Z</time>
      </trkpt>
      <trkpt lat="45.49613" lon="6.92259">
        <ele>1826.6</ele>
        <time>2020-01-10T07:43:50Z</time>
      </trkpt>
      <trkpt lat="45.49613" lon="6.92256">
        <ele>1826.6</ele>
        <time>2020-01-10T07:43:51Z</time>
      </trkpt>
      <trkpt lat="45.49613" lon="6.92253">
        <ele>1826.6</ele>
        <time>2020-01-10T07:43:52Z</time>
      </trkpt>
      <trkpt lat="45.49613" lon="6.92249">
        <ele>1826.6</ele>
        <time>2020-01-10T07:43:54Z</time>
      </trkpt>
      <trkpt lat="45.49611" lon="6.92241">
        <ele>1826.6</ele>
        <time>2020-01-10T07:43:59Z</time>
      </trkpt>
      <trkpt lat="45.49609" lon="6.92238">
        <ele>1826.6</ele>
        <time>2020-01-10T07:44:01Z</time>
      </trkpt>
      <trkpt lat="45.49607" lon="6.92235">
        <ele>1826.6</ele>
        <time>2020-01-10T07:44:02Z</time>
      </trkpt>
      <trkpt lat="45.49605" lon="6.92232">
        <ele>1826.6</ele>
        <time>2020-01-10T07:44:04Z</time>
      </trkpt>
      <trkpt lat="45.49604" lon="6.92229">
        <ele>1826.6</ele>
        <time>2020-01-10T07:44:05Z</time>
      </trkpt>
      <trkpt lat="45.49602" lon="6.92226">
        <ele>1826.6</ele>
        <time>2020-01-10T07:44:06Z</time>
      </trkpt>
      <trkpt lat="45.49599" lon="6.92222">
        <ele>1826.6</ele>
        <time>2020-01-10T07:44:07Z</time>
      </trkpt>
      <trkpt lat="45.49598" lon="6.9222">
        <ele>1831.2</ele>
        <time>2020-01-10T07:44:08Z</time>
      </trkpt>
      <trkpt lat="45.49597" lon="6.92217">
        <ele>1831.2</ele>
        <time>2020-01-10T07:44:09Z</time>
      </trkpt>
      <trkpt lat="45.49595" lon="6.92214">
        <ele>1831.2</ele>
        <time>2020-01-10T07:44:11Z</time>
      </trkpt>
      <trkpt lat="45.49593" lon="6.92211">
        <ele>1831.2</ele>
        <time>2020-01-10T07:44:13Z</time>
      </trkpt>
      <trkpt lat="45.49592" lon="6.92209">
        <ele>1831.2</ele>
        <time>2020-01-10T07:44:15Z</time>
      </trkpt>
      <trkpt lat="45.49589" lon="6.92207">
        <ele>1833.2</ele>
        <time>2020-01-10T07:44:18Z</time>
      </trkpt>
      <trkpt lat="45.49588" lon="6.92204">
        <ele>1833.2</ele>
        <time>2020-01-10T07:44:20Z</time>
      </trkpt>
      <trkpt lat="45.49586" lon="6.92202">
        <ele>1833.2</ele>
        <time>2020-01-10T07:44:22Z</time>
      </trkpt>
      <trkpt lat="45.49584" lon="6.92199">
        <ele>1833.2</ele>
        <time>2020-01-10T07:44:24Z</time>
      </trkpt>
      <trkpt lat="45.49582" lon="6.92197">
        <ele>1833.2</ele>
        <time>2020-01-10T07:44:26Z</time>
      </trkpt>
      <trkpt lat="45.4958" lon="6.92195">
        <ele>1836.2</ele>
        <time>2020-01-10T07:44:28Z</time>
      </trkpt>
      <trkpt lat="45.49578" lon="6.92194">
        <ele>1836.2</ele>
        <time>2020-01-10T07:44:29Z</time>
      </trkpt>
      <trkpt lat="45.49575" lon="6.92194">
        <ele>1836.2</ele>
        <time>2020-01-10T07:44:31Z</time>
      </trkpt>
      <trkpt lat="45.49573" lon="6.92193">
        <ele>1836.2</ele>
        <time>2020-01-10T07:44:32Z</time>
      </trkpt>
      <trkpt lat="45.49571" lon="6.92192">
        <ele>1836.2</ele>
        <time>2020-01-10T07:44:33Z</time>
      </trkpt>
      <trkpt lat="45.49569" lon="6.92192">
        <ele>1836.2</ele>
        <time>2020-01-10T07:44:35Z</time>
      </trkpt>
      <trkpt lat="45.49565" lon="6.92192">
        <ele>1836.2</ele>
        <time>2020-01-10T07:44:37Z</time>
      </trkpt>
      <trkpt lat="45.49562" lon="6.92192">
        <ele>1836.2</ele>
        <time>2020-01-10T07:44:39Z</time>
      </trkpt>
      <trkpt lat="45.49559" lon="6.92192">
        <ele>1836.2</ele>
        <time>2020-01-10T07:44:41Z</time>
      </trkpt>
      <trkpt lat="45.49555" lon="6.92192">
        <ele>1836.2</ele>
        <time>2020-01-10T07:44:43Z</time>
      </trkpt>
      <trkpt lat="45.49553" lon="6.92192">
        <ele>1836.2</ele>
        <time>2020-01-10T07:44:44Z</time>
      </trkpt>
      <trkpt lat="45.49551" lon="6.92193">
        <ele>1836.2</ele>
        <time>2020-01-10T07:44:46Z</time>
      </trkpt>
      <trkpt lat="45.49549" lon="6.92193">
        <ele>1836.2</ele>
        <time>2020-01-10T07:44:47Z</time>
      </trkpt>
      <trkpt lat="45.49547" lon="6.92193">
        <ele>1836.2</ele>
        <time>2020-01-10T07:44:49Z</time>
      </trkpt>
      <trkpt lat="45.49543" lon="6.92194">
        <ele>1836.2</ele>
        <time>2020-01-10T07:44:51Z</time>
      </trkpt>
      <trkpt lat="45.4954" lon="6.92194">
        <ele>1836.2</ele>
        <time>2020-01-10T07:44:53Z</time>
      </trkpt>
      <trkpt lat="45.49538" lon="6.92194">
        <ele>1836.2</ele>
        <time>2020-01-10T07:44:55Z</time>
      </trkpt>
      <trkpt lat="45.49536" lon="6.92195">
        <ele>1836.2</ele>
        <time>2020-01-10T07:44:57Z</time>
      </trkpt>
      <trkpt lat="45.49533" lon="6.92195">
        <ele>1836.2</ele>
        <time>2020-01-10T07:44:59Z</time>
      </trkpt>
      <trkpt lat="45.49531" lon="6.92195">
        <ele>1836.2</ele>
        <time>2020-01-10T07:45:01Z</time>
      </trkpt>
      <trkpt lat="45.49528" lon="6.92195">
        <ele>1836.2</ele>
        <time>2020-01-10T07:45:03Z</time>
      </trkpt>
      <trkpt lat="45.49526" lon="6.92195">
        <ele>1836.2</ele>
        <time>2020-01-10T07:45:05Z</time>
      </trkpt>
      <trkpt lat="45.49523" lon="6.92194">
        <ele>1836.2</ele>
        <time>2020-01-10T07:45:07Z</time>
      </trkpt>
      <trkpt lat="45.49521" lon="6.92194">
        <ele>1836.2</ele>
        <time>2020-01-10T07:45:09Z</time>
      </trkpt>
      <trkpt lat="45.49518" lon="6.92194">
        <ele>1836.2</ele>
        <time>2020-01-10T07:45:11Z</time>
      </trkpt>
      <trkpt lat="45.49516" lon="6.92194">
        <ele>1836.2</ele>
        <time>2020-01-10T07:45:13Z</time>
      </trkpt>
      <trkpt lat="45.49513" lon="6.92194">
        <ele>1836.2</ele>
        <time>2020-01-10T07:45:15Z</time>
      </trkpt>
      <trkpt lat="45.4951" lon="6.92194">
        <ele>1836.2</ele>
        <time>2020-01-10T07:45:17Z</time>
      </trkpt>
      <trkpt lat="45.49508" lon="6.92195">
        <ele>1836.2</ele>
        <time>2020-01-10T07:45:19Z</time>
      </trkpt>
      <trkpt lat="45.49504" lon="6.92194">
        <ele>1836.2</ele>
        <time>2020-01-10T07:45:22Z</time>
      </trkpt>
      <trkpt lat="45.49503" lon="6.92195">
        <ele>1836.2</ele>
        <time>2020-01-10T07:45:23Z</time>
      </trkpt>
      <trkpt lat="45.49501" lon="6.92195">
        <ele>1836.2</ele>
        <time>2020-01-10T07:45:25Z</time>
      </trkpt>
      <trkpt lat="45.49499" lon="6.92196">
        <ele>1836.2</ele>
        <time>2020-01-10T07:45:26Z</time>
      </trkpt>
      <trkpt lat="45.49496" lon="6.92196">
        <ele>1849.6</ele>
        <time>2020-01-10T07:45:28Z</time>
      </trkpt>
      <trkpt lat="45.49494" lon="6.92196">
        <ele>1849.6</ele>
        <time>2020-01-10T07:45:30Z</time>
      </trkpt>
      <trkpt lat="45.49492" lon="6.92196">
        <ele>1849.6</ele>
        <time>2020-01-10T07:45:32Z</time>
      </trkpt>
      <trkpt lat="45.49488" lon="6.92196">
        <ele>1849.6</ele>
        <time>2020-01-10T07:45:34Z</time>
      </trkpt>
      <trkpt lat="45.49486" lon="6.92196">
        <ele>1849.6</ele>
        <time>2020-01-10T07:45:36Z</time>
      </trkpt>
      <trkpt lat="45.49484" lon="6.92197">
        <ele>1849.6</ele>
        <time>2020-01-10T07:45:37Z</time>
      </trkpt>
      <trkpt lat="45.49481" lon="6.92198">
        <ele>1849.6</ele>
        <time>2020-01-10T07:45:39Z</time>
      </trkpt>
      <trkpt lat="45.49478" lon="6.92198">
        <ele>1849.6</ele>
        <time>2020-01-10T07:45:41Z</time>
      </trkpt>
      <trkpt lat="45.49476" lon="6.92198">
        <ele>1849.6</ele>
        <time>2020-01-10T07:45:42Z</time>
      </trkpt>
      <trkpt lat="45.49473" lon="6.92199">
        <ele>1849.6</ele>
        <time>2020-01-10T07:45:44Z</time>
      </trkpt>
      <trkpt lat="45.49471" lon="6.92199">
        <ele>1849.6</ele>
        <time>2020-01-10T07:45:46Z</time>
      </trkpt>
      <trkpt lat="45.49468" lon="6.922">
        <ele>1853.4</ele>
        <time>2020-01-10T07:45:48Z</time>
      </trkpt>
      <trkpt lat="45.49467" lon="6.922">
        <ele>1853.4</ele>
        <time>2020-01-10T07:45:49Z</time>
      </trkpt>
      <trkpt lat="45.49464" lon="6.92201">
        <ele>1853.4</ele>
        <time>2020-01-10T07:45:51Z</time>
      </trkpt>
      <trkpt lat="45.49462" lon="6.92201">
        <ele>1853.4</ele>
        <time>2020-01-10T07:45:53Z</time>
      </trkpt>
      <trkpt lat="45.4946" lon="6.92201">
        <ele>1853.4</ele>
        <time>2020-01-10T07:45:55Z</time>
      </trkpt>
      <trkpt lat="45.49458" lon="6.92201">
        <ele>1853.4</ele>
        <time>2020-01-10T07:45:56Z</time>
      </trkpt>
      <trkpt lat="45.49456" lon="6.92202">
        <ele>1853.4</ele>
        <time>2020-01-10T07:45:57Z</time>
      </trkpt>
      <trkpt lat="45.49453" lon="6.92202">
        <ele>1853.4</ele>
        <time>2020-01-10T07:46:00Z</time>
      </trkpt>
      <trkpt lat="45.4945" lon="6.92201">
        <ele>1853.4</ele>
        <time>2020-01-10T07:46:02Z</time>
      </trkpt>
      <trkpt lat="45.49448" lon="6.92201">
        <ele>1853.4</ele>
        <time>2020-01-10T07:46:04Z</time>
      </trkpt>
      <trkpt lat="45.49445" lon="6.92201">
        <ele>1853.4</ele>
        <time>2020-01-10T07:46:06Z</time>
      </trkpt>
      <trkpt lat="45.49443" lon="6.92202">
        <ele>1858.2</ele>
        <time>2020-01-10T07:46:08Z</time>
      </trkpt>
      <trkpt lat="45.4944" lon="6.92201">
        <ele>1858.2</ele>
        <time>2020-01-10T07:46:10Z</time>
      </trkpt>
      <trkpt lat="45.49438" lon="6.922">
        <ele>1858.2</ele>
        <time>2020-01-10T07:46:12Z</time>
      </trkpt>
      <trkpt lat="45.49436" lon="6.92199">
        <ele>1858.2</ele>
        <time>2020-01-10T07:46:14Z</time>
      </trkpt>
      <trkpt lat="45.49435" lon="6.92198">
        <ele>1858.2</ele>
        <time>2020-01-10T07:46:17Z</time>
      </trkpt>
      <trkpt lat="45.49433" lon="6.92196">
        <ele>1858.2</ele>
        <time>2020-01-10T07:46:20Z</time>
      </trkpt>
      <trkpt lat="45.49431" lon="6.92195">
        <ele>1858.2</ele>
        <time>2020-01-10T07:46:22Z</time>
      </trkpt>
      <trkpt lat="45.4943" lon="6.92193">
        <ele>1858.2</ele>
        <time>2020-01-10T07:46:24Z</time>
      </trkpt>
      <trkpt lat="45.49433" lon="6.92179">
        <ele>1858.2</ele>
        <time>2020-01-10T07:46:32Z</time>
      </trkpt>
      <trkpt lat="45.49436" lon="6.92167">
        <ele>1858.2</ele>
        <time>2020-01-10T07:46:43Z</time>
      </trkpt>
      <trkpt lat="45.49436" lon="6.9216">
        <ele>1858.2</ele>
        <time>2020-01-10T07:46:49Z</time>
      </trkpt>
      <trkpt lat="45.49438" lon="6.92153">
        <ele>1858.2</ele>
        <time>2020-01-10T07:46:57Z</time>
      </trkpt>
      <trkpt lat="45.49438" lon="6.9215">
        <ele>1858.2</ele>
        <time>2020-01-10T07:47:00Z</time>
      </trkpt>
      <trkpt lat="45.49439" lon="6.92139">
        <ele>1858.2</ele>
        <time>2020-01-10T07:47:10Z</time>
      </trkpt>
      <trkpt lat="45.49437" lon="6.92133">
        <ele>1858.2</ele>
        <time>2020-01-10T07:47:17Z</time>
      </trkpt>
      <trkpt lat="45.49434" lon="6.92122">
        <ele>1858.2</ele>
        <time>2020-01-10T07:47:27Z</time>
      </trkpt>
      <trkpt lat="45.49433" lon="6.92119">
        <ele>1858.2</ele>
        <time>2020-01-10T07:47:32Z</time>
      </trkpt>
      <trkpt lat="45.49432" lon="6.92116">
        <ele>1858.2</ele>
        <time>2020-01-10T07:47:34Z</time>
      </trkpt>
      <trkpt lat="45.49431" lon="6.92114">
        <ele>1858.2</ele>
        <time>2020-01-10T07:47:37Z</time>
      </trkpt>
      <trkpt lat="45.49429" lon="6.92113">
        <ele>1858.2</ele>
        <time>2020-01-10T07:47:40Z</time>
      </trkpt>
      <trkpt lat="45.49427" lon="6.92111">
        <ele>1858.2</ele>
        <time>2020-01-10T07:47:42Z</time>
      </trkpt>
      <trkpt lat="45.49424" lon="6.92109">
        <ele>1858.2</ele>
        <time>2020-01-10T07:47:45Z</time>
      </trkpt>
      <trkpt lat="45.49422" lon="6.92109">
        <ele>1858.2</ele>
        <time>2020-01-10T07:47:47Z</time>
      </trkpt>
      <trkpt lat="45.4942" lon="6.9211">
        <ele>1858.2</ele>
        <time>2020-01-10T07:47:49Z</time>
      </trkpt>
      <trkpt lat="45.49418" lon="6.9211">
        <ele>1858.2</ele>
        <time>2020-01-10T07:47:51Z</time>
      </trkpt>
      <trkpt lat="45.49415" lon="6.92112">
        <ele>1858.2</ele>
        <time>2020-01-10T07:47:53Z</time>
      </trkpt>
      <trkpt lat="45.49413" lon="6.92113">
        <ele>1858.2</ele>
        <time>2020-01-10T07:47:55Z</time>
      </trkpt>
      <trkpt lat="45.49411" lon="6.92112">
        <ele>1858.2</ele>
        <time>2020-01-10T07:47:57Z</time>
      </trkpt>
      <trkpt lat="45.49408" lon="6.92114">
        <ele>1858.2</ele>
        <time>2020-01-10T07:47:59Z</time>
      </trkpt>
      <trkpt lat="45.49406" lon="6.92115">
        <ele>1858.2</ele>
        <time>2020-01-10T07:48:00Z</time>
      </trkpt>
      <trkpt lat="45.49402" lon="6.92116">
        <ele>1858.2</ele>
        <time>2020-01-10T07:48:03Z</time>
      </trkpt>
      <trkpt lat="45.494" lon="6.92116">
        <ele>1858.2</ele>
        <time>2020-01-10T07:48:05Z</time>
      </trkpt>
      <trkpt lat="45.49398" lon="6.92116">
        <ele>1858.2</ele>
        <time>2020-01-10T07:48:07Z</time>
      </trkpt>
      <trkpt lat="45.49396" lon="6.92117">
        <ele>1858.2</ele>
        <time>2020-01-10T07:48:09Z</time>
      </trkpt>
      <trkpt lat="45.49394" lon="6.92118">
        <ele>1858.2</ele>
        <time>2020-01-10T07:48:11Z</time>
      </trkpt>
      <trkpt lat="45.49391" lon="6.92119">
        <ele>1858.2</ele>
        <time>2020-01-10T07:48:13Z</time>
      </trkpt>
      <trkpt lat="45.49388" lon="6.9212">
        <ele>1858.2</ele>
        <time>2020-01-10T07:48:15Z</time>
      </trkpt>
      <trkpt lat="45.49387" lon="6.92121">
        <ele>1858.2</ele>
        <time>2020-01-10T07:48:16Z</time>
      </trkpt>
      <trkpt lat="45.49385" lon="6.92123">
        <ele>1897.4</ele>
        <time>2020-01-10T07:48:18Z</time>
      </trkpt>
      <trkpt lat="45.49382" lon="6.92123">
        <ele>1897.4</ele>
        <time>2020-01-10T07:48:20Z</time>
      </trkpt>
      <trkpt lat="45.4938" lon="6.92124">
        <ele>1897.4</ele>
        <time>2020-01-10T07:48:22Z</time>
      </trkpt>
      <trkpt lat="45.49377" lon="6.92125">
        <ele>1897.4</ele>
        <time>2020-01-10T07:48:24Z</time>
      </trkpt>
      <trkpt lat="45.49375" lon="6.92126">
        <ele>1897.4</ele>
        <time>2020-01-10T07:48:26Z</time>
      </trkpt>
      <trkpt lat="45.49372" lon="6.92126">
        <ele>1898.2</ele>
        <time>2020-01-10T07:48:28Z</time>
      </trkpt>
      <trkpt lat="45.4937" lon="6.92127">
        <ele>1898.2</ele>
        <time>2020-01-10T07:48:30Z</time>
      </trkpt>
      <trkpt lat="45.49368" lon="6.92129">
        <ele>1898.2</ele>
        <time>2020-01-10T07:48:32Z</time>
      </trkpt>
      <trkpt lat="45.49365" lon="6.9213">
        <ele>1898.2</ele>
        <time>2020-01-10T07:48:34Z</time>
      </trkpt>
      <trkpt lat="45.49363" lon="6.92132">
        <ele>1898.2</ele>
        <time>2020-01-10T07:48:35Z</time>
      </trkpt>
      <trkpt lat="45.49361" lon="6.92132">
        <ele>1898.2</ele>
        <time>2020-01-10T07:48:37Z</time>
      </trkpt>
      <trkpt lat="45.49358" lon="6.92133">
        <ele>1898.2</ele>
        <time>2020-01-10T07:48:39Z</time>
      </trkpt>
      <trkpt lat="45.49356" lon="6.92133">
        <ele>1898.2</ele>
        <time>2020-01-10T07:48:41Z</time>
      </trkpt>
      <trkpt lat="45.49353" lon="6.92134">
        <ele>1898.2</ele>
        <time>2020-01-10T07:48:44Z</time>
      </trkpt>
      <trkpt lat="45.49351" lon="6.92134">
        <ele>1898.2</ele>
        <time>2020-01-10T07:48:47Z</time>
      </trkpt>
      <trkpt lat="45.49349" lon="6.92134">
        <ele>1898.2</ele>
        <time>2020-01-10T07:48:49Z</time>
      </trkpt>
      <trkpt lat="45.49346" lon="6.92134">
        <ele>1898.2</ele>
        <time>2020-01-10T07:48:52Z</time>
      </trkpt>
      <trkpt lat="45.49344" lon="6.92134">
        <ele>1898.2</ele>
        <time>2020-01-10T07:48:55Z</time>
      </trkpt>
      <trkpt lat="45.49341" lon="6.92135">
        <ele>1898.2</ele>
        <time>2020-01-10T07:48:57Z</time>
      </trkpt>
      <trkpt lat="45.4934" lon="6.92135">
        <ele>1898.2</ele>
        <time>2020-01-10T07:48:59Z</time>
      </trkpt>
      <trkpt lat="45.49337" lon="6.92136">
        <ele>1898.2</ele>
        <time>2020-01-10T07:49:02Z</time>
      </trkpt>
      <trkpt lat="45.49335" lon="6.92136">
        <ele>1898.2</ele>
        <time>2020-01-10T07:49:05Z</time>
      </trkpt>
      <trkpt lat="45.49333" lon="6.92135">
        <ele>1904</ele>
        <time>2020-01-10T07:49:08Z</time>
      </trkpt>
      <trkpt lat="45.49331" lon="6.92136">
        <ele>1904</ele>
        <time>2020-01-10T07:49:11Z</time>
      </trkpt>
      <trkpt lat="45.49329" lon="6.92136">
        <ele>1904</ele>
        <time>2020-01-10T07:49:14Z</time>
      </trkpt>
      <trkpt lat="45.49327" lon="6.92137">
        <ele>1904</ele>
        <time>2020-01-10T07:49:16Z</time>
      </trkpt>
      <trkpt lat="45.49325" lon="6.92137">
        <ele>1905.6</ele>
        <time>2020-01-10T07:49:18Z</time>
      </trkpt>
      <trkpt lat="45.49323" lon="6.92137">
        <ele>1905.6</ele>
        <time>2020-01-10T07:49:21Z</time>
      </trkpt>
      <trkpt lat="45.4932" lon="6.92138">
        <ele>1905.6</ele>
        <time>2020-01-10T07:49:23Z</time>
      </trkpt>
      <trkpt lat="45.49318" lon="6.92139">
        <ele>1905.6</ele>
        <time>2020-01-10T07:49:25Z</time>
      </trkpt>
      <trkpt lat="45.49316" lon="6.92139">
        <ele>1907.6</ele>
        <time>2020-01-10T07:49:28Z</time>
      </trkpt>
      <trkpt lat="45.49314" lon="6.9214">
        <ele>1907.6</ele>
        <time>2020-01-10T07:49:30Z</time>
      </trkpt>
      <trkpt lat="45.49312" lon="6.9214">
        <ele>1907.6</ele>
        <time>2020-01-10T07:49:33Z</time>
      </trkpt>
      <trkpt lat="45.49309" lon="6.9214">
        <ele>1907.6</ele>
        <time>2020-01-10T07:49:36Z</time>
      </trkpt>
      <trkpt lat="45.49308" lon="6.9214">
        <ele>1908.8</ele>
        <time>2020-01-10T07:49:38Z</time>
      </trkpt>
      <trkpt lat="45.49305" lon="6.92141">
        <ele>1908.8</ele>
        <time>2020-01-10T07:49:40Z</time>
      </trkpt>
      <trkpt lat="45.49303" lon="6.92142">
        <ele>1908.8</ele>
        <time>2020-01-10T07:49:42Z</time>
      </trkpt>
      <trkpt lat="45.493" lon="6.92144">
        <ele>1908.8</ele>
        <time>2020-01-10T07:49:44Z</time>
      </trkpt>
      <trkpt lat="45.49297" lon="6.92145">
        <ele>1911</ele>
        <time>2020-01-10T07:49:48Z</time>
      </trkpt>
      <trkpt lat="45.49293" lon="6.92146">
        <ele>1911</ele>
        <time>2020-01-10T07:49:51Z</time>
      </trkpt>
      <trkpt lat="45.49288" lon="6.92144">
        <ele>1911</ele>
        <time>2020-01-10T07:50:00Z</time>
      </trkpt>
      <trkpt lat="45.49286" lon="6.92145">
        <ele>1911</ele>
        <time>2020-01-10T07:50:02Z</time>
      </trkpt>
      <trkpt lat="45.49284" lon="6.92145">
        <ele>1911</ele>
        <time>2020-01-10T07:50:04Z</time>
      </trkpt>
      <trkpt lat="45.4928" lon="6.92146">
        <ele>1915</ele>
        <time>2020-01-10T07:50:08Z</time>
      </trkpt>
      <trkpt lat="45.49277" lon="6.92146">
        <ele>1915</ele>
        <time>2020-01-10T07:50:10Z</time>
      </trkpt>
      <trkpt lat="45.49268" lon="6.92147">
        <ele>1915</ele>
        <time>2020-01-10T07:50:19Z</time>
      </trkpt>
      <trkpt lat="45.49266" lon="6.92147">
        <ele>1915</ele>
        <time>2020-01-10T07:50:21Z</time>
      </trkpt>
      <trkpt lat="45.49264" lon="6.92148">
        <ele>1915</ele>
        <time>2020-01-10T07:50:23Z</time>
      </trkpt>
      <trkpt lat="45.49254" lon="6.92149">
        <ele>1915</ele>
        <time>2020-01-10T07:50:35Z</time>
      </trkpt>
      <trkpt lat="45.49251" lon="6.92151">
        <ele>1915</ele>
        <time>2020-01-10T07:50:40Z</time>
      </trkpt>
      <trkpt lat="45.49249" lon="6.92151">
        <ele>1915</ele>
        <time>2020-01-10T07:50:45Z</time>
      </trkpt>
      <trkpt lat="45.49247" lon="6.92151">
        <ele>1915</ele>
        <time>2020-01-10T07:50:47Z</time>
      </trkpt>
      <trkpt lat="45.49245" lon="6.9215">
        <ele>1915</ele>
        <time>2020-01-10T07:50:50Z</time>
      </trkpt>
      <trkpt lat="45.4924" lon="6.9215">
        <ele>1924.4</ele>
        <time>2020-01-10T07:50:58Z</time>
      </trkpt>
      <trkpt lat="45.49235" lon="6.9215">
        <ele>1924.4</ele>
        <time>2020-01-10T07:51:03Z</time>
      </trkpt>
      <trkpt lat="45.49227" lon="6.9215">
        <ele>1924.4</ele>
        <time>2020-01-10T07:51:15Z</time>
      </trkpt>
      <trkpt lat="45.49218" lon="6.92151">
        <ele>1924.4</ele>
        <time>2020-01-10T07:51:26Z</time>
      </trkpt>
      <trkpt lat="45.49209" lon="6.92156">
        <ele>1931</ele>
        <time>2020-01-10T07:51:38Z</time>
      </trkpt>
      <trkpt lat="45.49199" lon="6.92158">
        <ele>1931</ele>
        <time>2020-01-10T07:51:47Z</time>
      </trkpt>
      <trkpt lat="45.49196" lon="6.9216">
        <ele>1931</ele>
        <time>2020-01-10T07:51:51Z</time>
      </trkpt>
      <trkpt lat="45.49193" lon="6.9216">
        <ele>1931</ele>
        <time>2020-01-10T07:51:55Z</time>
      </trkpt>
      <trkpt lat="45.49184" lon="6.92163">
        <ele>1931</ele>
        <time>2020-01-10T07:52:07Z</time>
      </trkpt>
      <trkpt lat="45.49174" lon="6.92164">
        <ele>1931</ele>
        <time>2020-01-10T07:52:21Z</time>
      </trkpt>
      <trkpt lat="45.49166" lon="6.92164">
        <ele>1931</ele>
        <time>2020-01-10T07:52:32Z</time>
      </trkpt>
      <trkpt lat="45.49164" lon="6.92164">
        <ele>1931</ele>
        <time>2020-01-10T07:52:35Z</time>
      </trkpt>
      <trkpt lat="45.49161" lon="6.92164">
        <ele>1931</ele>
        <time>2020-01-10T07:52:39Z</time>
      </trkpt>
      <trkpt lat="45.49159" lon="6.92164">
        <ele>1931</ele>
        <time>2020-01-10T07:52:42Z</time>
      </trkpt>
      <trkpt lat="45.49156" lon="6.92164">
        <ele>1931</ele>
        <time>2020-01-10T07:52:44Z</time>
      </trkpt>
      <trkpt lat="45.49154" lon="6.92165">
        <ele>1931</ele>
        <time>2020-01-10T07:52:47Z</time>
      </trkpt>
      <trkpt lat="45.49152" lon="6.92166">
        <ele>1948.6</ele>
        <time>2020-01-10T07:52:48Z</time>
      </trkpt>
      <trkpt lat="45.49142" lon="6.92173">
        <ele>1953.4</ele>
        <time>2020-01-10T07:52:58Z</time>
      </trkpt>
      <trkpt lat="45.4914" lon="6.92174">
        <ele>1953.4</ele>
        <time>2020-01-10T07:53:00Z</time>
      </trkpt>
      <trkpt lat="45.49138" lon="6.92176">
        <ele>1953.4</ele>
        <time>2020-01-10T07:53:03Z</time>
      </trkpt>
      <trkpt lat="45.49136" lon="6.92176">
        <ele>1953.4</ele>
        <time>2020-01-10T07:53:05Z</time>
      </trkpt>
      <trkpt lat="45.49134" lon="6.92177">
        <ele>1955.8</ele>
        <time>2020-01-10T07:53:08Z</time>
      </trkpt>
      <trkpt lat="45.49132" lon="6.92179">
        <ele>1955.8</ele>
        <time>2020-01-10T07:53:11Z</time>
      </trkpt>
      <trkpt lat="45.49131" lon="6.9218">
        <ele>1955.8</ele>
        <time>2020-01-10T07:53:13Z</time>
      </trkpt>
      <trkpt lat="45.49129" lon="6.9218">
        <ele>1955.8</ele>
        <time>2020-01-10T07:53:15Z</time>
      </trkpt>
      <trkpt lat="45.49127" lon="6.92182">
        <ele>1955.8</ele>
        <time>2020-01-10T07:53:17Z</time>
      </trkpt>
      <trkpt lat="45.49125" lon="6.92183">
        <ele>1955.8</ele>
        <time>2020-01-10T07:53:19Z</time>
      </trkpt>
      <trkpt lat="45.49123" lon="6.92184">
        <ele>1955.8</ele>
        <time>2020-01-10T07:53:21Z</time>
      </trkpt>
      <trkpt lat="45.4912" lon="6.92185">
        <ele>1955.8</ele>
        <time>2020-01-10T07:53:24Z</time>
      </trkpt>
      <trkpt lat="45.49118" lon="6.92187">
        <ele>1955.8</ele>
        <time>2020-01-10T07:53:27Z</time>
      </trkpt>
      <trkpt lat="45.49116" lon="6.92188">
        <ele>1955.8</ele>
        <time>2020-01-10T07:53:29Z</time>
      </trkpt>
      <trkpt lat="45.49114" lon="6.9219">
        <ele>1955.8</ele>
        <time>2020-01-10T07:53:31Z</time>
      </trkpt>
      <trkpt lat="45.49112" lon="6.9219">
        <ele>1955.8</ele>
        <time>2020-01-10T07:53:34Z</time>
      </trkpt>
      <trkpt lat="45.49109" lon="6.92192">
        <ele>1955.8</ele>
        <time>2020-01-10T07:53:37Z</time>
      </trkpt>
      <trkpt lat="45.49107" lon="6.92194">
        <ele>1955.8</ele>
        <time>2020-01-10T07:53:40Z</time>
      </trkpt>
      <trkpt lat="45.49105" lon="6.92196">
        <ele>1955.8</ele>
        <time>2020-01-10T07:53:42Z</time>
      </trkpt>
      <trkpt lat="45.49103" lon="6.92198">
        <ele>1955.8</ele>
        <time>2020-01-10T07:53:45Z</time>
      </trkpt>
      <trkpt lat="45.49101" lon="6.92199">
        <ele>1955.8</ele>
        <time>2020-01-10T07:53:47Z</time>
      </trkpt>
      <trkpt lat="45.49099" lon="6.92202">
        <ele>1955.8</ele>
        <time>2020-01-10T07:53:50Z</time>
      </trkpt>
      <trkpt lat="45.49098" lon="6.92204">
        <ele>1955.8</ele>
        <time>2020-01-10T07:53:53Z</time>
      </trkpt>
      <trkpt lat="45.49096" lon="6.92207">
        <ele>1955.8</ele>
        <time>2020-01-10T07:53:55Z</time>
      </trkpt>
      <trkpt lat="45.49095" lon="6.92209">
        <ele>1955.8</ele>
        <time>2020-01-10T07:53:57Z</time>
      </trkpt>
      <trkpt lat="45.49094" lon="6.92212">
        <ele>1955.8</ele>
        <time>2020-01-10T07:53:59Z</time>
      </trkpt>
      <trkpt lat="45.49093" lon="6.92215">
        <ele>1955.8</ele>
        <time>2020-01-10T07:54:01Z</time>
      </trkpt>
      <trkpt lat="45.49091" lon="6.92217">
        <ele>1955.8</ele>
        <time>2020-01-10T07:54:03Z</time>
      </trkpt>
      <trkpt lat="45.4909" lon="6.9222">
        <ele>1955.8</ele>
        <time>2020-01-10T07:54:06Z</time>
      </trkpt>
      <trkpt lat="45.49088" lon="6.92223">
        <ele>1967.8</ele>
        <time>2020-01-10T07:54:08Z</time>
      </trkpt>
      <trkpt lat="45.49087" lon="6.92226">
        <ele>1967.8</ele>
        <time>2020-01-10T07:54:11Z</time>
      </trkpt>
      <trkpt lat="45.49086" lon="6.92228">
        <ele>1967.8</ele>
        <time>2020-01-10T07:54:13Z</time>
      </trkpt>
      <trkpt lat="45.49085" lon="6.9223">
        <ele>1967.8</ele>
        <time>2020-01-10T07:54:15Z</time>
      </trkpt>
      <trkpt lat="45.49083" lon="6.92233">
        <ele>1967.8</ele>
        <time>2020-01-10T07:54:17Z</time>
      </trkpt>
      <trkpt lat="45.49081" lon="6.92236">
        <ele>1967.8</ele>
        <time>2020-01-10T07:54:20Z</time>
      </trkpt>
      <trkpt lat="45.4908" lon="6.92237">
        <ele>1967.8</ele>
        <time>2020-01-10T07:54:21Z</time>
      </trkpt>
      <trkpt lat="45.49079" lon="6.92239">
        <ele>1967.8</ele>
        <time>2020-01-10T07:54:23Z</time>
      </trkpt>
      <trkpt lat="45.49077" lon="6.92242">
        <ele>1967.8</ele>
        <time>2020-01-10T07:54:26Z</time>
      </trkpt>
      <trkpt lat="45.49075" lon="6.92244">
        <ele>1972.2</ele>
        <time>2020-01-10T07:54:28Z</time>
      </trkpt>
      <trkpt lat="45.49074" lon="6.92246">
        <ele>1972.2</ele>
        <time>2020-01-10T07:54:31Z</time>
      </trkpt>
      <trkpt lat="45.49073" lon="6.92248">
        <ele>1972.2</ele>
        <time>2020-01-10T07:54:34Z</time>
      </trkpt>
      <trkpt lat="45.49071" lon="6.92252">
        <ele>1972.2</ele>
        <time>2020-01-10T07:54:37Z</time>
      </trkpt>
      <trkpt lat="45.49069" lon="6.92253">
        <ele>1972.2</ele>
        <time>2020-01-10T07:54:39Z</time>
      </trkpt>
      <trkpt lat="45.49067" lon="6.92254">
        <ele>1972.2</ele>
        <time>2020-01-10T07:54:42Z</time>
      </trkpt>
      <trkpt lat="45.49065" lon="6.92256">
        <ele>1972.2</ele>
        <time>2020-01-10T07:54:44Z</time>
      </trkpt>
      <trkpt lat="45.49063" lon="6.92257">
        <ele>1972.2</ele>
        <time>2020-01-10T07:54:46Z</time>
      </trkpt>
      <trkpt lat="45.49061" lon="6.92257">
        <ele>1975.2</ele>
        <time>2020-01-10T07:54:48Z</time>
      </trkpt>
      <trkpt lat="45.49059" lon="6.92256">
        <ele>1975.2</ele>
        <time>2020-01-10T07:54:50Z</time>
      </trkpt>
      <trkpt lat="45.49056" lon="6.92256">
        <ele>1975.2</ele>
        <time>2020-01-10T07:54:52Z</time>
      </trkpt>
      <trkpt lat="45.49054" lon="6.92256">
        <ele>1975.2</ele>
        <time>2020-01-10T07:54:54Z</time>
      </trkpt>
      <trkpt lat="45.49052" lon="6.92256">
        <ele>1975.2</ele>
        <time>2020-01-10T07:54:56Z</time>
      </trkpt>
      <trkpt lat="45.4905" lon="6.92255">
        <ele>1977</ele>
        <time>2020-01-10T07:54:58Z</time>
      </trkpt>
      <trkpt lat="45.49047" lon="6.92254">
        <ele>1977</ele>
        <time>2020-01-10T07:55:01Z</time>
      </trkpt>
      <trkpt lat="45.49045" lon="6.92253">
        <ele>1977</ele>
        <time>2020-01-10T07:55:03Z</time>
      </trkpt>
      <trkpt lat="45.49043" lon="6.92253">
        <ele>1977</ele>
        <time>2020-01-10T07:55:05Z</time>
      </trkpt>
      <trkpt lat="45.4904" lon="6.92252">
        <ele>1980.4</ele>
        <time>2020-01-10T07:55:08Z</time>
      </trkpt>
      <trkpt lat="45.49038" lon="6.9225">
        <ele>1980.4</ele>
        <time>2020-01-10T07:55:10Z</time>
      </trkpt>
      <trkpt lat="45.49036" lon="6.92247">
        <ele>1980.4</ele>
        <time>2020-01-10T07:55:12Z</time>
      </trkpt>
      <trkpt lat="45.49035" lon="6.92244">
        <ele>1980.4</ele>
        <time>2020-01-10T07:55:14Z</time>
      </trkpt>
      <trkpt lat="45.49035" lon="6.92241">
        <ele>1980.4</ele>
        <time>2020-01-10T07:55:16Z</time>
      </trkpt>
      <trkpt lat="45.49033" lon="6.92238">
        <ele>1983.8</ele>
        <time>2020-01-10T07:55:18Z</time>
      </trkpt>
      <trkpt lat="45.49032" lon="6.92234">
        <ele>1983.8</ele>
        <time>2020-01-10T07:55:20Z</time>
      </trkpt>
      <trkpt lat="45.49031" lon="6.9223">
        <ele>1983.8</ele>
        <time>2020-01-10T07:55:22Z</time>
      </trkpt>
      <trkpt lat="45.49031" lon="6.92226">
        <ele>1983.8</ele>
        <time>2020-01-10T07:55:24Z</time>
      </trkpt>
      <trkpt lat="45.49031" lon="6.92222">
        <ele>1983.8</ele>
        <time>2020-01-10T07:55:26Z</time>
      </trkpt>
      <trkpt lat="45.49031" lon="6.92219">
        <ele>1987.4</ele>
        <time>2020-01-10T07:55:28Z</time>
      </trkpt>
      <trkpt lat="45.49032" lon="6.92215">
        <ele>1987.4</ele>
        <time>2020-01-10T07:55:30Z</time>
      </trkpt>
      <trkpt lat="45.49033" lon="6.92212">
        <ele>1987.4</ele>
        <time>2020-01-10T07:55:32Z</time>
      </trkpt>
      <trkpt lat="45.49034" lon="6.92209">
        <ele>1987.4</ele>
        <time>2020-01-10T07:55:34Z</time>
      </trkpt>
      <trkpt lat="45.49035" lon="6.92206">
        <ele>1987.4</ele>
        <time>2020-01-10T07:55:36Z</time>
      </trkpt>
      <trkpt lat="45.49035" lon="6.92202">
        <ele>1987.4</ele>
        <time>2020-01-10T07:55:39Z</time>
      </trkpt>
      <trkpt lat="45.49036" lon="6.92198">
        <ele>1987.4</ele>
        <time>2020-01-10T07:55:42Z</time>
      </trkpt>
      <trkpt lat="45.49036" lon="6.92195">
        <ele>1987.4</ele>
        <time>2020-01-10T07:55:44Z</time>
      </trkpt>
      <trkpt lat="45.49037" lon="6.92192">
        <ele>1987.4</ele>
        <time>2020-01-10T07:55:46Z</time>
      </trkpt>
      <trkpt lat="45.49039" lon="6.92188">
        <ele>1987.4</ele>
        <time>2020-01-10T07:55:49Z</time>
      </trkpt>
      <trkpt lat="45.4904" lon="6.92184">
        <ele>1987.4</ele>
        <time>2020-01-10T07:55:51Z</time>
      </trkpt>
      <trkpt lat="45.49041" lon="6.92182">
        <ele>1987.4</ele>
        <time>2020-01-10T07:55:53Z</time>
      </trkpt>
      <trkpt lat="45.49042" lon="6.92179">
        <ele>1987.4</ele>
        <time>2020-01-10T07:55:55Z</time>
      </trkpt>
      <trkpt lat="45.49043" lon="6.92177">
        <ele>1987.4</ele>
        <time>2020-01-10T07:55:57Z</time>
      </trkpt>
      <trkpt lat="45.49044" lon="6.92174">
        <ele>1987.4</ele>
        <time>2020-01-10T07:55:59Z</time>
      </trkpt>
      <trkpt lat="45.49045" lon="6.92171">
        <ele>1987.4</ele>
        <time>2020-01-10T07:56:01Z</time>
      </trkpt>
      <trkpt lat="45.49046" lon="6.92169">
        <ele>1987.4</ele>
        <time>2020-01-10T07:56:03Z</time>
      </trkpt>
      <trkpt lat="45.49047" lon="6.92166">
        <ele>1987.4</ele>
        <time>2020-01-10T07:56:05Z</time>
      </trkpt>
      <trkpt lat="45.49048" lon="6.92164">
        <ele>1987.4</ele>
        <time>2020-01-10T07:56:07Z</time>
      </trkpt>
      <trkpt lat="45.49049" lon="6.92161">
        <ele>1987.4</ele>
        <time>2020-01-10T07:56:09Z</time>
      </trkpt>
      <trkpt lat="45.49051" lon="6.92158">
        <ele>1987.4</ele>
        <time>2020-01-10T07:56:11Z</time>
      </trkpt>
      <trkpt lat="45.49052" lon="6.92155">
        <ele>1987.4</ele>
        <time>2020-01-10T07:56:13Z</time>
      </trkpt>
      <trkpt lat="45.49054" lon="6.92146">
        <ele>1987.4</ele>
        <time>2020-01-10T07:56:20Z</time>
      </trkpt>
      <trkpt lat="45.49055" lon="6.92142">
        <ele>1987.4</ele>
        <time>2020-01-10T07:56:22Z</time>
      </trkpt>
      <trkpt lat="45.49056" lon="6.9214">
        <ele>1987.4</ele>
        <time>2020-01-10T07:56:24Z</time>
      </trkpt>
      <trkpt lat="45.49057" lon="6.92137">
        <ele>1987.4</ele>
        <time>2020-01-10T07:56:27Z</time>
      </trkpt>
      <trkpt lat="45.49057" lon="6.92133">
        <ele>1987.4</ele>
        <time>2020-01-10T07:56:29Z</time>
      </trkpt>
      <trkpt lat="45.49059" lon="6.9213">
        <ele>1987.4</ele>
        <time>2020-01-10T07:56:31Z</time>
      </trkpt>
      <trkpt lat="45.4906" lon="6.92127">
        <ele>1987.4</ele>
        <time>2020-01-10T07:56:33Z</time>
      </trkpt>
      <trkpt lat="45.49061" lon="6.92124">
        <ele>1987.4</ele>
        <time>2020-01-10T07:56:35Z</time>
      </trkpt>
      <trkpt lat="45.49066" lon="6.92114">
        <ele>1987.4</ele>
        <time>2020-01-10T07:56:42Z</time>
      </trkpt>
      <trkpt lat="45.49066" lon="6.92111">
        <ele>1987.4</ele>
        <time>2020-01-10T07:56:44Z</time>
      </trkpt>
      <trkpt lat="45.49067" lon="6.92108">
        <ele>1987.4</ele>
        <time>2020-01-10T07:56:46Z</time>
      </trkpt>
      <trkpt lat="45.49068" lon="6.92104">
        <ele>2017.8</ele>
        <time>2020-01-10T07:56:48Z</time>
      </trkpt>
      <trkpt lat="45.49069" lon="6.92102">
        <ele>2017.8</ele>
        <time>2020-01-10T07:56:50Z</time>
      </trkpt>
      <trkpt lat="45.49069" lon="6.92099">
        <ele>2017.8</ele>
        <time>2020-01-10T07:56:52Z</time>
      </trkpt>
      <trkpt lat="45.4907" lon="6.92096">
        <ele>2017.8</ele>
        <time>2020-01-10T07:56:54Z</time>
      </trkpt>
      <trkpt lat="45.4907" lon="6.92093">
        <ele>2017.8</ele>
        <time>2020-01-10T07:56:56Z</time>
      </trkpt>
      <trkpt lat="45.49072" lon="6.9209">
        <ele>2021.6</ele>
        <time>2020-01-10T07:56:58Z</time>
      </trkpt>
      <trkpt lat="45.49072" lon="6.92087">
        <ele>2021.6</ele>
        <time>2020-01-10T07:57:00Z</time>
      </trkpt>
      <trkpt lat="45.49073" lon="6.92083">
        <ele>2021.6</ele>
        <time>2020-01-10T07:57:02Z</time>
      </trkpt>
      <trkpt lat="45.49073" lon="6.9208">
        <ele>2021.6</ele>
        <time>2020-01-10T07:57:04Z</time>
      </trkpt>
      <trkpt lat="45.49074" lon="6.92078">
        <ele>2021.6</ele>
        <time>2020-01-10T07:57:06Z</time>
      </trkpt>
      <trkpt lat="45.49075" lon="6.92075">
        <ele>2025.8</ele>
        <time>2020-01-10T07:57:08Z</time>
      </trkpt>
      <trkpt lat="45.49076" lon="6.92073">
        <ele>2025.8</ele>
        <time>2020-01-10T07:57:10Z</time>
      </trkpt>
      <trkpt lat="45.49077" lon="6.9207">
        <ele>2025.8</ele>
        <time>2020-01-10T07:57:12Z</time>
      </trkpt>
      <trkpt lat="45.49078" lon="6.92067">
        <ele>2025.8</ele>
        <time>2020-01-10T07:57:14Z</time>
      </trkpt>
      <trkpt lat="45.49079" lon="6.92064">
        <ele>2025.8</ele>
        <time>2020-01-10T07:57:16Z</time>
      </trkpt>
      <trkpt lat="45.4908" lon="6.9206">
        <ele>2028.6</ele>
        <time>2020-01-10T07:57:18Z</time>
      </trkpt>
      <trkpt lat="45.49082" lon="6.92057">
        <ele>2028.6</ele>
        <time>2020-01-10T07:57:21Z</time>
      </trkpt>
      <trkpt lat="45.49083" lon="6.92054">
        <ele>2028.6</ele>
        <time>2020-01-10T07:57:23Z</time>
      </trkpt>
      <trkpt lat="45.49085" lon="6.92052">
        <ele>2028.6</ele>
        <time>2020-01-10T07:57:25Z</time>
      </trkpt>
      <trkpt lat="45.49087" lon="6.9205">
        <ele>2028.6</ele>
        <time>2020-01-10T07:57:27Z</time>
      </trkpt>
      <trkpt lat="45.49089" lon="6.92047">
        <ele>2028.6</ele>
        <time>2020-01-10T07:57:29Z</time>
      </trkpt>
      <trkpt lat="45.49091" lon="6.92044">
        <ele>2028.6</ele>
        <time>2020-01-10T07:57:31Z</time>
      </trkpt>
      <trkpt lat="45.49093" lon="6.92042">
        <ele>2028.6</ele>
        <time>2020-01-10T07:57:33Z</time>
      </trkpt>
      <trkpt lat="45.49098" lon="6.92036">
        <ele>2028.6</ele>
        <time>2020-01-10T07:57:39Z</time>
      </trkpt>
      <trkpt lat="45.49101" lon="6.92034">
        <ele>2028.6</ele>
        <time>2020-01-10T07:57:41Z</time>
      </trkpt>
      <trkpt lat="45.49103" lon="6.92033">
        <ele>2028.6</ele>
        <time>2020-01-10T07:57:42Z</time>
      </trkpt>
      <trkpt lat="45.49105" lon="6.92031">
        <ele>2028.6</ele>
        <time>2020-01-10T07:57:43Z</time>
      </trkpt>
      <trkpt lat="45.49113" lon="6.92024">
        <ele>2028.6</ele>
        <time>2020-01-10T07:57:50Z</time>
      </trkpt>
      <trkpt lat="45.49121" lon="6.92018">
        <ele>2036.4</ele>
        <time>2020-01-10T07:57:58Z</time>
      </trkpt>
      <trkpt lat="45.49129" lon="6.92013">
        <ele>2036.4</ele>
        <time>2020-01-10T07:58:07Z</time>
      </trkpt>
      <trkpt lat="45.49132" lon="6.92012">
        <ele>2036.4</ele>
        <time>2020-01-10T07:58:09Z</time>
      </trkpt>
      <trkpt lat="45.49135" lon="6.92012">
        <ele>2036.4</ele>
        <time>2020-01-10T07:58:11Z</time>
      </trkpt>
      <trkpt lat="45.49138" lon="6.9201">
        <ele>2036.4</ele>
        <time>2020-01-10T07:58:13Z</time>
      </trkpt>
      <trkpt lat="45.4914" lon="6.92009">
        <ele>2036.4</ele>
        <time>2020-01-10T07:58:15Z</time>
      </trkpt>
      <trkpt lat="45.49142" lon="6.92009">
        <ele>2036.4</ele>
        <time>2020-01-10T07:58:16Z</time>
      </trkpt>
      <trkpt lat="45.49144" lon="6.92009">
        <ele>2036.4</ele>
        <time>2020-01-10T07:58:17Z</time>
      </trkpt>
      <trkpt lat="45.49147" lon="6.92009">
        <ele>2036.4</ele>
        <time>2020-01-10T07:58:19Z</time>
      </trkpt>
      <trkpt lat="45.49149" lon="6.92008">
        <ele>2036.4</ele>
        <time>2020-01-10T07:58:21Z</time>
      </trkpt>
      <trkpt lat="45.49152" lon="6.92008">
        <ele>2036.4</ele>
        <time>2020-01-10T07:58:23Z</time>
      </trkpt>
      <trkpt lat="45.49154" lon="6.92006">
        <ele>2036.4</ele>
        <time>2020-01-10T07:58:25Z</time>
      </trkpt>
      <trkpt lat="45.49157" lon="6.92006">
        <ele>2036.4</ele>
        <time>2020-01-10T07:58:27Z</time>
      </trkpt>
      <trkpt lat="45.49159" lon="6.92004">
        <ele>2036.4</ele>
        <time>2020-01-10T07:58:29Z</time>
      </trkpt>
      <trkpt lat="45.49163" lon="6.91999">
        <ele>2036.4</ele>
        <time>2020-01-10T07:58:34Z</time>
      </trkpt>
      <trkpt lat="45.49164" lon="6.91997">
        <ele>2036.4</ele>
        <time>2020-01-10T07:58:36Z</time>
      </trkpt>
      <trkpt lat="45.49166" lon="6.91995">
        <ele>2048.8</ele>
        <time>2020-01-10T07:58:38Z</time>
      </trkpt>
      <trkpt lat="45.49168" lon="6.91993">
        <ele>2048.8</ele>
        <time>2020-01-10T07:58:40Z</time>
      </trkpt>
      <trkpt lat="45.49169" lon="6.9199">
        <ele>2048.8</ele>
        <time>2020-01-10T07:58:42Z</time>
      </trkpt>
      <trkpt lat="45.49171" lon="6.91988">
        <ele>2048.8</ele>
        <time>2020-01-10T07:58:44Z</time>
      </trkpt>
      <trkpt lat="45.49172" lon="6.91985">
        <ele>2048.8</ele>
        <time>2020-01-10T07:58:46Z</time>
      </trkpt>
      <trkpt lat="45.49174" lon="6.91984">
        <ele>2051.8</ele>
        <time>2020-01-10T07:58:48Z</time>
      </trkpt>
      <trkpt lat="45.49176" lon="6.91982">
        <ele>2051.8</ele>
        <time>2020-01-10T07:58:50Z</time>
      </trkpt>
      <trkpt lat="45.49178" lon="6.91981">
        <ele>2051.8</ele>
        <time>2020-01-10T07:58:52Z</time>
      </trkpt>
      <trkpt lat="45.4918" lon="6.91979">
        <ele>2051.8</ele>
        <time>2020-01-10T07:58:54Z</time>
      </trkpt>
      <trkpt lat="45.49182" lon="6.91977">
        <ele>2051.8</ele>
        <time>2020-01-10T07:58:56Z</time>
      </trkpt>
      <trkpt lat="45.49184" lon="6.91975">
        <ele>2055.4</ele>
        <time>2020-01-10T07:58:58Z</time>
      </trkpt>
      <trkpt lat="45.49186" lon="6.91973">
        <ele>2055.4</ele>
        <time>2020-01-10T07:59:00Z</time>
      </trkpt>
      <trkpt lat="45.49187" lon="6.91971">
        <ele>2055.4</ele>
        <time>2020-01-10T07:59:02Z</time>
      </trkpt>
      <trkpt lat="45.49189" lon="6.9197">
        <ele>2055.4</ele>
        <time>2020-01-10T07:59:04Z</time>
      </trkpt>
      <trkpt lat="45.49191" lon="6.91967">
        <ele>2055.4</ele>
        <time>2020-01-10T07:59:06Z</time>
      </trkpt>
      <trkpt lat="45.49193" lon="6.91965">
        <ele>2059.2</ele>
        <time>2020-01-10T07:59:08Z</time>
      </trkpt>
      <trkpt lat="45.49195" lon="6.91964">
        <ele>2059.2</ele>
        <time>2020-01-10T07:59:10Z</time>
      </trkpt>
      <trkpt lat="45.49197" lon="6.91962">
        <ele>2059.2</ele>
        <time>2020-01-10T07:59:12Z</time>
      </trkpt>
      <trkpt lat="45.492" lon="6.9196">
        <ele>2059.2</ele>
        <time>2020-01-10T07:59:14Z</time>
      </trkpt>
      <trkpt lat="45.49201" lon="6.91958">
        <ele>2059.2</ele>
        <time>2020-01-10T07:59:16Z</time>
      </trkpt>
      <trkpt lat="45.49203" lon="6.91956">
        <ele>2062.4</ele>
        <time>2020-01-10T07:59:18Z</time>
      </trkpt>
      <trkpt lat="45.49205" lon="6.91954">
        <ele>2062.4</ele>
        <time>2020-01-10T07:59:21Z</time>
      </trkpt>
      <trkpt lat="45.49207" lon="6.91952">
        <ele>2062.4</ele>
        <time>2020-01-10T07:59:23Z</time>
      </trkpt>
      <trkpt lat="45.49209" lon="6.9195">
        <ele>2062.4</ele>
        <time>2020-01-10T07:59:25Z</time>
      </trkpt>
      <trkpt lat="45.49211" lon="6.91948">
        <ele>2062.4</ele>
        <time>2020-01-10T07:59:27Z</time>
      </trkpt>
      <trkpt lat="45.49213" lon="6.91946">
        <ele>2062.4</ele>
        <time>2020-01-10T07:59:29Z</time>
      </trkpt>
      <trkpt lat="45.49214" lon="6.91944">
        <ele>2062.4</ele>
        <time>2020-01-10T07:59:31Z</time>
      </trkpt>
      <trkpt lat="45.49216" lon="6.91942">
        <ele>2062.4</ele>
        <time>2020-01-10T07:59:33Z</time>
      </trkpt>
      <trkpt lat="45.49219" lon="6.9194">
        <ele>2062.4</ele>
        <time>2020-01-10T07:59:35Z</time>
      </trkpt>
      <trkpt lat="45.49221" lon="6.91938">
        <ele>2062.4</ele>
        <time>2020-01-10T07:59:37Z</time>
      </trkpt>
      <trkpt lat="45.49223" lon="6.91935">
        <ele>2062.4</ele>
        <time>2020-01-10T07:59:39Z</time>
      </trkpt>
      <trkpt lat="45.49225" lon="6.91933">
        <ele>2062.4</ele>
        <time>2020-01-10T07:59:40Z</time>
      </trkpt>
      <trkpt lat="45.49226" lon="6.9193">
        <ele>2062.4</ele>
        <time>2020-01-10T07:59:42Z</time>
      </trkpt>
      <trkpt lat="45.49228" lon="6.91928">
        <ele>2062.4</ele>
        <time>2020-01-10T07:59:44Z</time>
      </trkpt>
      <trkpt lat="45.4923" lon="6.91924">
        <ele>2062.4</ele>
        <time>2020-01-10T07:59:46Z</time>
      </trkpt>
      <trkpt lat="45.49231" lon="6.91923">
        <ele>2062.4</ele>
        <time>2020-01-10T07:59:47Z</time>
      </trkpt>
      <trkpt lat="45.49234" lon="6.91921">
        <ele>2062.4</ele>
        <time>2020-01-10T07:59:49Z</time>
      </trkpt>
      <trkpt lat="45.49237" lon="6.91918">
        <ele>2062.4</ele>
        <time>2020-01-10T07:59:51Z</time>
      </trkpt>
      <trkpt lat="45.49239" lon="6.91914">
        <ele>2062.4</ele>
        <time>2020-01-10T07:59:53Z</time>
      </trkpt>
      <trkpt lat="45.49241" lon="6.91911">
        <ele>2062.4</ele>
        <time>2020-01-10T07:59:55Z</time>
      </trkpt>
      <trkpt lat="45.49243" lon="6.91908">
        <ele>2062.4</ele>
        <time>2020-01-10T07:59:57Z</time>
      </trkpt>
      <trkpt lat="45.49245" lon="6.91906">
        <ele>2062.4</ele>
        <time>2020-01-10T07:59:59Z</time>
      </trkpt>
      <trkpt lat="45.49246" lon="6.91902">
        <ele>2062.4</ele>
        <time>2020-01-10T08:00:01Z</time>
      </trkpt>
      <trkpt lat="45.49247" lon="6.919">
        <ele>2062.4</ele>
        <time>2020-01-10T08:00:02Z</time>
      </trkpt>
      <trkpt lat="45.49249" lon="6.91899">
        <ele>2062.4</ele>
        <time>2020-01-10T08:00:03Z</time>
      </trkpt>
      <trkpt lat="45.49251" lon="6.91895">
        <ele>2062.4</ele>
        <time>2020-01-10T08:00:05Z</time>
      </trkpt>
      <trkpt lat="45.49253" lon="6.91892">
        <ele>2062.4</ele>
        <time>2020-01-10T08:00:07Z</time>
      </trkpt>
      <trkpt lat="45.49254" lon="6.9189">
        <ele>2074</ele>
        <time>2020-01-10T08:00:08Z</time>
      </trkpt>
      <trkpt lat="45.49256" lon="6.91888">
        <ele>2074</ele>
        <time>2020-01-10T08:00:09Z</time>
      </trkpt>
      <trkpt lat="45.49258" lon="6.91886">
        <ele>2074</ele>
        <time>2020-01-10T08:00:11Z</time>
      </trkpt>
      <trkpt lat="45.4926" lon="6.91883">
        <ele>2074</ele>
        <time>2020-01-10T08:00:13Z</time>
      </trkpt>
      <trkpt lat="45.49262" lon="6.9188">
        <ele>2074</ele>
        <time>2020-01-10T08:00:15Z</time>
      </trkpt>
      <trkpt lat="45.49263" lon="6.91878">
        <ele>2074</ele>
        <time>2020-01-10T08:00:16Z</time>
      </trkpt>
      <trkpt lat="45.49265" lon="6.91876">
        <ele>2076</ele>
        <time>2020-01-10T08:00:18Z</time>
      </trkpt>
      <trkpt lat="45.49267" lon="6.91872">
        <ele>2076</ele>
        <time>2020-01-10T08:00:20Z</time>
      </trkpt>
      <trkpt lat="45.49268" lon="6.9187">
        <ele>2076</ele>
        <time>2020-01-10T08:00:21Z</time>
      </trkpt>
      <trkpt lat="45.4927" lon="6.91867">
        <ele>2076</ele>
        <time>2020-01-10T08:00:23Z</time>
      </trkpt>
      <trkpt lat="45.49273" lon="6.91865">
        <ele>2076</ele>
        <time>2020-01-10T08:00:25Z</time>
      </trkpt>
      <trkpt lat="45.49275" lon="6.91862">
        <ele>2076</ele>
        <time>2020-01-10T08:00:27Z</time>
      </trkpt>
      <trkpt lat="45.49277" lon="6.91859">
        <ele>2076</ele>
        <time>2020-01-10T08:00:29Z</time>
      </trkpt>
      <trkpt lat="45.49279" lon="6.91856">
        <ele>2076</ele>
        <time>2020-01-10T08:00:31Z</time>
      </trkpt>
      <trkpt lat="45.49281" lon="6.91853">
        <ele>2076</ele>
        <time>2020-01-10T08:00:33Z</time>
      </trkpt>
      <trkpt lat="45.49283" lon="6.9185">
        <ele>2076</ele>
        <time>2020-01-10T08:00:35Z</time>
      </trkpt>
      <trkpt lat="45.49285" lon="6.91847">
        <ele>2076</ele>
        <time>2020-01-10T08:00:37Z</time>
      </trkpt>
      <trkpt lat="45.49287" lon="6.91844">
        <ele>2076</ele>
        <time>2020-01-10T08:00:39Z</time>
      </trkpt>
      <trkpt lat="45.49289" lon="6.91841">
        <ele>2076</ele>
        <time>2020-01-10T08:00:41Z</time>
      </trkpt>
      <trkpt lat="45.49291" lon="6.91838">
        <ele>2076</ele>
        <time>2020-01-10T08:00:43Z</time>
      </trkpt>
      <trkpt lat="45.49292" lon="6.91835">
        <ele>2076</ele>
        <time>2020-01-10T08:00:44Z</time>
      </trkpt>
      <trkpt lat="45.49294" lon="6.91832">
        <ele>2076</ele>
        <time>2020-01-10T08:00:46Z</time>
      </trkpt>
      <trkpt lat="45.49296" lon="6.91829">
        <ele>2081.4</ele>
        <time>2020-01-10T08:00:48Z</time>
      </trkpt>
      <trkpt lat="45.49297" lon="6.91826">
        <ele>2081.4</ele>
        <time>2020-01-10T08:00:50Z</time>
      </trkpt>
      <trkpt lat="45.49299" lon="6.91823">
        <ele>2081.4</ele>
        <time>2020-01-10T08:00:52Z</time>
      </trkpt>
      <trkpt lat="45.493" lon="6.91818">
        <ele>2081.4</ele>
        <time>2020-01-10T08:00:54Z</time>
      </trkpt>
      <trkpt lat="45.49302" lon="6.91815">
        <ele>2081.4</ele>
        <time>2020-01-10T08:00:56Z</time>
      </trkpt>
      <trkpt lat="45.49304" lon="6.91812">
        <ele>2083.4</ele>
        <time>2020-01-10T08:00:58Z</time>
      </trkpt>
      <trkpt lat="45.49305" lon="6.91809">
        <ele>2083.4</ele>
        <time>2020-01-10T08:01:00Z</time>
      </trkpt>
      <trkpt lat="45.49307" lon="6.91806">
        <ele>2083.4</ele>
        <time>2020-01-10T08:01:02Z</time>
      </trkpt>
      <trkpt lat="45.49308" lon="6.91803">
        <ele>2083.4</ele>
        <time>2020-01-10T08:01:03Z</time>
      </trkpt>
      <trkpt lat="45.4931" lon="6.918">
        <ele>2083.4</ele>
        <time>2020-01-10T08:01:05Z</time>
      </trkpt>
      <trkpt lat="45.49311" lon="6.91796">
        <ele>2083.4</ele>
        <time>2020-01-10T08:01:07Z</time>
      </trkpt>
      <trkpt lat="45.49313" lon="6.91794">
        <ele>2086.2</ele>
        <time>2020-01-10T08:01:08Z</time>
      </trkpt>
      <trkpt lat="45.49315" lon="6.91791">
        <ele>2086.2</ele>
        <time>2020-01-10T08:01:10Z</time>
      </trkpt>
      <trkpt lat="45.49316" lon="6.91788">
        <ele>2086.2</ele>
        <time>2020-01-10T08:01:12Z</time>
      </trkpt>
      <trkpt lat="45.49317" lon="6.91784">
        <ele>2086.2</ele>
        <time>2020-01-10T08:01:14Z</time>
      </trkpt>
      <trkpt lat="45.49319" lon="6.9178">
        <ele>2086.2</ele>
        <time>2020-01-10T08:01:16Z</time>
      </trkpt>
      <trkpt lat="45.4932" lon="6.91777">
        <ele>2087.4</ele>
        <time>2020-01-10T08:01:18Z</time>
      </trkpt>
      <trkpt lat="45.49321" lon="6.91773">
        <ele>2087.4</ele>
        <time>2020-01-10T08:01:20Z</time>
      </trkpt>
      <trkpt lat="45.49322" lon="6.91769">
        <ele>2087.4</ele>
        <time>2020-01-10T08:01:22Z</time>
      </trkpt>
      <trkpt lat="45.49323" lon="6.91767">
        <ele>2087.4</ele>
        <time>2020-01-10T08:01:23Z</time>
      </trkpt>
      <trkpt lat="45.49324" lon="6.91763">
        <ele>2087.4</ele>
        <time>2020-01-10T08:01:25Z</time>
      </trkpt>
      <trkpt lat="45.49324" lon="6.9176">
        <ele>2087.4</ele>
        <time>2020-01-10T08:01:27Z</time>
      </trkpt>
      <trkpt lat="45.49325" lon="6.91756">
        <ele>2087.4</ele>
        <time>2020-01-10T08:01:29Z</time>
      </trkpt>
      <trkpt lat="45.49325" lon="6.91753">
        <ele>2087.4</ele>
        <time>2020-01-10T08:01:31Z</time>
      </trkpt>
      <trkpt lat="45.49326" lon="6.9175">
        <ele>2087.4</ele>
        <time>2020-01-10T08:01:33Z</time>
      </trkpt>
      <trkpt lat="45.49326" lon="6.91747">
        <ele>2087.4</ele>
        <time>2020-01-10T08:01:35Z</time>
      </trkpt>
      <trkpt lat="45.49327" lon="6.91744">
        <ele>2087.4</ele>
        <time>2020-01-10T08:01:37Z</time>
      </trkpt>
      <trkpt lat="45.49328" lon="6.9174">
        <ele>2087.4</ele>
        <time>2020-01-10T08:01:40Z</time>
      </trkpt>
      <trkpt lat="45.49329" lon="6.91737">
        <ele>2087.4</ele>
        <time>2020-01-10T08:01:42Z</time>
      </trkpt>
      <trkpt lat="45.49329" lon="6.91734">
        <ele>2087.4</ele>
        <time>2020-01-10T08:01:44Z</time>
      </trkpt>
      <trkpt lat="45.4933" lon="6.91731">
        <ele>2087.4</ele>
        <time>2020-01-10T08:01:46Z</time>
      </trkpt>
      <trkpt lat="45.49331" lon="6.91728">
        <ele>2087.2</ele>
        <time>2020-01-10T08:01:48Z</time>
      </trkpt>
      <trkpt lat="45.49332" lon="6.91726">
        <ele>2087.2</ele>
        <time>2020-01-10T08:01:50Z</time>
      </trkpt>
      <trkpt lat="45.49332" lon="6.91722">
        <ele>2087.2</ele>
        <time>2020-01-10T08:01:52Z</time>
      </trkpt>
      <trkpt lat="45.49333" lon="6.91719">
        <ele>2087.2</ele>
        <time>2020-01-10T08:01:54Z</time>
      </trkpt>
      <trkpt lat="45.49334" lon="6.91716">
        <ele>2087.2</ele>
        <time>2020-01-10T08:01:56Z</time>
      </trkpt>
      <trkpt lat="45.49335" lon="6.91713">
        <ele>2089</ele>
        <time>2020-01-10T08:01:58Z</time>
      </trkpt>
      <trkpt lat="45.49336" lon="6.9171">
        <ele>2089</ele>
        <time>2020-01-10T08:02:00Z</time>
      </trkpt>
      <trkpt lat="45.49336" lon="6.91707">
        <ele>2089</ele>
        <time>2020-01-10T08:02:02Z</time>
      </trkpt>
      <trkpt lat="45.49338" lon="6.91703">
        <ele>2089</ele>
        <time>2020-01-10T08:02:04Z</time>
      </trkpt>
      <trkpt lat="45.49339" lon="6.91701">
        <ele>2089</ele>
        <time>2020-01-10T08:02:06Z</time>
      </trkpt>
      <trkpt lat="45.49341" lon="6.91698">
        <ele>2092.6</ele>
        <time>2020-01-10T08:02:08Z</time>
      </trkpt>
      <trkpt lat="45.49342" lon="6.91694">
        <ele>2092.6</ele>
        <time>2020-01-10T08:02:11Z</time>
      </trkpt>
      <trkpt lat="45.49343" lon="6.91692">
        <ele>2092.6</ele>
        <time>2020-01-10T08:02:12Z</time>
      </trkpt>
      <trkpt lat="45.49342" lon="6.91689">
        <ele>2092.6</ele>
        <time>2020-01-10T08:02:15Z</time>
      </trkpt>
      <trkpt lat="45.49342" lon="6.91686">
        <ele>2092.6</ele>
        <time>2020-01-10T08:02:17Z</time>
      </trkpt>
      <trkpt lat="45.49341" lon="6.91684">
        <ele>2092.6</ele>
        <time>2020-01-10T08:02:19Z</time>
      </trkpt>
      <trkpt lat="45.49341" lon="6.91681">
        <ele>2092.6</ele>
        <time>2020-01-10T08:02:21Z</time>
      </trkpt>
      <trkpt lat="45.4934" lon="6.91678">
        <ele>2092.6</ele>
        <time>2020-01-10T08:02:23Z</time>
      </trkpt>
      <trkpt lat="45.4934" lon="6.91675">
        <ele>2092.6</ele>
        <time>2020-01-10T08:02:25Z</time>
      </trkpt>
      <trkpt lat="45.4934" lon="6.91671">
        <ele>2098.4</ele>
        <time>2020-01-10T08:02:28Z</time>
      </trkpt>
      <trkpt lat="45.49341" lon="6.91668">
        <ele>2098.4</ele>
        <time>2020-01-10T08:02:30Z</time>
      </trkpt>
      <trkpt lat="45.49342" lon="6.91666">
        <ele>2098.4</ele>
        <time>2020-01-10T08:02:32Z</time>
      </trkpt>
      <trkpt lat="45.49343" lon="6.91664">
        <ele>2098.4</ele>
        <time>2020-01-10T08:02:34Z</time>
      </trkpt>
      <trkpt lat="45.49345" lon="6.91662">
        <ele>2098.4</ele>
        <time>2020-01-10T08:02:36Z</time>
      </trkpt>
      <trkpt lat="45.49347" lon="6.91658">
        <ele>2098.4</ele>
        <time>2020-01-10T08:02:39Z</time>
      </trkpt>
      <trkpt lat="45.49348" lon="6.91654">
        <ele>2098.4</ele>
        <time>2020-01-10T08:02:41Z</time>
      </trkpt>
      <trkpt lat="45.49349" lon="6.91652">
        <ele>2098.4</ele>
        <time>2020-01-10T08:02:43Z</time>
      </trkpt>
      <trkpt lat="45.49349" lon="6.91649">
        <ele>2098.4</ele>
        <time>2020-01-10T08:02:45Z</time>
      </trkpt>
      <trkpt lat="45.4935" lon="6.91646">
        <ele>2098.4</ele>
        <time>2020-01-10T08:02:47Z</time>
      </trkpt>
      <trkpt lat="45.4935" lon="6.91643">
        <ele>2098.4</ele>
        <time>2020-01-10T08:02:49Z</time>
      </trkpt>
      <trkpt lat="45.49351" lon="6.9164">
        <ele>2098.4</ele>
        <time>2020-01-10T08:02:52Z</time>
      </trkpt>
      <trkpt lat="45.49353" lon="6.91638">
        <ele>2098.4</ele>
        <time>2020-01-10T08:02:54Z</time>
      </trkpt>
      <trkpt lat="45.49353" lon="6.91635">
        <ele>2098.4</ele>
        <time>2020-01-10T08:02:56Z</time>
      </trkpt>
      <trkpt lat="45.49354" lon="6.91631">
        <ele>2098.4</ele>
        <time>2020-01-10T08:02:59Z</time>
      </trkpt>
      <trkpt lat="45.49356" lon="6.91628">
        <ele>2098.4</ele>
        <time>2020-01-10T08:03:02Z</time>
      </trkpt>
      <trkpt lat="45.49356" lon="6.91625">
        <ele>2098.4</ele>
        <time>2020-01-10T08:03:04Z</time>
      </trkpt>
      <trkpt lat="45.49356" lon="6.91622">
        <ele>2098.4</ele>
        <time>2020-01-10T08:03:06Z</time>
      </trkpt>
      <trkpt lat="45.49357" lon="6.91619">
        <ele>2110.8</ele>
        <time>2020-01-10T08:03:08Z</time>
      </trkpt>
      <trkpt lat="45.49356" lon="6.91617">
        <ele>2110.8</ele>
        <time>2020-01-10T08:03:10Z</time>
      </trkpt>
      <trkpt lat="45.49356" lon="6.91614">
        <ele>2110.8</ele>
        <time>2020-01-10T08:03:12Z</time>
      </trkpt>
      <trkpt lat="45.49356" lon="6.91611">
        <ele>2110.8</ele>
        <time>2020-01-10T08:03:14Z</time>
      </trkpt>
      <trkpt lat="45.49355" lon="6.91607">
        <ele>2110.8</ele>
        <time>2020-01-10T08:03:17Z</time>
      </trkpt>
      <trkpt lat="45.49355" lon="6.91604">
        <ele>2110.8</ele>
        <time>2020-01-10T08:03:19Z</time>
      </trkpt>
      <trkpt lat="45.49354" lon="6.91601">
        <ele>2110.8</ele>
        <time>2020-01-10T08:03:21Z</time>
      </trkpt>
      <trkpt lat="45.49353" lon="6.91598">
        <ele>2110.8</ele>
        <time>2020-01-10T08:03:23Z</time>
      </trkpt>
      <trkpt lat="45.49353" lon="6.91595">
        <ele>2110.8</ele>
        <time>2020-01-10T08:03:25Z</time>
      </trkpt>
      <trkpt lat="45.49351" lon="6.91593">
        <ele>2110.8</ele>
        <time>2020-01-10T08:03:27Z</time>
      </trkpt>
      <trkpt lat="45.49349" lon="6.9159">
        <ele>2110.8</ele>
        <time>2020-01-10T08:03:30Z</time>
      </trkpt>
      <trkpt lat="45.49347" lon="6.91588">
        <ele>2110.8</ele>
        <time>2020-01-10T08:03:33Z</time>
      </trkpt>
      <trkpt lat="45.49345" lon="6.91588">
        <ele>2110.8</ele>
        <time>2020-01-10T08:03:35Z</time>
      </trkpt>
      <trkpt lat="45.49343" lon="6.91586">
        <ele>2110.8</ele>
        <time>2020-01-10T08:03:37Z</time>
      </trkpt>
      <trkpt lat="45.49341" lon="6.91586">
        <ele>2110.8</ele>
        <time>2020-01-10T08:03:40Z</time>
      </trkpt>
      <trkpt lat="45.49339" lon="6.91584">
        <ele>2110.8</ele>
        <time>2020-01-10T08:03:42Z</time>
      </trkpt>
      <trkpt lat="45.49337" lon="6.91582">
        <ele>2110.8</ele>
        <time>2020-01-10T08:03:45Z</time>
      </trkpt>
      <trkpt lat="45.49334" lon="6.91581">
        <ele>2116</ele>
        <time>2020-01-10T08:03:48Z</time>
      </trkpt>
      <trkpt lat="45.49332" lon="6.91579">
        <ele>2116</ele>
        <time>2020-01-10T08:03:51Z</time>
      </trkpt>
      <trkpt lat="45.49331" lon="6.91578">
        <ele>2116</ele>
        <time>2020-01-10T08:03:53Z</time>
      </trkpt>
      <trkpt lat="45.49329" lon="6.91577">
        <ele>2116</ele>
        <time>2020-01-10T08:03:55Z</time>
      </trkpt>
      <trkpt lat="45.49326" lon="6.91576">
        <ele>2116.6</ele>
        <time>2020-01-10T08:03:58Z</time>
      </trkpt>
      <trkpt lat="45.49324" lon="6.91575">
        <ele>2116.6</ele>
        <time>2020-01-10T08:04:00Z</time>
      </trkpt>
      <trkpt lat="45.49322" lon="6.91574">
        <ele>2116.6</ele>
        <time>2020-01-10T08:04:02Z</time>
      </trkpt>
      <trkpt lat="45.4932" lon="6.91574">
        <ele>2116.6</ele>
        <time>2020-01-10T08:04:03Z</time>
      </trkpt>
      <trkpt lat="45.49318" lon="6.91572">
        <ele>2116.6</ele>
        <time>2020-01-10T08:04:06Z</time>
      </trkpt>
      <trkpt lat="45.49316" lon="6.91571">
        <ele>2116.8</ele>
        <time>2020-01-10T08:04:08Z</time>
      </trkpt>
      <trkpt lat="45.49314" lon="6.91569">
        <ele>2116.8</ele>
        <time>2020-01-10T08:04:11Z</time>
      </trkpt>
      <trkpt lat="45.49312" lon="6.91567">
        <ele>2116.8</ele>
        <time>2020-01-10T08:04:13Z</time>
      </trkpt>
      <trkpt lat="45.4931" lon="6.91566">
        <ele>2116.8</ele>
        <time>2020-01-10T08:04:15Z</time>
      </trkpt>
      <trkpt lat="45.49308" lon="6.91565">
        <ele>2116.8</ele>
        <time>2020-01-10T08:04:17Z</time>
      </trkpt>
      <trkpt lat="45.49306" lon="6.91564">
        <ele>2116.8</ele>
        <time>2020-01-10T08:04:20Z</time>
      </trkpt>
      <trkpt lat="45.49304" lon="6.91562">
        <ele>2116.8</ele>
        <time>2020-01-10T08:04:23Z</time>
      </trkpt>
      <trkpt lat="45.49302" lon="6.91562">
        <ele>2116.8</ele>
        <time>2020-01-10T08:04:25Z</time>
      </trkpt>
      <trkpt lat="45.49299" lon="6.9156">
        <ele>2118.2</ele>
        <time>2020-01-10T08:04:28Z</time>
      </trkpt>
      <trkpt lat="45.49298" lon="6.91558">
        <ele>2118.2</ele>
        <time>2020-01-10T08:04:30Z</time>
      </trkpt>
      <trkpt lat="45.49296" lon="6.91556">
        <ele>2118.2</ele>
        <time>2020-01-10T08:04:32Z</time>
      </trkpt>
      <trkpt lat="45.49294" lon="6.91555">
        <ele>2118.2</ele>
        <time>2020-01-10T08:04:34Z</time>
      </trkpt>
      <trkpt lat="45.49292" lon="6.91553">
        <ele>2118.2</ele>
        <time>2020-01-10T08:04:37Z</time>
      </trkpt>
      <trkpt lat="45.49289" lon="6.91552">
        <ele>2118.2</ele>
        <time>2020-01-10T08:04:41Z</time>
      </trkpt>
      <trkpt lat="45.49287" lon="6.91551">
        <ele>2118.2</ele>
        <time>2020-01-10T08:04:43Z</time>
      </trkpt>
      <trkpt lat="45.49285" lon="6.9155">
        <ele>2118.2</ele>
        <time>2020-01-10T08:04:45Z</time>
      </trkpt>
      <trkpt lat="45.49284" lon="6.91549">
        <ele>2118.2</ele>
        <time>2020-01-10T08:04:47Z</time>
      </trkpt>
      <trkpt lat="45.49282" lon="6.91547">
        <ele>2118.2</ele>
        <time>2020-01-10T08:04:49Z</time>
      </trkpt>
      <trkpt lat="45.49279" lon="6.91545">
        <ele>2118.2</ele>
        <time>2020-01-10T08:04:52Z</time>
      </trkpt>
      <trkpt lat="45.49277" lon="6.91544">
        <ele>2118.2</ele>
        <time>2020-01-10T08:04:54Z</time>
      </trkpt>
      <trkpt lat="45.49276" lon="6.91541">
        <ele>2118.2</ele>
        <time>2020-01-10T08:04:57Z</time>
      </trkpt>
      <trkpt lat="45.49275" lon="6.91538">
        <ele>2118.2</ele>
        <time>2020-01-10T08:04:59Z</time>
      </trkpt>
      <trkpt lat="45.49274" lon="6.91535">
        <ele>2118.2</ele>
        <time>2020-01-10T08:05:01Z</time>
      </trkpt>
      <trkpt lat="45.49273" lon="6.91532">
        <ele>2118.2</ele>
        <time>2020-01-10T08:05:03Z</time>
      </trkpt>
      <trkpt lat="45.49272" lon="6.9153">
        <ele>2118.2</ele>
        <time>2020-01-10T08:05:05Z</time>
      </trkpt>
      <trkpt lat="45.4927" lon="6.91527">
        <ele>2118.2</ele>
        <time>2020-01-10T08:05:07Z</time>
      </trkpt>
      <trkpt lat="45.49268" lon="6.91522">
        <ele>2118.2</ele>
        <time>2020-01-10T08:05:10Z</time>
      </trkpt>
      <trkpt lat="45.49267" lon="6.9152">
        <ele>2118.2</ele>
        <time>2020-01-10T08:05:11Z</time>
      </trkpt>
      <trkpt lat="45.49265" lon="6.91518">
        <ele>2118.2</ele>
        <time>2020-01-10T08:05:13Z</time>
      </trkpt>
      <trkpt lat="45.49264" lon="6.91516">
        <ele>2118.2</ele>
        <time>2020-01-10T08:05:15Z</time>
      </trkpt>
      <trkpt lat="45.49262" lon="6.91513">
        <ele>2118.2</ele>
        <time>2020-01-10T08:05:17Z</time>
      </trkpt>
      <trkpt lat="45.4926" lon="6.91511">
        <ele>2118.2</ele>
        <time>2020-01-10T08:05:19Z</time>
      </trkpt>
      <trkpt lat="45.49258" lon="6.91509">
        <ele>2118.2</ele>
        <time>2020-01-10T08:05:21Z</time>
      </trkpt>
      <trkpt lat="45.49257" lon="6.91506">
        <ele>2118.2</ele>
        <time>2020-01-10T08:05:23Z</time>
      </trkpt>
      <trkpt lat="45.49254" lon="6.91503">
        <ele>2118.2</ele>
        <time>2020-01-10T08:05:25Z</time>
      </trkpt>
      <trkpt lat="45.49252" lon="6.91501">
        <ele>2118.2</ele>
        <time>2020-01-10T08:05:27Z</time>
      </trkpt>
      <trkpt lat="45.49251" lon="6.915">
        <ele>2118.2</ele>
        <time>2020-01-10T08:05:29Z</time>
      </trkpt>
      <trkpt lat="45.49249" lon="6.91498">
        <ele>2118.2</ele>
        <time>2020-01-10T08:05:31Z</time>
      </trkpt>
      <trkpt lat="45.49246" lon="6.91495">
        <ele>2118.2</ele>
        <time>2020-01-10T08:05:33Z</time>
      </trkpt>
      <trkpt lat="45.49244" lon="6.91493">
        <ele>2118.2</ele>
        <time>2020-01-10T08:05:35Z</time>
      </trkpt>
      <trkpt lat="45.49242" lon="6.91492">
        <ele>2118.2</ele>
        <time>2020-01-10T08:05:37Z</time>
      </trkpt>
      <trkpt lat="45.4924" lon="6.9149">
        <ele>2118.2</ele>
        <time>2020-01-10T08:05:39Z</time>
      </trkpt>
      <trkpt lat="45.49238" lon="6.91488">
        <ele>2118.2</ele>
        <time>2020-01-10T08:05:41Z</time>
      </trkpt>
      <trkpt lat="45.49236" lon="6.91485">
        <ele>2118.2</ele>
        <time>2020-01-10T08:05:44Z</time>
      </trkpt>
      <trkpt lat="45.49234" lon="6.91483">
        <ele>2118.2</ele>
        <time>2020-01-10T08:05:46Z</time>
      </trkpt>
      <trkpt lat="45.49233" lon="6.91481">
        <ele>2130.8</ele>
        <time>2020-01-10T08:05:48Z</time>
      </trkpt>
      <trkpt lat="45.49231" lon="6.91479">
        <ele>2130.8</ele>
        <time>2020-01-10T08:05:50Z</time>
      </trkpt>
      <trkpt lat="45.49228" lon="6.91478">
        <ele>2130.8</ele>
        <time>2020-01-10T08:05:52Z</time>
      </trkpt>
      <trkpt lat="45.49225" lon="6.91475">
        <ele>2130.8</ele>
        <time>2020-01-10T08:05:55Z</time>
      </trkpt>
      <trkpt lat="45.49224" lon="6.91473">
        <ele>2130.8</ele>
        <time>2020-01-10T08:05:57Z</time>
      </trkpt>
      <trkpt lat="45.49222" lon="6.91472">
        <ele>2130.8</ele>
        <time>2020-01-10T08:05:59Z</time>
      </trkpt>
      <trkpt lat="45.4922" lon="6.9147">
        <ele>2130.8</ele>
        <time>2020-01-10T08:06:01Z</time>
      </trkpt>
      <trkpt lat="45.49218" lon="6.91468">
        <ele>2130.8</ele>
        <time>2020-01-10T08:06:03Z</time>
      </trkpt>
      <trkpt lat="45.49216" lon="6.91466">
        <ele>2130.8</ele>
        <time>2020-01-10T08:06:05Z</time>
      </trkpt>
      <trkpt lat="45.49213" lon="6.91464">
        <ele>2130.8</ele>
        <time>2020-01-10T08:06:07Z</time>
      </trkpt>
      <trkpt lat="45.49211" lon="6.91463">
        <ele>2130.8</ele>
        <time>2020-01-10T08:06:09Z</time>
      </trkpt>
      <trkpt lat="45.49209" lon="6.91461">
        <ele>2130.8</ele>
        <time>2020-01-10T08:06:11Z</time>
      </trkpt>
      <trkpt lat="45.49207" lon="6.91458">
        <ele>2130.8</ele>
        <time>2020-01-10T08:06:13Z</time>
      </trkpt>
      <trkpt lat="45.49205" lon="6.91456">
        <ele>2130.8</ele>
        <time>2020-01-10T08:06:15Z</time>
      </trkpt>
      <trkpt lat="45.49204" lon="6.91454">
        <ele>2130.8</ele>
        <time>2020-01-10T08:06:17Z</time>
      </trkpt>
      <trkpt lat="45.492" lon="6.91452">
        <ele>2130.8</ele>
        <time>2020-01-10T08:09:39Z</time>
      </trkpt>
      <trkpt lat="45.49197" lon="6.91451">
        <ele>2130.8</ele>
        <time>2020-01-10T08:09:41Z</time>
      </trkpt>
      <trkpt lat="45.49195" lon="6.91449">
        <ele>2130.8</ele>
        <time>2020-01-10T08:09:42Z</time>
      </trkpt>
      <trkpt lat="45.49193" lon="6.91448">
        <ele>2130.8</ele>
        <time>2020-01-10T08:09:44Z</time>
      </trkpt>
      <trkpt lat="45.4919" lon="6.91445">
        <ele>2130.8</ele>
        <time>2020-01-10T08:09:46Z</time>
      </trkpt>
      <trkpt lat="45.49188" lon="6.91443">
        <ele>2130.8</ele>
        <time>2020-01-10T08:09:48Z</time>
      </trkpt>
      <trkpt lat="45.49186" lon="6.91442">
        <ele>2130.8</ele>
        <time>2020-01-10T08:09:50Z</time>
      </trkpt>
      <trkpt lat="45.49183" lon="6.91441">
        <ele>2130.8</ele>
        <time>2020-01-10T08:09:52Z</time>
      </trkpt>
      <trkpt lat="45.4918" lon="6.9144">
        <ele>2130.8</ele>
        <time>2020-01-10T08:09:54Z</time>
      </trkpt>
      <trkpt lat="45.49178" lon="6.9144">
        <ele>2130.8</ele>
        <time>2020-01-10T08:09:56Z</time>
      </trkpt>
      <trkpt lat="45.49175" lon="6.91439">
        <ele>2130.8</ele>
        <time>2020-01-10T08:09:58Z</time>
      </trkpt>
      <trkpt lat="45.49172" lon="6.91438">
        <ele>2130.8</ele>
        <time>2020-01-10T08:10:00Z</time>
      </trkpt>
      <trkpt lat="45.49169" lon="6.91436">
        <ele>2130.8</ele>
        <time>2020-01-10T08:10:03Z</time>
      </trkpt>
      <trkpt lat="45.49168" lon="6.91436">
        <ele>2130.8</ele>
        <time>2020-01-10T08:10:04Z</time>
      </trkpt>
      <trkpt lat="45.49165" lon="6.91434">
        <ele>2130.8</ele>
        <time>2020-01-10T08:10:06Z</time>
      </trkpt>
      <trkpt lat="45.49163" lon="6.91433">
        <ele>2130.8</ele>
        <time>2020-01-10T08:10:08Z</time>
      </trkpt>
      <trkpt lat="45.4916" lon="6.91432">
        <ele>2130.8</ele>
        <time>2020-01-10T08:10:10Z</time>
      </trkpt>
      <trkpt lat="45.49158" lon="6.9143">
        <ele>2130.8</ele>
        <time>2020-01-10T08:10:12Z</time>
      </trkpt>
      <trkpt lat="45.49156" lon="6.91429">
        <ele>2130.8</ele>
        <time>2020-01-10T08:10:14Z</time>
      </trkpt>
      <trkpt lat="45.49153" lon="6.91428">
        <ele>2130.8</ele>
        <time>2020-01-10T08:10:16Z</time>
      </trkpt>
      <trkpt lat="45.49151" lon="6.91426">
        <ele>2130.8</ele>
        <time>2020-01-10T08:10:18Z</time>
      </trkpt>
      <trkpt lat="45.49148" lon="6.91425">
        <ele>2130.8</ele>
        <time>2020-01-10T08:10:20Z</time>
      </trkpt>
      <trkpt lat="45.49145" lon="6.91424">
        <ele>2130.8</ele>
        <time>2020-01-10T08:10:22Z</time>
      </trkpt>
      <trkpt lat="45.49142" lon="6.91423">
        <ele>2130.8</ele>
        <time>2020-01-10T08:10:24Z</time>
      </trkpt>
      <trkpt lat="45.49141" lon="6.91422">
        <ele>2130.8</ele>
        <time>2020-01-10T08:10:25Z</time>
      </trkpt>
      <trkpt lat="45.49138" lon="6.9142">
        <ele>2130.8</ele>
        <time>2020-01-10T08:10:27Z</time>
      </trkpt>
      <trkpt lat="45.49136" lon="6.91419">
        <ele>2113</ele>
        <time>2020-01-10T08:10:29Z</time>
      </trkpt>
      <trkpt lat="45.49133" lon="6.91417">
        <ele>2113</ele>
        <time>2020-01-10T08:10:31Z</time>
      </trkpt>
      <trkpt lat="45.4913" lon="6.91415">
        <ele>2113</ele>
        <time>2020-01-10T08:10:33Z</time>
      </trkpt>
      <trkpt lat="45.49127" lon="6.91413">
        <ele>2113</ele>
        <time>2020-01-10T08:10:35Z</time>
      </trkpt>
      <trkpt lat="45.49125" lon="6.91412">
        <ele>2113</ele>
        <time>2020-01-10T08:10:37Z</time>
      </trkpt>
      <trkpt lat="45.49122" lon="6.9141">
        <ele>2114.6</ele>
        <time>2020-01-10T08:10:39Z</time>
      </trkpt>
      <trkpt lat="45.4912" lon="6.91408">
        <ele>2114.6</ele>
        <time>2020-01-10T08:10:40Z</time>
      </trkpt>
      <trkpt lat="45.49118" lon="6.91408">
        <ele>2114.6</ele>
        <time>2020-01-10T08:10:41Z</time>
      </trkpt>
      <trkpt lat="45.49115" lon="6.91407">
        <ele>2114.6</ele>
        <time>2020-01-10T08:10:43Z</time>
      </trkpt>
      <trkpt lat="45.49112" lon="6.91406">
        <ele>2114.6</ele>
        <time>2020-01-10T08:10:45Z</time>
      </trkpt>
      <trkpt lat="45.4911" lon="6.91405">
        <ele>2114.6</ele>
        <time>2020-01-10T08:10:46Z</time>
      </trkpt>
      <trkpt lat="45.49108" lon="6.91404">
        <ele>2114.6</ele>
        <time>2020-01-10T08:10:47Z</time>
      </trkpt>
      <trkpt lat="45.49105" lon="6.91402">
        <ele>2117.4</ele>
        <time>2020-01-10T08:10:49Z</time>
      </trkpt>
      <trkpt lat="45.49102" lon="6.91401">
        <ele>2117.4</ele>
        <time>2020-01-10T08:10:51Z</time>
      </trkpt>
      <trkpt lat="45.49099" lon="6.91399">
        <ele>2117.4</ele>
        <time>2020-01-10T08:10:53Z</time>
      </trkpt>
      <trkpt lat="45.49096" lon="6.91397">
        <ele>2117.4</ele>
        <time>2020-01-10T08:10:55Z</time>
      </trkpt>
      <trkpt lat="45.49093" lon="6.91396">
        <ele>2117.4</ele>
        <time>2020-01-10T08:10:56Z</time>
      </trkpt>
      <trkpt lat="45.49091" lon="6.91394">
        <ele>2117.4</ele>
        <time>2020-01-10T08:10:58Z</time>
      </trkpt>
      <trkpt lat="45.49089" lon="6.91394">
        <ele>2120.4</ele>
        <time>2020-01-10T08:10:59Z</time>
      </trkpt>
      <trkpt lat="45.49086" lon="6.91393">
        <ele>2120.4</ele>
        <time>2020-01-10T08:11:01Z</time>
      </trkpt>
      <trkpt lat="45.49084" lon="6.91392">
        <ele>2120.4</ele>
        <time>2020-01-10T08:11:02Z</time>
      </trkpt>
      <trkpt lat="45.49081" lon="6.91391">
        <ele>2120.4</ele>
        <time>2020-01-10T08:11:03Z</time>
      </trkpt>
      <trkpt lat="45.49079" lon="6.9139">
        <ele>2120.4</ele>
        <time>2020-01-10T08:11:04Z</time>
      </trkpt>
      <trkpt lat="45.49076" lon="6.9139">
        <ele>2120.4</ele>
        <time>2020-01-10T08:11:06Z</time>
      </trkpt>
      <trkpt lat="45.49075" lon="6.91389">
        <ele>2120.4</ele>
        <time>2020-01-10T08:11:07Z</time>
      </trkpt>
      <trkpt lat="45.49073" lon="6.91388">
        <ele>2120.4</ele>
        <time>2020-01-10T08:11:08Z</time>
      </trkpt>
      <trkpt lat="45.49071" lon="6.91387">
        <ele>2123.4</ele>
        <time>2020-01-10T08:11:09Z</time>
      </trkpt>
      <trkpt lat="45.49069" lon="6.91386">
        <ele>2123.4</ele>
        <time>2020-01-10T08:11:10Z</time>
      </trkpt>
      <trkpt lat="45.49067" lon="6.91385">
        <ele>2123.4</ele>
        <time>2020-01-10T08:11:11Z</time>
      </trkpt>
      <trkpt lat="45.49064" lon="6.91383">
        <ele>2123.4</ele>
        <time>2020-01-10T08:11:13Z</time>
      </trkpt>
      <trkpt lat="45.4906" lon="6.91381">
        <ele>2123.4</ele>
        <time>2020-01-10T08:11:15Z</time>
      </trkpt>
      <trkpt lat="45.49059" lon="6.9138">
        <ele>2123.4</ele>
        <time>2020-01-10T08:11:16Z</time>
      </trkpt>
      <trkpt lat="45.49055" lon="6.91379">
        <ele>2123.4</ele>
        <time>2020-01-10T08:11:18Z</time>
      </trkpt>
      <trkpt lat="45.49052" lon="6.91377">
        <ele>2123.4</ele>
        <time>2020-01-10T08:11:20Z</time>
      </trkpt>
      <trkpt lat="45.49048" lon="6.91374">
        <ele>2123.4</ele>
        <time>2020-01-10T08:11:22Z</time>
      </trkpt>
      <trkpt lat="45.49044" lon="6.91372">
        <ele>2123.4</ele>
        <time>2020-01-10T08:11:24Z</time>
      </trkpt>
      <trkpt lat="45.49043" lon="6.91371">
        <ele>2123.4</ele>
        <time>2020-01-10T08:11:25Z</time>
      </trkpt>
      <trkpt lat="45.49041" lon="6.91369">
        <ele>2123.4</ele>
        <time>2020-01-10T08:11:26Z</time>
      </trkpt>
      <trkpt lat="45.49039" lon="6.91368">
        <ele>2123.4</ele>
        <time>2020-01-10T08:11:27Z</time>
      </trkpt>
      <trkpt lat="45.49037" lon="6.91368">
        <ele>2123.4</ele>
        <time>2020-01-10T08:11:28Z</time>
      </trkpt>
      <trkpt lat="45.49035" lon="6.91368">
        <ele>2128.2</ele>
        <time>2020-01-10T08:11:29Z</time>
      </trkpt>
      <trkpt lat="45.49033" lon="6.91367">
        <ele>2128.2</ele>
        <time>2020-01-10T08:11:30Z</time>
      </trkpt>
      <trkpt lat="45.4903" lon="6.91366">
        <ele>2128.2</ele>
        <time>2020-01-10T08:11:31Z</time>
      </trkpt>
      <trkpt lat="45.49028" lon="6.91365">
        <ele>2128.2</ele>
        <time>2020-01-10T08:11:32Z</time>
      </trkpt>
      <trkpt lat="45.49026" lon="6.91364">
        <ele>2128.2</ele>
        <time>2020-01-10T08:11:33Z</time>
      </trkpt>
      <trkpt lat="45.49024" lon="6.91364">
        <ele>2128.2</ele>
        <time>2020-01-10T08:11:34Z</time>
      </trkpt>
      <trkpt lat="45.49021" lon="6.91364">
        <ele>2128.2</ele>
        <time>2020-01-10T08:11:35Z</time>
      </trkpt>
      <trkpt lat="45.4902" lon="6.91363">
        <ele>2128.2</ele>
        <time>2020-01-10T08:11:36Z</time>
      </trkpt>
      <trkpt lat="45.49017" lon="6.91362">
        <ele>2128.2</ele>
        <time>2020-01-10T08:11:37Z</time>
      </trkpt>
      <trkpt lat="45.49015" lon="6.91361">
        <ele>2128.2</ele>
        <time>2020-01-10T08:11:38Z</time>
      </trkpt>
      <trkpt lat="45.49011" lon="6.91359">
        <ele>2128.2</ele>
        <time>2020-01-10T08:11:40Z</time>
      </trkpt>
      <trkpt lat="45.49009" lon="6.91358">
        <ele>2128.2</ele>
        <time>2020-01-10T08:11:41Z</time>
      </trkpt>
      <trkpt lat="45.49007" lon="6.91356">
        <ele>2128.2</ele>
        <time>2020-01-10T08:11:42Z</time>
      </trkpt>
      <trkpt lat="45.49005" lon="6.91355">
        <ele>2128.2</ele>
        <time>2020-01-10T08:11:43Z</time>
      </trkpt>
      <trkpt lat="45.49001" lon="6.91354">
        <ele>2128.2</ele>
        <time>2020-01-10T08:11:45Z</time>
      </trkpt>
      <trkpt lat="45.49" lon="6.91353">
        <ele>2128.2</ele>
        <time>2020-01-10T08:11:46Z</time>
      </trkpt>
      <trkpt lat="45.48997" lon="6.91352">
        <ele>2128.2</ele>
        <time>2020-01-10T08:11:47Z</time>
      </trkpt>
      <trkpt lat="45.48996" lon="6.91351">
        <ele>2128.2</ele>
        <time>2020-01-10T08:11:48Z</time>
      </trkpt>
      <trkpt lat="45.48993" lon="6.91349">
        <ele>2128.2</ele>
        <time>2020-01-10T08:11:50Z</time>
      </trkpt>
      <trkpt lat="45.4899" lon="6.91347">
        <ele>2128.2</ele>
        <time>2020-01-10T08:11:52Z</time>
      </trkpt>
      <trkpt lat="45.48988" lon="6.91346">
        <ele>2128.2</ele>
        <time>2020-01-10T08:11:53Z</time>
      </trkpt>
      <trkpt lat="45.48986" lon="6.91344">
        <ele>2128.2</ele>
        <time>2020-01-10T08:11:54Z</time>
      </trkpt>
      <trkpt lat="45.48983" lon="6.91343">
        <ele>2128.2</ele>
        <time>2020-01-10T08:11:56Z</time>
      </trkpt>
      <trkpt lat="45.4898" lon="6.91341">
        <ele>2128.2</ele>
        <time>2020-01-10T08:11:58Z</time>
      </trkpt>
      <trkpt lat="45.48978" lon="6.9134">
        <ele>2133.8</ele>
        <time>2020-01-10T08:11:59Z</time>
      </trkpt>
      <trkpt lat="45.48976" lon="6.91339">
        <ele>2133.8</ele>
        <time>2020-01-10T08:12:00Z</time>
      </trkpt>
      <trkpt lat="45.48974" lon="6.91338">
        <ele>2133.8</ele>
        <time>2020-01-10T08:12:01Z</time>
      </trkpt>
      <trkpt lat="45.48971" lon="6.91337">
        <ele>2133.8</ele>
        <time>2020-01-10T08:12:03Z</time>
      </trkpt>
      <trkpt lat="45.48968" lon="6.91335">
        <ele>2133.8</ele>
        <time>2020-01-10T08:12:05Z</time>
      </trkpt>
      <trkpt lat="45.48966" lon="6.91334">
        <ele>2133.8</ele>
        <time>2020-01-10T08:12:06Z</time>
      </trkpt>
      <trkpt lat="45.48963" lon="6.91333">
        <ele>2133.8</ele>
        <time>2020-01-10T08:12:08Z</time>
      </trkpt>
      <trkpt lat="45.48961" lon="6.91332">
        <ele>2133.8</ele>
        <time>2020-01-10T08:12:10Z</time>
      </trkpt>
      <trkpt lat="45.48957" lon="6.9133">
        <ele>2133.8</ele>
        <time>2020-01-10T08:12:12Z</time>
      </trkpt>
      <trkpt lat="45.48954" lon="6.91328">
        <ele>2133.8</ele>
        <time>2020-01-10T08:12:14Z</time>
      </trkpt>
      <trkpt lat="45.48951" lon="6.91326">
        <ele>2133.8</ele>
        <time>2020-01-10T08:12:16Z</time>
      </trkpt>
      <trkpt lat="45.48949" lon="6.91325">
        <ele>2133.8</ele>
        <time>2020-01-10T08:12:18Z</time>
      </trkpt>
      <trkpt lat="45.48946" lon="6.91324">
        <ele>2133.8</ele>
        <time>2020-01-10T08:12:20Z</time>
      </trkpt>
      <trkpt lat="45.48944" lon="6.91322">
        <ele>2133.8</ele>
        <time>2020-01-10T08:12:22Z</time>
      </trkpt>
      <trkpt lat="45.48941" lon="6.91321">
        <ele>2133.8</ele>
        <time>2020-01-10T08:12:24Z</time>
      </trkpt>
      <trkpt lat="45.48938" lon="6.9132">
        <ele>2133.8</ele>
        <time>2020-01-10T08:12:26Z</time>
      </trkpt>
      <trkpt lat="45.48936" lon="6.91318">
        <ele>2133.8</ele>
        <time>2020-01-10T08:12:28Z</time>
      </trkpt>
      <trkpt lat="45.48933" lon="6.91317">
        <ele>2133.8</ele>
        <time>2020-01-10T08:12:30Z</time>
      </trkpt>
      <trkpt lat="45.48932" lon="6.91315">
        <ele>2133.8</ele>
        <time>2020-01-10T08:12:31Z</time>
      </trkpt>
      <trkpt lat="45.48929" lon="6.91313">
        <ele>2133.8</ele>
        <time>2020-01-10T08:12:33Z</time>
      </trkpt>
      <trkpt lat="45.48927" lon="6.91312">
        <ele>2133.8</ele>
        <time>2020-01-10T08:12:35Z</time>
      </trkpt>
      <trkpt lat="45.48925" lon="6.91311">
        <ele>2133.8</ele>
        <time>2020-01-10T08:12:36Z</time>
      </trkpt>
      <trkpt lat="45.48922" lon="6.91309">
        <ele>2133.8</ele>
        <time>2020-01-10T08:12:38Z</time>
      </trkpt>
      <trkpt lat="45.4892" lon="6.91308">
        <ele>2133.8</ele>
        <time>2020-01-10T08:12:40Z</time>
      </trkpt>
      <trkpt lat="45.48917" lon="6.91307">
        <ele>2133.8</ele>
        <time>2020-01-10T08:12:42Z</time>
      </trkpt>
      <trkpt lat="45.48916" lon="6.91306">
        <ele>2133.8</ele>
        <time>2020-01-10T08:12:43Z</time>
      </trkpt>
      <trkpt lat="45.48913" lon="6.91305">
        <ele>2133.8</ele>
        <time>2020-01-10T08:12:45Z</time>
      </trkpt>
      <trkpt lat="45.4891" lon="6.91304">
        <ele>2133.8</ele>
        <time>2020-01-10T08:12:47Z</time>
      </trkpt>
      <trkpt lat="45.48908" lon="6.91302">
        <ele>2145.4</ele>
        <time>2020-01-10T08:12:49Z</time>
      </trkpt>
      <trkpt lat="45.48905" lon="6.91301">
        <ele>2145.4</ele>
        <time>2020-01-10T08:12:51Z</time>
      </trkpt>
      <trkpt lat="45.48902" lon="6.913">
        <ele>2145.4</ele>
        <time>2020-01-10T08:12:53Z</time>
      </trkpt>
      <trkpt lat="45.489" lon="6.91297">
        <ele>2145.4</ele>
        <time>2020-01-10T08:12:55Z</time>
      </trkpt>
      <trkpt lat="45.48898" lon="6.91296">
        <ele>2145.4</ele>
        <time>2020-01-10T08:12:57Z</time>
      </trkpt>
      <trkpt lat="45.48895" lon="6.91294">
        <ele>2147.8</ele>
        <time>2020-01-10T08:12:59Z</time>
      </trkpt>
      <trkpt lat="45.48892" lon="6.91293">
        <ele>2147.8</ele>
        <time>2020-01-10T08:13:01Z</time>
      </trkpt>
      <trkpt lat="45.48888" lon="6.91291">
        <ele>2147.8</ele>
        <time>2020-01-10T08:13:04Z</time>
      </trkpt>
      <trkpt lat="45.48887" lon="6.9129">
        <ele>2147.8</ele>
        <time>2020-01-10T08:13:05Z</time>
      </trkpt>
      <trkpt lat="45.48885" lon="6.91289">
        <ele>2147.8</ele>
        <time>2020-01-10T08:13:07Z</time>
      </trkpt>
      <trkpt lat="45.48883" lon="6.91288">
        <ele>2150.6</ele>
        <time>2020-01-10T08:13:09Z</time>
      </trkpt>
      <trkpt lat="45.48881" lon="6.91287">
        <ele>2150.6</ele>
        <time>2020-01-10T08:13:11Z</time>
      </trkpt>
      <trkpt lat="45.48879" lon="6.91286">
        <ele>2150.6</ele>
        <time>2020-01-10T08:13:13Z</time>
      </trkpt>
      <trkpt lat="45.48876" lon="6.91284">
        <ele>2150.6</ele>
        <time>2020-01-10T08:13:15Z</time>
      </trkpt>
      <trkpt lat="45.48874" lon="6.91283">
        <ele>2150.6</ele>
        <time>2020-01-10T08:13:17Z</time>
      </trkpt>
      <trkpt lat="45.48872" lon="6.91282">
        <ele>2153.8</ele>
        <time>2020-01-10T08:13:19Z</time>
      </trkpt>
      <trkpt lat="45.48869" lon="6.9128">
        <ele>2153.8</ele>
        <time>2020-01-10T08:13:21Z</time>
      </trkpt>
      <trkpt lat="45.48868" lon="6.91279">
        <ele>2153.8</ele>
        <time>2020-01-10T08:13:23Z</time>
      </trkpt>
      <trkpt lat="45.48865" lon="6.91277">
        <ele>2153.8</ele>
        <time>2020-01-10T08:13:25Z</time>
      </trkpt>
      <trkpt lat="45.48862" lon="6.91275">
        <ele>2153.8</ele>
        <time>2020-01-10T08:13:27Z</time>
      </trkpt>
      <trkpt lat="45.4886" lon="6.91275">
        <ele>2156.8</ele>
        <time>2020-01-10T08:13:29Z</time>
      </trkpt>
      <trkpt lat="45.48858" lon="6.91274">
        <ele>2156.8</ele>
        <time>2020-01-10T08:13:31Z</time>
      </trkpt>
      <trkpt lat="45.48856" lon="6.91272">
        <ele>2156.8</ele>
        <time>2020-01-10T08:13:33Z</time>
      </trkpt>
      <trkpt lat="45.48853" lon="6.9127">
        <ele>2156.8</ele>
        <time>2020-01-10T08:13:36Z</time>
      </trkpt>
      <trkpt lat="45.48852" lon="6.91269">
        <ele>2156.8</ele>
        <time>2020-01-10T08:13:37Z</time>
      </trkpt>
      <trkpt lat="45.48849" lon="6.91268">
        <ele>2156.8</ele>
        <time>2020-01-10T08:13:40Z</time>
      </trkpt>
      <trkpt lat="45.48847" lon="6.91266">
        <ele>2156.8</ele>
        <time>2020-01-10T08:13:42Z</time>
      </trkpt>
      <trkpt lat="45.48845" lon="6.91264">
        <ele>2156.8</ele>
        <time>2020-01-10T08:13:44Z</time>
      </trkpt>
      <trkpt lat="45.48843" lon="6.91262">
        <ele>2156.8</ele>
        <time>2020-01-10T08:13:46Z</time>
      </trkpt>
      <trkpt lat="45.48841" lon="6.9126">
        <ele>2156.8</ele>
        <time>2020-01-10T08:13:48Z</time>
      </trkpt>
      <trkpt lat="45.48838" lon="6.91259">
        <ele>2156.8</ele>
        <time>2020-01-10T08:13:50Z</time>
      </trkpt>
      <trkpt lat="45.48836" lon="6.91258">
        <ele>2156.8</ele>
        <time>2020-01-10T08:13:52Z</time>
      </trkpt>
      <trkpt lat="45.48834" lon="6.91257">
        <ele>2156.8</ele>
        <time>2020-01-10T08:13:54Z</time>
      </trkpt>
      <trkpt lat="45.48832" lon="6.91255">
        <ele>2156.8</ele>
        <time>2020-01-10T08:13:56Z</time>
      </trkpt>
      <trkpt lat="45.4883" lon="6.91255">
        <ele>2156.8</ele>
        <time>2020-01-10T08:13:58Z</time>
      </trkpt>
      <trkpt lat="45.48828" lon="6.91253">
        <ele>2156.8</ele>
        <time>2020-01-10T08:14:00Z</time>
      </trkpt>
      <trkpt lat="45.48826" lon="6.91252">
        <ele>2156.8</ele>
        <time>2020-01-10T08:14:02Z</time>
      </trkpt>
      <trkpt lat="45.48823" lon="6.91251">
        <ele>2156.8</ele>
        <time>2020-01-10T08:14:04Z</time>
      </trkpt>
      <trkpt lat="45.4882" lon="6.9125">
        <ele>2156.8</ele>
        <time>2020-01-10T08:14:06Z</time>
      </trkpt>
      <trkpt lat="45.48818" lon="6.91249">
        <ele>2156.8</ele>
        <time>2020-01-10T08:14:08Z</time>
      </trkpt>
      <trkpt lat="45.48816" lon="6.91248">
        <ele>2156.8</ele>
        <time>2020-01-10T08:14:10Z</time>
      </trkpt>
      <trkpt lat="45.48814" lon="6.91247">
        <ele>2156.8</ele>
        <time>2020-01-10T08:14:12Z</time>
      </trkpt>
      <trkpt lat="45.48811" lon="6.91246">
        <ele>2156.8</ele>
        <time>2020-01-10T08:14:14Z</time>
      </trkpt>
      <trkpt lat="45.48809" lon="6.91246">
        <ele>2156.8</ele>
        <time>2020-01-10T08:14:16Z</time>
      </trkpt>
      <trkpt lat="45.48807" lon="6.91244">
        <ele>2156.8</ele>
        <time>2020-01-10T08:14:18Z</time>
      </trkpt>
      <trkpt lat="45.48805" lon="6.91243">
        <ele>2156.8</ele>
        <time>2020-01-10T08:14:20Z</time>
      </trkpt>
      <trkpt lat="45.48803" lon="6.91242">
        <ele>2156.8</ele>
        <time>2020-01-10T08:14:22Z</time>
      </trkpt>
      <trkpt lat="45.488" lon="6.91241">
        <ele>2156.8</ele>
        <time>2020-01-10T08:14:25Z</time>
      </trkpt>
      <trkpt lat="45.48799" lon="6.9124">
        <ele>2156.8</ele>
        <time>2020-01-10T08:14:26Z</time>
      </trkpt>
      <trkpt lat="45.48797" lon="6.91238">
        <ele>2176.8</ele>
        <time>2020-01-10T08:14:29Z</time>
      </trkpt>
      <trkpt lat="45.48795" lon="6.91236">
        <ele>2176.8</ele>
        <time>2020-01-10T08:14:31Z</time>
      </trkpt>
      <trkpt lat="45.48794" lon="6.91233">
        <ele>2176.8</ele>
        <time>2020-01-10T08:14:33Z</time>
      </trkpt>
      <trkpt lat="45.48793" lon="6.9123">
        <ele>2176.8</ele>
        <time>2020-01-10T08:14:35Z</time>
      </trkpt>
      <trkpt lat="45.48793" lon="6.91228">
        <ele>2176.8</ele>
        <time>2020-01-10T08:14:37Z</time>
      </trkpt>
      <trkpt lat="45.48791" lon="6.91225">
        <ele>2180.2</ele>
        <time>2020-01-10T08:14:39Z</time>
      </trkpt>
      <trkpt lat="45.48791" lon="6.91222">
        <ele>2180.2</ele>
        <time>2020-01-10T08:14:41Z</time>
      </trkpt>
      <trkpt lat="45.4879" lon="6.91219">
        <ele>2180.2</ele>
        <time>2020-01-10T08:14:43Z</time>
      </trkpt>
      <trkpt lat="45.48789" lon="6.91216">
        <ele>2180.2</ele>
        <time>2020-01-10T08:14:45Z</time>
      </trkpt>
      <trkpt lat="45.48788" lon="6.91214">
        <ele>2180.2</ele>
        <time>2020-01-10T08:14:47Z</time>
      </trkpt>
      <trkpt lat="45.48786" lon="6.91212">
        <ele>2183.4</ele>
        <time>2020-01-10T08:14:49Z</time>
      </trkpt>
      <trkpt lat="45.48784" lon="6.9121">
        <ele>2183.4</ele>
        <time>2020-01-10T08:14:51Z</time>
      </trkpt>
      <trkpt lat="45.48782" lon="6.91209">
        <ele>2183.4</ele>
        <time>2020-01-10T08:14:54Z</time>
      </trkpt>
      <trkpt lat="45.4878" lon="6.91208">
        <ele>2183.4</ele>
        <time>2020-01-10T08:14:56Z</time>
      </trkpt>
      <trkpt lat="45.48779" lon="6.91208">
        <ele>2183.4</ele>
        <time>2020-01-10T08:14:58Z</time>
      </trkpt>
      <trkpt lat="45.48776" lon="6.91206">
        <ele>2183.4</ele>
        <time>2020-01-10T08:15:01Z</time>
      </trkpt>
      <trkpt lat="45.48774" lon="6.91205">
        <ele>2183.4</ele>
        <time>2020-01-10T08:15:04Z</time>
      </trkpt>
      <trkpt lat="45.48772" lon="6.91204">
        <ele>2183.4</ele>
        <time>2020-01-10T08:15:07Z</time>
      </trkpt>
      <trkpt lat="45.4877" lon="6.91202">
        <ele>2190.8</ele>
        <time>2020-01-10T08:15:09Z</time>
      </trkpt>
      <trkpt lat="45.48768" lon="6.912">
        <ele>2190.8</ele>
        <time>2020-01-10T08:15:12Z</time>
      </trkpt>
      <trkpt lat="45.48767" lon="6.91198">
        <ele>2190.8</ele>
        <time>2020-01-10T08:15:13Z</time>
      </trkpt>
      <trkpt lat="45.48765" lon="6.91197">
        <ele>2190.8</ele>
        <time>2020-01-10T08:15:15Z</time>
      </trkpt>
      <trkpt lat="45.48764" lon="6.91195">
        <ele>2190.8</ele>
        <time>2020-01-10T08:15:17Z</time>
      </trkpt>
      <trkpt lat="45.48763" lon="6.91193">
        <ele>2194.2</ele>
        <time>2020-01-10T08:15:19Z</time>
      </trkpt>
      <trkpt lat="45.48761" lon="6.91191">
        <ele>2194.2</ele>
        <time>2020-01-10T08:15:22Z</time>
      </trkpt>
      <trkpt lat="45.48759" lon="6.91188">
        <ele>2194.2</ele>
        <time>2020-01-10T08:15:25Z</time>
      </trkpt>
      <trkpt lat="45.48758" lon="6.91185">
        <ele>2194.2</ele>
        <time>2020-01-10T08:15:28Z</time>
      </trkpt>
      <trkpt lat="45.48757" lon="6.91183">
        <ele>2194.2</ele>
        <time>2020-01-10T08:15:30Z</time>
      </trkpt>
      <trkpt lat="45.48756" lon="6.9118">
        <ele>2194.2</ele>
        <time>2020-01-10T08:15:32Z</time>
      </trkpt>
      <trkpt lat="45.48755" lon="6.91178">
        <ele>2194.2</ele>
        <time>2020-01-10T08:15:34Z</time>
      </trkpt>
      <trkpt lat="45.48754" lon="6.91175">
        <ele>2194.2</ele>
        <time>2020-01-10T08:15:37Z</time>
      </trkpt>
      <trkpt lat="45.48752" lon="6.91173">
        <ele>2201.6</ele>
        <time>2020-01-10T08:15:39Z</time>
      </trkpt>
      <trkpt lat="45.48751" lon="6.9117">
        <ele>2201.6</ele>
        <time>2020-01-10T08:15:41Z</time>
      </trkpt>
      <trkpt lat="45.4875" lon="6.91168">
        <ele>2201.6</ele>
        <time>2020-01-10T08:15:43Z</time>
      </trkpt>
      <trkpt lat="45.48749" lon="6.91165">
        <ele>2201.6</ele>
        <time>2020-01-10T08:15:45Z</time>
      </trkpt>
      <trkpt lat="45.48748" lon="6.91163">
        <ele>2201.6</ele>
        <time>2020-01-10T08:15:47Z</time>
      </trkpt>
      <trkpt lat="45.48747" lon="6.9116">
        <ele>2205.2</ele>
        <time>2020-01-10T08:15:49Z</time>
      </trkpt>
      <trkpt lat="45.48746" lon="6.91158">
        <ele>2205.2</ele>
        <time>2020-01-10T08:15:51Z</time>
      </trkpt>
      <trkpt lat="45.48745" lon="6.91155">
        <ele>2205.2</ele>
        <time>2020-01-10T08:15:53Z</time>
      </trkpt>
      <trkpt lat="45.48744" lon="6.91152">
        <ele>2205.2</ele>
        <time>2020-01-10T08:15:55Z</time>
      </trkpt>
      <trkpt lat="45.48743" lon="6.91148">
        <ele>2205.2</ele>
        <time>2020-01-10T08:15:58Z</time>
      </trkpt>
      <trkpt lat="45.48741" lon="6.91146">
        <ele>2205.2</ele>
        <time>2020-01-10T08:16:00Z</time>
      </trkpt>
      <trkpt lat="45.4874" lon="6.91143">
        <ele>2205.2</ele>
        <time>2020-01-10T08:16:03Z</time>
      </trkpt>
      <trkpt lat="45.4874" lon="6.9114">
        <ele>2205.2</ele>
        <time>2020-01-10T08:16:05Z</time>
      </trkpt>
      <trkpt lat="45.4874" lon="6.91137">
        <ele>2205.2</ele>
        <time>2020-01-10T08:16:07Z</time>
      </trkpt>
      <trkpt lat="45.48739" lon="6.91134">
        <ele>2212</ele>
        <time>2020-01-10T08:16:09Z</time>
      </trkpt>
      <trkpt lat="45.48739" lon="6.91131">
        <ele>2212</ele>
        <time>2020-01-10T08:16:11Z</time>
      </trkpt>
      <trkpt lat="45.48739" lon="6.91129">
        <ele>2212</ele>
        <time>2020-01-10T08:16:13Z</time>
      </trkpt>
      <trkpt lat="45.48739" lon="6.91125">
        <ele>2212</ele>
        <time>2020-01-10T08:16:16Z</time>
      </trkpt>
      <trkpt lat="45.48739" lon="6.91122">
        <ele>2212</ele>
        <time>2020-01-10T08:16:18Z</time>
      </trkpt>
      <trkpt lat="45.48739" lon="6.91119">
        <ele>2212</ele>
        <time>2020-01-10T08:16:20Z</time>
      </trkpt>
      <trkpt lat="45.48737" lon="6.91116">
        <ele>2212</ele>
        <time>2020-01-10T08:16:23Z</time>
      </trkpt>
      <trkpt lat="45.48735" lon="6.91116">
        <ele>2212</ele>
        <time>2020-01-10T08:16:25Z</time>
      </trkpt>
      <trkpt lat="45.48733" lon="6.91114">
        <ele>2212</ele>
        <time>2020-01-10T08:16:28Z</time>
      </trkpt>
      <trkpt lat="45.48731" lon="6.91113">
        <ele>2212</ele>
        <time>2020-01-10T08:16:30Z</time>
      </trkpt>
      <trkpt lat="45.48729" lon="6.91112">
        <ele>2212</ele>
        <time>2020-01-10T08:16:32Z</time>
      </trkpt>
      <trkpt lat="45.48727" lon="6.91111">
        <ele>2212</ele>
        <time>2020-01-10T08:16:34Z</time>
      </trkpt>
      <trkpt lat="45.48724" lon="6.91109">
        <ele>2212</ele>
        <time>2020-01-10T08:16:37Z</time>
      </trkpt>
      <trkpt lat="45.48723" lon="6.91108">
        <ele>2220.8</ele>
        <time>2020-01-10T08:16:39Z</time>
      </trkpt>
      <trkpt lat="45.48722" lon="6.91105">
        <ele>2220.8</ele>
        <time>2020-01-10T08:16:41Z</time>
      </trkpt>
      <trkpt lat="45.48722" lon="6.911">
        <ele>2220.8</ele>
        <time>2020-01-10T08:16:44Z</time>
      </trkpt>
      <trkpt lat="45.48722" lon="6.91097">
        <ele>2220.8</ele>
        <time>2020-01-10T08:16:46Z</time>
      </trkpt>
      <trkpt lat="45.48722" lon="6.91095">
        <ele>2220.8</ele>
        <time>2020-01-10T08:16:47Z</time>
      </trkpt>
      <trkpt lat="45.48722" lon="6.91092">
        <ele>2223.6</ele>
        <time>2020-01-10T08:16:49Z</time>
      </trkpt>
      <trkpt lat="45.48722" lon="6.9109">
        <ele>2223.6</ele>
        <time>2020-01-10T08:16:51Z</time>
      </trkpt>
      <trkpt lat="45.4872" lon="6.91087">
        <ele>2223.6</ele>
        <time>2020-01-10T08:16:54Z</time>
      </trkpt>
      <trkpt lat="45.48717" lon="6.91085">
        <ele>2223.6</ele>
        <time>2020-01-10T08:16:58Z</time>
      </trkpt>
      <trkpt lat="45.48715" lon="6.91083">
        <ele>2223.6</ele>
        <time>2020-01-10T08:17:01Z</time>
      </trkpt>
      <trkpt lat="45.48714" lon="6.91082">
        <ele>2223.6</ele>
        <time>2020-01-10T08:17:03Z</time>
      </trkpt>
      <trkpt lat="45.48712" lon="6.9108">
        <ele>2223.6</ele>
        <time>2020-01-10T08:17:06Z</time>
      </trkpt>
      <trkpt lat="45.48709" lon="6.91079">
        <ele>2230</ele>
        <time>2020-01-10T08:17:09Z</time>
      </trkpt>
      <trkpt lat="45.48707" lon="6.91078">
        <ele>2230</ele>
        <time>2020-01-10T08:17:11Z</time>
      </trkpt>
      <trkpt lat="45.48705" lon="6.91077">
        <ele>2230</ele>
        <time>2020-01-10T08:17:14Z</time>
      </trkpt>
      <trkpt lat="45.48704" lon="6.91076">
        <ele>2230</ele>
        <time>2020-01-10T08:17:16Z</time>
      </trkpt>
      <trkpt lat="45.48701" lon="6.91074">
        <ele>2232.8</ele>
        <time>2020-01-10T08:17:19Z</time>
      </trkpt>
      <trkpt lat="45.487" lon="6.91072">
        <ele>2232.8</ele>
        <time>2020-01-10T08:17:22Z</time>
      </trkpt>
      <trkpt lat="45.48698" lon="6.9107">
        <ele>2232.8</ele>
        <time>2020-01-10T08:17:24Z</time>
      </trkpt>
      <trkpt lat="45.48695" lon="6.91068">
        <ele>2232.8</ele>
        <time>2020-01-10T08:17:27Z</time>
      </trkpt>
      <trkpt lat="45.48693" lon="6.91066">
        <ele>2232.8</ele>
        <time>2020-01-10T08:17:30Z</time>
      </trkpt>
      <trkpt lat="45.48691" lon="6.91064">
        <ele>2232.8</ele>
        <time>2020-01-10T08:17:33Z</time>
      </trkpt>
      <trkpt lat="45.48689" lon="6.91062">
        <ele>2232.8</ele>
        <time>2020-01-10T08:17:35Z</time>
      </trkpt>
      <trkpt lat="45.4869" lon="6.91058">
        <ele>2232.8</ele>
        <time>2020-01-10T08:17:37Z</time>
      </trkpt>
      <trkpt lat="45.48691" lon="6.91055">
        <ele>2239</ele>
        <time>2020-01-10T08:17:39Z</time>
      </trkpt>
      <trkpt lat="45.48691" lon="6.91051">
        <ele>2239</ele>
        <time>2020-01-10T08:17:41Z</time>
      </trkpt>
      <trkpt lat="45.48691" lon="6.91048">
        <ele>2239</ele>
        <time>2020-01-10T08:17:43Z</time>
      </trkpt>
      <trkpt lat="45.48692" lon="6.91044">
        <ele>2239</ele>
        <time>2020-01-10T08:17:45Z</time>
      </trkpt>
      <trkpt lat="45.48693" lon="6.91041">
        <ele>2239</ele>
        <time>2020-01-10T08:17:47Z</time>
      </trkpt>
      <trkpt lat="45.48693" lon="6.91038">
        <ele>2242.4</ele>
        <time>2020-01-10T08:17:49Z</time>
      </trkpt>
      <trkpt lat="45.48694" lon="6.91035">
        <ele>2242.4</ele>
        <time>2020-01-10T08:17:51Z</time>
      </trkpt>
      <trkpt lat="45.48695" lon="6.91032">
        <ele>2242.4</ele>
        <time>2020-01-10T08:17:53Z</time>
      </trkpt>
      <trkpt lat="45.48695" lon="6.9103">
        <ele>2242.4</ele>
        <time>2020-01-10T08:17:55Z</time>
      </trkpt>
      <trkpt lat="45.48695" lon="6.91026">
        <ele>2242.4</ele>
        <time>2020-01-10T08:17:58Z</time>
      </trkpt>
      <trkpt lat="45.48692" lon="6.91026">
        <ele>2242.4</ele>
        <time>2020-01-10T08:18:01Z</time>
      </trkpt>
      <trkpt lat="45.4869" lon="6.91024">
        <ele>2242.4</ele>
        <time>2020-01-10T08:18:04Z</time>
      </trkpt>
      <trkpt lat="45.48688" lon="6.91024">
        <ele>2242.4</ele>
        <time>2020-01-10T08:18:06Z</time>
      </trkpt>
      <trkpt lat="45.48686" lon="6.91022">
        <ele>2248.4</ele>
        <time>2020-01-10T08:18:09Z</time>
      </trkpt>
      <trkpt lat="45.48686" lon="6.91018">
        <ele>2248.4</ele>
        <time>2020-01-10T08:18:12Z</time>
      </trkpt>
      <trkpt lat="45.48687" lon="6.91015">
        <ele>2248.4</ele>
        <time>2020-01-10T08:18:14Z</time>
      </trkpt>
      <trkpt lat="45.48688" lon="6.91014">
        <ele>2248.4</ele>
        <time>2020-01-10T08:18:15Z</time>
      </trkpt>
      <trkpt lat="45.48689" lon="6.91011">
        <ele>2248.4</ele>
        <time>2020-01-10T08:18:17Z</time>
      </trkpt>
      <trkpt lat="45.48691" lon="6.91008">
        <ele>2248.4</ele>
        <time>2020-01-10T08:18:20Z</time>
      </trkpt>
      <trkpt lat="45.48692" lon="6.91006">
        <ele>2248.4</ele>
        <time>2020-01-10T08:18:21Z</time>
      </trkpt>
      <trkpt lat="45.4869" lon="6.91004">
        <ele>2248.4</ele>
        <time>2020-01-10T08:18:26Z</time>
      </trkpt>
      <trkpt lat="45.48687" lon="6.91003">
        <ele>2253.2</ele>
        <time>2020-01-10T08:18:29Z</time>
      </trkpt>
      <trkpt lat="45.48685" lon="6.91001">
        <ele>2253.2</ele>
        <time>2020-01-10T08:18:32Z</time>
      </trkpt>
      <trkpt lat="45.48684" lon="6.91">
        <ele>2253.2</ele>
        <time>2020-01-10T08:18:35Z</time>
      </trkpt>
      <trkpt lat="45.48682" lon="6.91">
        <ele>2253.2</ele>
        <time>2020-01-10T08:18:38Z</time>
      </trkpt>
      <trkpt lat="45.48679" lon="6.91001">
        <ele>2253.2</ele>
        <time>2020-01-10T08:18:40Z</time>
      </trkpt>
      <trkpt lat="45.48677" lon="6.91">
        <ele>2253.2</ele>
        <time>2020-01-10T08:18:42Z</time>
      </trkpt>
      <trkpt lat="45.48676" lon="6.90999">
        <ele>2253.2</ele>
        <time>2020-01-10T08:18:44Z</time>
      </trkpt>
      <trkpt lat="45.48674" lon="6.90998">
        <ele>2253.2</ele>
        <time>2020-01-10T08:18:46Z</time>
      </trkpt>
      <trkpt lat="45.48672" lon="6.90997">
        <ele>2253.2</ele>
        <time>2020-01-10T08:18:48Z</time>
      </trkpt>
      <trkpt lat="45.4867" lon="6.90996">
        <ele>2253.2</ele>
        <time>2020-01-10T08:18:50Z</time>
      </trkpt>
      <trkpt lat="45.48668" lon="6.90994">
        <ele>2253.2</ele>
        <time>2020-01-10T08:18:53Z</time>
      </trkpt>
      <trkpt lat="45.48667" lon="6.90988">
        <ele>2253.2</ele>
        <time>2020-01-10T08:18:57Z</time>
      </trkpt>
      <trkpt lat="45.48668" lon="6.90987">
        <ele>2253.2</ele>
        <time>2020-01-10T08:18:58Z</time>
      </trkpt>
      <trkpt lat="45.48669" lon="6.90985">
        <ele>2253.2</ele>
        <time>2020-01-10T08:19:00Z</time>
      </trkpt>
      <trkpt lat="45.48667" lon="6.90983">
        <ele>2253.2</ele>
        <time>2020-01-10T08:19:04Z</time>
      </trkpt>
      <trkpt lat="45.48664" lon="6.90982">
        <ele>2253.2</ele>
        <time>2020-01-10T08:19:07Z</time>
      </trkpt>
      <trkpt lat="45.48662" lon="6.9098">
        <ele>2253.2</ele>
        <time>2020-01-10T08:19:10Z</time>
      </trkpt>
      <trkpt lat="45.48662" lon="6.90976">
        <ele>2253.2</ele>
        <time>2020-01-10T08:19:13Z</time>
      </trkpt>
      <trkpt lat="45.48662" lon="6.90973">
        <ele>2253.2</ele>
        <time>2020-01-10T08:19:17Z</time>
      </trkpt>
      <trkpt lat="45.48662" lon="6.9097">
        <ele>2253.2</ele>
        <time>2020-01-10T08:19:20Z</time>
      </trkpt>
      <trkpt lat="45.48663" lon="6.90966">
        <ele>2253.2</ele>
        <time>2020-01-10T08:19:23Z</time>
      </trkpt>
      <trkpt lat="45.48664" lon="6.90965">
        <ele>2253.2</ele>
        <time>2020-01-10T08:19:24Z</time>
      </trkpt>
      <trkpt lat="45.48666" lon="6.90962">
        <ele>2253.2</ele>
        <time>2020-01-10T08:19:26Z</time>
      </trkpt>
      <trkpt lat="45.48667" lon="6.9096">
        <ele>2253.2</ele>
        <time>2020-01-10T08:19:28Z</time>
      </trkpt>
      <trkpt lat="45.48668" lon="6.90958">
        <ele>2253.2</ele>
        <time>2020-01-10T08:19:30Z</time>
      </trkpt>
      <trkpt lat="45.48669" lon="6.90955">
        <ele>2253.2</ele>
        <time>2020-01-10T08:19:33Z</time>
      </trkpt>
      <trkpt lat="45.48671" lon="6.90954">
        <ele>2253.2</ele>
        <time>2020-01-10T08:19:35Z</time>
      </trkpt>
      <trkpt lat="45.48673" lon="6.90952">
        <ele>2253.2</ele>
        <time>2020-01-10T08:19:37Z</time>
      </trkpt>
      <trkpt lat="45.48674" lon="6.9095">
        <ele>2253.2</ele>
        <time>2020-01-10T08:19:40Z</time>
      </trkpt>
      <trkpt lat="45.48676" lon="6.90949">
        <ele>2253.2</ele>
        <time>2020-01-10T08:19:45Z</time>
      </trkpt>
      <trkpt lat="45.48678" lon="6.90948">
        <ele>2253.2</ele>
        <time>2020-01-10T08:19:48Z</time>
      </trkpt>
      <trkpt lat="45.48676" lon="6.90946">
        <ele>2253.2</ele>
        <time>2020-01-10T08:19:55Z</time>
      </trkpt>
      <trkpt lat="45.48674" lon="6.90945">
        <ele>2253.2</ele>
        <time>2020-01-10T08:19:58Z</time>
      </trkpt>
      <trkpt lat="45.48671" lon="6.90943">
        <ele>2253.2</ele>
        <time>2020-01-10T08:20:01Z</time>
      </trkpt>
      <trkpt lat="45.4867" lon="6.90941">
        <ele>2253.2</ele>
        <time>2020-01-10T08:20:03Z</time>
      </trkpt>
      <trkpt lat="45.48667" lon="6.90941">
        <ele>2253.2</ele>
        <time>2020-01-10T08:20:06Z</time>
      </trkpt>
      <trkpt lat="45.48665" lon="6.90941">
        <ele>2253.2</ele>
        <time>2020-01-10T08:20:08Z</time>
      </trkpt>
      <trkpt lat="45.48663" lon="6.90942">
        <ele>2253.2</ele>
        <time>2020-01-10T08:20:11Z</time>
      </trkpt>
      <trkpt lat="45.48661" lon="6.90942">
        <ele>2253.2</ele>
        <time>2020-01-10T08:20:13Z</time>
      </trkpt>
      <trkpt lat="45.48659" lon="6.90942">
        <ele>2253.2</ele>
        <time>2020-01-10T08:20:16Z</time>
      </trkpt>
      <trkpt lat="45.48657" lon="6.90942">
        <ele>2253.2</ele>
        <time>2020-01-10T08:20:18Z</time>
      </trkpt>
      <trkpt lat="45.48655" lon="6.90941">
        <ele>2253.2</ele>
        <time>2020-01-10T08:20:21Z</time>
      </trkpt>
      <trkpt lat="45.48653" lon="6.9094">
        <ele>2253.2</ele>
        <time>2020-01-10T08:20:23Z</time>
      </trkpt>
      <trkpt lat="45.48652" lon="6.90938">
        <ele>2253.2</ele>
        <time>2020-01-10T08:20:25Z</time>
      </trkpt>
      <trkpt lat="45.48653" lon="6.90935">
        <ele>2277.2</ele>
        <time>2020-01-10T08:20:29Z</time>
      </trkpt>
      <trkpt lat="45.48655" lon="6.90933">
        <ele>2277.2</ele>
        <time>2020-01-10T08:20:31Z</time>
      </trkpt>
      <trkpt lat="45.48656" lon="6.9093">
        <ele>2277.2</ele>
        <time>2020-01-10T08:20:35Z</time>
      </trkpt>
      <trkpt lat="45.48654" lon="6.90929">
        <ele>2278</ele>
        <time>2020-01-10T08:20:39Z</time>
      </trkpt>
      <trkpt lat="45.48654" lon="6.90925">
        <ele>2278</ele>
        <time>2020-01-10T08:20:42Z</time>
      </trkpt>
      <trkpt lat="45.48655" lon="6.90922">
        <ele>2278</ele>
        <time>2020-01-10T08:20:45Z</time>
      </trkpt>
      <trkpt lat="45.48656" lon="6.90919">
        <ele>2278</ele>
        <time>2020-01-10T08:20:47Z</time>
      </trkpt>
      <trkpt lat="45.48658" lon="6.90916">
        <ele>2278</ele>
        <time>2020-01-10T08:20:50Z</time>
      </trkpt>
      <trkpt lat="45.48658" lon="6.90914">
        <ele>2278</ele>
        <time>2020-01-10T08:20:51Z</time>
      </trkpt>
      <trkpt lat="45.4866" lon="6.9091">
        <ele>2278</ele>
        <time>2020-01-10T08:20:54Z</time>
      </trkpt>
      <trkpt lat="45.48661" lon="6.90909">
        <ele>2278</ele>
        <time>2020-01-10T08:20:55Z</time>
      </trkpt>
      <trkpt lat="45.48663" lon="6.90906">
        <ele>2278</ele>
        <time>2020-01-10T08:20:57Z</time>
      </trkpt>
      <trkpt lat="45.48664" lon="6.90904">
        <ele>2282</ele>
        <time>2020-01-10T08:20:59Z</time>
      </trkpt>
      <trkpt lat="45.48666" lon="6.90902">
        <ele>2282</ele>
        <time>2020-01-10T08:21:01Z</time>
      </trkpt>
      <trkpt lat="45.48668" lon="6.90901">
        <ele>2282</ele>
        <time>2020-01-10T08:21:03Z</time>
      </trkpt>
      <trkpt lat="45.4867" lon="6.90899">
        <ele>2282</ele>
        <time>2020-01-10T08:21:05Z</time>
      </trkpt>
      <trkpt lat="45.48673" lon="6.90897">
        <ele>2282</ele>
        <time>2020-01-10T08:21:08Z</time>
      </trkpt>
      <trkpt lat="45.48674" lon="6.90896">
        <ele>2283.4</ele>
        <time>2020-01-10T08:21:09Z</time>
      </trkpt>
      <trkpt lat="45.48676" lon="6.90894">
        <ele>2283.4</ele>
        <time>2020-01-10T08:21:11Z</time>
      </trkpt>
      <trkpt lat="45.48678" lon="6.90893">
        <ele>2283.4</ele>
        <time>2020-01-10T08:21:13Z</time>
      </trkpt>
      <trkpt lat="45.4868" lon="6.9089">
        <ele>2283.4</ele>
        <time>2020-01-10T08:21:16Z</time>
      </trkpt>
      <trkpt lat="45.48681" lon="6.90889">
        <ele>2283.4</ele>
        <time>2020-01-10T08:21:18Z</time>
      </trkpt>
      <trkpt lat="45.48683" lon="6.90886">
        <ele>2283.4</ele>
        <time>2020-01-10T08:21:21Z</time>
      </trkpt>
      <trkpt lat="45.48684" lon="6.90884">
        <ele>2283.4</ele>
        <time>2020-01-10T08:21:24Z</time>
      </trkpt>
      <trkpt lat="45.48685" lon="6.9088">
        <ele>2283.4</ele>
        <time>2020-01-10T08:21:27Z</time>
      </trkpt>
      <trkpt lat="45.48687" lon="6.90876">
        <ele>2283.4</ele>
        <time>2020-01-10T08:21:31Z</time>
      </trkpt>
      <trkpt lat="45.48687" lon="6.90875">
        <ele>2283.4</ele>
        <time>2020-01-10T08:21:32Z</time>
      </trkpt>
      <trkpt lat="45.48688" lon="6.90872">
        <ele>2283.4</ele>
        <time>2020-01-10T08:21:35Z</time>
      </trkpt>
      <trkpt lat="45.48689" lon="6.90869">
        <ele>2283.4</ele>
        <time>2020-01-10T08:21:38Z</time>
      </trkpt>
      <trkpt lat="45.48689" lon="6.90866">
        <ele>2283.4</ele>
        <time>2020-01-10T08:21:40Z</time>
      </trkpt>
      <trkpt lat="45.48691" lon="6.90864">
        <ele>2283.4</ele>
        <time>2020-01-10T08:21:42Z</time>
      </trkpt>
      <trkpt lat="45.48692" lon="6.90863">
        <ele>2283.4</ele>
        <time>2020-01-10T08:21:44Z</time>
      </trkpt>
      <trkpt lat="45.48694" lon="6.9086">
        <ele>2283.4</ele>
        <time>2020-01-10T08:21:47Z</time>
      </trkpt>
      <trkpt lat="45.48695" lon="6.90858">
        <ele>2293.4</ele>
        <time>2020-01-10T08:21:49Z</time>
      </trkpt>
      <trkpt lat="45.48696" lon="6.90852">
        <ele>2293.4</ele>
        <time>2020-01-10T08:21:53Z</time>
      </trkpt>
      <trkpt lat="45.48696" lon="6.90851">
        <ele>2293.4</ele>
        <time>2020-01-10T08:21:54Z</time>
      </trkpt>
      <trkpt lat="45.48696" lon="6.90848">
        <ele>2293.4</ele>
        <time>2020-01-10T08:21:57Z</time>
      </trkpt>
      <trkpt lat="45.48696" lon="6.90844">
        <ele>2293.4</ele>
        <time>2020-01-10T08:22:00Z</time>
      </trkpt>
      <trkpt lat="45.48696" lon="6.90841">
        <ele>2293.4</ele>
        <time>2020-01-10T08:22:03Z</time>
      </trkpt>
      <trkpt lat="45.48696" lon="6.90838">
        <ele>2293.4</ele>
        <time>2020-01-10T08:22:06Z</time>
      </trkpt>
      <trkpt lat="45.48695" lon="6.90833">
        <ele>2293.4</ele>
        <time>2020-01-10T08:22:12Z</time>
      </trkpt>
      <trkpt lat="45.48695" lon="6.90832">
        <ele>2293.4</ele>
        <time>2020-01-10T08:22:13Z</time>
      </trkpt>
      <trkpt lat="45.48695" lon="6.90829">
        <ele>2293.4</ele>
        <time>2020-01-10T08:22:15Z</time>
      </trkpt>
      <trkpt lat="45.48694" lon="6.90826">
        <ele>2293.4</ele>
        <time>2020-01-10T08:22:18Z</time>
      </trkpt>
      <trkpt lat="45.48694" lon="6.90822">
        <ele>2293.4</ele>
        <time>2020-01-10T08:22:22Z</time>
      </trkpt>
      <trkpt lat="45.48693" lon="6.90819">
        <ele>2293.4</ele>
        <time>2020-01-10T08:22:26Z</time>
      </trkpt>
      <trkpt lat="45.48694" lon="6.90817">
        <ele>2293.4</ele>
        <time>2020-01-10T08:22:28Z</time>
      </trkpt>
      <trkpt lat="45.48695" lon="6.90814">
        <ele>2293.4</ele>
        <time>2020-01-10T08:22:30Z</time>
      </trkpt>
      <trkpt lat="45.48693" lon="6.90812">
        <ele>2293.4</ele>
        <time>2020-01-10T08:22:34Z</time>
      </trkpt>
      <trkpt lat="45.48692" lon="6.90809">
        <ele>2293.4</ele>
        <time>2020-01-10T08:22:40Z</time>
      </trkpt>
      <trkpt lat="45.48694" lon="6.90808">
        <ele>2293.4</ele>
        <time>2020-01-10T08:22:44Z</time>
      </trkpt>
      <trkpt lat="45.48696" lon="6.90805">
        <ele>2293.4</ele>
        <time>2020-01-10T08:22:47Z</time>
      </trkpt>
      <trkpt lat="45.48695" lon="6.90801">
        <ele>2293.4</ele>
        <time>2020-01-10T08:22:52Z</time>
      </trkpt>
      <trkpt lat="45.48695" lon="6.90798">
        <ele>2293.4</ele>
        <time>2020-01-10T08:22:56Z</time>
      </trkpt>
      <trkpt lat="45.48695" lon="6.90795">
        <ele>2307.6</ele>
        <time>2020-01-10T08:22:59Z</time>
      </trkpt>
      <trkpt lat="45.48696" lon="6.90792">
        <ele>2307.6</ele>
        <time>2020-01-10T08:23:02Z</time>
      </trkpt>
      <trkpt lat="45.48695" lon="6.90789">
        <ele>2307.6</ele>
        <time>2020-01-10T08:23:06Z</time>
      </trkpt>
      <trkpt lat="45.48693" lon="6.90787">
        <ele>2310.4</ele>
        <time>2020-01-10T08:23:09Z</time>
      </trkpt>
      <trkpt lat="45.48691" lon="6.90785">
        <ele>2310.4</ele>
        <time>2020-01-10T08:23:12Z</time>
      </trkpt>
      <trkpt lat="45.48689" lon="6.90782">
        <ele>2310.4</ele>
        <time>2020-01-10T08:23:14Z</time>
      </trkpt>
      <trkpt lat="45.48689" lon="6.9078">
        <ele>2310.4</ele>
        <time>2020-01-10T08:23:16Z</time>
      </trkpt>
      <trkpt lat="45.48687" lon="6.90778">
        <ele>2310.4</ele>
        <time>2020-01-10T08:23:18Z</time>
      </trkpt>
      <trkpt lat="45.48686" lon="6.90775">
        <ele>2310.4</ele>
        <time>2020-01-10T08:23:20Z</time>
      </trkpt>
      <trkpt lat="45.48685" lon="6.90772">
        <ele>2310.4</ele>
        <time>2020-01-10T08:23:23Z</time>
      </trkpt>
      <trkpt lat="45.48684" lon="6.90769">
        <ele>2310.4</ele>
        <time>2020-01-10T08:23:25Z</time>
      </trkpt>
      <trkpt lat="45.48683" lon="6.90766">
        <ele>2310.4</ele>
        <time>2020-01-10T08:23:28Z</time>
      </trkpt>
      <trkpt lat="45.48682" lon="6.90763">
        <ele>2310.4</ele>
        <time>2020-01-10T08:23:31Z</time>
      </trkpt>
      <trkpt lat="45.4868" lon="6.9076">
        <ele>2310.4</ele>
        <time>2020-01-10T08:23:35Z</time>
      </trkpt>
      <trkpt lat="45.48678" lon="6.90758">
        <ele>2310.4</ele>
        <time>2020-01-10T08:23:38Z</time>
      </trkpt>
      <trkpt lat="45.48678" lon="6.90754">
        <ele>2310.4</ele>
        <time>2020-01-10T08:23:41Z</time>
      </trkpt>
      <trkpt lat="45.48678" lon="6.90751">
        <ele>2310.4</ele>
        <time>2020-01-10T08:23:44Z</time>
      </trkpt>
      <trkpt lat="45.48678" lon="6.90748">
        <ele>2310.4</ele>
        <time>2020-01-10T08:23:46Z</time>
      </trkpt>
      <trkpt lat="45.48677" lon="6.90744">
        <ele>2320.4</ele>
        <time>2020-01-10T08:23:49Z</time>
      </trkpt>
      <trkpt lat="45.48677" lon="6.90742">
        <ele>2320.4</ele>
        <time>2020-01-10T08:23:51Z</time>
      </trkpt>
      <trkpt lat="45.48676" lon="6.9074">
        <ele>2320.4</ele>
        <time>2020-01-10T08:23:54Z</time>
      </trkpt>
      <trkpt lat="45.48674" lon="6.9074">
        <ele>2320.4</ele>
        <time>2020-01-10T08:23:56Z</time>
      </trkpt>
      <trkpt lat="45.48672" lon="6.90739">
        <ele>2322.8</ele>
        <time>2020-01-10T08:23:59Z</time>
      </trkpt>
      <trkpt lat="45.4867" lon="6.90738">
        <ele>2322.8</ele>
        <time>2020-01-10T08:24:02Z</time>
      </trkpt>
      <trkpt lat="45.48668" lon="6.90737">
        <ele>2322.8</ele>
        <time>2020-01-10T08:24:05Z</time>
      </trkpt>
      <trkpt lat="45.48665" lon="6.90737">
        <ele>2322.8</ele>
        <time>2020-01-10T08:24:08Z</time>
      </trkpt>
      <trkpt lat="45.48663" lon="6.90736">
        <ele>2322.8</ele>
        <time>2020-01-10T08:24:10Z</time>
      </trkpt>
      <trkpt lat="45.48661" lon="6.90736">
        <ele>2322.8</ele>
        <time>2020-01-10T08:24:12Z</time>
      </trkpt>
      <trkpt lat="45.48658" lon="6.90735">
        <ele>2322.8</ele>
        <time>2020-01-10T08:24:15Z</time>
      </trkpt>
      <trkpt lat="45.48656" lon="6.90733">
        <ele>2325</ele>
        <time>2020-01-10T08:24:19Z</time>
      </trkpt>
      <trkpt lat="45.48654" lon="6.90732">
        <ele>2325</ele>
        <time>2020-01-10T08:24:24Z</time>
      </trkpt>
      <trkpt lat="45.48655" lon="6.9073">
        <ele>2325</ele>
        <time>2020-01-10T08:24:28Z</time>
      </trkpt>
      <trkpt lat="45.48657" lon="6.90728">
        <ele>2325</ele>
        <time>2020-01-10T08:24:30Z</time>
      </trkpt>
      <trkpt lat="45.48659" lon="6.90727">
        <ele>2325</ele>
        <time>2020-01-10T08:24:32Z</time>
      </trkpt>
      <trkpt lat="45.48656" lon="6.90725">
        <ele>2325</ele>
        <time>2020-01-10T08:24:41Z</time>
      </trkpt>
      <trkpt lat="45.48654" lon="6.90725">
        <ele>2325</ele>
        <time>2020-01-10T08:24:43Z</time>
      </trkpt>
      <trkpt lat="45.48652" lon="6.90725">
        <ele>2325</ele>
        <time>2020-01-10T08:24:45Z</time>
      </trkpt>
      <trkpt lat="45.4865" lon="6.90725">
        <ele>2325</ele>
        <time>2020-01-10T08:24:48Z</time>
      </trkpt>
      <trkpt lat="45.48648" lon="6.90724">
        <ele>2325</ele>
        <time>2020-01-10T08:24:52Z</time>
      </trkpt>
      <trkpt lat="45.48646" lon="6.90722">
        <ele>2325</ele>
        <time>2020-01-10T08:25:47Z</time>
      </trkpt>
      <trkpt lat="45.48643" lon="6.90722">
        <ele>2330.2</ele>
        <time>2020-01-10T08:25:49Z</time>
      </trkpt>
      <trkpt lat="45.48641" lon="6.90722">
        <ele>2330.2</ele>
        <time>2020-01-10T08:25:50Z</time>
      </trkpt>
      <trkpt lat="45.48638" lon="6.90722">
        <ele>2330.2</ele>
        <time>2020-01-10T08:25:52Z</time>
      </trkpt>
      <trkpt lat="45.48636" lon="6.90721">
        <ele>2330.2</ele>
        <time>2020-01-10T08:25:54Z</time>
      </trkpt>
      <trkpt lat="45.48634" lon="6.90722">
        <ele>2330.2</ele>
        <time>2020-01-10T08:25:57Z</time>
      </trkpt>
      <trkpt lat="45.48631" lon="6.90722">
        <ele>2330.2</ele>
        <time>2020-01-10T08:26:00Z</time>
      </trkpt>
      <trkpt lat="45.48629" lon="6.90721">
        <ele>2330.2</ele>
        <time>2020-01-10T08:26:03Z</time>
      </trkpt>
      <trkpt lat="45.48627" lon="6.9072">
        <ele>2330.2</ele>
        <time>2020-01-10T08:26:06Z</time>
      </trkpt>
      <trkpt lat="45.48624" lon="6.90721">
        <ele>2335.2</ele>
        <time>2020-01-10T08:26:09Z</time>
      </trkpt>
      <trkpt lat="45.48622" lon="6.90721">
        <ele>2335.2</ele>
        <time>2020-01-10T08:26:12Z</time>
      </trkpt>
      <trkpt lat="45.4862" lon="6.90721">
        <ele>2335.2</ele>
        <time>2020-01-10T08:26:16Z</time>
      </trkpt>
      <trkpt lat="45.48618" lon="6.90721">
        <ele>2337.4</ele>
        <time>2020-01-10T08:26:19Z</time>
      </trkpt>
      <trkpt lat="45.48615" lon="6.9072">
        <ele>2337.4</ele>
        <time>2020-01-10T08:26:23Z</time>
      </trkpt>
      <trkpt lat="45.48613" lon="6.9072">
        <ele>2337.4</ele>
        <time>2020-01-10T08:26:26Z</time>
      </trkpt>
      <trkpt lat="45.48612" lon="6.90719">
        <ele>2337.4</ele>
        <time>2020-01-10T08:26:30Z</time>
      </trkpt>
      <trkpt lat="45.48609" lon="6.9072">
        <ele>2337.4</ele>
        <time>2020-01-10T08:26:33Z</time>
      </trkpt>
      <trkpt lat="45.48607" lon="6.90721">
        <ele>2337.4</ele>
        <time>2020-01-10T08:26:36Z</time>
      </trkpt>
      <trkpt lat="45.48605" lon="6.9072">
        <ele>2337.4</ele>
        <time>2020-01-10T08:26:40Z</time>
      </trkpt>
      <trkpt lat="45.48603" lon="6.90719">
        <ele>2337.4</ele>
        <time>2020-01-10T08:26:43Z</time>
      </trkpt>
      <trkpt lat="45.48601" lon="6.90719">
        <ele>2337.4</ele>
        <time>2020-01-10T08:26:46Z</time>
      </trkpt>
      <trkpt lat="45.48599" lon="6.9072">
        <ele>2345.8</ele>
        <time>2020-01-10T08:26:49Z</time>
      </trkpt>
      <trkpt lat="45.48596" lon="6.9072">
        <ele>2345.8</ele>
        <time>2020-01-10T08:26:53Z</time>
      </trkpt>
      <trkpt lat="45.48595" lon="6.9072">
        <ele>2345.8</ele>
        <time>2020-01-10T08:26:56Z</time>
      </trkpt>
      <trkpt lat="45.48593" lon="6.9072">
        <ele>2345.8</ele>
        <time>2020-01-10T08:26:58Z</time>
      </trkpt>
      <trkpt lat="45.48591" lon="6.9072">
        <ele>2345.8</ele>
        <time>2020-01-10T08:27:00Z</time>
      </trkpt>
      <trkpt lat="45.48589" lon="6.90722">
        <ele>2345.8</ele>
        <time>2020-01-10T08:27:03Z</time>
      </trkpt>
      <trkpt lat="45.48587" lon="6.90721">
        <ele>2345.8</ele>
        <time>2020-01-10T08:27:05Z</time>
      </trkpt>
      <trkpt lat="45.48584" lon="6.90721">
        <ele>2345.8</ele>
        <time>2020-01-10T08:27:07Z</time>
      </trkpt>
      <trkpt lat="45.48582" lon="6.90722">
        <ele>2345.8</ele>
        <time>2020-01-10T08:27:10Z</time>
      </trkpt>
      <trkpt lat="45.4858" lon="6.90722">
        <ele>2345.8</ele>
        <time>2020-01-10T08:27:12Z</time>
      </trkpt>
      <trkpt lat="45.48579" lon="6.90722">
        <ele>2345.8</ele>
        <time>2020-01-10T08:27:14Z</time>
      </trkpt>
      <trkpt lat="45.48576" lon="6.90722">
        <ele>2345.8</ele>
        <time>2020-01-10T08:27:16Z</time>
      </trkpt>
      <trkpt lat="45.48574" lon="6.90722">
        <ele>2345.8</ele>
        <time>2020-01-10T08:27:18Z</time>
      </trkpt>
      <trkpt lat="45.48572" lon="6.90722">
        <ele>2345.8</ele>
        <time>2020-01-10T08:27:20Z</time>
      </trkpt>
      <trkpt lat="45.4857" lon="6.90722">
        <ele>2345.8</ele>
        <time>2020-01-10T08:27:22Z</time>
      </trkpt>
      <trkpt lat="45.48568" lon="6.90721">
        <ele>2345.8</ele>
        <time>2020-01-10T08:27:24Z</time>
      </trkpt>
      <trkpt lat="45.48566" lon="6.9072">
        <ele>2345.8</ele>
        <time>2020-01-10T08:27:26Z</time>
      </trkpt>
      <trkpt lat="45.48563" lon="6.9072">
        <ele>2345.8</ele>
        <time>2020-01-10T08:27:28Z</time>
      </trkpt>
      <trkpt lat="45.4856" lon="6.90719">
        <ele>2345.8</ele>
        <time>2020-01-10T08:27:31Z</time>
      </trkpt>
      <trkpt lat="45.48558" lon="6.90719">
        <ele>2345.8</ele>
        <time>2020-01-10T08:27:33Z</time>
      </trkpt>
      <trkpt lat="45.48556" lon="6.90718">
        <ele>2345.8</ele>
        <time>2020-01-10T08:27:35Z</time>
      </trkpt>
      <trkpt lat="45.48555" lon="6.90717">
        <ele>2345.8</ele>
        <time>2020-01-10T08:27:37Z</time>
      </trkpt>
      <trkpt lat="45.48554" lon="6.90714">
        <ele>2345.8</ele>
        <time>2020-01-10T08:27:40Z</time>
      </trkpt>
      <trkpt lat="45.48552" lon="6.90712">
        <ele>2345.8</ele>
        <time>2020-01-10T08:27:52Z</time>
      </trkpt>
      <trkpt lat="45.4855" lon="6.90711">
        <ele>2345.8</ele>
        <time>2020-01-10T08:27:55Z</time>
      </trkpt>
      <trkpt lat="45.48548" lon="6.90708">
        <ele>2345.8</ele>
        <time>2020-01-10T08:27:58Z</time>
      </trkpt>
      <trkpt lat="45.48546" lon="6.90706">
        <ele>2345.8</ele>
        <time>2020-01-10T08:28:00Z</time>
      </trkpt>
      <trkpt lat="45.48546" lon="6.90703">
        <ele>2345.8</ele>
        <time>2020-01-10T08:28:02Z</time>
      </trkpt>
      <trkpt lat="45.48545" lon="6.907">
        <ele>2345.8</ele>
        <time>2020-01-10T08:28:04Z</time>
      </trkpt>
      <trkpt lat="45.48544" lon="6.90697">
        <ele>2345.8</ele>
        <time>2020-01-10T08:28:06Z</time>
      </trkpt>
      <trkpt lat="45.48544" lon="6.90694">
        <ele>2345.8</ele>
        <time>2020-01-10T08:28:08Z</time>
      </trkpt>
      <trkpt lat="45.48543" lon="6.90691">
        <ele>2345.8</ele>
        <time>2020-01-10T08:28:10Z</time>
      </trkpt>
      <trkpt lat="45.48542" lon="6.90688">
        <ele>2345.8</ele>
        <time>2020-01-10T08:28:12Z</time>
      </trkpt>
      <trkpt lat="45.48541" lon="6.90685">
        <ele>2345.8</ele>
        <time>2020-01-10T08:28:14Z</time>
      </trkpt>
      <trkpt lat="45.4854" lon="6.90682">
        <ele>2345.8</ele>
        <time>2020-01-10T08:28:17Z</time>
      </trkpt>
      <trkpt lat="45.48539" lon="6.9068">
        <ele>2365.8</ele>
        <time>2020-01-10T08:28:19Z</time>
      </trkpt>
      <trkpt lat="45.48538" lon="6.90677">
        <ele>2365.8</ele>
        <time>2020-01-10T08:28:21Z</time>
      </trkpt>
      <trkpt lat="45.48537" lon="6.90674">
        <ele>2365.8</ele>
        <time>2020-01-10T08:28:23Z</time>
      </trkpt>
      <trkpt lat="45.48535" lon="6.90668">
        <ele>2365.8</ele>
        <time>2020-01-10T08:28:27Z</time>
      </trkpt>
      <trkpt lat="45.48534" lon="6.90667">
        <ele>2365.8</ele>
        <time>2020-01-10T08:28:28Z</time>
      </trkpt>
      <trkpt lat="45.48533" lon="6.90664">
        <ele>2365.8</ele>
        <time>2020-01-10T08:28:30Z</time>
      </trkpt>
      <trkpt lat="45.48532" lon="6.9066">
        <ele>2365.8</ele>
        <time>2020-01-10T08:28:33Z</time>
      </trkpt>
      <trkpt lat="45.48532" lon="6.90657">
        <ele>2365.8</ele>
        <time>2020-01-10T08:28:35Z</time>
      </trkpt>
      <trkpt lat="45.48531" lon="6.90654">
        <ele>2365.8</ele>
        <time>2020-01-10T08:28:37Z</time>
      </trkpt>
      <trkpt lat="45.48531" lon="6.90652">
        <ele>2372.4</ele>
        <time>2020-01-10T08:28:39Z</time>
      </trkpt>
      <trkpt lat="45.4853" lon="6.90648">
        <ele>2372.4</ele>
        <time>2020-01-10T08:28:42Z</time>
      </trkpt>
      <trkpt lat="45.48529" lon="6.90645">
        <ele>2372.4</ele>
        <time>2020-01-10T08:28:45Z</time>
      </trkpt>
      <trkpt lat="45.48528" lon="6.90643">
        <ele>2372.4</ele>
        <time>2020-01-10T08:28:46Z</time>
      </trkpt>
      <trkpt lat="45.48527" lon="6.90639">
        <ele>2375.6</ele>
        <time>2020-01-10T08:28:49Z</time>
      </trkpt>
      <trkpt lat="45.48527" lon="6.90636">
        <ele>2375.6</ele>
        <time>2020-01-10T08:28:51Z</time>
      </trkpt>
      <trkpt lat="45.48526" lon="6.90633">
        <ele>2375.6</ele>
        <time>2020-01-10T08:28:54Z</time>
      </trkpt>
      <trkpt lat="45.48526" lon="6.90629">
        <ele>2375.6</ele>
        <time>2020-01-10T08:28:57Z</time>
      </trkpt>
      <trkpt lat="45.48526" lon="6.90625">
        <ele>2375.6</ele>
        <time>2020-01-10T08:29:00Z</time>
      </trkpt>
      <trkpt lat="45.48524" lon="6.90621">
        <ele>2375.6</ele>
        <time>2020-01-10T08:29:03Z</time>
      </trkpt>
      <trkpt lat="45.48524" lon="6.9062">
        <ele>2375.6</ele>
        <time>2020-01-10T08:29:04Z</time>
      </trkpt>
      <trkpt lat="45.48523" lon="6.90616">
        <ele>2375.6</ele>
        <time>2020-01-10T08:29:07Z</time>
      </trkpt>
      <trkpt lat="45.48523" lon="6.90614">
        <ele>2382</ele>
        <time>2020-01-10T08:29:09Z</time>
      </trkpt>
      <trkpt lat="45.48523" lon="6.90612">
        <ele>2382</ele>
        <time>2020-01-10T08:29:10Z</time>
      </trkpt>
      <trkpt lat="45.48522" lon="6.90609">
        <ele>2382</ele>
        <time>2020-01-10T08:29:12Z</time>
      </trkpt>
      <trkpt lat="45.48521" lon="6.90604">
        <ele>2382</ele>
        <time>2020-01-10T08:29:15Z</time>
      </trkpt>
      <trkpt lat="45.48521" lon="6.90603">
        <ele>2382</ele>
        <time>2020-01-10T08:29:16Z</time>
      </trkpt>
      <trkpt lat="45.48521" lon="6.90599">
        <ele>2382</ele>
        <time>2020-01-10T08:29:18Z</time>
      </trkpt>
      <trkpt lat="45.48519" lon="6.90595">
        <ele>2382</ele>
        <time>2020-01-10T08:29:21Z</time>
      </trkpt>
      <trkpt lat="45.48519" lon="6.90594">
        <ele>2382</ele>
        <time>2020-01-10T08:29:22Z</time>
      </trkpt>
      <trkpt lat="45.48519" lon="6.9059">
        <ele>2382</ele>
        <time>2020-01-10T08:29:24Z</time>
      </trkpt>
      <trkpt lat="45.48519" lon="6.90586">
        <ele>2382</ele>
        <time>2020-01-10T08:29:27Z</time>
      </trkpt>
      <trkpt lat="45.48519" lon="6.90584">
        <ele>2382</ele>
        <time>2020-01-10T08:29:28Z</time>
      </trkpt>
      <trkpt lat="45.48518" lon="6.9058">
        <ele>2382</ele>
        <time>2020-01-10T08:29:31Z</time>
      </trkpt>
      <trkpt lat="45.48518" lon="6.90578">
        <ele>2382</ele>
        <time>2020-01-10T08:29:32Z</time>
      </trkpt>
      <trkpt lat="45.48517" lon="6.90574">
        <ele>2382</ele>
        <time>2020-01-10T08:29:34Z</time>
      </trkpt>
      <trkpt lat="45.48516" lon="6.90571">
        <ele>2382</ele>
        <time>2020-01-10T08:29:36Z</time>
      </trkpt>
      <trkpt lat="45.48516" lon="6.90568">
        <ele>2382</ele>
        <time>2020-01-10T08:29:38Z</time>
      </trkpt>
      <trkpt lat="45.48516" lon="6.90564">
        <ele>2382</ele>
        <time>2020-01-10T08:29:40Z</time>
      </trkpt>
      <trkpt lat="45.48515" lon="6.90561">
        <ele>2382</ele>
        <time>2020-01-10T08:29:42Z</time>
      </trkpt>
      <trkpt lat="45.48515" lon="6.90555">
        <ele>2382</ele>
        <time>2020-01-10T08:29:45Z</time>
      </trkpt>
      <trkpt lat="45.48515" lon="6.90552">
        <ele>2382</ele>
        <time>2020-01-10T08:29:47Z</time>
      </trkpt>
      <trkpt lat="45.48514" lon="6.90551">
        <ele>2382</ele>
        <time>2020-01-10T08:29:48Z</time>
      </trkpt>
      <trkpt lat="45.48513" lon="6.90547">
        <ele>2382</ele>
        <time>2020-01-10T08:29:51Z</time>
      </trkpt>
      <trkpt lat="45.48513" lon="6.90544">
        <ele>2382</ele>
        <time>2020-01-10T08:29:53Z</time>
      </trkpt>
      <trkpt lat="45.48512" lon="6.9054">
        <ele>2382</ele>
        <time>2020-01-10T08:29:55Z</time>
      </trkpt>
      <trkpt lat="45.48511" lon="6.90536">
        <ele>2382</ele>
        <time>2020-01-10T08:29:58Z</time>
      </trkpt>
      <trkpt lat="45.48511" lon="6.90532">
        <ele>2382</ele>
        <time>2020-01-10T08:30:01Z</time>
      </trkpt>
      <trkpt lat="45.4851" lon="6.90529">
        <ele>2382</ele>
        <time>2020-01-10T08:30:04Z</time>
      </trkpt>
      <trkpt lat="45.48509" lon="6.90527">
        <ele>2382</ele>
        <time>2020-01-10T08:30:05Z</time>
      </trkpt>
      <trkpt lat="45.48508" lon="6.90522">
        <ele>2400.4</ele>
        <time>2020-01-10T08:30:09Z</time>
      </trkpt>
      <trkpt lat="45.48508" lon="6.90521">
        <ele>2400.4</ele>
        <time>2020-01-10T08:30:10Z</time>
      </trkpt>
      <trkpt lat="45.48507" lon="6.90518">
        <ele>2400.4</ele>
        <time>2020-01-10T08:30:12Z</time>
      </trkpt>
      <trkpt lat="45.48506" lon="6.90514">
        <ele>2400.4</ele>
        <time>2020-01-10T08:30:15Z</time>
      </trkpt>
      <trkpt lat="45.48505" lon="6.9051">
        <ele>2400.4</ele>
        <time>2020-01-10T08:30:18Z</time>
      </trkpt>
      <trkpt lat="45.48505" lon="6.90509">
        <ele>2403.6</ele>
        <time>2020-01-10T08:30:19Z</time>
      </trkpt>
      <trkpt lat="45.48504" lon="6.90505">
        <ele>2403.6</ele>
        <time>2020-01-10T08:30:22Z</time>
      </trkpt>
      <trkpt lat="45.48503" lon="6.90501">
        <ele>2403.6</ele>
        <time>2020-01-10T08:30:25Z</time>
      </trkpt>
      <trkpt lat="45.48503" lon="6.905">
        <ele>2403.6</ele>
        <time>2020-01-10T08:30:26Z</time>
      </trkpt>
      <trkpt lat="45.48502" lon="6.90497">
        <ele>2403.6</ele>
        <time>2020-01-10T08:30:28Z</time>
      </trkpt>
      <trkpt lat="45.48501" lon="6.90493">
        <ele>2403.6</ele>
        <time>2020-01-10T08:30:31Z</time>
      </trkpt>
      <trkpt lat="45.48501" lon="6.90491">
        <ele>2403.6</ele>
        <time>2020-01-10T08:30:33Z</time>
      </trkpt>
      <trkpt lat="45.48501" lon="6.90488">
        <ele>2403.6</ele>
        <time>2020-01-10T08:30:35Z</time>
      </trkpt>
      <trkpt lat="45.48501" lon="6.90485">
        <ele>2403.6</ele>
        <time>2020-01-10T08:30:37Z</time>
      </trkpt>
      <trkpt lat="45.48501" lon="6.90483">
        <ele>2409.8</ele>
        <time>2020-01-10T08:30:39Z</time>
      </trkpt>
      <trkpt lat="45.48501" lon="6.9048">
        <ele>2409.8</ele>
        <time>2020-01-10T08:30:41Z</time>
      </trkpt>
      <trkpt lat="45.48501" lon="6.90475">
        <ele>2409.8</ele>
        <time>2020-01-10T08:30:45Z</time>
      </trkpt>
      <trkpt lat="45.48501" lon="6.90473">
        <ele>2409.8</ele>
        <time>2020-01-10T08:30:47Z</time>
      </trkpt>
      <trkpt lat="45.48501" lon="6.90469">
        <ele>2409.8</ele>
        <time>2020-01-10T08:30:50Z</time>
      </trkpt>
      <trkpt lat="45.48501" lon="6.90466">
        <ele>2409.8</ele>
        <time>2020-01-10T08:30:53Z</time>
      </trkpt>
      <trkpt lat="45.48501" lon="6.90462">
        <ele>2409.8</ele>
        <time>2020-01-10T08:30:57Z</time>
      </trkpt>
      <trkpt lat="45.485" lon="6.9046">
        <ele>2416</ele>
        <time>2020-01-10T08:30:59Z</time>
      </trkpt>
      <trkpt lat="45.48499" lon="6.90457">
        <ele>2416</ele>
        <time>2020-01-10T08:31:02Z</time>
      </trkpt>
      <trkpt lat="45.48499" lon="6.90454">
        <ele>2416</ele>
        <time>2020-01-10T08:31:05Z</time>
      </trkpt>
      <trkpt lat="45.48497" lon="6.90452">
        <ele>2416</ele>
        <time>2020-01-10T08:31:08Z</time>
      </trkpt>
      <trkpt lat="45.48496" lon="6.90449">
        <ele>2416</ele>
        <time>2020-01-10T08:31:11Z</time>
      </trkpt>
      <trkpt lat="45.48495" lon="6.90446">
        <ele>2416</ele>
        <time>2020-01-10T08:31:15Z</time>
      </trkpt>
      <trkpt lat="45.48495" lon="6.90443">
        <ele>2416</ele>
        <time>2020-01-10T08:31:18Z</time>
      </trkpt>
      <trkpt lat="45.48494" lon="6.90441">
        <ele>2416</ele>
        <time>2020-01-10T08:31:22Z</time>
      </trkpt>
      <trkpt lat="45.48493" lon="6.90438">
        <ele>2416</ele>
        <time>2020-01-10T08:31:25Z</time>
      </trkpt>
      <trkpt lat="45.48493" lon="6.90435">
        <ele>2425.4</ele>
        <time>2020-01-10T08:31:29Z</time>
      </trkpt>
      <trkpt lat="45.48492" lon="6.90432">
        <ele>2425.4</ele>
        <time>2020-01-10T08:31:34Z</time>
      </trkpt>
      <trkpt lat="45.48493" lon="6.90428">
        <ele>2425.4</ele>
        <time>2020-01-10T08:31:37Z</time>
      </trkpt>
      <trkpt lat="45.48494" lon="6.90426">
        <ele>2425.4</ele>
        <time>2020-01-10T08:31:40Z</time>
      </trkpt>
      <trkpt lat="45.48495" lon="6.90422">
        <ele>2425.4</ele>
        <time>2020-01-10T08:31:44Z</time>
      </trkpt>
      <trkpt lat="45.48496" lon="6.90421">
        <ele>2425.4</ele>
        <time>2020-01-10T08:31:45Z</time>
      </trkpt>
      <trkpt lat="45.48497" lon="6.90417">
        <ele>2425.4</ele>
        <time>2020-01-10T08:31:48Z</time>
      </trkpt>
      <trkpt lat="45.48499" lon="6.90414">
        <ele>2425.4</ele>
        <time>2020-01-10T08:31:50Z</time>
      </trkpt>
      <trkpt lat="45.485" lon="6.90411">
        <ele>2425.4</ele>
        <time>2020-01-10T08:31:53Z</time>
      </trkpt>
      <trkpt lat="45.48501" lon="6.90409">
        <ele>2425.4</ele>
        <time>2020-01-10T08:31:56Z</time>
      </trkpt>
      <trkpt lat="45.48498" lon="6.90407">
        <ele>2425.4</ele>
        <time>2020-01-10T08:32:01Z</time>
      </trkpt>
      <trkpt lat="45.48497" lon="6.90406">
        <ele>2425.4</ele>
        <time>2020-01-10T08:32:03Z</time>
      </trkpt>
      <trkpt lat="45.48495" lon="6.90405">
        <ele>2425.4</ele>
        <time>2020-01-10T08:32:05Z</time>
      </trkpt>
      <trkpt lat="45.48496" lon="6.90401">
        <ele>2425.4</ele>
        <time>2020-01-10T08:32:08Z</time>
      </trkpt>
      <trkpt lat="45.48498" lon="6.90398">
        <ele>2425.4</ele>
        <time>2020-01-10T08:32:12Z</time>
      </trkpt>
      <trkpt lat="45.48498" lon="6.90396">
        <ele>2425.4</ele>
        <time>2020-01-10T08:32:13Z</time>
      </trkpt>
      <trkpt lat="45.485" lon="6.90394">
        <ele>2425.4</ele>
        <time>2020-01-10T08:32:16Z</time>
      </trkpt>
      <trkpt lat="45.48501" lon="6.90392">
        <ele>2425.4</ele>
        <time>2020-01-10T08:32:18Z</time>
      </trkpt>
      <trkpt lat="45.48502" lon="6.90389">
        <ele>2425.4</ele>
        <time>2020-01-10T08:32:21Z</time>
      </trkpt>
      <trkpt lat="45.48503" lon="6.90385">
        <ele>2425.4</ele>
        <time>2020-01-10T08:32:24Z</time>
      </trkpt>
      <trkpt lat="45.48505" lon="6.90382">
        <ele>2425.4</ele>
        <time>2020-01-10T08:32:27Z</time>
      </trkpt>
      <trkpt lat="45.48506" lon="6.90379">
        <ele>2425.4</ele>
        <time>2020-01-10T08:32:30Z</time>
      </trkpt>
      <trkpt lat="45.48507" lon="6.90376">
        <ele>2425.4</ele>
        <time>2020-01-10T08:32:33Z</time>
      </trkpt>
      <trkpt lat="45.48507" lon="6.90373">
        <ele>2425.4</ele>
        <time>2020-01-10T08:32:37Z</time>
      </trkpt>
      <trkpt lat="45.48505" lon="6.90372">
        <ele>2425.4</ele>
        <time>2020-01-10T08:32:40Z</time>
      </trkpt>
      <trkpt lat="45.48503" lon="6.90371">
        <ele>2425.4</ele>
        <time>2020-01-10T08:32:42Z</time>
      </trkpt>
      <trkpt lat="45.48501" lon="6.9037">
        <ele>2425.4</ele>
        <time>2020-01-10T08:32:45Z</time>
      </trkpt>
      <trkpt lat="45.48499" lon="6.90369">
        <ele>2425.4</ele>
        <time>2020-01-10T08:32:47Z</time>
      </trkpt>
      <trkpt lat="45.48497" lon="6.90368">
        <ele>2447.6</ele>
        <time>2020-01-10T08:32:49Z</time>
      </trkpt>
      <trkpt lat="45.48495" lon="6.90367">
        <ele>2447.6</ele>
        <time>2020-01-10T08:32:51Z</time>
      </trkpt>
      <trkpt lat="45.48493" lon="6.90365">
        <ele>2447.6</ele>
        <time>2020-01-10T08:32:54Z</time>
      </trkpt>
      <trkpt lat="45.48491" lon="6.90364">
        <ele>2447.6</ele>
        <time>2020-01-10T08:32:57Z</time>
      </trkpt>
      <trkpt lat="45.48488" lon="6.90362">
        <ele>2447.6</ele>
        <time>2020-01-10T08:33:00Z</time>
      </trkpt>
      <trkpt lat="45.48486" lon="6.90361">
        <ele>2447.6</ele>
        <time>2020-01-10T08:33:03Z</time>
      </trkpt>
      <trkpt lat="45.48484" lon="6.9036">
        <ele>2447.6</ele>
        <time>2020-01-10T08:33:05Z</time>
      </trkpt>
      <trkpt lat="45.48483" lon="6.9036">
        <ele>2447.6</ele>
        <time>2020-01-10T08:33:07Z</time>
      </trkpt>
      <trkpt lat="45.4848" lon="6.90359">
        <ele>2447.6</ele>
        <time>2020-01-10T08:33:10Z</time>
      </trkpt>
      <trkpt lat="45.48477" lon="6.90358">
        <ele>2447.6</ele>
        <time>2020-01-10T08:33:13Z</time>
      </trkpt>
      <trkpt lat="45.48476" lon="6.90356">
        <ele>2447.6</ele>
        <time>2020-01-10T08:33:15Z</time>
      </trkpt>
      <trkpt lat="45.48474" lon="6.90356">
        <ele>2447.6</ele>
        <time>2020-01-10T08:33:17Z</time>
      </trkpt>
      <trkpt lat="45.48472" lon="6.90355">
        <ele>2454.8</ele>
        <time>2020-01-10T08:33:19Z</time>
      </trkpt>
      <trkpt lat="45.48469" lon="6.90353">
        <ele>2454.8</ele>
        <time>2020-01-10T08:33:22Z</time>
      </trkpt>
      <trkpt lat="45.48467" lon="6.90351">
        <ele>2454.8</ele>
        <time>2020-01-10T08:33:26Z</time>
      </trkpt>
      <trkpt lat="45.48464" lon="6.9035">
        <ele>2454.8</ele>
        <time>2020-01-10T08:33:30Z</time>
      </trkpt>
      <trkpt lat="45.48462" lon="6.90348">
        <ele>2454.8</ele>
        <time>2020-01-10T08:33:32Z</time>
      </trkpt>
      <trkpt lat="45.48461" lon="6.90347">
        <ele>2454.8</ele>
        <time>2020-01-10T08:33:34Z</time>
      </trkpt>
      <trkpt lat="45.48461" lon="6.90343">
        <ele>2454.8</ele>
        <time>2020-01-10T08:33:37Z</time>
      </trkpt>
      <trkpt lat="45.48462" lon="6.90339">
        <ele>2454.8</ele>
        <time>2020-01-10T08:33:40Z</time>
      </trkpt>
      <trkpt lat="45.48463" lon="6.90336">
        <ele>2454.8</ele>
        <time>2020-01-10T08:33:43Z</time>
      </trkpt>
      <trkpt lat="45.48463" lon="6.90333">
        <ele>2454.8</ele>
        <time>2020-01-10T08:33:45Z</time>
      </trkpt>
      <trkpt lat="45.48464" lon="6.9033">
        <ele>2454.8</ele>
        <time>2020-01-10T08:33:48Z</time>
      </trkpt>
      <trkpt lat="45.48463" lon="6.90327">
        <ele>2454.8</ele>
        <time>2020-01-10T08:33:51Z</time>
      </trkpt>
      <trkpt lat="45.48462" lon="6.90324">
        <ele>2454.8</ele>
        <time>2020-01-10T08:33:54Z</time>
      </trkpt>
      <trkpt lat="45.48462" lon="6.90321">
        <ele>2454.8</ele>
        <time>2020-01-10T08:33:56Z</time>
      </trkpt>
      <trkpt lat="45.48461" lon="6.90318">
        <ele>2454.8</ele>
        <time>2020-01-10T08:33:58Z</time>
      </trkpt>
      <trkpt lat="45.48462" lon="6.90315">
        <ele>2454.8</ele>
        <time>2020-01-10T08:34:00Z</time>
      </trkpt>
      <trkpt lat="45.48462" lon="6.90312">
        <ele>2454.8</ele>
        <time>2020-01-10T08:34:02Z</time>
      </trkpt>
      <trkpt lat="45.48462" lon="6.9031">
        <ele>2454.8</ele>
        <time>2020-01-10T08:34:04Z</time>
      </trkpt>
      <trkpt lat="45.48463" lon="6.90307">
        <ele>2454.8</ele>
        <time>2020-01-10T08:34:06Z</time>
      </trkpt>
      <trkpt lat="45.48465" lon="6.90303">
        <ele>2454.8</ele>
        <time>2020-01-10T08:34:08Z</time>
      </trkpt>
      <trkpt lat="45.48466" lon="6.903">
        <ele>2454.8</ele>
        <time>2020-01-10T08:34:10Z</time>
      </trkpt>
      <trkpt lat="45.48467" lon="6.90297">
        <ele>2454.8</ele>
        <time>2020-01-10T08:34:11Z</time>
      </trkpt>
      <trkpt lat="45.48468" lon="6.90294">
        <ele>2454.8</ele>
        <time>2020-01-10T08:34:13Z</time>
      </trkpt>
      <trkpt lat="45.48469" lon="6.90291">
        <ele>2454.8</ele>
        <time>2020-01-10T08:34:15Z</time>
      </trkpt>
      <trkpt lat="45.4847" lon="6.90288">
        <ele>2454.8</ele>
        <time>2020-01-10T08:34:17Z</time>
      </trkpt>
      <trkpt lat="45.48471" lon="6.90284">
        <ele>2471.2</ele>
        <time>2020-01-10T08:34:19Z</time>
      </trkpt>
      <trkpt lat="45.48472" lon="6.90281">
        <ele>2471.2</ele>
        <time>2020-01-10T08:34:21Z</time>
      </trkpt>
      <trkpt lat="45.48473" lon="6.90278">
        <ele>2471.2</ele>
        <time>2020-01-10T08:34:23Z</time>
      </trkpt>
      <trkpt lat="45.48475" lon="6.90275">
        <ele>2471.2</ele>
        <time>2020-01-10T08:34:25Z</time>
      </trkpt>
      <trkpt lat="45.48476" lon="6.90272">
        <ele>2471.2</ele>
        <time>2020-01-10T08:34:27Z</time>
      </trkpt>
      <trkpt lat="45.48477" lon="6.90269">
        <ele>2473.6</ele>
        <time>2020-01-10T08:34:29Z</time>
      </trkpt>
      <trkpt lat="45.48479" lon="6.90266">
        <ele>2473.6</ele>
        <time>2020-01-10T08:34:31Z</time>
      </trkpt>
      <trkpt lat="45.4848" lon="6.90262">
        <ele>2473.6</ele>
        <time>2020-01-10T08:34:33Z</time>
      </trkpt>
      <trkpt lat="45.48481" lon="6.90259">
        <ele>2473.6</ele>
        <time>2020-01-10T08:34:35Z</time>
      </trkpt>
      <trkpt lat="45.48483" lon="6.90256">
        <ele>2473.6</ele>
        <time>2020-01-10T08:34:37Z</time>
      </trkpt>
      <trkpt lat="45.48483" lon="6.90254">
        <ele>2476.2</ele>
        <time>2020-01-10T08:34:39Z</time>
      </trkpt>
      <trkpt lat="45.48484" lon="6.90251">
        <ele>2476.2</ele>
        <time>2020-01-10T08:34:41Z</time>
      </trkpt>
      <trkpt lat="45.48486" lon="6.90248">
        <ele>2476.2</ele>
        <time>2020-01-10T08:34:44Z</time>
      </trkpt>
      <trkpt lat="45.48488" lon="6.90246">
        <ele>2476.2</ele>
        <time>2020-01-10T08:34:46Z</time>
      </trkpt>
      <trkpt lat="45.48489" lon="6.90243">
        <ele>2476.2</ele>
        <time>2020-01-10T08:34:48Z</time>
      </trkpt>
      <trkpt lat="45.48491" lon="6.90241">
        <ele>2476.2</ele>
        <time>2020-01-10T08:34:50Z</time>
      </trkpt>
      <trkpt lat="45.48492" lon="6.90238">
        <ele>2476.2</ele>
        <time>2020-01-10T08:34:52Z</time>
      </trkpt>
      <trkpt lat="45.48494" lon="6.90234">
        <ele>2476.2</ele>
        <time>2020-01-10T08:34:55Z</time>
      </trkpt>
      <trkpt lat="45.48495" lon="6.90231">
        <ele>2476.2</ele>
        <time>2020-01-10T08:34:57Z</time>
      </trkpt>
      <trkpt lat="45.48497" lon="6.90229">
        <ele>2481</ele>
        <time>2020-01-10T08:34:59Z</time>
      </trkpt>
      <trkpt lat="45.48499" lon="6.90226">
        <ele>2481</ele>
        <time>2020-01-10T08:35:02Z</time>
      </trkpt>
      <trkpt lat="45.485" lon="6.90222">
        <ele>2481</ele>
        <time>2020-01-10T08:35:05Z</time>
      </trkpt>
      <trkpt lat="45.48501" lon="6.9022">
        <ele>2481</ele>
        <time>2020-01-10T08:35:06Z</time>
      </trkpt>
      <trkpt lat="45.48503" lon="6.90219">
        <ele>2481</ele>
        <time>2020-01-10T08:35:08Z</time>
      </trkpt>
      <trkpt lat="45.48505" lon="6.90217">
        <ele>2481</ele>
        <time>2020-01-10T08:35:10Z</time>
      </trkpt>
      <trkpt lat="45.48507" lon="6.90215">
        <ele>2481</ele>
        <time>2020-01-10T08:35:12Z</time>
      </trkpt>
      <trkpt lat="45.48509" lon="6.90212">
        <ele>2481</ele>
        <time>2020-01-10T08:35:14Z</time>
      </trkpt>
      <trkpt lat="45.4851" lon="6.9021">
        <ele>2481</ele>
        <time>2020-01-10T08:35:16Z</time>
      </trkpt>
      <trkpt lat="45.48512" lon="6.90208">
        <ele>2481</ele>
        <time>2020-01-10T08:35:18Z</time>
      </trkpt>
      <trkpt lat="45.48514" lon="6.90206">
        <ele>2481</ele>
        <time>2020-01-10T08:35:20Z</time>
      </trkpt>
      <trkpt lat="45.48516" lon="6.90204">
        <ele>2481</ele>
        <time>2020-01-10T08:35:22Z</time>
      </trkpt>
      <trkpt lat="45.48518" lon="6.90202">
        <ele>2481</ele>
        <time>2020-01-10T08:35:24Z</time>
      </trkpt>
      <trkpt lat="45.4852" lon="6.90201">
        <ele>2481</ele>
        <time>2020-01-10T08:35:25Z</time>
      </trkpt>
      <trkpt lat="45.48522" lon="6.902">
        <ele>2481</ele>
        <time>2020-01-10T08:35:27Z</time>
      </trkpt>
      <trkpt lat="45.48524" lon="6.90198">
        <ele>2488.8</ele>
        <time>2020-01-10T08:35:29Z</time>
      </trkpt>
      <trkpt lat="45.48526" lon="6.90196">
        <ele>2488.8</ele>
        <time>2020-01-10T08:35:31Z</time>
      </trkpt>
      <trkpt lat="45.48529" lon="6.90195">
        <ele>2488.8</ele>
        <time>2020-01-10T08:35:33Z</time>
      </trkpt>
      <trkpt lat="45.48532" lon="6.90194">
        <ele>2488.8</ele>
        <time>2020-01-10T08:35:36Z</time>
      </trkpt>
      <trkpt lat="45.48534" lon="6.90194">
        <ele>2488.8</ele>
        <time>2020-01-10T08:35:37Z</time>
      </trkpt>
      <trkpt lat="45.48536" lon="6.90193">
        <ele>2492</ele>
        <time>2020-01-10T08:35:39Z</time>
      </trkpt>
      <trkpt lat="45.48539" lon="6.90193">
        <ele>2492</ele>
        <time>2020-01-10T08:35:41Z</time>
      </trkpt>
      <trkpt lat="45.48541" lon="6.90193">
        <ele>2492</ele>
        <time>2020-01-10T08:35:43Z</time>
      </trkpt>
      <trkpt lat="45.48544" lon="6.90193">
        <ele>2492</ele>
        <time>2020-01-10T08:35:45Z</time>
      </trkpt>
      <trkpt lat="45.48546" lon="6.90193">
        <ele>2492</ele>
        <time>2020-01-10T08:35:47Z</time>
      </trkpt>
      <trkpt lat="45.48548" lon="6.90193">
        <ele>2494.2</ele>
        <time>2020-01-10T08:35:49Z</time>
      </trkpt>
      <trkpt lat="45.48551" lon="6.90193">
        <ele>2494.2</ele>
        <time>2020-01-10T08:35:51Z</time>
      </trkpt>
      <trkpt lat="45.48555" lon="6.90193">
        <ele>2494.2</ele>
        <time>2020-01-10T08:35:54Z</time>
      </trkpt>
      <trkpt lat="45.48556" lon="6.90193">
        <ele>2494.2</ele>
        <time>2020-01-10T08:35:55Z</time>
      </trkpt>
      <trkpt lat="45.4856" lon="6.90193">
        <ele>2494.2</ele>
        <time>2020-01-10T08:35:58Z</time>
      </trkpt>
      <trkpt lat="45.48561" lon="6.90193">
        <ele>2497</ele>
        <time>2020-01-10T08:35:59Z</time>
      </trkpt>
      <trkpt lat="45.48563" lon="6.90193">
        <ele>2497</ele>
        <time>2020-01-10T08:36:01Z</time>
      </trkpt>
      <trkpt lat="45.48566" lon="6.90192">
        <ele>2497</ele>
        <time>2020-01-10T08:36:03Z</time>
      </trkpt>
      <trkpt lat="45.48568" lon="6.90193">
        <ele>2497</ele>
        <time>2020-01-10T08:36:05Z</time>
      </trkpt>
      <trkpt lat="45.48571" lon="6.90193">
        <ele>2497</ele>
        <time>2020-01-10T08:36:07Z</time>
      </trkpt>
      <trkpt lat="45.48573" lon="6.90193">
        <ele>2499.2</ele>
        <time>2020-01-10T08:36:09Z</time>
      </trkpt>
      <trkpt lat="45.48576" lon="6.90192">
        <ele>2499.2</ele>
        <time>2020-01-10T08:36:11Z</time>
      </trkpt>
      <trkpt lat="45.48578" lon="6.90192">
        <ele>2499.2</ele>
        <time>2020-01-10T08:36:13Z</time>
      </trkpt>
      <trkpt lat="45.4858" lon="6.90191">
        <ele>2499.2</ele>
        <time>2020-01-10T08:36:16Z</time>
      </trkpt>
      <trkpt lat="45.48583" lon="6.90189">
        <ele>2499.2</ele>
        <time>2020-01-10T08:36:18Z</time>
      </trkpt>
      <trkpt lat="45.48585" lon="6.90185">
        <ele>2499.2</ele>
        <time>2020-01-10T08:36:21Z</time>
      </trkpt>
      <trkpt lat="45.48586" lon="6.90184">
        <ele>2499.2</ele>
        <time>2020-01-10T08:36:22Z</time>
      </trkpt>
      <trkpt lat="45.48588" lon="6.9018">
        <ele>2499.2</ele>
        <time>2020-01-10T08:36:25Z</time>
      </trkpt>
      <trkpt lat="45.48592" lon="6.90177">
        <ele>2503.8</ele>
        <time>2020-01-10T08:36:29Z</time>
      </trkpt>
      <trkpt lat="45.48592" lon="6.90177">
        <ele>2503.8</ele>
        <time>2020-01-10T08:36:30Z</time>
      </trkpt>
      <trkpt lat="45.48594" lon="6.90175">
        <ele>2503.8</ele>
        <time>2020-01-10T08:36:32Z</time>
      </trkpt>
      <trkpt lat="45.48595" lon="6.90171">
        <ele>2503.8</ele>
        <time>2020-01-10T08:36:35Z</time>
      </trkpt>
      <trkpt lat="45.48595" lon="6.90168">
        <ele>2503.8</ele>
        <time>2020-01-10T08:36:37Z</time>
      </trkpt>
      <trkpt lat="45.48595" lon="6.90165">
        <ele>2507</ele>
        <time>2020-01-10T08:36:39Z</time>
      </trkpt>
      <trkpt lat="45.48596" lon="6.90161">
        <ele>2507</ele>
        <time>2020-01-10T08:36:42Z</time>
      </trkpt>
      <trkpt lat="45.48596" lon="6.90157">
        <ele>2507</ele>
        <time>2020-01-10T08:36:45Z</time>
      </trkpt>
      <trkpt lat="45.48596" lon="6.90152">
        <ele>2507</ele>
        <time>2020-01-10T08:36:48Z</time>
      </trkpt>
      <trkpt lat="45.48597" lon="6.90148">
        <ele>2507</ele>
        <time>2020-01-10T08:36:51Z</time>
      </trkpt>
      <trkpt lat="45.48597" lon="6.90146">
        <ele>2507</ele>
        <time>2020-01-10T08:36:53Z</time>
      </trkpt>
      <trkpt lat="45.48597" lon="6.90143">
        <ele>2507</ele>
        <time>2020-01-10T08:36:55Z</time>
      </trkpt>
      <trkpt lat="45.48597" lon="6.90139">
        <ele>2507</ele>
        <time>2020-01-10T08:36:58Z</time>
      </trkpt>
      <trkpt lat="45.48597" lon="6.90137">
        <ele>2507</ele>
        <time>2020-01-10T08:37:00Z</time>
      </trkpt>
      <trkpt lat="45.48598" lon="6.90134">
        <ele>2507</ele>
        <time>2020-01-10T08:37:03Z</time>
      </trkpt>
      <trkpt lat="45.48597" lon="6.9013">
        <ele>2507</ele>
        <time>2020-01-10T08:37:06Z</time>
      </trkpt>
      <trkpt lat="45.48597" lon="6.90128">
        <ele>2515.2</ele>
        <time>2020-01-10T08:37:09Z</time>
      </trkpt>
      <trkpt lat="45.48596" lon="6.90125">
        <ele>2515.2</ele>
        <time>2020-01-10T08:37:12Z</time>
      </trkpt>
      <trkpt lat="45.48596" lon="6.90123">
        <ele>2515.2</ele>
        <time>2020-01-10T08:37:16Z</time>
      </trkpt>
      <trkpt lat="45.48596" lon="6.90119">
        <ele>2515.2</ele>
        <time>2020-01-10T08:37:20Z</time>
      </trkpt>
      <trkpt lat="45.48596" lon="6.90117">
        <ele>2515.2</ele>
        <time>2020-01-10T08:37:25Z</time>
      </trkpt>
      <trkpt lat="45.48595" lon="6.90114">
        <ele>2515.2</ele>
        <time>2020-01-10T08:37:28Z</time>
      </trkpt>
      <trkpt lat="45.48594" lon="6.90111">
        <ele>2515.2</ele>
        <time>2020-01-10T08:37:32Z</time>
      </trkpt>
      <trkpt lat="45.48595" lon="6.90108">
        <ele>2515.2</ele>
        <time>2020-01-10T08:37:35Z</time>
      </trkpt>
      <trkpt lat="45.48595" lon="6.90105">
        <ele>2515.2</ele>
        <time>2020-01-10T08:37:37Z</time>
      </trkpt>
      <trkpt lat="45.48594" lon="6.90102">
        <ele>2515.2</ele>
        <time>2020-01-10T08:37:42Z</time>
      </trkpt>
      <trkpt lat="45.48592" lon="6.90099">
        <ele>2515.2</ele>
        <time>2020-01-10T08:37:45Z</time>
      </trkpt>
      <trkpt lat="45.4859" lon="6.90096">
        <ele>2527.6</ele>
        <time>2020-01-10T08:37:49Z</time>
      </trkpt>
      <trkpt lat="45.48589" lon="6.90094">
        <ele>2527.6</ele>
        <time>2020-01-10T08:37:52Z</time>
      </trkpt>
      <trkpt lat="45.48588" lon="6.90092">
        <ele>2527.6</ele>
        <time>2020-01-10T08:37:55Z</time>
      </trkpt>
      <trkpt lat="45.48586" lon="6.90089">
        <ele>2527.6</ele>
        <time>2020-01-10T08:37:57Z</time>
      </trkpt>
      <trkpt lat="45.48584" lon="6.90086">
        <ele>2527.6</ele>
        <time>2020-01-10T08:38:00Z</time>
      </trkpt>
      <trkpt lat="45.48583" lon="6.90084">
        <ele>2527.6</ele>
        <time>2020-01-10T08:38:03Z</time>
      </trkpt>
      <trkpt lat="45.48582" lon="6.9008">
        <ele>2527.6</ele>
        <time>2020-01-10T08:38:06Z</time>
      </trkpt>
      <trkpt lat="45.4858" lon="6.90078">
        <ele>2527.6</ele>
        <time>2020-01-10T08:38:08Z</time>
      </trkpt>
      <trkpt lat="45.48579" lon="6.90075">
        <ele>2527.6</ele>
        <time>2020-01-10T08:38:11Z</time>
      </trkpt>
      <trkpt lat="45.48578" lon="6.90072">
        <ele>2527.6</ele>
        <time>2020-01-10T08:38:14Z</time>
      </trkpt>
      <trkpt lat="45.48577" lon="6.9007">
        <ele>2527.6</ele>
        <time>2020-01-10T08:38:16Z</time>
      </trkpt>
      <trkpt lat="45.48576" lon="6.90068">
        <ele>2536.4</ele>
        <time>2020-01-10T08:38:19Z</time>
      </trkpt>
      <trkpt lat="45.48575" lon="6.90066">
        <ele>2536.4</ele>
        <time>2020-01-10T08:38:21Z</time>
      </trkpt>
      <trkpt lat="45.48574" lon="6.90063">
        <ele>2536.4</ele>
        <time>2020-01-10T08:38:24Z</time>
      </trkpt>
      <trkpt lat="45.48572" lon="6.9006">
        <ele>2536.4</ele>
        <time>2020-01-10T08:38:28Z</time>
      </trkpt>
      <trkpt lat="45.48571" lon="6.90059">
        <ele>2539.2</ele>
        <time>2020-01-10T08:38:29Z</time>
      </trkpt>
      <trkpt lat="45.4857" lon="6.90056">
        <ele>2539.2</ele>
        <time>2020-01-10T08:38:32Z</time>
      </trkpt>
      <trkpt lat="45.48569" lon="6.90053">
        <ele>2539.2</ele>
        <time>2020-01-10T08:38:35Z</time>
      </trkpt>
      <trkpt lat="45.48568" lon="6.90049">
        <ele>2539.2</ele>
        <time>2020-01-10T08:38:38Z</time>
      </trkpt>
      <trkpt lat="45.48567" lon="6.90048">
        <ele>2541.8</ele>
        <time>2020-01-10T08:38:39Z</time>
      </trkpt>
      <trkpt lat="45.48566" lon="6.90045">
        <ele>2541.8</ele>
        <time>2020-01-10T08:38:43Z</time>
      </trkpt>
      <trkpt lat="45.48564" lon="6.90043">
        <ele>2541.8</ele>
        <time>2020-01-10T08:38:45Z</time>
      </trkpt>
      <trkpt lat="45.48563" lon="6.9004">
        <ele>2541.8</ele>
        <time>2020-01-10T08:38:47Z</time>
      </trkpt>
      <trkpt lat="45.48562" lon="6.90038">
        <ele>2541.8</ele>
        <time>2020-01-10T08:38:50Z</time>
      </trkpt>
      <trkpt lat="45.48561" lon="6.90035">
        <ele>2541.8</ele>
        <time>2020-01-10T08:38:53Z</time>
      </trkpt>
      <trkpt lat="45.48559" lon="6.90032">
        <ele>2541.8</ele>
        <time>2020-01-10T08:38:56Z</time>
      </trkpt>
      <trkpt lat="45.48558" lon="6.90029">
        <ele>2547.2</ele>
        <time>2020-01-10T08:38:59Z</time>
      </trkpt>
      <trkpt lat="45.48557" lon="6.90026">
        <ele>2547.2</ele>
        <time>2020-01-10T08:39:02Z</time>
      </trkpt>
      <trkpt lat="45.48556" lon="6.90024">
        <ele>2547.2</ele>
        <time>2020-01-10T08:39:04Z</time>
      </trkpt>
      <trkpt lat="45.48555" lon="6.90022">
        <ele>2547.2</ele>
        <time>2020-01-10T08:39:06Z</time>
      </trkpt>
      <trkpt lat="45.48554" lon="6.90018">
        <ele>2550</ele>
        <time>2020-01-10T08:39:09Z</time>
      </trkpt>
      <trkpt lat="45.48553" lon="6.90015">
        <ele>2550</ele>
        <time>2020-01-10T08:39:12Z</time>
      </trkpt>
      <trkpt lat="45.4855" lon="6.9001">
        <ele>2550</ele>
        <time>2020-01-10T08:39:16Z</time>
      </trkpt>
      <trkpt lat="45.4855" lon="6.90009">
        <ele>2550</ele>
        <time>2020-01-10T08:39:17Z</time>
      </trkpt>
      <trkpt lat="45.48549" lon="6.90007">
        <ele>2552</ele>
        <time>2020-01-10T08:39:19Z</time>
      </trkpt>
      <trkpt lat="45.48547" lon="6.90004">
        <ele>2552</ele>
        <time>2020-01-10T08:39:22Z</time>
      </trkpt>
      <trkpt lat="45.48546" lon="6.90001">
        <ele>2552</ele>
        <time>2020-01-10T08:39:25Z</time>
      </trkpt>
      <trkpt lat="45.48544" lon="6.89997">
        <ele>2552</ele>
        <time>2020-01-10T08:39:28Z</time>
      </trkpt>
      <trkpt lat="45.48543" lon="6.89996">
        <ele>2554.8</ele>
        <time>2020-01-10T08:39:29Z</time>
      </trkpt>
      <trkpt lat="45.48542" lon="6.89993">
        <ele>2554.8</ele>
        <time>2020-01-10T08:39:32Z</time>
      </trkpt>
      <trkpt lat="45.4854" lon="6.89989">
        <ele>2554.8</ele>
        <time>2020-01-10T08:39:36Z</time>
      </trkpt>
      <trkpt lat="45.48539" lon="6.89987">
        <ele>2554.8</ele>
        <time>2020-01-10T08:39:38Z</time>
      </trkpt>
      <trkpt lat="45.48538" lon="6.89983">
        <ele>2554.8</ele>
        <time>2020-01-10T08:39:41Z</time>
      </trkpt>
      <trkpt lat="45.48537" lon="6.89981">
        <ele>2554.8</ele>
        <time>2020-01-10T08:39:44Z</time>
      </trkpt>
      <trkpt lat="45.48535" lon="6.89978">
        <ele>2554.8</ele>
        <time>2020-01-10T08:39:47Z</time>
      </trkpt>
      <trkpt lat="45.48534" lon="6.89975">
        <ele>2554.8</ele>
        <time>2020-01-10T08:39:50Z</time>
      </trkpt>
      <trkpt lat="45.48533" lon="6.89973">
        <ele>2554.8</ele>
        <time>2020-01-10T08:39:53Z</time>
      </trkpt>
      <trkpt lat="45.48531" lon="6.8997">
        <ele>2554.8</ele>
        <time>2020-01-10T08:39:56Z</time>
      </trkpt>
      <trkpt lat="45.4853" lon="6.89967">
        <ele>2564.2</ele>
        <time>2020-01-10T08:39:59Z</time>
      </trkpt>
      <trkpt lat="45.48529" lon="6.89965">
        <ele>2564.2</ele>
        <time>2020-01-10T08:40:01Z</time>
      </trkpt>
      <trkpt lat="45.48528" lon="6.89962">
        <ele>2564.2</ele>
        <time>2020-01-10T08:40:04Z</time>
      </trkpt>
      <trkpt lat="45.48527" lon="6.8996">
        <ele>2564.2</ele>
        <time>2020-01-10T08:40:07Z</time>
      </trkpt>
      <trkpt lat="45.48525" lon="6.89957">
        <ele>2564.2</ele>
        <time>2020-01-10T08:40:10Z</time>
      </trkpt>
      <trkpt lat="45.48524" lon="6.89954">
        <ele>2564.2</ele>
        <time>2020-01-10T08:40:13Z</time>
      </trkpt>
      <trkpt lat="45.48524" lon="6.89952">
        <ele>2564.2</ele>
        <time>2020-01-10T08:40:15Z</time>
      </trkpt>
      <trkpt lat="45.48524" lon="6.89949">
        <ele>2564.2</ele>
        <time>2020-01-10T08:40:17Z</time>
      </trkpt>
      <trkpt lat="45.48523" lon="6.89946">
        <ele>2564.2</ele>
        <time>2020-01-10T08:40:20Z</time>
      </trkpt>
      <trkpt lat="45.48523" lon="6.89942">
        <ele>2564.2</ele>
        <time>2020-01-10T08:40:23Z</time>
      </trkpt>
      <trkpt lat="45.48523" lon="6.89939">
        <ele>2564.2</ele>
        <time>2020-01-10T08:40:25Z</time>
      </trkpt>
      <trkpt lat="45.48523" lon="6.89936">
        <ele>2564.2</ele>
        <time>2020-01-10T08:40:27Z</time>
      </trkpt>
      <trkpt lat="45.48524" lon="6.89932">
        <ele>2573.4</ele>
        <time>2020-01-10T08:40:29Z</time>
      </trkpt>
      <trkpt lat="45.48524" lon="6.8993">
        <ele>2573.4</ele>
        <time>2020-01-10T08:40:31Z</time>
      </trkpt>
      <trkpt lat="45.48525" lon="6.89927">
        <ele>2573.4</ele>
        <time>2020-01-10T08:40:33Z</time>
      </trkpt>
      <trkpt lat="45.48526" lon="6.89924">
        <ele>2573.4</ele>
        <time>2020-01-10T08:40:35Z</time>
      </trkpt>
      <trkpt lat="45.48526" lon="6.8992">
        <ele>2573.4</ele>
        <time>2020-01-10T08:40:37Z</time>
      </trkpt>
      <trkpt lat="45.48526" lon="6.89916">
        <ele>2575</ele>
        <time>2020-01-10T08:40:39Z</time>
      </trkpt>
      <trkpt lat="45.48526" lon="6.89912">
        <ele>2575</ele>
        <time>2020-01-10T08:40:41Z</time>
      </trkpt>
      <trkpt lat="45.48527" lon="6.89908">
        <ele>2575</ele>
        <time>2020-01-10T08:40:43Z</time>
      </trkpt>
      <trkpt lat="45.48527" lon="6.89904">
        <ele>2575</ele>
        <time>2020-01-10T08:40:45Z</time>
      </trkpt>
      <trkpt lat="45.48527" lon="6.899">
        <ele>2575</ele>
        <time>2020-01-10T08:40:47Z</time>
      </trkpt>
      <trkpt lat="45.48528" lon="6.89897">
        <ele>2577</ele>
        <time>2020-01-10T08:40:49Z</time>
      </trkpt>
      <trkpt lat="45.48528" lon="6.89892">
        <ele>2577</ele>
        <time>2020-01-10T08:40:51Z</time>
      </trkpt>
      <trkpt lat="45.48528" lon="6.89889">
        <ele>2577</ele>
        <time>2020-01-10T08:40:53Z</time>
      </trkpt>
      <trkpt lat="45.48529" lon="6.89884">
        <ele>2577</ele>
        <time>2020-01-10T08:40:55Z</time>
      </trkpt>
      <trkpt lat="45.48529" lon="6.8988">
        <ele>2577</ele>
        <time>2020-01-10T08:40:57Z</time>
      </trkpt>
      <trkpt lat="45.4853" lon="6.89876">
        <ele>2578</ele>
        <time>2020-01-10T08:40:59Z</time>
      </trkpt>
      <trkpt lat="45.4853" lon="6.89872">
        <ele>2578</ele>
        <time>2020-01-10T08:41:01Z</time>
      </trkpt>
      <trkpt lat="45.48531" lon="6.89868">
        <ele>2578</ele>
        <time>2020-01-10T08:41:03Z</time>
      </trkpt>
      <trkpt lat="45.48531" lon="6.89864">
        <ele>2578</ele>
        <time>2020-01-10T08:41:05Z</time>
      </trkpt>
      <trkpt lat="45.48531" lon="6.89859">
        <ele>2578</ele>
        <time>2020-01-10T08:41:07Z</time>
      </trkpt>
      <trkpt lat="45.48531" lon="6.89855">
        <ele>2578.4</ele>
        <time>2020-01-10T08:41:09Z</time>
      </trkpt>
      <trkpt lat="45.48531" lon="6.8985">
        <ele>2578.4</ele>
        <time>2020-01-10T08:41:11Z</time>
      </trkpt>
      <trkpt lat="45.48531" lon="6.89846">
        <ele>2578.4</ele>
        <time>2020-01-10T08:41:13Z</time>
      </trkpt>
      <trkpt lat="45.48531" lon="6.8984">
        <ele>2578.4</ele>
        <time>2020-01-10T08:41:15Z</time>
      </trkpt>
      <trkpt lat="45.48531" lon="6.89835">
        <ele>2578.4</ele>
        <time>2020-01-10T08:41:17Z</time>
      </trkpt>
      <trkpt lat="45.48531" lon="6.89832">
        <ele>2578.4</ele>
        <time>2020-01-10T08:41:18Z</time>
      </trkpt>
      <trkpt lat="45.48531" lon="6.89829">
        <ele>2579</ele>
        <time>2020-01-10T08:41:19Z</time>
      </trkpt>
      <trkpt lat="45.4853" lon="6.89826">
        <ele>2579</ele>
        <time>2020-01-10T08:41:20Z</time>
      </trkpt>
      <trkpt lat="45.4853" lon="6.89824">
        <ele>2579</ele>
        <time>2020-01-10T08:41:21Z</time>
      </trkpt>
      <trkpt lat="45.4853" lon="6.89821">
        <ele>2579</ele>
        <time>2020-01-10T08:41:22Z</time>
      </trkpt>
      <trkpt lat="45.4853" lon="6.89818">
        <ele>2579</ele>
        <time>2020-01-10T08:41:23Z</time>
      </trkpt>
      <trkpt lat="45.4853" lon="6.89815">
        <ele>2579</ele>
        <time>2020-01-10T08:41:24Z</time>
      </trkpt>
      <trkpt lat="45.4853" lon="6.89812">
        <ele>2579</ele>
        <time>2020-01-10T08:41:25Z</time>
      </trkpt>
      <trkpt lat="45.4853" lon="6.89809">
        <ele>2579</ele>
        <time>2020-01-10T08:41:26Z</time>
      </trkpt>
      <trkpt lat="45.4853" lon="6.89806">
        <ele>2579</ele>
        <time>2020-01-10T08:41:27Z</time>
      </trkpt>
      <trkpt lat="45.4853" lon="6.89803">
        <ele>2579</ele>
        <time>2020-01-10T08:41:28Z</time>
      </trkpt>
      <trkpt lat="45.48529" lon="6.898">
        <ele>2578</ele>
        <time>2020-01-10T08:41:29Z</time>
      </trkpt>
      <trkpt lat="45.48529" lon="6.89797">
        <ele>2578</ele>
        <time>2020-01-10T08:41:30Z</time>
      </trkpt>
      <trkpt lat="45.48529" lon="6.89793">
        <ele>2578</ele>
        <time>2020-01-10T08:41:31Z</time>
      </trkpt>
      <trkpt lat="45.48529" lon="6.8979">
        <ele>2578</ele>
        <time>2020-01-10T08:41:32Z</time>
      </trkpt>
      <trkpt lat="45.48529" lon="6.89786">
        <ele>2578</ele>
        <time>2020-01-10T08:41:33Z</time>
      </trkpt>
      <trkpt lat="45.48528" lon="6.89782">
        <ele>2578</ele>
        <time>2020-01-10T08:41:34Z</time>
      </trkpt>
      <trkpt lat="45.48528" lon="6.89779">
        <ele>2578</ele>
        <time>2020-01-10T08:41:35Z</time>
      </trkpt>
      <trkpt lat="45.48527" lon="6.89776">
        <ele>2578</ele>
        <time>2020-01-10T08:41:36Z</time>
      </trkpt>
      <trkpt lat="45.48526" lon="6.89773">
        <ele>2578</ele>
        <time>2020-01-10T08:41:37Z</time>
      </trkpt>
      <trkpt lat="45.48526" lon="6.8977">
        <ele>2578</ele>
        <time>2020-01-10T08:41:38Z</time>
      </trkpt>
      <trkpt lat="45.48525" lon="6.89765">
        <ele>2578</ele>
        <time>2020-01-10T08:41:40Z</time>
      </trkpt>
      <trkpt lat="45.48524" lon="6.89761">
        <ele>2578</ele>
        <time>2020-01-10T08:41:42Z</time>
      </trkpt>
      <trkpt lat="45.48523" lon="6.89757">
        <ele>2578</ele>
        <time>2020-01-10T08:41:44Z</time>
      </trkpt>
      <trkpt lat="45.48523" lon="6.89753">
        <ele>2578</ele>
        <time>2020-01-10T08:41:46Z</time>
      </trkpt>
      <trkpt lat="45.48523" lon="6.8975">
        <ele>2578</ele>
        <time>2020-01-10T08:41:48Z</time>
      </trkpt>
      <trkpt lat="45.48522" lon="6.89747">
        <ele>2578</ele>
        <time>2020-01-10T08:41:50Z</time>
      </trkpt>
      <trkpt lat="45.48521" lon="6.89742">
        <ele>2578</ele>
        <time>2020-01-10T08:41:52Z</time>
      </trkpt>
      <trkpt lat="45.4852" lon="6.8974">
        <ele>2578</ele>
        <time>2020-01-10T08:41:53Z</time>
      </trkpt>
      <trkpt lat="45.48519" lon="6.89736">
        <ele>2578</ele>
        <time>2020-01-10T08:41:55Z</time>
      </trkpt>
      <trkpt lat="45.48517" lon="6.89731">
        <ele>2578</ele>
        <time>2020-01-10T08:41:57Z</time>
      </trkpt>
      <trkpt lat="45.48516" lon="6.89728">
        <ele>2578</ele>
        <time>2020-01-10T08:41:58Z</time>
      </trkpt>
      <trkpt lat="45.48515" lon="6.89726">
        <ele>2577.2</ele>
        <time>2020-01-10T08:41:59Z</time>
      </trkpt>
      <trkpt lat="45.48513" lon="6.89724">
        <ele>2577.2</ele>
        <time>2020-01-10T08:42:00Z</time>
      </trkpt>
      <trkpt lat="45.48512" lon="6.89721">
        <ele>2577.2</ele>
        <time>2020-01-10T08:42:01Z</time>
      </trkpt>
      <trkpt lat="45.48511" lon="6.89718">
        <ele>2577.2</ele>
        <time>2020-01-10T08:42:02Z</time>
      </trkpt>
      <trkpt lat="45.48509" lon="6.89716">
        <ele>2577.2</ele>
        <time>2020-01-10T08:42:03Z</time>
      </trkpt>
      <trkpt lat="45.48508" lon="6.89713">
        <ele>2577.2</ele>
        <time>2020-01-10T08:42:04Z</time>
      </trkpt>
      <trkpt lat="45.48507" lon="6.89711">
        <ele>2577.2</ele>
        <time>2020-01-10T08:42:05Z</time>
      </trkpt>
      <trkpt lat="45.48506" lon="6.89708">
        <ele>2577.2</ele>
        <time>2020-01-10T08:42:06Z</time>
      </trkpt>
      <trkpt lat="45.48505" lon="6.89704">
        <ele>2577.2</ele>
        <time>2020-01-10T08:42:08Z</time>
      </trkpt>
      <trkpt lat="45.48503" lon="6.89702">
        <ele>2576.6</ele>
        <time>2020-01-10T08:42:09Z</time>
      </trkpt>
      <trkpt lat="45.48503" lon="6.89699">
        <ele>2576.6</ele>
        <time>2020-01-10T08:42:10Z</time>
      </trkpt>
      <trkpt lat="45.48501" lon="6.89696">
        <ele>2576.6</ele>
        <time>2020-01-10T08:42:12Z</time>
      </trkpt>
      <trkpt lat="45.48499" lon="6.89692">
        <ele>2576.6</ele>
        <time>2020-01-10T08:42:14Z</time>
      </trkpt>
      <trkpt lat="45.48496" lon="6.89688">
        <ele>2576.6</ele>
        <time>2020-01-10T08:42:16Z</time>
      </trkpt>
      <trkpt lat="45.48495" lon="6.89686">
        <ele>2576.6</ele>
        <time>2020-01-10T08:42:17Z</time>
      </trkpt>
      <trkpt lat="45.48493" lon="6.89683">
        <ele>2577</ele>
        <time>2020-01-10T08:42:19Z</time>
      </trkpt>
      <trkpt lat="45.48492" lon="6.89678">
        <ele>2577</ele>
        <time>2020-01-10T08:42:21Z</time>
      </trkpt>
      <trkpt lat="45.48489" lon="6.89675">
        <ele>2577</ele>
        <time>2020-01-10T08:42:23Z</time>
      </trkpt>
      <trkpt lat="45.48488" lon="6.89672">
        <ele>2577</ele>
        <time>2020-01-10T08:42:25Z</time>
      </trkpt>
      <trkpt lat="45.48487" lon="6.89669">
        <ele>2577</ele>
        <time>2020-01-10T08:42:27Z</time>
      </trkpt>
      <trkpt lat="45.48485" lon="6.89666">
        <ele>2578.6</ele>
        <time>2020-01-10T08:42:29Z</time>
      </trkpt>
      <trkpt lat="45.48484" lon="6.89663">
        <ele>2578.6</ele>
        <time>2020-01-10T08:42:31Z</time>
      </trkpt>
      <trkpt lat="45.48483" lon="6.89661">
        <ele>2578.6</ele>
        <time>2020-01-10T08:42:33Z</time>
      </trkpt>
      <trkpt lat="45.48481" lon="6.89658">
        <ele>2578.6</ele>
        <time>2020-01-10T08:42:35Z</time>
      </trkpt>
      <trkpt lat="45.48479" lon="6.89656">
        <ele>2578.6</ele>
        <time>2020-01-10T08:42:37Z</time>
      </trkpt>
      <trkpt lat="45.48478" lon="6.89654">
        <ele>2580.6</ele>
        <time>2020-01-10T08:42:39Z</time>
      </trkpt>
      <trkpt lat="45.48476" lon="6.89651">
        <ele>2580.6</ele>
        <time>2020-01-10T08:42:41Z</time>
      </trkpt>
      <trkpt lat="45.48475" lon="6.89649">
        <ele>2580.6</ele>
        <time>2020-01-10T08:42:43Z</time>
      </trkpt>
      <trkpt lat="45.48473" lon="6.89647">
        <ele>2580.6</ele>
        <time>2020-01-10T08:42:45Z</time>
      </trkpt>
      <trkpt lat="45.48473" lon="6.89644">
        <ele>2580.6</ele>
        <time>2020-01-10T08:42:48Z</time>
      </trkpt>
      <trkpt lat="45.48471" lon="6.89642">
        <ele>2580.6</ele>
        <time>2020-01-10T08:42:50Z</time>
      </trkpt>
      <trkpt lat="45.48469" lon="6.89639">
        <ele>2580.6</ele>
        <time>2020-01-10T08:42:53Z</time>
      </trkpt>
      <trkpt lat="45.48468" lon="6.89636">
        <ele>2580.6</ele>
        <time>2020-01-10T08:42:55Z</time>
      </trkpt>
      <trkpt lat="45.48467" lon="6.89634">
        <ele>2580.6</ele>
        <time>2020-01-10T08:42:57Z</time>
      </trkpt>
      <trkpt lat="45.48465" lon="6.89632">
        <ele>2584.8</ele>
        <time>2020-01-10T08:42:59Z</time>
      </trkpt>
      <trkpt lat="45.48464" lon="6.89629">
        <ele>2584.8</ele>
        <time>2020-01-10T08:43:01Z</time>
      </trkpt>
      <trkpt lat="45.48463" lon="6.89626">
        <ele>2584.8</ele>
        <time>2020-01-10T08:43:04Z</time>
      </trkpt>
      <trkpt lat="45.48461" lon="6.89624">
        <ele>2584.8</ele>
        <time>2020-01-10T08:43:06Z</time>
      </trkpt>
      <trkpt lat="45.48459" lon="6.89621">
        <ele>2586.8</ele>
        <time>2020-01-10T08:43:09Z</time>
      </trkpt>
      <trkpt lat="45.48458" lon="6.89618">
        <ele>2586.8</ele>
        <time>2020-01-10T08:43:12Z</time>
      </trkpt>
      <trkpt lat="45.48456" lon="6.89615">
        <ele>2586.8</ele>
        <time>2020-01-10T08:43:14Z</time>
      </trkpt>
      <trkpt lat="45.48455" lon="6.89613">
        <ele>2586.8</ele>
        <time>2020-01-10T08:43:18Z</time>
      </trkpt>
      <trkpt lat="45.48453" lon="6.89611">
        <ele>2586.8</ele>
        <time>2020-01-10T08:43:20Z</time>
      </trkpt>
      <trkpt lat="45.48452" lon="6.89609">
        <ele>2586.8</ele>
        <time>2020-01-10T08:43:23Z</time>
      </trkpt>
      <trkpt lat="45.48451" lon="6.89607">
        <ele>2586.8</ele>
        <time>2020-01-10T08:43:26Z</time>
      </trkpt>
      <trkpt lat="45.48449" lon="6.89605">
        <ele>2586.8</ele>
        <time>2020-01-10T08:43:28Z</time>
      </trkpt>
      <trkpt lat="45.48448" lon="6.89602">
        <ele>2586.8</ele>
        <time>2020-01-10T08:43:31Z</time>
      </trkpt>
      <trkpt lat="45.48447" lon="6.896">
        <ele>2586.8</ele>
        <time>2020-01-10T08:43:34Z</time>
      </trkpt>
      <trkpt lat="45.48446" lon="6.89598">
        <ele>2586.8</ele>
        <time>2020-01-10T08:43:37Z</time>
      </trkpt>
      <trkpt lat="45.48445" lon="6.89595">
        <ele>2586.8</ele>
        <time>2020-01-10T08:43:41Z</time>
      </trkpt>
      <trkpt lat="45.48443" lon="6.89594">
        <ele>2586.8</ele>
        <time>2020-01-10T08:43:46Z</time>
      </trkpt>
      <trkpt lat="45.48441" lon="6.89592">
        <ele>2586.8</ele>
        <time>2020-01-10T08:43:48Z</time>
      </trkpt>
      <trkpt lat="45.4844" lon="6.89591">
        <ele>2586.8</ele>
        <time>2020-01-10T08:43:51Z</time>
      </trkpt>
      <trkpt lat="45.48438" lon="6.89588">
        <ele>2586.8</ele>
        <time>2020-01-10T08:43:54Z</time>
      </trkpt>
      <trkpt lat="45.48437" lon="6.89586">
        <ele>2586.8</ele>
        <time>2020-01-10T08:43:55Z</time>
      </trkpt>
      <trkpt lat="45.48436" lon="6.89583">
        <ele>2586.8</ele>
        <time>2020-01-10T08:43:58Z</time>
      </trkpt>
      <trkpt lat="45.48435" lon="6.8958">
        <ele>2586.8</ele>
        <time>2020-01-10T08:44:00Z</time>
      </trkpt>
      <trkpt lat="45.48434" lon="6.89577">
        <ele>2586.8</ele>
        <time>2020-01-10T08:44:03Z</time>
      </trkpt>
      <trkpt lat="45.48434" lon="6.89575">
        <ele>2586.8</ele>
        <time>2020-01-10T08:44:05Z</time>
      </trkpt>
      <trkpt lat="45.48433" lon="6.89571">
        <ele>2586.8</ele>
        <time>2020-01-10T08:44:08Z</time>
      </trkpt>
      <trkpt lat="45.48432" lon="6.89568">
        <ele>2586.8</ele>
        <time>2020-01-10T08:44:11Z</time>
      </trkpt>
      <trkpt lat="45.48431" lon="6.89566">
        <ele>2586.8</ele>
        <time>2020-01-10T08:44:15Z</time>
      </trkpt>
      <trkpt lat="45.4843" lon="6.89562">
        <ele>2586.8</ele>
        <time>2020-01-10T08:44:18Z</time>
      </trkpt>
      <trkpt lat="45.48429" lon="6.89559">
        <ele>2586.8</ele>
        <time>2020-01-10T08:44:21Z</time>
      </trkpt>
      <trkpt lat="45.48428" lon="6.89556">
        <ele>2586.8</ele>
        <time>2020-01-10T08:44:24Z</time>
      </trkpt>
      <trkpt lat="45.48428" lon="6.89552">
        <ele>2586.8</ele>
        <time>2020-01-10T08:44:27Z</time>
      </trkpt>
      <trkpt lat="45.48428" lon="6.89549">
        <ele>2586.8</ele>
        <time>2020-01-10T08:44:30Z</time>
      </trkpt>
      <trkpt lat="45.48428" lon="6.89546">
        <ele>2586.8</ele>
        <time>2020-01-10T08:44:33Z</time>
      </trkpt>
      <trkpt lat="45.48428" lon="6.89543">
        <ele>2586.8</ele>
        <time>2020-01-10T08:44:36Z</time>
      </trkpt>
      <trkpt lat="45.48428" lon="6.89539">
        <ele>2612.2</ele>
        <time>2020-01-10T08:44:39Z</time>
      </trkpt>
      <trkpt lat="45.48427" lon="6.89536">
        <ele>2612.2</ele>
        <time>2020-01-10T08:44:42Z</time>
      </trkpt>
      <trkpt lat="45.48427" lon="6.89532">
        <ele>2612.2</ele>
        <time>2020-01-10T08:44:45Z</time>
      </trkpt>
      <trkpt lat="45.48427" lon="6.89529">
        <ele>2612.2</ele>
        <time>2020-01-10T08:44:47Z</time>
      </trkpt>
      <trkpt lat="45.48427" lon="6.89526">
        <ele>2612.2</ele>
        <time>2020-01-10T08:44:50Z</time>
      </trkpt>
      <trkpt lat="45.48427" lon="6.89522">
        <ele>2612.2</ele>
        <time>2020-01-10T08:44:53Z</time>
      </trkpt>
      <trkpt lat="45.48427" lon="6.89518">
        <ele>2612.2</ele>
        <time>2020-01-10T08:44:56Z</time>
      </trkpt>
      <trkpt lat="45.48428" lon="6.89515">
        <ele>2618</ele>
        <time>2020-01-10T08:44:59Z</time>
      </trkpt>
      <trkpt lat="45.48428" lon="6.89512">
        <ele>2618</ele>
        <time>2020-01-10T08:45:02Z</time>
      </trkpt>
      <trkpt lat="45.48428" lon="6.89508">
        <ele>2618</ele>
        <time>2020-01-10T08:45:05Z</time>
      </trkpt>
      <trkpt lat="45.48429" lon="6.89504">
        <ele>2618</ele>
        <time>2020-01-10T08:45:08Z</time>
      </trkpt>
      <trkpt lat="45.4843" lon="6.89501">
        <ele>2618</ele>
        <time>2020-01-10T08:45:10Z</time>
      </trkpt>
      <trkpt lat="45.48431" lon="6.89499">
        <ele>2618</ele>
        <time>2020-01-10T08:45:12Z</time>
      </trkpt>
      <trkpt lat="45.48432" lon="6.89496">
        <ele>2618</ele>
        <time>2020-01-10T08:45:15Z</time>
      </trkpt>
      <trkpt lat="45.48433" lon="6.89493">
        <ele>2618</ele>
        <time>2020-01-10T08:45:17Z</time>
      </trkpt>
      <trkpt lat="45.48433" lon="6.8949">
        <ele>2623.6</ele>
        <time>2020-01-10T08:45:19Z</time>
      </trkpt>
      <trkpt lat="45.48434" lon="6.89487">
        <ele>2623.6</ele>
        <time>2020-01-10T08:45:21Z</time>
      </trkpt>
      <trkpt lat="45.48435" lon="6.89484">
        <ele>2623.6</ele>
        <time>2020-01-10T08:45:23Z</time>
      </trkpt>
      <trkpt lat="45.48436" lon="6.89482">
        <ele>2623.6</ele>
        <time>2020-01-10T08:45:25Z</time>
      </trkpt>
      <trkpt lat="45.48437" lon="6.89479">
        <ele>2623.6</ele>
        <time>2020-01-10T08:45:27Z</time>
      </trkpt>
      <trkpt lat="45.48437" lon="6.89477">
        <ele>2626.6</ele>
        <time>2020-01-10T08:45:29Z</time>
      </trkpt>
      <trkpt lat="45.48439" lon="6.89475">
        <ele>2626.6</ele>
        <time>2020-01-10T08:45:31Z</time>
      </trkpt>
      <trkpt lat="45.48439" lon="6.89471">
        <ele>2626.6</ele>
        <time>2020-01-10T08:45:34Z</time>
      </trkpt>
      <trkpt lat="45.48441" lon="6.89468">
        <ele>2626.6</ele>
        <time>2020-01-10T08:45:36Z</time>
      </trkpt>
      <trkpt lat="45.48442" lon="6.89465">
        <ele>2626.6</ele>
        <time>2020-01-10T08:45:38Z</time>
      </trkpt>
      <trkpt lat="45.48443" lon="6.89463">
        <ele>2626.6</ele>
        <time>2020-01-10T08:45:40Z</time>
      </trkpt>
      <trkpt lat="45.48444" lon="6.8946">
        <ele>2626.6</ele>
        <time>2020-01-10T08:45:42Z</time>
      </trkpt>
      <trkpt lat="45.48446" lon="6.89458">
        <ele>2626.6</ele>
        <time>2020-01-10T08:45:44Z</time>
      </trkpt>
      <trkpt lat="45.48448" lon="6.89455">
        <ele>2626.6</ele>
        <time>2020-01-10T08:45:46Z</time>
      </trkpt>
      <trkpt lat="45.48449" lon="6.89453">
        <ele>2626.6</ele>
        <time>2020-01-10T08:45:48Z</time>
      </trkpt>
      <trkpt lat="45.48451" lon="6.8945">
        <ele>2626.6</ele>
        <time>2020-01-10T08:45:50Z</time>
      </trkpt>
      <trkpt lat="45.48453" lon="6.89448">
        <ele>2626.6</ele>
        <time>2020-01-10T08:45:52Z</time>
      </trkpt>
      <trkpt lat="45.48453" lon="6.89445">
        <ele>2626.6</ele>
        <time>2020-01-10T08:45:54Z</time>
      </trkpt>
      <trkpt lat="45.48455" lon="6.89443">
        <ele>2626.6</ele>
        <time>2020-01-10T08:45:56Z</time>
      </trkpt>
      <trkpt lat="45.48458" lon="6.8944">
        <ele>2626.6</ele>
        <time>2020-01-10T08:45:58Z</time>
      </trkpt>
      <trkpt lat="45.4846" lon="6.89438">
        <ele>2626.6</ele>
        <time>2020-01-10T08:46:00Z</time>
      </trkpt>
      <trkpt lat="45.48461" lon="6.89435">
        <ele>2626.6</ele>
        <time>2020-01-10T08:46:02Z</time>
      </trkpt>
      <trkpt lat="45.48463" lon="6.89432">
        <ele>2626.6</ele>
        <time>2020-01-10T08:46:04Z</time>
      </trkpt>
      <trkpt lat="45.48465" lon="6.89429">
        <ele>2626.6</ele>
        <time>2020-01-10T08:46:06Z</time>
      </trkpt>
      <trkpt lat="45.48467" lon="6.89426">
        <ele>2626.6</ele>
        <time>2020-01-10T08:46:08Z</time>
      </trkpt>
      <trkpt lat="45.48468" lon="6.89423">
        <ele>2626.6</ele>
        <time>2020-01-10T08:46:10Z</time>
      </trkpt>
      <trkpt lat="45.48469" lon="6.8942">
        <ele>2626.6</ele>
        <time>2020-01-10T08:46:12Z</time>
      </trkpt>
      <trkpt lat="45.4847" lon="6.89417">
        <ele>2626.6</ele>
        <time>2020-01-10T08:46:14Z</time>
      </trkpt>
      <trkpt lat="45.48471" lon="6.89413">
        <ele>2626.6</ele>
        <time>2020-01-10T08:46:16Z</time>
      </trkpt>
      <trkpt lat="45.48471" lon="6.89409">
        <ele>2626.6</ele>
        <time>2020-01-10T08:46:18Z</time>
      </trkpt>
      <trkpt lat="45.48472" lon="6.89405">
        <ele>2626.6</ele>
        <time>2020-01-10T08:46:20Z</time>
      </trkpt>
      <trkpt lat="45.48472" lon="6.89402">
        <ele>2626.6</ele>
        <time>2020-01-10T08:46:21Z</time>
      </trkpt>
      <trkpt lat="45.48472" lon="6.89399">
        <ele>2626.6</ele>
        <time>2020-01-10T08:46:23Z</time>
      </trkpt>
      <trkpt lat="45.48472" lon="6.89397">
        <ele>2626.6</ele>
        <time>2020-01-10T08:46:24Z</time>
      </trkpt>
      <trkpt lat="45.48471" lon="6.89393">
        <ele>2626.6</ele>
        <time>2020-01-10T08:46:26Z</time>
      </trkpt>
      <trkpt lat="45.48471" lon="6.89388">
        <ele>2626.6</ele>
        <time>2020-01-10T08:46:28Z</time>
      </trkpt>
      <trkpt lat="45.48472" lon="6.89385">
        <ele>2626.6</ele>
        <time>2020-01-10T08:46:30Z</time>
      </trkpt>
      <trkpt lat="45.48472" lon="6.89381">
        <ele>2626.6</ele>
        <time>2020-01-10T08:46:32Z</time>
      </trkpt>
      <trkpt lat="45.48473" lon="6.89378">
        <ele>2626.6</ele>
        <time>2020-01-10T08:46:34Z</time>
      </trkpt>
      <trkpt lat="45.48473" lon="6.89375">
        <ele>2626.6</ele>
        <time>2020-01-10T08:46:36Z</time>
      </trkpt>
      <trkpt lat="45.48473" lon="6.89372">
        <ele>2626.6</ele>
        <time>2020-01-10T08:46:38Z</time>
      </trkpt>
      <trkpt lat="45.48472" lon="6.89369">
        <ele>2626.6</ele>
        <time>2020-01-10T08:46:40Z</time>
      </trkpt>
      <trkpt lat="45.48471" lon="6.89366">
        <ele>2626.6</ele>
        <time>2020-01-10T08:46:42Z</time>
      </trkpt>
      <trkpt lat="45.48469" lon="6.89363">
        <ele>2626.6</ele>
        <time>2020-01-10T08:46:45Z</time>
      </trkpt>
      <trkpt lat="45.48469" lon="6.8936">
        <ele>2626.6</ele>
        <time>2020-01-10T08:46:47Z</time>
      </trkpt>
      <trkpt lat="45.48468" lon="6.89357">
        <ele>2626.6</ele>
        <time>2020-01-10T08:46:50Z</time>
      </trkpt>
      <trkpt lat="45.48467" lon="6.89354">
        <ele>2626.6</ele>
        <time>2020-01-10T08:46:52Z</time>
      </trkpt>
      <trkpt lat="45.48466" lon="6.89351">
        <ele>2626.6</ele>
        <time>2020-01-10T08:46:54Z</time>
      </trkpt>
      <trkpt lat="45.48465" lon="6.89349">
        <ele>2626.6</ele>
        <time>2020-01-10T08:46:56Z</time>
      </trkpt>
      <trkpt lat="45.48464" lon="6.89345">
        <ele>2647.6</ele>
        <time>2020-01-10T08:46:59Z</time>
      </trkpt>
      <trkpt lat="45.48464" lon="6.89342">
        <ele>2647.6</ele>
        <time>2020-01-10T08:47:01Z</time>
      </trkpt>
      <trkpt lat="45.48463" lon="6.89339">
        <ele>2647.6</ele>
        <time>2020-01-10T08:47:03Z</time>
      </trkpt>
      <trkpt lat="45.48462" lon="6.89336">
        <ele>2647.6</ele>
        <time>2020-01-10T08:47:05Z</time>
      </trkpt>
      <trkpt lat="45.48462" lon="6.89333">
        <ele>2647.6</ele>
        <time>2020-01-10T08:47:07Z</time>
      </trkpt>
      <trkpt lat="45.48461" lon="6.8933">
        <ele>2651.2</ele>
        <time>2020-01-10T08:47:09Z</time>
      </trkpt>
      <trkpt lat="45.48461" lon="6.89326">
        <ele>2651.2</ele>
        <time>2020-01-10T08:47:12Z</time>
      </trkpt>
      <trkpt lat="45.4846" lon="6.89324">
        <ele>2651.2</ele>
        <time>2020-01-10T08:47:14Z</time>
      </trkpt>
      <trkpt lat="45.4846" lon="6.89321">
        <ele>2651.2</ele>
        <time>2020-01-10T08:47:16Z</time>
      </trkpt>
      <trkpt lat="45.4846" lon="6.89318">
        <ele>2651.2</ele>
        <time>2020-01-10T08:47:18Z</time>
      </trkpt>
      <trkpt lat="45.4846" lon="6.89314">
        <ele>2651.2</ele>
        <time>2020-01-10T08:47:21Z</time>
      </trkpt>
      <trkpt lat="45.4846" lon="6.89311">
        <ele>2651.2</ele>
        <time>2020-01-10T08:47:23Z</time>
      </trkpt>
      <trkpt lat="45.4846" lon="6.89308">
        <ele>2651.2</ele>
        <time>2020-01-10T08:47:25Z</time>
      </trkpt>
      <trkpt lat="45.48459" lon="6.89305">
        <ele>2651.2</ele>
        <time>2020-01-10T08:47:27Z</time>
      </trkpt>
      <trkpt lat="45.48459" lon="6.89302">
        <ele>2656.2</ele>
        <time>2020-01-10T08:47:29Z</time>
      </trkpt>
      <trkpt lat="45.48459" lon="6.89299">
        <ele>2656.2</ele>
        <time>2020-01-10T08:47:31Z</time>
      </trkpt>
      <trkpt lat="45.48458" lon="6.89296">
        <ele>2656.2</ele>
        <time>2020-01-10T08:47:33Z</time>
      </trkpt>
      <trkpt lat="45.48458" lon="6.89293">
        <ele>2656.2</ele>
        <time>2020-01-10T08:47:35Z</time>
      </trkpt>
      <trkpt lat="45.48458" lon="6.89289">
        <ele>2656.2</ele>
        <time>2020-01-10T08:47:37Z</time>
      </trkpt>
      <trkpt lat="45.48457" lon="6.89285">
        <ele>2658.8</ele>
        <time>2020-01-10T08:47:39Z</time>
      </trkpt>
      <trkpt lat="45.48457" lon="6.89281">
        <ele>2658.8</ele>
        <time>2020-01-10T08:47:41Z</time>
      </trkpt>
      <trkpt lat="45.48456" lon="6.89278">
        <ele>2658.8</ele>
        <time>2020-01-10T08:47:43Z</time>
      </trkpt>
      <trkpt lat="45.48456" lon="6.89273">
        <ele>2658.8</ele>
        <time>2020-01-10T08:47:45Z</time>
      </trkpt>
      <trkpt lat="45.48456" lon="6.89269">
        <ele>2658.8</ele>
        <time>2020-01-10T08:47:47Z</time>
      </trkpt>
      <trkpt lat="45.48456" lon="6.89265">
        <ele>2661.6</ele>
        <time>2020-01-10T08:47:49Z</time>
      </trkpt>
      <trkpt lat="45.48455" lon="6.89261">
        <ele>2661.6</ele>
        <time>2020-01-10T08:47:51Z</time>
      </trkpt>
      <trkpt lat="45.48455" lon="6.89258">
        <ele>2661.6</ele>
        <time>2020-01-10T08:47:53Z</time>
      </trkpt>
      <trkpt lat="45.48453" lon="6.89254">
        <ele>2661.6</ele>
        <time>2020-01-10T08:47:55Z</time>
      </trkpt>
      <trkpt lat="45.48453" lon="6.8925">
        <ele>2661.6</ele>
        <time>2020-01-10T08:47:57Z</time>
      </trkpt>
      <trkpt lat="45.48452" lon="6.89246">
        <ele>2664.2</ele>
        <time>2020-01-10T08:47:59Z</time>
      </trkpt>
      <trkpt lat="45.48451" lon="6.89242">
        <ele>2664.2</ele>
        <time>2020-01-10T08:48:01Z</time>
      </trkpt>
      <trkpt lat="45.4845" lon="6.89239">
        <ele>2664.2</ele>
        <time>2020-01-10T08:48:03Z</time>
      </trkpt>
      <trkpt lat="45.48449" lon="6.89234">
        <ele>2664.2</ele>
        <time>2020-01-10T08:48:05Z</time>
      </trkpt>
      <trkpt lat="45.48449" lon="6.89231">
        <ele>2664.2</ele>
        <time>2020-01-10T08:48:07Z</time>
      </trkpt>
      <trkpt lat="45.48448" lon="6.89227">
        <ele>2665.8</ele>
        <time>2020-01-10T08:48:09Z</time>
      </trkpt>
      <trkpt lat="45.48447" lon="6.89224">
        <ele>2665.8</ele>
        <time>2020-01-10T08:48:11Z</time>
      </trkpt>
      <trkpt lat="45.48445" lon="6.89219">
        <ele>2665.8</ele>
        <time>2020-01-10T08:48:13Z</time>
      </trkpt>
      <trkpt lat="45.48444" lon="6.89215">
        <ele>2665.8</ele>
        <time>2020-01-10T08:48:15Z</time>
      </trkpt>
      <trkpt lat="45.48444" lon="6.89212">
        <ele>2665.8</ele>
        <time>2020-01-10T08:48:17Z</time>
      </trkpt>
      <trkpt lat="45.48443" lon="6.89208">
        <ele>2667.8</ele>
        <time>2020-01-10T08:48:19Z</time>
      </trkpt>
      <trkpt lat="45.48442" lon="6.89204">
        <ele>2667.8</ele>
        <time>2020-01-10T08:48:21Z</time>
      </trkpt>
      <trkpt lat="45.48441" lon="6.892">
        <ele>2667.8</ele>
        <time>2020-01-10T08:48:23Z</time>
      </trkpt>
      <trkpt lat="45.4844" lon="6.89197">
        <ele>2667.8</ele>
        <time>2020-01-10T08:48:25Z</time>
      </trkpt>
      <trkpt lat="45.48439" lon="6.89193">
        <ele>2667.8</ele>
        <time>2020-01-10T08:48:27Z</time>
      </trkpt>
      <trkpt lat="45.48438" lon="6.89189">
        <ele>2669.8</ele>
        <time>2020-01-10T08:48:29Z</time>
      </trkpt>
      <trkpt lat="45.48437" lon="6.89186">
        <ele>2669.8</ele>
        <time>2020-01-10T08:48:30Z</time>
      </trkpt>
      <trkpt lat="45.48436" lon="6.89182">
        <ele>2669.8</ele>
        <time>2020-01-10T08:48:32Z</time>
      </trkpt>
      <trkpt lat="45.48436" lon="6.89178">
        <ele>2669.8</ele>
        <time>2020-01-10T08:48:34Z</time>
      </trkpt>
      <trkpt lat="45.48435" lon="6.89175">
        <ele>2669.8</ele>
        <time>2020-01-10T08:48:36Z</time>
      </trkpt>
      <trkpt lat="45.48434" lon="6.89171">
        <ele>2669.8</ele>
        <time>2020-01-10T08:48:38Z</time>
      </trkpt>
      <trkpt lat="45.48433" lon="6.89168">
        <ele>2669.8</ele>
        <time>2020-01-10T08:48:40Z</time>
      </trkpt>
      <trkpt lat="45.48432" lon="6.89163">
        <ele>2669.8</ele>
        <time>2020-01-10T08:48:42Z</time>
      </trkpt>
      <trkpt lat="45.48431" lon="6.89159">
        <ele>2669.8</ele>
        <time>2020-01-10T08:48:44Z</time>
      </trkpt>
      <trkpt lat="45.48431" lon="6.89155">
        <ele>2669.8</ele>
        <time>2020-01-10T08:48:46Z</time>
      </trkpt>
      <trkpt lat="45.48431" lon="6.89151">
        <ele>2669.8</ele>
        <time>2020-01-10T08:48:48Z</time>
      </trkpt>
      <trkpt lat="45.4843" lon="6.89147">
        <ele>2669.8</ele>
        <time>2020-01-10T08:48:50Z</time>
      </trkpt>
      <trkpt lat="45.48429" lon="6.89143">
        <ele>2669.8</ele>
        <time>2020-01-10T08:48:52Z</time>
      </trkpt>
      <trkpt lat="45.48429" lon="6.8914">
        <ele>2669.8</ele>
        <time>2020-01-10T08:48:54Z</time>
      </trkpt>
      <trkpt lat="45.48429" lon="6.89137">
        <ele>2669.8</ele>
        <time>2020-01-10T08:48:55Z</time>
      </trkpt>
      <trkpt lat="45.48429" lon="6.89134">
        <ele>2669.8</ele>
        <time>2020-01-10T08:48:56Z</time>
      </trkpt>
      <trkpt lat="45.48429" lon="6.89132">
        <ele>2669.8</ele>
        <time>2020-01-10T08:48:57Z</time>
      </trkpt>
      <trkpt lat="45.48429" lon="6.89129">
        <ele>2669.8</ele>
        <time>2020-01-10T08:48:58Z</time>
      </trkpt>
      <trkpt lat="45.48429" lon="6.89124">
        <ele>2669.8</ele>
        <time>2020-01-10T08:49:00Z</time>
      </trkpt>
      <trkpt lat="45.48429" lon="6.8912">
        <ele>2669.8</ele>
        <time>2020-01-10T08:49:02Z</time>
      </trkpt>
      <trkpt lat="45.48429" lon="6.89116">
        <ele>2669.8</ele>
        <time>2020-01-10T08:49:04Z</time>
      </trkpt>
      <trkpt lat="45.48429" lon="6.89112">
        <ele>2669.8</ele>
        <time>2020-01-10T08:49:06Z</time>
      </trkpt>
      <trkpt lat="45.48429" lon="6.89108">
        <ele>2669.8</ele>
        <time>2020-01-10T08:49:08Z</time>
      </trkpt>
      <trkpt lat="45.48429" lon="6.89103">
        <ele>2669.8</ele>
        <time>2020-01-10T08:49:10Z</time>
      </trkpt>
      <trkpt lat="45.4843" lon="6.89099">
        <ele>2669.8</ele>
        <time>2020-01-10T08:49:12Z</time>
      </trkpt>
      <trkpt lat="45.48431" lon="6.89095">
        <ele>2669.8</ele>
        <time>2020-01-10T08:49:14Z</time>
      </trkpt>
      <trkpt lat="45.48431" lon="6.8909">
        <ele>2669.8</ele>
        <time>2020-01-10T08:49:16Z</time>
      </trkpt>
      <trkpt lat="45.48431" lon="6.89088">
        <ele>2669.8</ele>
        <time>2020-01-10T08:49:17Z</time>
      </trkpt>
      <trkpt lat="45.48431" lon="6.89084">
        <ele>2677.6</ele>
        <time>2020-01-10T08:49:19Z</time>
      </trkpt>
      <trkpt lat="45.48432" lon="6.89079">
        <ele>2677.6</ele>
        <time>2020-01-10T08:49:21Z</time>
      </trkpt>
      <trkpt lat="45.48432" lon="6.89075">
        <ele>2677.6</ele>
        <time>2020-01-10T08:49:23Z</time>
      </trkpt>
      <trkpt lat="45.48433" lon="6.8907">
        <ele>2677.6</ele>
        <time>2020-01-10T08:49:25Z</time>
      </trkpt>
      <trkpt lat="45.48434" lon="6.89067">
        <ele>2677.6</ele>
        <time>2020-01-10T08:49:27Z</time>
      </trkpt>
      <trkpt lat="45.48434" lon="6.89064">
        <ele>2679</ele>
        <time>2020-01-10T08:49:29Z</time>
      </trkpt>
      <trkpt lat="45.48435" lon="6.8906">
        <ele>2679</ele>
        <time>2020-01-10T08:49:31Z</time>
      </trkpt>
      <trkpt lat="45.48436" lon="6.89056">
        <ele>2679</ele>
        <time>2020-01-10T08:49:33Z</time>
      </trkpt>
      <trkpt lat="45.48436" lon="6.89052">
        <ele>2679</ele>
        <time>2020-01-10T08:49:35Z</time>
      </trkpt>
      <trkpt lat="45.48436" lon="6.89049">
        <ele>2679</ele>
        <time>2020-01-10T08:49:37Z</time>
      </trkpt>
      <trkpt lat="45.48437" lon="6.89046">
        <ele>2681.2</ele>
        <time>2020-01-10T08:49:39Z</time>
      </trkpt>
      <trkpt lat="45.48437" lon="6.89043">
        <ele>2681.2</ele>
        <time>2020-01-10T08:49:41Z</time>
      </trkpt>
      <trkpt lat="45.48437" lon="6.89039">
        <ele>2681.2</ele>
        <time>2020-01-10T08:49:43Z</time>
      </trkpt>
      <trkpt lat="45.48437" lon="6.89036">
        <ele>2681.2</ele>
        <time>2020-01-10T08:49:45Z</time>
      </trkpt>
      <trkpt lat="45.48437" lon="6.89033">
        <ele>2681.2</ele>
        <time>2020-01-10T08:49:47Z</time>
      </trkpt>
      <trkpt lat="45.48438" lon="6.8903">
        <ele>2685.6</ele>
        <time>2020-01-10T08:49:49Z</time>
      </trkpt>
      <trkpt lat="45.48438" lon="6.89027">
        <ele>2685.6</ele>
        <time>2020-01-10T08:49:51Z</time>
      </trkpt>
      <trkpt lat="45.48438" lon="6.89025">
        <ele>2685.6</ele>
        <time>2020-01-10T08:49:53Z</time>
      </trkpt>
      <trkpt lat="45.48439" lon="6.89022">
        <ele>2685.6</ele>
        <time>2020-01-10T08:49:55Z</time>
      </trkpt>
      <trkpt lat="45.48439" lon="6.89017">
        <ele>2685.6</ele>
        <time>2020-01-10T08:49:58Z</time>
      </trkpt>
      <trkpt lat="45.4844" lon="6.89014">
        <ele>2685.6</ele>
        <time>2020-01-10T08:50:00Z</time>
      </trkpt>
      <trkpt lat="45.4844" lon="6.89011">
        <ele>2685.6</ele>
        <time>2020-01-10T08:50:02Z</time>
      </trkpt>
      <trkpt lat="45.48439" lon="6.89009">
        <ele>2685.6</ele>
        <time>2020-01-10T08:50:04Z</time>
      </trkpt>
      <trkpt lat="45.4844" lon="6.89006">
        <ele>2685.6</ele>
        <time>2020-01-10T08:50:07Z</time>
      </trkpt>
      <trkpt lat="45.48439" lon="6.89003">
        <ele>2692.8</ele>
        <time>2020-01-10T08:50:09Z</time>
      </trkpt>
      <trkpt lat="45.4844" lon="6.88999">
        <ele>2692.8</ele>
        <time>2020-01-10T08:50:12Z</time>
      </trkpt>
      <trkpt lat="45.4844" lon="6.88996">
        <ele>2692.8</ele>
        <time>2020-01-10T08:50:14Z</time>
      </trkpt>
      <trkpt lat="45.4844" lon="6.88993">
        <ele>2692.8</ele>
        <time>2020-01-10T08:50:16Z</time>
      </trkpt>
      <trkpt lat="45.4844" lon="6.8899">
        <ele>2692.8</ele>
        <time>2020-01-10T08:50:18Z</time>
      </trkpt>
      <trkpt lat="45.4844" lon="6.88986">
        <ele>2692.8</ele>
        <time>2020-01-10T08:50:20Z</time>
      </trkpt>
      <trkpt lat="45.48441" lon="6.88983">
        <ele>2692.8</ele>
        <time>2020-01-10T08:50:22Z</time>
      </trkpt>
      <trkpt lat="45.48441" lon="6.8898">
        <ele>2692.8</ele>
        <time>2020-01-10T08:50:24Z</time>
      </trkpt>
      <trkpt lat="45.48441" lon="6.88976">
        <ele>2692.8</ele>
        <time>2020-01-10T08:50:27Z</time>
      </trkpt>
      <trkpt lat="45.48442" lon="6.88974">
        <ele>2698.2</ele>
        <time>2020-01-10T08:50:29Z</time>
      </trkpt>
      <trkpt lat="45.48442" lon="6.88971">
        <ele>2698.2</ele>
        <time>2020-01-10T08:50:31Z</time>
      </trkpt>
      <trkpt lat="45.48443" lon="6.88968">
        <ele>2698.2</ele>
        <time>2020-01-10T08:50:33Z</time>
      </trkpt>
      <trkpt lat="45.48443" lon="6.88965">
        <ele>2698.2</ele>
        <time>2020-01-10T08:50:36Z</time>
      </trkpt>
      <trkpt lat="45.48444" lon="6.88962">
        <ele>2698.2</ele>
        <time>2020-01-10T08:50:38Z</time>
      </trkpt>
      <trkpt lat="45.48444" lon="6.88959">
        <ele>2698.2</ele>
        <time>2020-01-10T08:50:41Z</time>
      </trkpt>
      <trkpt lat="45.48444" lon="6.88956">
        <ele>2698.2</ele>
        <time>2020-01-10T08:50:43Z</time>
      </trkpt>
      <trkpt lat="45.48444" lon="6.88952">
        <ele>2698.2</ele>
        <time>2020-01-10T08:50:46Z</time>
      </trkpt>
      <trkpt lat="45.48445" lon="6.8895">
        <ele>2704.4</ele>
        <time>2020-01-10T08:50:49Z</time>
      </trkpt>
      <trkpt lat="45.48446" lon="6.88946">
        <ele>2704.4</ele>
        <time>2020-01-10T08:50:51Z</time>
      </trkpt>
      <trkpt lat="45.48446" lon="6.88943">
        <ele>2704.4</ele>
        <time>2020-01-10T08:50:54Z</time>
      </trkpt>
      <trkpt lat="45.48446" lon="6.88939">
        <ele>2704.4</ele>
        <time>2020-01-10T08:50:57Z</time>
      </trkpt>
      <trkpt lat="45.48447" lon="6.88936">
        <ele>2707.8</ele>
        <time>2020-01-10T08:50:59Z</time>
      </trkpt>
      <trkpt lat="45.48447" lon="6.88932">
        <ele>2707.8</ele>
        <time>2020-01-10T08:51:02Z</time>
      </trkpt>
      <trkpt lat="45.48448" lon="6.8893">
        <ele>2707.8</ele>
        <time>2020-01-10T08:51:05Z</time>
      </trkpt>
      <trkpt lat="45.48449" lon="6.88927">
        <ele>2707.8</ele>
        <time>2020-01-10T08:51:07Z</time>
      </trkpt>
      <trkpt lat="45.4845" lon="6.88925">
        <ele>2710.8</ele>
        <time>2020-01-10T08:51:09Z</time>
      </trkpt>
      <trkpt lat="45.48451" lon="6.88922">
        <ele>2710.8</ele>
        <time>2020-01-10T08:51:12Z</time>
      </trkpt>
      <trkpt lat="45.48452" lon="6.88918">
        <ele>2710.8</ele>
        <time>2020-01-10T08:51:16Z</time>
      </trkpt>
      <trkpt lat="45.48453" lon="6.88916">
        <ele>2713.8</ele>
        <time>2020-01-10T08:51:19Z</time>
      </trkpt>
      <trkpt lat="45.48453" lon="6.88913">
        <ele>2713.8</ele>
        <time>2020-01-10T08:51:22Z</time>
      </trkpt>
      <trkpt lat="45.48454" lon="6.8891">
        <ele>2713.8</ele>
        <time>2020-01-10T08:51:25Z</time>
      </trkpt>
      <trkpt lat="45.48455" lon="6.88907">
        <ele>2713.8</ele>
        <time>2020-01-10T08:51:28Z</time>
      </trkpt>
      <trkpt lat="45.48456" lon="6.88904">
        <ele>2713.8</ele>
        <time>2020-01-10T08:51:30Z</time>
      </trkpt>
      <trkpt lat="45.48457" lon="6.88902">
        <ele>2713.8</ele>
        <time>2020-01-10T08:51:32Z</time>
      </trkpt>
      <trkpt lat="45.48458" lon="6.88899">
        <ele>2713.8</ele>
        <time>2020-01-10T08:51:35Z</time>
      </trkpt>
      <trkpt lat="45.48459" lon="6.88895">
        <ele>2713.8</ele>
        <time>2020-01-10T08:51:38Z</time>
      </trkpt>
      <trkpt lat="45.48459" lon="6.88892">
        <ele>2713.8</ele>
        <time>2020-01-10T08:51:40Z</time>
      </trkpt>
      <trkpt lat="45.4846" lon="6.88889">
        <ele>2713.8</ele>
        <time>2020-01-10T08:51:42Z</time>
      </trkpt>
      <trkpt lat="45.4846" lon="6.88885">
        <ele>2713.8</ele>
        <time>2020-01-10T08:51:44Z</time>
      </trkpt>
      <trkpt lat="45.48459" lon="6.88882">
        <ele>2713.8</ele>
        <time>2020-01-10T08:51:46Z</time>
      </trkpt>
      <trkpt lat="45.48459" lon="6.88878">
        <ele>2713.8</ele>
        <time>2020-01-10T08:51:48Z</time>
      </trkpt>
      <trkpt lat="45.48458" lon="6.88875">
        <ele>2713.8</ele>
        <time>2020-01-10T08:51:50Z</time>
      </trkpt>
      <trkpt lat="45.48457" lon="6.88871">
        <ele>2713.8</ele>
        <time>2020-01-10T08:51:52Z</time>
      </trkpt>
      <trkpt lat="45.48455" lon="6.88868">
        <ele>2713.8</ele>
        <time>2020-01-10T08:51:54Z</time>
      </trkpt>
      <trkpt lat="45.48454" lon="6.88866">
        <ele>2713.8</ele>
        <time>2020-01-10T08:51:56Z</time>
      </trkpt>
      <trkpt lat="45.48453" lon="6.88863">
        <ele>2713.8</ele>
        <time>2020-01-10T08:51:58Z</time>
      </trkpt>
      <trkpt lat="45.48452" lon="6.88861">
        <ele>2713.8</ele>
        <time>2020-01-10T08:52:00Z</time>
      </trkpt>
      <trkpt lat="45.48449" lon="6.88863">
        <ele>2713.8</ele>
        <time>2020-01-10T08:53:01Z</time>
      </trkpt>
      <trkpt lat="45.48447" lon="6.8886">
        <ele>2713.8</ele>
        <time>2020-01-10T08:54:32Z</time>
      </trkpt>
      <trkpt lat="45.48445" lon="6.8886">
        <ele>2713.8</ele>
        <time>2020-01-10T08:54:33Z</time>
      </trkpt>
      <trkpt lat="45.48442" lon="6.88859">
        <ele>2713.8</ele>
        <time>2020-01-10T08:54:34Z</time>
      </trkpt>
      <trkpt lat="45.48439" lon="6.88859">
        <ele>2713.8</ele>
        <time>2020-01-10T08:54:35Z</time>
      </trkpt>
      <trkpt lat="45.48435" lon="6.8886">
        <ele>2713.8</ele>
        <time>2020-01-10T08:54:36Z</time>
      </trkpt>
      <trkpt lat="45.48431" lon="6.88862">
        <ele>2713.8</ele>
        <time>2020-01-10T08:54:37Z</time>
      </trkpt>
      <trkpt lat="45.48427" lon="6.88864">
        <ele>2713.8</ele>
        <time>2020-01-10T08:54:38Z</time>
      </trkpt>
      <trkpt lat="45.48422" lon="6.88866">
        <ele>2707.8</ele>
        <time>2020-01-10T08:54:39Z</time>
      </trkpt>
      <trkpt lat="45.48418" lon="6.88867">
        <ele>2707.8</ele>
        <time>2020-01-10T08:54:40Z</time>
      </trkpt>
      <trkpt lat="45.48414" lon="6.88866">
        <ele>2707.8</ele>
        <time>2020-01-10T08:54:41Z</time>
      </trkpt>
      <trkpt lat="45.48411" lon="6.88862">
        <ele>2707.8</ele>
        <time>2020-01-10T08:54:42Z</time>
      </trkpt>
      <trkpt lat="45.48409" lon="6.88858">
        <ele>2707.8</ele>
        <time>2020-01-10T08:54:43Z</time>
      </trkpt>
      <trkpt lat="45.48408" lon="6.88853">
        <ele>2707.8</ele>
        <time>2020-01-10T08:54:44Z</time>
      </trkpt>
      <trkpt lat="45.48409" lon="6.88848">
        <ele>2707.8</ele>
        <time>2020-01-10T08:54:45Z</time>
      </trkpt>
      <trkpt lat="45.48409" lon="6.88844">
        <ele>2707.8</ele>
        <time>2020-01-10T08:54:46Z</time>
      </trkpt>
      <trkpt lat="45.4841" lon="6.88839">
        <ele>2707.8</ele>
        <time>2020-01-10T08:54:47Z</time>
      </trkpt>
      <trkpt lat="45.48411" lon="6.88835">
        <ele>2707.8</ele>
        <time>2020-01-10T08:54:48Z</time>
      </trkpt>
      <trkpt lat="45.48412" lon="6.8883">
        <ele>2699.6</ele>
        <time>2020-01-10T08:54:49Z</time>
      </trkpt>
      <trkpt lat="45.48412" lon="6.88826">
        <ele>2699.6</ele>
        <time>2020-01-10T08:54:50Z</time>
      </trkpt>
      <trkpt lat="45.48409" lon="6.88823">
        <ele>2699.6</ele>
        <time>2020-01-10T08:54:51Z</time>
      </trkpt>
      <trkpt lat="45.48406" lon="6.88821">
        <ele>2699.6</ele>
        <time>2020-01-10T08:54:52Z</time>
      </trkpt>
      <trkpt lat="45.48403" lon="6.88822">
        <ele>2699.6</ele>
        <time>2020-01-10T08:54:53Z</time>
      </trkpt>
      <trkpt lat="45.484" lon="6.88821">
        <ele>2699.6</ele>
        <time>2020-01-10T08:54:54Z</time>
      </trkpt>
      <trkpt lat="45.48397" lon="6.88818">
        <ele>2699.6</ele>
        <time>2020-01-10T08:54:55Z</time>
      </trkpt>
      <trkpt lat="45.48396" lon="6.88814">
        <ele>2699.6</ele>
        <time>2020-01-10T08:54:56Z</time>
      </trkpt>
      <trkpt lat="45.48397" lon="6.88807">
        <ele>2699.6</ele>
        <time>2020-01-10T08:54:57Z</time>
      </trkpt>
      <trkpt lat="45.48397" lon="6.88801">
        <ele>2699.6</ele>
        <time>2020-01-10T08:54:58Z</time>
      </trkpt>
      <trkpt lat="45.48397" lon="6.88796">
        <ele>2685.4</ele>
        <time>2020-01-10T08:54:59Z</time>
      </trkpt>
      <trkpt lat="45.48394" lon="6.88792">
        <ele>2685.4</ele>
        <time>2020-01-10T08:55:00Z</time>
      </trkpt>
      <trkpt lat="45.48391" lon="6.88791">
        <ele>2685.4</ele>
        <time>2020-01-10T08:55:01Z</time>
      </trkpt>
      <trkpt lat="45.48388" lon="6.88791">
        <ele>2685.4</ele>
        <time>2020-01-10T08:55:02Z</time>
      </trkpt>
      <trkpt lat="45.48384" lon="6.88791">
        <ele>2685.4</ele>
        <time>2020-01-10T08:55:03Z</time>
      </trkpt>
      <trkpt lat="45.48381" lon="6.88788">
        <ele>2685.4</ele>
        <time>2020-01-10T08:55:04Z</time>
      </trkpt>
      <trkpt lat="45.4838" lon="6.88784">
        <ele>2685.4</ele>
        <time>2020-01-10T08:55:05Z</time>
      </trkpt>
      <trkpt lat="45.4838" lon="6.88778">
        <ele>2685.4</ele>
        <time>2020-01-10T08:55:06Z</time>
      </trkpt>
      <trkpt lat="45.48381" lon="6.88772">
        <ele>2685.4</ele>
        <time>2020-01-10T08:55:07Z</time>
      </trkpt>
      <trkpt lat="45.48382" lon="6.88766">
        <ele>2685.4</ele>
        <time>2020-01-10T08:55:08Z</time>
      </trkpt>
      <trkpt lat="45.48381" lon="6.8876">
        <ele>2671.4</ele>
        <time>2020-01-10T08:55:09Z</time>
      </trkpt>
      <trkpt lat="45.4838" lon="6.88756">
        <ele>2671.4</ele>
        <time>2020-01-10T08:55:10Z</time>
      </trkpt>
      <trkpt lat="45.48377" lon="6.88755">
        <ele>2671.4</ele>
        <time>2020-01-10T08:55:11Z</time>
      </trkpt>
      <trkpt lat="45.48374" lon="6.88753">
        <ele>2671.4</ele>
        <time>2020-01-10T08:55:12Z</time>
      </trkpt>
      <trkpt lat="45.48372" lon="6.8875">
        <ele>2671.4</ele>
        <time>2020-01-10T08:55:13Z</time>
      </trkpt>
      <trkpt lat="45.4837" lon="6.88746">
        <ele>2671.4</ele>
        <time>2020-01-10T08:55:14Z</time>
      </trkpt>
      <trkpt lat="45.48368" lon="6.88743">
        <ele>2671.4</ele>
        <time>2020-01-10T08:55:15Z</time>
      </trkpt>
      <trkpt lat="45.48365" lon="6.88743">
        <ele>2671.4</ele>
        <time>2020-01-10T08:55:16Z</time>
      </trkpt>
      <trkpt lat="45.48362" lon="6.88744">
        <ele>2671.4</ele>
        <time>2020-01-10T08:55:17Z</time>
      </trkpt>
      <trkpt lat="45.48358" lon="6.88745">
        <ele>2671.4</ele>
        <time>2020-01-10T08:55:18Z</time>
      </trkpt>
      <trkpt lat="45.48356" lon="6.88743">
        <ele>2658.6</ele>
        <time>2020-01-10T08:55:19Z</time>
      </trkpt>
      <trkpt lat="45.48354" lon="6.88738">
        <ele>2658.6</ele>
        <time>2020-01-10T08:55:20Z</time>
      </trkpt>
      <trkpt lat="45.48353" lon="6.88733">
        <ele>2658.6</ele>
        <time>2020-01-10T08:55:21Z</time>
      </trkpt>
      <trkpt lat="45.48352" lon="6.88729">
        <ele>2658.6</ele>
        <time>2020-01-10T08:55:22Z</time>
      </trkpt>
      <trkpt lat="45.4835" lon="6.88726">
        <ele>2658.6</ele>
        <time>2020-01-10T08:55:23Z</time>
      </trkpt>
      <trkpt lat="45.48346" lon="6.88726">
        <ele>2658.6</ele>
        <time>2020-01-10T08:55:24Z</time>
      </trkpt>
      <trkpt lat="45.48343" lon="6.88727">
        <ele>2658.6</ele>
        <time>2020-01-10T08:55:25Z</time>
      </trkpt>
      <trkpt lat="45.48339" lon="6.88727">
        <ele>2658.6</ele>
        <time>2020-01-10T08:55:26Z</time>
      </trkpt>
      <trkpt lat="45.48336" lon="6.88724">
        <ele>2658.6</ele>
        <time>2020-01-10T08:55:27Z</time>
      </trkpt>
      <trkpt lat="45.48335" lon="6.88719">
        <ele>2658.6</ele>
        <time>2020-01-10T08:55:28Z</time>
      </trkpt>
      <trkpt lat="45.48335" lon="6.88714">
        <ele>2644.4</ele>
        <time>2020-01-10T08:55:29Z</time>
      </trkpt>
      <trkpt lat="45.48335" lon="6.88708">
        <ele>2644.4</ele>
        <time>2020-01-10T08:55:30Z</time>
      </trkpt>
      <trkpt lat="45.48333" lon="6.88704">
        <ele>2644.4</ele>
        <time>2020-01-10T08:55:31Z</time>
      </trkpt>
      <trkpt lat="45.48331" lon="6.88702">
        <ele>2644.4</ele>
        <time>2020-01-10T08:55:32Z</time>
      </trkpt>
      <trkpt lat="45.48327" lon="6.88702">
        <ele>2644.4</ele>
        <time>2020-01-10T08:55:33Z</time>
      </trkpt>
      <trkpt lat="45.48324" lon="6.88703">
        <ele>2644.4</ele>
        <time>2020-01-10T08:55:34Z</time>
      </trkpt>
      <trkpt lat="45.4832" lon="6.88702">
        <ele>2644.4</ele>
        <time>2020-01-10T08:55:35Z</time>
      </trkpt>
      <trkpt lat="45.48316" lon="6.88698">
        <ele>2644.4</ele>
        <time>2020-01-10T08:55:36Z</time>
      </trkpt>
      <trkpt lat="45.48315" lon="6.88693">
        <ele>2644.4</ele>
        <time>2020-01-10T08:55:37Z</time>
      </trkpt>
      <trkpt lat="45.48314" lon="6.88688">
        <ele>2644.4</ele>
        <time>2020-01-10T08:55:38Z</time>
      </trkpt>
      <trkpt lat="45.48314" lon="6.88681">
        <ele>2630.2</ele>
        <time>2020-01-10T08:55:39Z</time>
      </trkpt>
      <trkpt lat="45.48314" lon="6.88676">
        <ele>2630.2</ele>
        <time>2020-01-10T08:55:40Z</time>
      </trkpt>
      <trkpt lat="45.48313" lon="6.88671">
        <ele>2630.2</ele>
        <time>2020-01-10T08:55:41Z</time>
      </trkpt>
      <trkpt lat="45.48311" lon="6.88668">
        <ele>2630.2</ele>
        <time>2020-01-10T08:55:42Z</time>
      </trkpt>
      <trkpt lat="45.48308" lon="6.88666">
        <ele>2630.2</ele>
        <time>2020-01-10T08:55:43Z</time>
      </trkpt>
      <trkpt lat="45.48306" lon="6.88666">
        <ele>2630.2</ele>
        <time>2020-01-10T08:55:44Z</time>
      </trkpt>
      <trkpt lat="45.48301" lon="6.88665">
        <ele>2630.2</ele>
        <time>2020-01-10T08:55:45Z</time>
      </trkpt>
      <trkpt lat="45.48298" lon="6.88661">
        <ele>2630.2</ele>
        <time>2020-01-10T08:55:46Z</time>
      </trkpt>
      <trkpt lat="45.48296" lon="6.88655">
        <ele>2630.2</ele>
        <time>2020-01-10T08:55:47Z</time>
      </trkpt>
      <trkpt lat="45.48294" lon="6.88649">
        <ele>2630.2</ele>
        <time>2020-01-10T08:55:48Z</time>
      </trkpt>
      <trkpt lat="45.4829" lon="6.88645">
        <ele>2616.6</ele>
        <time>2020-01-10T08:55:49Z</time>
      </trkpt>
      <trkpt lat="45.48287" lon="6.88643">
        <ele>2616.6</ele>
        <time>2020-01-10T08:55:50Z</time>
      </trkpt>
      <trkpt lat="45.48283" lon="6.88643">
        <ele>2616.6</ele>
        <time>2020-01-10T08:55:51Z</time>
      </trkpt>
      <trkpt lat="45.48278" lon="6.88644">
        <ele>2616.6</ele>
        <time>2020-01-10T08:55:52Z</time>
      </trkpt>
      <trkpt lat="45.48274" lon="6.88642">
        <ele>2616.6</ele>
        <time>2020-01-10T08:55:53Z</time>
      </trkpt>
      <trkpt lat="45.48271" lon="6.88639">
        <ele>2616.6</ele>
        <time>2020-01-10T08:55:54Z</time>
      </trkpt>
      <trkpt lat="45.48268" lon="6.88635">
        <ele>2616.6</ele>
        <time>2020-01-10T08:55:55Z</time>
      </trkpt>
      <trkpt lat="45.48264" lon="6.88633">
        <ele>2616.6</ele>
        <time>2020-01-10T08:55:56Z</time>
      </trkpt>
      <trkpt lat="45.4826" lon="6.88632">
        <ele>2616.6</ele>
        <time>2020-01-10T08:55:57Z</time>
      </trkpt>
      <trkpt lat="45.48256" lon="6.88633">
        <ele>2616.6</ele>
        <time>2020-01-10T08:55:58Z</time>
      </trkpt>
      <trkpt lat="45.48251" lon="6.88636">
        <ele>2608.4</ele>
        <time>2020-01-10T08:55:59Z</time>
      </trkpt>
      <trkpt lat="45.48246" lon="6.88639">
        <ele>2608.4</ele>
        <time>2020-01-10T08:56:00Z</time>
      </trkpt>
      <trkpt lat="45.48243" lon="6.88637">
        <ele>2608.4</ele>
        <time>2020-01-10T08:56:01Z</time>
      </trkpt>
      <trkpt lat="45.4824" lon="6.88633">
        <ele>2608.4</ele>
        <time>2020-01-10T08:56:02Z</time>
      </trkpt>
      <trkpt lat="45.48239" lon="6.88628">
        <ele>2608.4</ele>
        <time>2020-01-10T08:56:03Z</time>
      </trkpt>
      <trkpt lat="45.48236" lon="6.88622">
        <ele>2608.4</ele>
        <time>2020-01-10T08:56:04Z</time>
      </trkpt>
      <trkpt lat="45.48233" lon="6.8862">
        <ele>2608.4</ele>
        <time>2020-01-10T08:56:05Z</time>
      </trkpt>
      <trkpt lat="45.48228" lon="6.8862">
        <ele>2608.4</ele>
        <time>2020-01-10T08:56:06Z</time>
      </trkpt>
      <trkpt lat="45.48224" lon="6.8862">
        <ele>2608.4</ele>
        <time>2020-01-10T08:56:07Z</time>
      </trkpt>
      <trkpt lat="45.4822" lon="6.88618">
        <ele>2608.4</ele>
        <time>2020-01-10T08:56:08Z</time>
      </trkpt>
      <trkpt lat="45.48217" lon="6.88613">
        <ele>2599</ele>
        <time>2020-01-10T08:56:09Z</time>
      </trkpt>
      <trkpt lat="45.48215" lon="6.88608">
        <ele>2599</ele>
        <time>2020-01-10T08:56:10Z</time>
      </trkpt>
      <trkpt lat="45.48213" lon="6.88602">
        <ele>2599</ele>
        <time>2020-01-10T08:56:11Z</time>
      </trkpt>
      <trkpt lat="45.4821" lon="6.88598">
        <ele>2599</ele>
        <time>2020-01-10T08:56:12Z</time>
      </trkpt>
      <trkpt lat="45.48207" lon="6.88599">
        <ele>2599</ele>
        <time>2020-01-10T08:56:13Z</time>
      </trkpt>
      <trkpt lat="45.48204" lon="6.88602">
        <ele>2599</ele>
        <time>2020-01-10T08:56:14Z</time>
      </trkpt>
      <trkpt lat="45.482" lon="6.88606">
        <ele>2599</ele>
        <time>2020-01-10T08:56:15Z</time>
      </trkpt>
      <trkpt lat="45.48196" lon="6.88607">
        <ele>2599</ele>
        <time>2020-01-10T08:56:16Z</time>
      </trkpt>
      <trkpt lat="45.48192" lon="6.88606">
        <ele>2599</ele>
        <time>2020-01-10T08:56:17Z</time>
      </trkpt>
      <trkpt lat="45.48189" lon="6.88604">
        <ele>2599</ele>
        <time>2020-01-10T08:56:18Z</time>
      </trkpt>
      <trkpt lat="45.48187" lon="6.88599">
        <ele>2585</ele>
        <time>2020-01-10T08:56:19Z</time>
      </trkpt>
      <trkpt lat="45.48186" lon="6.88595">
        <ele>2585</ele>
        <time>2020-01-10T08:56:20Z</time>
      </trkpt>
      <trkpt lat="45.48183" lon="6.88592">
        <ele>2585</ele>
        <time>2020-01-10T08:56:21Z</time>
      </trkpt>
      <trkpt lat="45.4818" lon="6.88591">
        <ele>2585</ele>
        <time>2020-01-10T08:56:22Z</time>
      </trkpt>
      <trkpt lat="45.48177" lon="6.88594">
        <ele>2585</ele>
        <time>2020-01-10T08:56:23Z</time>
      </trkpt>
      <trkpt lat="45.48173" lon="6.88597">
        <ele>2585</ele>
        <time>2020-01-10T08:56:24Z</time>
      </trkpt>
      <trkpt lat="45.48169" lon="6.88598">
        <ele>2585</ele>
        <time>2020-01-10T08:56:25Z</time>
      </trkpt>
      <trkpt lat="45.48165" lon="6.88597">
        <ele>2585</ele>
        <time>2020-01-10T08:56:26Z</time>
      </trkpt>
      <trkpt lat="45.48162" lon="6.88593">
        <ele>2585</ele>
        <time>2020-01-10T08:56:27Z</time>
      </trkpt>
      <trkpt lat="45.48158" lon="6.88589">
        <ele>2585</ele>
        <time>2020-01-10T08:56:28Z</time>
      </trkpt>
      <trkpt lat="45.48155" lon="6.88589">
        <ele>2572.8</ele>
        <time>2020-01-10T08:56:29Z</time>
      </trkpt>
      <trkpt lat="45.48153" lon="6.88591">
        <ele>2572.8</ele>
        <time>2020-01-10T08:56:30Z</time>
      </trkpt>
      <trkpt lat="45.4815" lon="6.88594">
        <ele>2572.8</ele>
        <time>2020-01-10T08:56:31Z</time>
      </trkpt>
      <trkpt lat="45.48147" lon="6.88599">
        <ele>2572.8</ele>
        <time>2020-01-10T08:56:32Z</time>
      </trkpt>
      <trkpt lat="45.48144" lon="6.88601">
        <ele>2572.8</ele>
        <time>2020-01-10T08:56:33Z</time>
      </trkpt>
      <trkpt lat="45.4814" lon="6.88602">
        <ele>2572.8</ele>
        <time>2020-01-10T08:56:34Z</time>
      </trkpt>
      <trkpt lat="45.48136" lon="6.88603">
        <ele>2572.8</ele>
        <time>2020-01-10T08:56:35Z</time>
      </trkpt>
      <trkpt lat="45.48132" lon="6.88606">
        <ele>2572.8</ele>
        <time>2020-01-10T08:56:36Z</time>
      </trkpt>
      <trkpt lat="45.4813" lon="6.88612">
        <ele>2572.8</ele>
        <time>2020-01-10T08:56:37Z</time>
      </trkpt>
      <trkpt lat="45.48126" lon="6.88618">
        <ele>2572.8</ele>
        <time>2020-01-10T08:56:38Z</time>
      </trkpt>
      <trkpt lat="45.48122" lon="6.8862">
        <ele>2563.4</ele>
        <time>2020-01-10T08:56:39Z</time>
      </trkpt>
      <trkpt lat="45.48118" lon="6.8862">
        <ele>2563.4</ele>
        <time>2020-01-10T08:56:40Z</time>
      </trkpt>
      <trkpt lat="45.48113" lon="6.88621">
        <ele>2563.4</ele>
        <time>2020-01-10T08:56:41Z</time>
      </trkpt>
      <trkpt lat="45.48108" lon="6.88624">
        <ele>2563.4</ele>
        <time>2020-01-10T08:56:42Z</time>
      </trkpt>
      <trkpt lat="45.48102" lon="6.88629">
        <ele>2563.4</ele>
        <time>2020-01-10T08:56:43Z</time>
      </trkpt>
      <trkpt lat="45.48097" lon="6.8863">
        <ele>2563.4</ele>
        <time>2020-01-10T08:56:44Z</time>
      </trkpt>
      <trkpt lat="45.48091" lon="6.88628">
        <ele>2563.4</ele>
        <time>2020-01-10T08:56:45Z</time>
      </trkpt>
      <trkpt lat="45.48085" lon="6.88628">
        <ele>2563.4</ele>
        <time>2020-01-10T08:56:46Z</time>
      </trkpt>
      <trkpt lat="45.4808" lon="6.8863">
        <ele>2563.4</ele>
        <time>2020-01-10T08:56:47Z</time>
      </trkpt>
      <trkpt lat="45.48071" lon="6.88633">
        <ele>2563.4</ele>
        <time>2020-01-10T08:56:48Z</time>
      </trkpt>
      <trkpt lat="45.48064" lon="6.88634">
        <ele>2550.4</ele>
        <time>2020-01-10T08:56:49Z</time>
      </trkpt>
      <trkpt lat="45.48054" lon="6.88634">
        <ele>2550.4</ele>
        <time>2020-01-10T08:56:50Z</time>
      </trkpt>
      <trkpt lat="45.48041" lon="6.88633">
        <ele>2550.4</ele>
        <time>2020-01-10T08:56:51Z</time>
      </trkpt>
      <trkpt lat="45.4803" lon="6.88635">
        <ele>2550.4</ele>
        <time>2020-01-10T08:56:52Z</time>
      </trkpt>
      <trkpt lat="45.4802" lon="6.88638">
        <ele>2550.4</ele>
        <time>2020-01-10T08:56:53Z</time>
      </trkpt>
      <trkpt lat="45.48012" lon="6.88642">
        <ele>2550.4</ele>
        <time>2020-01-10T08:56:54Z</time>
      </trkpt>
      <trkpt lat="45.48003" lon="6.88647">
        <ele>2550.4</ele>
        <time>2020-01-10T08:56:55Z</time>
      </trkpt>
      <trkpt lat="45.47994" lon="6.88653">
        <ele>2550.4</ele>
        <time>2020-01-10T08:56:56Z</time>
      </trkpt>
      <trkpt lat="45.47987" lon="6.88658">
        <ele>2550.4</ele>
        <time>2020-01-10T08:56:57Z</time>
      </trkpt>
      <trkpt lat="45.47981" lon="6.88662">
        <ele>2550.4</ele>
        <time>2020-01-10T08:56:58Z</time>
      </trkpt>
      <trkpt lat="45.47978" lon="6.88666">
        <ele>2535.4</ele>
        <time>2020-01-10T08:56:59Z</time>
      </trkpt>
      <trkpt lat="45.47973" lon="6.8867">
        <ele>2535.4</ele>
        <time>2020-01-10T08:57:00Z</time>
      </trkpt>
      <trkpt lat="45.47969" lon="6.88674">
        <ele>2535.4</ele>
        <time>2020-01-10T08:57:01Z</time>
      </trkpt>
      <trkpt lat="45.47964" lon="6.88679">
        <ele>2535.4</ele>
        <time>2020-01-10T08:57:02Z</time>
      </trkpt>
      <trkpt lat="45.4796" lon="6.88683">
        <ele>2535.4</ele>
        <time>2020-01-10T08:57:03Z</time>
      </trkpt>
      <trkpt lat="45.47957" lon="6.88686">
        <ele>2535.4</ele>
        <time>2020-01-10T08:57:04Z</time>
      </trkpt>
      <trkpt lat="45.47953" lon="6.88691">
        <ele>2535.4</ele>
        <time>2020-01-10T08:57:05Z</time>
      </trkpt>
      <trkpt lat="45.47949" lon="6.88696">
        <ele>2535.4</ele>
        <time>2020-01-10T08:57:06Z</time>
      </trkpt>
      <trkpt lat="45.47947" lon="6.88701">
        <ele>2535.4</ele>
        <time>2020-01-10T08:57:07Z</time>
      </trkpt>
      <trkpt lat="45.47943" lon="6.88706">
        <ele>2535.4</ele>
        <time>2020-01-10T08:57:08Z</time>
      </trkpt>
      <trkpt lat="45.47938" lon="6.88711">
        <ele>2532.2</ele>
        <time>2020-01-10T08:57:09Z</time>
      </trkpt>
      <trkpt lat="45.47933" lon="6.88718">
        <ele>2532.2</ele>
        <time>2020-01-10T08:57:10Z</time>
      </trkpt>
      <trkpt lat="45.47927" lon="6.88724">
        <ele>2532.2</ele>
        <time>2020-01-10T08:57:11Z</time>
      </trkpt>
      <trkpt lat="45.47921" lon="6.88731">
        <ele>2532.2</ele>
        <time>2020-01-10T08:57:12Z</time>
      </trkpt>
      <trkpt lat="45.47915" lon="6.88738">
        <ele>2532.2</ele>
        <time>2020-01-10T08:57:13Z</time>
      </trkpt>
      <trkpt lat="45.47908" lon="6.88745">
        <ele>2532.2</ele>
        <time>2020-01-10T08:57:14Z</time>
      </trkpt>
      <trkpt lat="45.479" lon="6.88754">
        <ele>2532.2</ele>
        <time>2020-01-10T08:57:15Z</time>
      </trkpt>
      <trkpt lat="45.47895" lon="6.8876">
        <ele>2532.2</ele>
        <time>2020-01-10T08:57:16Z</time>
      </trkpt>
      <trkpt lat="45.47887" lon="6.88768">
        <ele>2532.2</ele>
        <time>2020-01-10T08:57:17Z</time>
      </trkpt>
      <trkpt lat="45.4788" lon="6.88778">
        <ele>2532.2</ele>
        <time>2020-01-10T08:57:18Z</time>
      </trkpt>
      <trkpt lat="45.47873" lon="6.88786">
        <ele>2525.6</ele>
        <time>2020-01-10T08:57:19Z</time>
      </trkpt>
      <trkpt lat="45.47865" lon="6.88794">
        <ele>2525.6</ele>
        <time>2020-01-10T08:57:20Z</time>
      </trkpt>
      <trkpt lat="45.47858" lon="6.88802">
        <ele>2525.6</ele>
        <time>2020-01-10T08:57:21Z</time>
      </trkpt>
      <trkpt lat="45.47851" lon="6.88809">
        <ele>2525.6</ele>
        <time>2020-01-10T08:57:22Z</time>
      </trkpt>
      <trkpt lat="45.47844" lon="6.88815">
        <ele>2525.6</ele>
        <time>2020-01-10T08:57:23Z</time>
      </trkpt>
      <trkpt lat="45.47837" lon="6.88821">
        <ele>2525.6</ele>
        <time>2020-01-10T08:57:24Z</time>
      </trkpt>
      <trkpt lat="45.4783" lon="6.88826">
        <ele>2525.6</ele>
        <time>2020-01-10T08:57:25Z</time>
      </trkpt>
      <trkpt lat="45.47823" lon="6.8883">
        <ele>2525.6</ele>
        <time>2020-01-10T08:57:26Z</time>
      </trkpt>
      <trkpt lat="45.47817" lon="6.88834">
        <ele>2525.6</ele>
        <time>2020-01-10T08:57:27Z</time>
      </trkpt>
      <trkpt lat="45.47812" lon="6.88838">
        <ele>2525.6</ele>
        <time>2020-01-10T08:57:28Z</time>
      </trkpt>
      <trkpt lat="45.47806" lon="6.88842">
        <ele>2518</ele>
        <time>2020-01-10T08:57:29Z</time>
      </trkpt>
      <trkpt lat="45.47801" lon="6.88847">
        <ele>2518</ele>
        <time>2020-01-10T08:57:30Z</time>
      </trkpt>
      <trkpt lat="45.47796" lon="6.88849">
        <ele>2518</ele>
        <time>2020-01-10T08:57:31Z</time>
      </trkpt>
      <trkpt lat="45.4779" lon="6.88848">
        <ele>2518</ele>
        <time>2020-01-10T08:57:32Z</time>
      </trkpt>
      <trkpt lat="45.47786" lon="6.88846">
        <ele>2518</ele>
        <time>2020-01-10T08:57:33Z</time>
      </trkpt>
      <trkpt lat="45.47782" lon="6.88847">
        <ele>2518</ele>
        <time>2020-01-10T08:57:34Z</time>
      </trkpt>
      <trkpt lat="45.47779" lon="6.88851">
        <ele>2518</ele>
        <time>2020-01-10T08:57:35Z</time>
      </trkpt>
      <trkpt lat="45.47776" lon="6.88855">
        <ele>2518</ele>
        <time>2020-01-10T08:57:36Z</time>
      </trkpt>
      <trkpt lat="45.47772" lon="6.88857">
        <ele>2518</ele>
        <time>2020-01-10T08:57:37Z</time>
      </trkpt>
      <trkpt lat="45.47767" lon="6.88856">
        <ele>2518</ele>
        <time>2020-01-10T08:57:38Z</time>
      </trkpt>
      <trkpt lat="45.47763" lon="6.88855">
        <ele>2511.2</ele>
        <time>2020-01-10T08:57:39Z</time>
      </trkpt>
      <trkpt lat="45.4776" lon="6.88857">
        <ele>2511.2</ele>
        <time>2020-01-10T08:57:40Z</time>
      </trkpt>
      <trkpt lat="45.47756" lon="6.8886">
        <ele>2511.2</ele>
        <time>2020-01-10T08:57:41Z</time>
      </trkpt>
      <trkpt lat="45.47751" lon="6.88861">
        <ele>2511.2</ele>
        <time>2020-01-10T08:57:42Z</time>
      </trkpt>
      <trkpt lat="45.47746" lon="6.88859">
        <ele>2511.2</ele>
        <time>2020-01-10T08:57:43Z</time>
      </trkpt>
      <trkpt lat="45.4774" lon="6.88854">
        <ele>2511.2</ele>
        <time>2020-01-10T08:57:44Z</time>
      </trkpt>
      <trkpt lat="45.47736" lon="6.8885">
        <ele>2511.2</ele>
        <time>2020-01-10T08:57:45Z</time>
      </trkpt>
      <trkpt lat="45.47732" lon="6.88848">
        <ele>2511.2</ele>
        <time>2020-01-10T08:57:46Z</time>
      </trkpt>
      <trkpt lat="45.47728" lon="6.8885">
        <ele>2511.2</ele>
        <time>2020-01-10T08:57:47Z</time>
      </trkpt>
      <trkpt lat="45.47724" lon="6.88855">
        <ele>2511.2</ele>
        <time>2020-01-10T08:57:48Z</time>
      </trkpt>
      <trkpt lat="45.47718" lon="6.88859">
        <ele>2495.6</ele>
        <time>2020-01-10T08:57:49Z</time>
      </trkpt>
      <trkpt lat="45.47712" lon="6.8886">
        <ele>2495.6</ele>
        <time>2020-01-10T08:57:50Z</time>
      </trkpt>
      <trkpt lat="45.47706" lon="6.88858">
        <ele>2495.6</ele>
        <time>2020-01-10T08:57:51Z</time>
      </trkpt>
      <trkpt lat="45.477" lon="6.88857">
        <ele>2495.6</ele>
        <time>2020-01-10T08:57:52Z</time>
      </trkpt>
      <trkpt lat="45.47695" lon="6.88859">
        <ele>2495.6</ele>
        <time>2020-01-10T08:57:53Z</time>
      </trkpt>
      <trkpt lat="45.47689" lon="6.88861">
        <ele>2495.6</ele>
        <time>2020-01-10T08:57:54Z</time>
      </trkpt>
      <trkpt lat="45.47684" lon="6.88861">
        <ele>2495.6</ele>
        <time>2020-01-10T08:57:55Z</time>
      </trkpt>
      <trkpt lat="45.47678" lon="6.88859">
        <ele>2495.6</ele>
        <time>2020-01-10T08:57:56Z</time>
      </trkpt>
      <trkpt lat="45.47673" lon="6.88859">
        <ele>2495.6</ele>
        <time>2020-01-10T08:57:57Z</time>
      </trkpt>
      <trkpt lat="45.47667" lon="6.88859">
        <ele>2495.6</ele>
        <time>2020-01-10T08:57:58Z</time>
      </trkpt>
      <trkpt lat="45.47663" lon="6.88857">
        <ele>2479.2</ele>
        <time>2020-01-10T08:57:59Z</time>
      </trkpt>
      <trkpt lat="45.47658" lon="6.88856">
        <ele>2479.2</ele>
        <time>2020-01-10T08:58:00Z</time>
      </trkpt>
      <trkpt lat="45.47653" lon="6.88856">
        <ele>2479.2</ele>
        <time>2020-01-10T08:58:01Z</time>
      </trkpt>
      <trkpt lat="45.47648" lon="6.88857">
        <ele>2479.2</ele>
        <time>2020-01-10T08:58:02Z</time>
      </trkpt>
      <trkpt lat="45.47643" lon="6.88856">
        <ele>2479.2</ele>
        <time>2020-01-10T08:58:03Z</time>
      </trkpt>
      <trkpt lat="45.47639" lon="6.88853">
        <ele>2479.2</ele>
        <time>2020-01-10T08:58:04Z</time>
      </trkpt>
      <trkpt lat="45.47634" lon="6.88851">
        <ele>2479.2</ele>
        <time>2020-01-10T08:58:05Z</time>
      </trkpt>
      <trkpt lat="45.47629" lon="6.88851">
        <ele>2479.2</ele>
        <time>2020-01-10T08:58:06Z</time>
      </trkpt>
      <trkpt lat="45.47625" lon="6.88851">
        <ele>2479.2</ele>
        <time>2020-01-10T08:58:07Z</time>
      </trkpt>
      <trkpt lat="45.4762" lon="6.8885">
        <ele>2479.2</ele>
        <time>2020-01-10T08:58:08Z</time>
      </trkpt>
      <trkpt lat="45.47615" lon="6.88849">
        <ele>2470.2</ele>
        <time>2020-01-10T08:58:09Z</time>
      </trkpt>
      <trkpt lat="45.4761" lon="6.8885">
        <ele>2470.2</ele>
        <time>2020-01-10T08:58:10Z</time>
      </trkpt>
      <trkpt lat="45.47605" lon="6.8885">
        <ele>2470.2</ele>
        <time>2020-01-10T08:58:11Z</time>
      </trkpt>
      <trkpt lat="45.47601" lon="6.88847">
        <ele>2470.2</ele>
        <time>2020-01-10T08:58:12Z</time>
      </trkpt>
      <trkpt lat="45.47595" lon="6.88845">
        <ele>2470.2</ele>
        <time>2020-01-10T08:58:13Z</time>
      </trkpt>
      <trkpt lat="45.47589" lon="6.88846">
        <ele>2470.2</ele>
        <time>2020-01-10T08:58:14Z</time>
      </trkpt>
      <trkpt lat="45.47583" lon="6.88845">
        <ele>2470.2</ele>
        <time>2020-01-10T08:58:15Z</time>
      </trkpt>
      <trkpt lat="45.47579" lon="6.88841">
        <ele>2470.2</ele>
        <time>2020-01-10T08:58:16Z</time>
      </trkpt>
      <trkpt lat="45.47575" lon="6.88836">
        <ele>2470.2</ele>
        <time>2020-01-10T08:58:17Z</time>
      </trkpt>
      <trkpt lat="45.4757" lon="6.88833">
        <ele>2470.2</ele>
        <time>2020-01-10T08:58:18Z</time>
      </trkpt>
      <trkpt lat="45.47564" lon="6.88833">
        <ele>2457.2</ele>
        <time>2020-01-10T08:58:19Z</time>
      </trkpt>
      <trkpt lat="45.47557" lon="6.88836">
        <ele>2457.2</ele>
        <time>2020-01-10T08:58:20Z</time>
      </trkpt>
      <trkpt lat="45.47551" lon="6.88835">
        <ele>2457.2</ele>
        <time>2020-01-10T08:58:21Z</time>
      </trkpt>
      <trkpt lat="45.47545" lon="6.88832">
        <ele>2457.2</ele>
        <time>2020-01-10T08:58:22Z</time>
      </trkpt>
      <trkpt lat="45.4754" lon="6.88827">
        <ele>2457.2</ele>
        <time>2020-01-10T08:58:23Z</time>
      </trkpt>
      <trkpt lat="45.47533" lon="6.88823">
        <ele>2457.2</ele>
        <time>2020-01-10T08:58:24Z</time>
      </trkpt>
      <trkpt lat="45.47525" lon="6.8882">
        <ele>2457.2</ele>
        <time>2020-01-10T08:58:25Z</time>
      </trkpt>
      <trkpt lat="45.47516" lon="6.88818">
        <ele>2457.2</ele>
        <time>2020-01-10T08:58:26Z</time>
      </trkpt>
      <trkpt lat="45.47507" lon="6.88816">
        <ele>2457.2</ele>
        <time>2020-01-10T08:58:27Z</time>
      </trkpt>
      <trkpt lat="45.47498" lon="6.88815">
        <ele>2457.2</ele>
        <time>2020-01-10T08:58:28Z</time>
      </trkpt>
      <trkpt lat="45.47488" lon="6.88813">
        <ele>2444.2</ele>
        <time>2020-01-10T08:58:29Z</time>
      </trkpt>
      <trkpt lat="45.47479" lon="6.88812">
        <ele>2444.2</ele>
        <time>2020-01-10T08:58:30Z</time>
      </trkpt>
      <trkpt lat="45.47469" lon="6.88812">
        <ele>2444.2</ele>
        <time>2020-01-10T08:58:31Z</time>
      </trkpt>
      <trkpt lat="45.47459" lon="6.88814">
        <ele>2444.2</ele>
        <time>2020-01-10T08:58:32Z</time>
      </trkpt>
      <trkpt lat="45.47449" lon="6.88814">
        <ele>2444.2</ele>
        <time>2020-01-10T08:58:33Z</time>
      </trkpt>
      <trkpt lat="45.47439" lon="6.88815">
        <ele>2444.2</ele>
        <time>2020-01-10T08:58:34Z</time>
      </trkpt>
      <trkpt lat="45.4743" lon="6.88815">
        <ele>2444.2</ele>
        <time>2020-01-10T08:58:35Z</time>
      </trkpt>
      <trkpt lat="45.47421" lon="6.88815">
        <ele>2444.2</ele>
        <time>2020-01-10T08:58:36Z</time>
      </trkpt>
      <trkpt lat="45.47412" lon="6.88815">
        <ele>2444.2</ele>
        <time>2020-01-10T08:58:37Z</time>
      </trkpt>
      <trkpt lat="45.47403" lon="6.88814">
        <ele>2444.2</ele>
        <time>2020-01-10T08:58:38Z</time>
      </trkpt>
      <trkpt lat="45.47395" lon="6.88814">
        <ele>2432.8</ele>
        <time>2020-01-10T08:58:39Z</time>
      </trkpt>
      <trkpt lat="45.47387" lon="6.88813">
        <ele>2432.8</ele>
        <time>2020-01-10T08:58:40Z</time>
      </trkpt>
      <trkpt lat="45.47379" lon="6.88812">
        <ele>2432.8</ele>
        <time>2020-01-10T08:58:41Z</time>
      </trkpt>
      <trkpt lat="45.47372" lon="6.88811">
        <ele>2432.8</ele>
        <time>2020-01-10T08:58:42Z</time>
      </trkpt>
      <trkpt lat="45.47365" lon="6.8881">
        <ele>2432.8</ele>
        <time>2020-01-10T08:58:43Z</time>
      </trkpt>
      <trkpt lat="45.47359" lon="6.88808">
        <ele>2432.8</ele>
        <time>2020-01-10T08:58:44Z</time>
      </trkpt>
      <trkpt lat="45.47353" lon="6.88807">
        <ele>2432.8</ele>
        <time>2020-01-10T08:58:45Z</time>
      </trkpt>
      <trkpt lat="45.47347" lon="6.88806">
        <ele>2432.8</ele>
        <time>2020-01-10T08:58:46Z</time>
      </trkpt>
      <trkpt lat="45.47341" lon="6.88804">
        <ele>2432.8</ele>
        <time>2020-01-10T08:58:47Z</time>
      </trkpt>
      <trkpt lat="45.47336" lon="6.88802">
        <ele>2432.8</ele>
        <time>2020-01-10T08:58:48Z</time>
      </trkpt>
      <trkpt lat="45.47331" lon="6.88801">
        <ele>2428</ele>
        <time>2020-01-10T08:58:49Z</time>
      </trkpt>
      <trkpt lat="45.47325" lon="6.88799">
        <ele>2428</ele>
        <time>2020-01-10T08:58:50Z</time>
      </trkpt>
      <trkpt lat="45.4732" lon="6.88798">
        <ele>2428</ele>
        <time>2020-01-10T08:58:51Z</time>
      </trkpt>
      <trkpt lat="45.47316" lon="6.88798">
        <ele>2428</ele>
        <time>2020-01-10T08:58:52Z</time>
      </trkpt>
      <trkpt lat="45.47311" lon="6.88797">
        <ele>2428</ele>
        <time>2020-01-10T08:58:53Z</time>
      </trkpt>
      <trkpt lat="45.47307" lon="6.88797">
        <ele>2428</ele>
        <time>2020-01-10T08:58:54Z</time>
      </trkpt>
      <trkpt lat="45.47303" lon="6.88797">
        <ele>2428</ele>
        <time>2020-01-10T08:58:55Z</time>
      </trkpt>
      <trkpt lat="45.47299" lon="6.88796">
        <ele>2428</ele>
        <time>2020-01-10T08:58:56Z</time>
      </trkpt>
      <trkpt lat="45.47296" lon="6.88795">
        <ele>2428</ele>
        <time>2020-01-10T08:58:57Z</time>
      </trkpt>
      <trkpt lat="45.47292" lon="6.88794">
        <ele>2428</ele>
        <time>2020-01-10T08:58:58Z</time>
      </trkpt>
      <trkpt lat="45.47288" lon="6.88793">
        <ele>2425.4</ele>
        <time>2020-01-10T08:58:59Z</time>
      </trkpt>
      <trkpt lat="45.47283" lon="6.88792">
        <ele>2425.4</ele>
        <time>2020-01-10T08:59:00Z</time>
      </trkpt>
      <trkpt lat="45.47278" lon="6.88792">
        <ele>2425.4</ele>
        <time>2020-01-10T08:59:01Z</time>
      </trkpt>
      <trkpt lat="45.47273" lon="6.88792">
        <ele>2425.4</ele>
        <time>2020-01-10T08:59:02Z</time>
      </trkpt>
      <trkpt lat="45.47269" lon="6.88792">
        <ele>2425.4</ele>
        <time>2020-01-10T08:59:03Z</time>
      </trkpt>
      <trkpt lat="45.47263" lon="6.88791">
        <ele>2425.4</ele>
        <time>2020-01-10T08:59:04Z</time>
      </trkpt>
      <trkpt lat="45.47258" lon="6.88791">
        <ele>2425.4</ele>
        <time>2020-01-10T08:59:05Z</time>
      </trkpt>
      <trkpt lat="45.47253" lon="6.88791">
        <ele>2425.4</ele>
        <time>2020-01-10T08:59:06Z</time>
      </trkpt>
      <trkpt lat="45.47247" lon="6.8879">
        <ele>2425.4</ele>
        <time>2020-01-10T08:59:07Z</time>
      </trkpt>
      <trkpt lat="45.47242" lon="6.8879">
        <ele>2425.4</ele>
        <time>2020-01-10T08:59:08Z</time>
      </trkpt>
      <trkpt lat="45.47236" lon="6.8879">
        <ele>2424.4</ele>
        <time>2020-01-10T08:59:09Z</time>
      </trkpt>
      <trkpt lat="45.47228" lon="6.8879">
        <ele>2424.4</ele>
        <time>2020-01-10T08:59:10Z</time>
      </trkpt>
      <trkpt lat="45.4722" lon="6.8879">
        <ele>2424.4</ele>
        <time>2020-01-10T08:59:11Z</time>
      </trkpt>
      <trkpt lat="45.47214" lon="6.8879">
        <ele>2424.4</ele>
        <time>2020-01-10T08:59:12Z</time>
      </trkpt>
      <trkpt lat="45.47205" lon="6.88792">
        <ele>2424.4</ele>
        <time>2020-01-10T08:59:13Z</time>
      </trkpt>
      <trkpt lat="45.47197" lon="6.88794">
        <ele>2424.4</ele>
        <time>2020-01-10T08:59:14Z</time>
      </trkpt>
      <trkpt lat="45.47189" lon="6.88796">
        <ele>2424.4</ele>
        <time>2020-01-10T08:59:15Z</time>
      </trkpt>
      <trkpt lat="45.4718" lon="6.88799">
        <ele>2424.4</ele>
        <time>2020-01-10T08:59:16Z</time>
      </trkpt>
      <trkpt lat="45.47174" lon="6.88802">
        <ele>2424.4</ele>
        <time>2020-01-10T08:59:17Z</time>
      </trkpt>
      <trkpt lat="45.47168" lon="6.88805">
        <ele>2424.4</ele>
        <time>2020-01-10T08:59:18Z</time>
      </trkpt>
      <trkpt lat="45.4716" lon="6.88808">
        <ele>2419.2</ele>
        <time>2020-01-10T08:59:19Z</time>
      </trkpt>
      <trkpt lat="45.47155" lon="6.8881">
        <ele>2419.2</ele>
        <time>2020-01-10T08:59:20Z</time>
      </trkpt>
      <trkpt lat="45.47149" lon="6.88813">
        <ele>2419.2</ele>
        <time>2020-01-10T08:59:21Z</time>
      </trkpt>
      <trkpt lat="45.47144" lon="6.88815">
        <ele>2419.2</ele>
        <time>2020-01-10T08:59:22Z</time>
      </trkpt>
      <trkpt lat="45.47139" lon="6.88817">
        <ele>2419.2</ele>
        <time>2020-01-10T08:59:23Z</time>
      </trkpt>
      <trkpt lat="45.47133" lon="6.88819">
        <ele>2419.2</ele>
        <time>2020-01-10T08:59:24Z</time>
      </trkpt>
      <trkpt lat="45.47127" lon="6.8882">
        <ele>2419.2</ele>
        <time>2020-01-10T08:59:25Z</time>
      </trkpt>
      <trkpt lat="45.47121" lon="6.8882">
        <ele>2419.2</ele>
        <time>2020-01-10T08:59:26Z</time>
      </trkpt>
      <trkpt lat="45.47115" lon="6.8882">
        <ele>2419.2</ele>
        <time>2020-01-10T08:59:27Z</time>
      </trkpt>
      <trkpt lat="45.47108" lon="6.88819">
        <ele>2419.2</ele>
        <time>2020-01-10T08:59:28Z</time>
      </trkpt>
      <trkpt lat="45.47101" lon="6.88818">
        <ele>2415</ele>
        <time>2020-01-10T08:59:29Z</time>
      </trkpt>
      <trkpt lat="45.47091" lon="6.88819">
        <ele>2415</ele>
        <time>2020-01-10T08:59:30Z</time>
      </trkpt>
      <trkpt lat="45.47084" lon="6.8882">
        <ele>2415</ele>
        <time>2020-01-10T08:59:31Z</time>
      </trkpt>
      <trkpt lat="45.47076" lon="6.88823">
        <ele>2415</ele>
        <time>2020-01-10T08:59:32Z</time>
      </trkpt>
      <trkpt lat="45.47067" lon="6.88827">
        <ele>2415</ele>
        <time>2020-01-10T08:59:33Z</time>
      </trkpt>
      <trkpt lat="45.47059" lon="6.88832">
        <ele>2415</ele>
        <time>2020-01-10T08:59:34Z</time>
      </trkpt>
      <trkpt lat="45.47052" lon="6.88838">
        <ele>2415</ele>
        <time>2020-01-10T08:59:35Z</time>
      </trkpt>
      <trkpt lat="45.47046" lon="6.88843">
        <ele>2415</ele>
        <time>2020-01-10T08:59:36Z</time>
      </trkpt>
      <trkpt lat="45.4704" lon="6.88848">
        <ele>2415</ele>
        <time>2020-01-10T08:59:37Z</time>
      </trkpt>
      <trkpt lat="45.47035" lon="6.88852">
        <ele>2415</ele>
        <time>2020-01-10T08:59:38Z</time>
      </trkpt>
      <trkpt lat="45.47028" lon="6.88856">
        <ele>2407.4</ele>
        <time>2020-01-10T08:59:39Z</time>
      </trkpt>
      <trkpt lat="45.47022" lon="6.88861">
        <ele>2407.4</ele>
        <time>2020-01-10T08:59:40Z</time>
      </trkpt>
      <trkpt lat="45.47015" lon="6.88866">
        <ele>2407.4</ele>
        <time>2020-01-10T08:59:41Z</time>
      </trkpt>
      <trkpt lat="45.47009" lon="6.88871">
        <ele>2407.4</ele>
        <time>2020-01-10T08:59:42Z</time>
      </trkpt>
      <trkpt lat="45.47001" lon="6.88876">
        <ele>2407.4</ele>
        <time>2020-01-10T08:59:43Z</time>
      </trkpt>
      <trkpt lat="45.46994" lon="6.88881">
        <ele>2407.4</ele>
        <time>2020-01-10T08:59:44Z</time>
      </trkpt>
      <trkpt lat="45.46987" lon="6.88885">
        <ele>2407.4</ele>
        <time>2020-01-10T08:59:45Z</time>
      </trkpt>
      <trkpt lat="45.4698" lon="6.88888">
        <ele>2407.4</ele>
        <time>2020-01-10T08:59:46Z</time>
      </trkpt>
      <trkpt lat="45.46973" lon="6.88891">
        <ele>2407.4</ele>
        <time>2020-01-10T08:59:47Z</time>
      </trkpt>
      <trkpt lat="45.46966" lon="6.88892">
        <ele>2407.4</ele>
        <time>2020-01-10T08:59:48Z</time>
      </trkpt>
      <trkpt lat="45.46958" lon="6.88891">
        <ele>2402.2</ele>
        <time>2020-01-10T08:59:49Z</time>
      </trkpt>
      <trkpt lat="45.46952" lon="6.8889">
        <ele>2402.2</ele>
        <time>2020-01-10T08:59:50Z</time>
      </trkpt>
      <trkpt lat="45.46944" lon="6.88888">
        <ele>2402.2</ele>
        <time>2020-01-10T08:59:51Z</time>
      </trkpt>
      <trkpt lat="45.46936" lon="6.88886">
        <ele>2402.2</ele>
        <time>2020-01-10T08:59:52Z</time>
      </trkpt>
      <trkpt lat="45.46928" lon="6.88883">
        <ele>2402.2</ele>
        <time>2020-01-10T08:59:53Z</time>
      </trkpt>
      <trkpt lat="45.4692" lon="6.8888">
        <ele>2402.2</ele>
        <time>2020-01-10T08:59:54Z</time>
      </trkpt>
      <trkpt lat="45.46912" lon="6.88878">
        <ele>2402.2</ele>
        <time>2020-01-10T08:59:55Z</time>
      </trkpt>
      <trkpt lat="45.46905" lon="6.88876">
        <ele>2402.2</ele>
        <time>2020-01-10T08:59:56Z</time>
      </trkpt>
      <trkpt lat="45.46897" lon="6.88874">
        <ele>2402.2</ele>
        <time>2020-01-10T08:59:57Z</time>
      </trkpt>
      <trkpt lat="45.4689" lon="6.88872">
        <ele>2402.2</ele>
        <time>2020-01-10T08:59:58Z</time>
      </trkpt>
      <trkpt lat="45.46882" lon="6.88871">
        <ele>2395.4</ele>
        <time>2020-01-10T08:59:59Z</time>
      </trkpt>
      <trkpt lat="45.46875" lon="6.88869">
        <ele>2395.4</ele>
        <time>2020-01-10T09:00:00Z</time>
      </trkpt>
      <trkpt lat="45.46868" lon="6.88867">
        <ele>2395.4</ele>
        <time>2020-01-10T09:00:01Z</time>
      </trkpt>
      <trkpt lat="45.4686" lon="6.88866">
        <ele>2395.4</ele>
        <time>2020-01-10T09:00:02Z</time>
      </trkpt>
      <trkpt lat="45.46854" lon="6.88865">
        <ele>2395.4</ele>
        <time>2020-01-10T09:00:03Z</time>
      </trkpt>
      <trkpt lat="45.46847" lon="6.88864">
        <ele>2395.4</ele>
        <time>2020-01-10T09:00:04Z</time>
      </trkpt>
      <trkpt lat="45.46841" lon="6.88862">
        <ele>2395.4</ele>
        <time>2020-01-10T09:00:05Z</time>
      </trkpt>
      <trkpt lat="45.46835" lon="6.88861">
        <ele>2395.4</ele>
        <time>2020-01-10T09:00:06Z</time>
      </trkpt>
      <trkpt lat="45.46829" lon="6.8886">
        <ele>2395.4</ele>
        <time>2020-01-10T09:00:07Z</time>
      </trkpt>
      <trkpt lat="45.46823" lon="6.88859">
        <ele>2395.4</ele>
        <time>2020-01-10T09:00:08Z</time>
      </trkpt>
      <trkpt lat="45.46819" lon="6.88858">
        <ele>2390.8</ele>
        <time>2020-01-10T09:00:09Z</time>
      </trkpt>
      <trkpt lat="45.46813" lon="6.88856">
        <ele>2390.8</ele>
        <time>2020-01-10T09:00:10Z</time>
      </trkpt>
      <trkpt lat="45.46809" lon="6.88856">
        <ele>2390.8</ele>
        <time>2020-01-10T09:00:11Z</time>
      </trkpt>
      <trkpt lat="45.46804" lon="6.88855">
        <ele>2390.8</ele>
        <time>2020-01-10T09:00:12Z</time>
      </trkpt>
      <trkpt lat="45.46801" lon="6.88854">
        <ele>2390.8</ele>
        <time>2020-01-10T09:00:13Z</time>
      </trkpt>
      <trkpt lat="45.46797" lon="6.88854">
        <ele>2390.8</ele>
        <time>2020-01-10T09:00:14Z</time>
      </trkpt>
      <trkpt lat="45.46794" lon="6.88854">
        <ele>2390.8</ele>
        <time>2020-01-10T09:00:15Z</time>
      </trkpt>
      <trkpt lat="45.4679" lon="6.88853">
        <ele>2390.8</ele>
        <time>2020-01-10T09:00:16Z</time>
      </trkpt>
      <trkpt lat="45.46787" lon="6.88853">
        <ele>2390.8</ele>
        <time>2020-01-10T09:00:17Z</time>
      </trkpt>
      <trkpt lat="45.46783" lon="6.88853">
        <ele>2390.8</ele>
        <time>2020-01-10T09:00:18Z</time>
      </trkpt>
      <trkpt lat="45.4678" lon="6.88853">
        <ele>2388.8</ele>
        <time>2020-01-10T09:00:19Z</time>
      </trkpt>
      <trkpt lat="45.46776" lon="6.88853">
        <ele>2388.8</ele>
        <time>2020-01-10T09:00:20Z</time>
      </trkpt>
      <trkpt lat="45.46772" lon="6.88853">
        <ele>2388.8</ele>
        <time>2020-01-10T09:00:21Z</time>
      </trkpt>
      <trkpt lat="45.46769" lon="6.88853">
        <ele>2388.8</ele>
        <time>2020-01-10T09:00:22Z</time>
      </trkpt>
      <trkpt lat="45.46766" lon="6.88853">
        <ele>2388.8</ele>
        <time>2020-01-10T09:00:23Z</time>
      </trkpt>
      <trkpt lat="45.46763" lon="6.88853">
        <ele>2388.8</ele>
        <time>2020-01-10T09:00:24Z</time>
      </trkpt>
      <trkpt lat="45.4676" lon="6.88853">
        <ele>2388.8</ele>
        <time>2020-01-10T09:00:25Z</time>
      </trkpt>
      <trkpt lat="45.46757" lon="6.88854">
        <ele>2388.8</ele>
        <time>2020-01-10T09:00:26Z</time>
      </trkpt>
      <trkpt lat="45.46755" lon="6.88854">
        <ele>2388.8</ele>
        <time>2020-01-10T09:00:27Z</time>
      </trkpt>
      <trkpt lat="45.46753" lon="6.88854">
        <ele>2387.2</ele>
        <time>2020-01-10T09:00:29Z</time>
      </trkpt>
      <trkpt lat="45.46751" lon="6.88854">
        <ele>2387.2</ele>
        <time>2020-01-10T09:00:34Z</time>
      </trkpt>
      <trkpt lat="45.46748" lon="6.88852">
        <ele>2387.2</ele>
        <time>2020-01-10T09:00:36Z</time>
      </trkpt>
      <trkpt lat="45.46747" lon="6.88852">
        <ele>2387.2</ele>
        <time>2020-01-10T09:00:37Z</time>
      </trkpt>
      <trkpt lat="45.46744" lon="6.88852">
        <ele>2387.2</ele>
        <time>2020-01-10T09:00:38Z</time>
      </trkpt>
      <trkpt lat="45.46741" lon="6.88851">
        <ele>2387</ele>
        <time>2020-01-10T09:00:39Z</time>
      </trkpt>
      <trkpt lat="45.46739" lon="6.8885">
        <ele>2387</ele>
        <time>2020-01-10T09:00:40Z</time>
      </trkpt>
      <trkpt lat="45.46736" lon="6.8885">
        <ele>2387</ele>
        <time>2020-01-10T09:00:41Z</time>
      </trkpt>
      <trkpt lat="45.46733" lon="6.88848">
        <ele>2387</ele>
        <time>2020-01-10T09:00:42Z</time>
      </trkpt>
      <trkpt lat="45.46731" lon="6.88846">
        <ele>2387</ele>
        <time>2020-01-10T09:00:43Z</time>
      </trkpt>
      <trkpt lat="45.46727" lon="6.88843">
        <ele>2387</ele>
        <time>2020-01-10T09:00:44Z</time>
      </trkpt>
      <trkpt lat="45.46724" lon="6.8884">
        <ele>2387</ele>
        <time>2020-01-10T09:00:45Z</time>
      </trkpt>
      <trkpt lat="45.4672" lon="6.88836">
        <ele>2387</ele>
        <time>2020-01-10T09:00:46Z</time>
      </trkpt>
      <trkpt lat="45.46718" lon="6.88834">
        <ele>2387</ele>
        <time>2020-01-10T09:00:47Z</time>
      </trkpt>
      <trkpt lat="45.46715" lon="6.88832">
        <ele>2387</ele>
        <time>2020-01-10T09:00:48Z</time>
      </trkpt>
      <trkpt lat="45.46712" lon="6.88828">
        <ele>2385.8</ele>
        <time>2020-01-10T09:00:49Z</time>
      </trkpt>
      <trkpt lat="45.46709" lon="6.88825">
        <ele>2385.8</ele>
        <time>2020-01-10T09:00:50Z</time>
      </trkpt>
      <trkpt lat="45.46707" lon="6.88821">
        <ele>2385.8</ele>
        <time>2020-01-10T09:00:51Z</time>
      </trkpt>
      <trkpt lat="45.46704" lon="6.88817">
        <ele>2385.8</ele>
        <time>2020-01-10T09:00:52Z</time>
      </trkpt>
      <trkpt lat="45.46702" lon="6.88813">
        <ele>2385.8</ele>
        <time>2020-01-10T09:00:53Z</time>
      </trkpt>
      <trkpt lat="45.467" lon="6.88809">
        <ele>2385.8</ele>
        <time>2020-01-10T09:00:54Z</time>
      </trkpt>
      <trkpt lat="45.46698" lon="6.88805">
        <ele>2385.8</ele>
        <time>2020-01-10T09:00:55Z</time>
      </trkpt>
      <trkpt lat="45.46696" lon="6.88801">
        <ele>2385.8</ele>
        <time>2020-01-10T09:00:56Z</time>
      </trkpt>
      <trkpt lat="45.46694" lon="6.88799">
        <ele>2385.8</ele>
        <time>2020-01-10T09:00:57Z</time>
      </trkpt>
      <trkpt lat="45.46693" lon="6.88796">
        <ele>2385.8</ele>
        <time>2020-01-10T09:00:58Z</time>
      </trkpt>
      <trkpt lat="45.46691" lon="6.88794">
        <ele>2386</ele>
        <time>2020-01-10T09:00:59Z</time>
      </trkpt>
      <trkpt lat="45.4669" lon="6.88791">
        <ele>2386</ele>
        <time>2020-01-10T09:01:00Z</time>
      </trkpt>
      <trkpt lat="45.46689" lon="6.88789">
        <ele>2386</ele>
        <time>2020-01-10T09:01:01Z</time>
      </trkpt>
      <trkpt lat="45.46688" lon="6.88785">
        <ele>2386</ele>
        <time>2020-01-10T09:01:03Z</time>
      </trkpt>
      <trkpt lat="45.4669" lon="6.88786">
        <ele>2386</ele>
        <time>2020-01-10T09:02:38Z</time>
      </trkpt>
      <trkpt lat="45.46688" lon="6.88785">
        <ele>2378.4</ele>
        <time>2020-01-10T09:02:39Z</time>
      </trkpt>
      <trkpt lat="45.46685" lon="6.88782">
        <ele>2378.4</ele>
        <time>2020-01-10T09:02:41Z</time>
      </trkpt>
      <trkpt lat="45.46684" lon="6.8878">
        <ele>2378.4</ele>
        <time>2020-01-10T09:02:42Z</time>
      </trkpt>
      <trkpt lat="45.46682" lon="6.88779">
        <ele>2378.4</ele>
        <time>2020-01-10T09:02:43Z</time>
      </trkpt>
      <trkpt lat="45.4668" lon="6.88776">
        <ele>2378.4</ele>
        <time>2020-01-10T09:02:45Z</time>
      </trkpt>
      <trkpt lat="45.46678" lon="6.88774">
        <ele>2378.4</ele>
        <time>2020-01-10T09:02:46Z</time>
      </trkpt>
      <trkpt lat="45.46676" lon="6.8877">
        <ele>2378.4</ele>
        <time>2020-01-10T09:02:48Z</time>
      </trkpt>
      <trkpt lat="45.46674" lon="6.88768">
        <ele>2378.8</ele>
        <time>2020-01-10T09:02:49Z</time>
      </trkpt>
      <trkpt lat="45.46672" lon="6.88765">
        <ele>2378.8</ele>
        <time>2020-01-10T09:02:51Z</time>
      </trkpt>
      <trkpt lat="45.4667" lon="6.88764">
        <ele>2378.8</ele>
        <time>2020-01-10T09:02:52Z</time>
      </trkpt>
      <trkpt lat="45.46668" lon="6.88762">
        <ele>2378.8</ele>
        <time>2020-01-10T09:02:53Z</time>
      </trkpt>
      <trkpt lat="45.46666" lon="6.8876">
        <ele>2378.8</ele>
        <time>2020-01-10T09:02:55Z</time>
      </trkpt>
      <trkpt lat="45.46664" lon="6.88756">
        <ele>2378.8</ele>
        <time>2020-01-10T09:02:57Z</time>
      </trkpt>
      <trkpt lat="45.46662" lon="6.88755">
        <ele>2378.8</ele>
        <time>2020-01-10T09:02:58Z</time>
      </trkpt>
      <trkpt lat="45.4666" lon="6.88751">
        <ele>2378.8</ele>
        <time>2020-01-10T09:03:00Z</time>
      </trkpt>
      <trkpt lat="45.46658" lon="6.88748">
        <ele>2378.8</ele>
        <time>2020-01-10T09:03:02Z</time>
      </trkpt>
      <trkpt lat="45.46656" lon="6.88745">
        <ele>2378.8</ele>
        <time>2020-01-10T09:03:04Z</time>
      </trkpt>
      <trkpt lat="45.46655" lon="6.88743">
        <ele>2378.8</ele>
        <time>2020-01-10T09:03:05Z</time>
      </trkpt>
      <trkpt lat="45.46653" lon="6.8874">
        <ele>2378.8</ele>
        <time>2020-01-10T09:03:07Z</time>
      </trkpt>
      <trkpt lat="45.46652" lon="6.88738">
        <ele>2378.4</ele>
        <time>2020-01-10T09:03:09Z</time>
      </trkpt>
      <trkpt lat="45.46649" lon="6.88735">
        <ele>2378.4</ele>
        <time>2020-01-10T09:03:11Z</time>
      </trkpt>
      <trkpt lat="45.46647" lon="6.88732">
        <ele>2378.4</ele>
        <time>2020-01-10T09:03:13Z</time>
      </trkpt>
      <trkpt lat="45.46645" lon="6.88729">
        <ele>2378.4</ele>
        <time>2020-01-10T09:03:15Z</time>
      </trkpt>
      <trkpt lat="45.46644" lon="6.88727">
        <ele>2378.4</ele>
        <time>2020-01-10T09:03:16Z</time>
      </trkpt>
      <trkpt lat="45.46641" lon="6.88725">
        <ele>2378.4</ele>
        <time>2020-01-10T09:03:18Z</time>
      </trkpt>
      <trkpt lat="45.46638" lon="6.88721">
        <ele>2378.4</ele>
        <time>2020-01-10T09:03:20Z</time>
      </trkpt>
      <trkpt lat="45.46636" lon="6.88718">
        <ele>2378.4</ele>
        <time>2020-01-10T09:03:22Z</time>
      </trkpt>
      <trkpt lat="45.46634" lon="6.88716">
        <ele>2378.4</ele>
        <time>2020-01-10T09:03:23Z</time>
      </trkpt>
      <trkpt lat="45.46632" lon="6.88713">
        <ele>2378.4</ele>
        <time>2020-01-10T09:03:24Z</time>
      </trkpt>
      <trkpt lat="45.46631" lon="6.88711">
        <ele>2378.4</ele>
        <time>2020-01-10T09:03:25Z</time>
      </trkpt>
      <trkpt lat="45.46629" lon="6.88709">
        <ele>2378.4</ele>
        <time>2020-01-10T09:03:26Z</time>
      </trkpt>
      <trkpt lat="45.46628" lon="6.88706">
        <ele>2378.4</ele>
        <time>2020-01-10T09:03:27Z</time>
      </trkpt>
      <trkpt lat="45.46627" lon="6.88703">
        <ele>2378.4</ele>
        <time>2020-01-10T09:03:28Z</time>
      </trkpt>
      <trkpt lat="45.46625" lon="6.88701">
        <ele>2378.2</ele>
        <time>2020-01-10T09:03:29Z</time>
      </trkpt>
      <trkpt lat="45.46624" lon="6.88698">
        <ele>2378.2</ele>
        <time>2020-01-10T09:03:30Z</time>
      </trkpt>
      <trkpt lat="45.46622" lon="6.88696">
        <ele>2378.2</ele>
        <time>2020-01-10T09:03:31Z</time>
      </trkpt>
      <trkpt lat="45.4662" lon="6.88694">
        <ele>2378.2</ele>
        <time>2020-01-10T09:03:33Z</time>
      </trkpt>
      <trkpt lat="45.46618" lon="6.8869">
        <ele>2378.2</ele>
        <time>2020-01-10T09:03:35Z</time>
      </trkpt>
      <trkpt lat="45.46616" lon="6.88688">
        <ele>2378.2</ele>
        <time>2020-01-10T09:03:37Z</time>
      </trkpt>
      <trkpt lat="45.46614" lon="6.88685">
        <ele>2378.4</ele>
        <time>2020-01-10T09:03:39Z</time>
      </trkpt>
      <trkpt lat="45.46612" lon="6.88682">
        <ele>2378.4</ele>
        <time>2020-01-10T09:03:41Z</time>
      </trkpt>
      <trkpt lat="45.46611" lon="6.8868">
        <ele>2378.4</ele>
        <time>2020-01-10T09:03:42Z</time>
      </trkpt>
      <trkpt lat="45.46609" lon="6.88678">
        <ele>2378.4</ele>
        <time>2020-01-10T09:03:44Z</time>
      </trkpt>
      <trkpt lat="45.46607" lon="6.88675">
        <ele>2378.4</ele>
        <time>2020-01-10T09:03:46Z</time>
      </trkpt>
      <trkpt lat="45.46604" lon="6.88672">
        <ele>2378.4</ele>
        <time>2020-01-10T09:03:48Z</time>
      </trkpt>
      <trkpt lat="45.46603" lon="6.88669">
        <ele>2378.4</ele>
        <time>2020-01-10T09:03:50Z</time>
      </trkpt>
      <trkpt lat="45.46601" lon="6.88666">
        <ele>2378.4</ele>
        <time>2020-01-10T09:03:52Z</time>
      </trkpt>
      <trkpt lat="45.46598" lon="6.88663">
        <ele>2378.4</ele>
        <time>2020-01-10T09:03:54Z</time>
      </trkpt>
      <trkpt lat="45.46596" lon="6.88661">
        <ele>2378.4</ele>
        <time>2020-01-10T09:03:56Z</time>
      </trkpt>
      <trkpt lat="45.46595" lon="6.88658">
        <ele>2378.4</ele>
        <time>2020-01-10T09:03:58Z</time>
      </trkpt>
      <trkpt lat="45.46593" lon="6.88655">
        <ele>2378.4</ele>
        <time>2020-01-10T09:04:00Z</time>
      </trkpt>
      <trkpt lat="45.46591" lon="6.88652">
        <ele>2378.4</ele>
        <time>2020-01-10T09:04:02Z</time>
      </trkpt>
      <trkpt lat="45.46589" lon="6.8865">
        <ele>2378.4</ele>
        <time>2020-01-10T09:04:04Z</time>
      </trkpt>
      <trkpt lat="45.46587" lon="6.88648">
        <ele>2378.4</ele>
        <time>2020-01-10T09:04:06Z</time>
      </trkpt>
      <trkpt lat="45.46584" lon="6.88645">
        <ele>2378.4</ele>
        <time>2020-01-10T09:04:08Z</time>
      </trkpt>
      <trkpt lat="45.46582" lon="6.88643">
        <ele>2378.4</ele>
        <time>2020-01-10T09:04:10Z</time>
      </trkpt>
      <trkpt lat="45.4658" lon="6.88641">
        <ele>2378.4</ele>
        <time>2020-01-10T09:04:12Z</time>
      </trkpt>
      <trkpt lat="45.46578" lon="6.88638">
        <ele>2378.4</ele>
        <time>2020-01-10T09:04:14Z</time>
      </trkpt>
      <trkpt lat="45.46576" lon="6.88635">
        <ele>2378.4</ele>
        <time>2020-01-10T09:04:16Z</time>
      </trkpt>
      <trkpt lat="45.46574" lon="6.88631">
        <ele>2378.4</ele>
        <time>2020-01-10T09:04:18Z</time>
      </trkpt>
      <trkpt lat="45.46572" lon="6.88629">
        <ele>2378.4</ele>
        <time>2020-01-10T09:04:20Z</time>
      </trkpt>
      <trkpt lat="45.4657" lon="6.88626">
        <ele>2378.4</ele>
        <time>2020-01-10T09:04:22Z</time>
      </trkpt>
      <trkpt lat="45.46568" lon="6.88624">
        <ele>2378.4</ele>
        <time>2020-01-10T09:04:23Z</time>
      </trkpt>
      <trkpt lat="45.46565" lon="6.88622">
        <ele>2378.4</ele>
        <time>2020-01-10T09:04:25Z</time>
      </trkpt>
      <trkpt lat="45.46564" lon="6.8862">
        <ele>2378.4</ele>
        <time>2020-01-10T09:04:26Z</time>
      </trkpt>
      <trkpt lat="45.46563" lon="6.88618">
        <ele>2378.4</ele>
        <time>2020-01-10T09:04:27Z</time>
      </trkpt>
      <trkpt lat="45.4656" lon="6.88615">
        <ele>2382.4</ele>
        <time>2020-01-10T09:04:29Z</time>
      </trkpt>
      <trkpt lat="45.46558" lon="6.88614">
        <ele>2382.4</ele>
        <time>2020-01-10T09:04:30Z</time>
      </trkpt>
      <trkpt lat="45.46557" lon="6.88611">
        <ele>2382.4</ele>
        <time>2020-01-10T09:04:31Z</time>
      </trkpt>
      <trkpt lat="45.46554" lon="6.88609">
        <ele>2382.4</ele>
        <time>2020-01-10T09:04:33Z</time>
      </trkpt>
      <trkpt lat="45.46553" lon="6.88608">
        <ele>2382.4</ele>
        <time>2020-01-10T09:04:34Z</time>
      </trkpt>
      <trkpt lat="45.46551" lon="6.88606">
        <ele>2382.4</ele>
        <time>2020-01-10T09:04:35Z</time>
      </trkpt>
      <trkpt lat="45.4655" lon="6.88604">
        <ele>2382.4</ele>
        <time>2020-01-10T09:04:36Z</time>
      </trkpt>
      <trkpt lat="45.46547" lon="6.88601">
        <ele>2382.4</ele>
        <time>2020-01-10T09:04:38Z</time>
      </trkpt>
      <trkpt lat="45.46544" lon="6.88598">
        <ele>2382.4</ele>
        <time>2020-01-10T09:04:40Z</time>
      </trkpt>
      <trkpt lat="45.46542" lon="6.88597">
        <ele>2382.4</ele>
        <time>2020-01-10T09:04:41Z</time>
      </trkpt>
      <trkpt lat="45.46539" lon="6.88594">
        <ele>2382.4</ele>
        <time>2020-01-10T09:04:43Z</time>
      </trkpt>
      <trkpt lat="45.46537" lon="6.88593">
        <ele>2382.4</ele>
        <time>2020-01-10T09:04:44Z</time>
      </trkpt>
      <trkpt lat="45.46535" lon="6.88591">
        <ele>2382.4</ele>
        <time>2020-01-10T09:04:45Z</time>
      </trkpt>
      <trkpt lat="45.46533" lon="6.88589">
        <ele>2382.4</ele>
        <time>2020-01-10T09:04:46Z</time>
      </trkpt>
      <trkpt lat="45.46531" lon="6.88587">
        <ele>2382.4</ele>
        <time>2020-01-10T09:04:48Z</time>
      </trkpt>
      <trkpt lat="45.46529" lon="6.88585">
        <ele>2382.8</ele>
        <time>2020-01-10T09:04:49Z</time>
      </trkpt>
      <trkpt lat="45.46527" lon="6.88583">
        <ele>2382.8</ele>
        <time>2020-01-10T09:04:50Z</time>
      </trkpt>
      <trkpt lat="45.46525" lon="6.88582">
        <ele>2382.8</ele>
        <time>2020-01-10T09:04:51Z</time>
      </trkpt>
      <trkpt lat="45.46524" lon="6.8858">
        <ele>2382.8</ele>
        <time>2020-01-10T09:04:52Z</time>
      </trkpt>
      <trkpt lat="45.4652" lon="6.88578">
        <ele>2382.8</ele>
        <time>2020-01-10T09:04:54Z</time>
      </trkpt>
      <trkpt lat="45.46518" lon="6.88576">
        <ele>2382.8</ele>
        <time>2020-01-10T09:04:55Z</time>
      </trkpt>
      <trkpt lat="45.46517" lon="6.88575">
        <ele>2382.8</ele>
        <time>2020-01-10T09:04:56Z</time>
      </trkpt>
      <trkpt lat="45.46514" lon="6.88573">
        <ele>2382.8</ele>
        <time>2020-01-10T09:04:58Z</time>
      </trkpt>
      <trkpt lat="45.46512" lon="6.88572">
        <ele>2383.6</ele>
        <time>2020-01-10T09:04:59Z</time>
      </trkpt>
      <trkpt lat="45.4651" lon="6.8857">
        <ele>2383.6</ele>
        <time>2020-01-10T09:05:00Z</time>
      </trkpt>
      <trkpt lat="45.46508" lon="6.88569">
        <ele>2383.6</ele>
        <time>2020-01-10T09:05:01Z</time>
      </trkpt>
      <trkpt lat="45.46505" lon="6.88567">
        <ele>2383.6</ele>
        <time>2020-01-10T09:05:03Z</time>
      </trkpt>
      <trkpt lat="45.46502" lon="6.88566">
        <ele>2383.6</ele>
        <time>2020-01-10T09:05:05Z</time>
      </trkpt>
      <trkpt lat="45.465" lon="6.88566">
        <ele>2383.6</ele>
        <time>2020-01-10T09:05:06Z</time>
      </trkpt>
      <trkpt lat="45.46499" lon="6.88565">
        <ele>2383.6</ele>
        <time>2020-01-10T09:05:07Z</time>
      </trkpt>
      <trkpt lat="45.46497" lon="6.88564">
        <ele>2383.8</ele>
        <time>2020-01-10T09:05:09Z</time>
      </trkpt>
      <trkpt lat="45.46493" lon="6.88564">
        <ele>2383.8</ele>
        <time>2020-01-10T09:05:11Z</time>
      </trkpt>
      <trkpt lat="45.46491" lon="6.88563">
        <ele>2383.8</ele>
        <time>2020-01-10T09:05:13Z</time>
      </trkpt>
      <trkpt lat="45.46488" lon="6.88563">
        <ele>2383.8</ele>
        <time>2020-01-10T09:05:15Z</time>
      </trkpt>
      <trkpt lat="45.46485" lon="6.88562">
        <ele>2383.8</ele>
        <time>2020-01-10T09:05:17Z</time>
      </trkpt>
      <trkpt lat="45.46482" lon="6.88561">
        <ele>2385</ele>
        <time>2020-01-10T09:05:19Z</time>
      </trkpt>
      <trkpt lat="45.46479" lon="6.8856">
        <ele>2385</ele>
        <time>2020-01-10T09:05:21Z</time>
      </trkpt>
      <trkpt lat="45.46477" lon="6.88559">
        <ele>2385</ele>
        <time>2020-01-10T09:05:23Z</time>
      </trkpt>
      <trkpt lat="45.46474" lon="6.88558">
        <ele>2385</ele>
        <time>2020-01-10T09:05:25Z</time>
      </trkpt>
      <trkpt lat="45.46471" lon="6.88558">
        <ele>2385</ele>
        <time>2020-01-10T09:05:27Z</time>
      </trkpt>
      <trkpt lat="45.46469" lon="6.88557">
        <ele>2387</ele>
        <time>2020-01-10T09:05:29Z</time>
      </trkpt>
      <trkpt lat="45.46466" lon="6.88556">
        <ele>2387</ele>
        <time>2020-01-10T09:05:31Z</time>
      </trkpt>
      <trkpt lat="45.46464" lon="6.88556">
        <ele>2387</ele>
        <time>2020-01-10T09:05:33Z</time>
      </trkpt>
      <trkpt lat="45.46461" lon="6.88555">
        <ele>2387</ele>
        <time>2020-01-10T09:05:35Z</time>
      </trkpt>
      <trkpt lat="45.46459" lon="6.88554">
        <ele>2387</ele>
        <time>2020-01-10T09:05:37Z</time>
      </trkpt>
      <trkpt lat="45.46456" lon="6.88553">
        <ele>2389.2</ele>
        <time>2020-01-10T09:05:39Z</time>
      </trkpt>
      <trkpt lat="45.46454" lon="6.88554">
        <ele>2389.2</ele>
        <time>2020-01-10T09:05:41Z</time>
      </trkpt>
      <trkpt lat="45.46451" lon="6.88553">
        <ele>2389.2</ele>
        <time>2020-01-10T09:05:43Z</time>
      </trkpt>
      <trkpt lat="45.46449" lon="6.88553">
        <ele>2389.2</ele>
        <time>2020-01-10T09:05:45Z</time>
      </trkpt>
      <trkpt lat="45.46447" lon="6.88553">
        <ele>2389.2</ele>
        <time>2020-01-10T09:05:47Z</time>
      </trkpt>
      <trkpt lat="45.46445" lon="6.88553">
        <ele>2391.8</ele>
        <time>2020-01-10T09:05:49Z</time>
      </trkpt>
      <trkpt lat="45.46443" lon="6.88552">
        <ele>2391.8</ele>
        <time>2020-01-10T09:05:51Z</time>
      </trkpt>
      <trkpt lat="45.46441" lon="6.88552">
        <ele>2391.8</ele>
        <time>2020-01-10T09:05:53Z</time>
      </trkpt>
      <trkpt lat="45.46439" lon="6.88552">
        <ele>2391.8</ele>
        <time>2020-01-10T09:05:55Z</time>
      </trkpt>
      <trkpt lat="45.46437" lon="6.88552">
        <ele>2391.8</ele>
        <time>2020-01-10T09:05:57Z</time>
      </trkpt>
      <trkpt lat="45.46435" lon="6.88552">
        <ele>2395</ele>
        <time>2020-01-10T09:05:59Z</time>
      </trkpt>
      <trkpt lat="45.46433" lon="6.88552">
        <ele>2395</ele>
        <time>2020-01-10T09:06:02Z</time>
      </trkpt>
      <trkpt lat="45.46431" lon="6.88551">
        <ele>2395</ele>
        <time>2020-01-10T09:06:04Z</time>
      </trkpt>
      <trkpt lat="45.46429" lon="6.88551">
        <ele>2395</ele>
        <time>2020-01-10T09:06:07Z</time>
      </trkpt>
      <trkpt lat="45.46426" lon="6.88551">
        <ele>2395</ele>
        <time>2020-01-10T09:06:10Z</time>
      </trkpt>
      <trkpt lat="45.46424" lon="6.8855">
        <ele>2395</ele>
        <time>2020-01-10T09:06:13Z</time>
      </trkpt>
      <trkpt lat="45.46422" lon="6.88551">
        <ele>2395</ele>
        <time>2020-01-10T09:06:15Z</time>
      </trkpt>
      <trkpt lat="45.4642" lon="6.8855">
        <ele>2395</ele>
        <time>2020-01-10T09:06:18Z</time>
      </trkpt>
      <trkpt lat="45.46417" lon="6.8855">
        <ele>2395</ele>
        <time>2020-01-10T09:06:21Z</time>
      </trkpt>
      <trkpt lat="45.46415" lon="6.8855">
        <ele>2395</ele>
        <time>2020-01-10T09:06:24Z</time>
      </trkpt>
      <trkpt lat="45.46413" lon="6.88549">
        <ele>2395</ele>
        <time>2020-01-10T09:06:27Z</time>
      </trkpt>
      <trkpt lat="45.46411" lon="6.88549">
        <ele>2395</ele>
        <time>2020-01-10T09:06:30Z</time>
      </trkpt>
      <trkpt lat="45.46409" lon="6.88548">
        <ele>2395</ele>
        <time>2020-01-10T09:06:33Z</time>
      </trkpt>
      <trkpt lat="45.46407" lon="6.88548">
        <ele>2395</ele>
        <time>2020-01-10T09:06:36Z</time>
      </trkpt>
      <trkpt lat="45.46405" lon="6.88548">
        <ele>2406.2</ele>
        <time>2020-01-10T09:06:39Z</time>
      </trkpt>
      <trkpt lat="45.46403" lon="6.88546">
        <ele>2406.2</ele>
        <time>2020-01-10T09:06:42Z</time>
      </trkpt>
      <trkpt lat="45.46401" lon="6.88546">
        <ele>2406.2</ele>
        <time>2020-01-10T09:06:45Z</time>
      </trkpt>
      <trkpt lat="45.46398" lon="6.88545">
        <ele>2406.2</ele>
        <time>2020-01-10T09:06:48Z</time>
      </trkpt>
      <trkpt lat="45.46396" lon="6.88544">
        <ele>2406.2</ele>
        <time>2020-01-10T09:06:51Z</time>
      </trkpt>
      <trkpt lat="45.46394" lon="6.88544">
        <ele>2406.2</ele>
        <time>2020-01-10T09:06:54Z</time>
      </trkpt>
      <trkpt lat="45.46392" lon="6.88543">
        <ele>2406.2</ele>
        <time>2020-01-10T09:06:57Z</time>
      </trkpt>
      <trkpt lat="45.4639" lon="6.88542">
        <ele>2406.2</ele>
        <time>2020-01-10T09:07:00Z</time>
      </trkpt>
      <trkpt lat="45.46388" lon="6.88541">
        <ele>2406.2</ele>
        <time>2020-01-10T09:07:02Z</time>
      </trkpt>
      <trkpt lat="45.46386" lon="6.8854">
        <ele>2406.2</ele>
        <time>2020-01-10T09:07:05Z</time>
      </trkpt>
      <trkpt lat="45.46384" lon="6.88538">
        <ele>2406.2</ele>
        <time>2020-01-10T09:07:08Z</time>
      </trkpt>
      <trkpt lat="45.46382" lon="6.88537">
        <ele>2406.2</ele>
        <time>2020-01-10T09:07:11Z</time>
      </trkpt>
      <trkpt lat="45.4638" lon="6.88535">
        <ele>2406.2</ele>
        <time>2020-01-10T09:07:14Z</time>
      </trkpt>
      <trkpt lat="45.46378" lon="6.88534">
        <ele>2406.2</ele>
        <time>2020-01-10T09:07:18Z</time>
      </trkpt>
      <trkpt lat="45.46376" lon="6.88532">
        <ele>2406.2</ele>
        <time>2020-01-10T09:07:21Z</time>
      </trkpt>
      <trkpt lat="45.46374" lon="6.88531">
        <ele>2406.2</ele>
        <time>2020-01-10T09:07:24Z</time>
      </trkpt>
      <trkpt lat="45.46372" lon="6.88529">
        <ele>2406.2</ele>
        <time>2020-01-10T09:07:28Z</time>
      </trkpt>
      <trkpt lat="45.4637" lon="6.88528">
        <ele>2406.2</ele>
        <time>2020-01-10T09:07:31Z</time>
      </trkpt>
      <trkpt lat="45.46369" lon="6.88526">
        <ele>2406.2</ele>
        <time>2020-01-10T09:07:34Z</time>
      </trkpt>
      <trkpt lat="45.46366" lon="6.88524">
        <ele>2406.2</ele>
        <time>2020-01-10T09:07:37Z</time>
      </trkpt>
      <trkpt lat="45.46365" lon="6.88522">
        <ele>2406.2</ele>
        <time>2020-01-10T09:07:40Z</time>
      </trkpt>
      <trkpt lat="45.46364" lon="6.88519">
        <ele>2406.2</ele>
        <time>2020-01-10T09:07:43Z</time>
      </trkpt>
      <trkpt lat="45.46362" lon="6.88516">
        <ele>2406.2</ele>
        <time>2020-01-10T09:07:46Z</time>
      </trkpt>
      <trkpt lat="45.46361" lon="6.88513">
        <ele>2424.4</ele>
        <time>2020-01-10T09:07:49Z</time>
      </trkpt>
      <trkpt lat="45.4636" lon="6.88511">
        <ele>2424.4</ele>
        <time>2020-01-10T09:07:52Z</time>
      </trkpt>
      <trkpt lat="45.46358" lon="6.88509">
        <ele>2424.4</ele>
        <time>2020-01-10T09:07:54Z</time>
      </trkpt>
      <trkpt lat="45.46357" lon="6.88507">
        <ele>2424.4</ele>
        <time>2020-01-10T09:07:57Z</time>
      </trkpt>
      <trkpt lat="45.46356" lon="6.88504">
        <ele>2424.4</ele>
        <time>2020-01-10T09:08:00Z</time>
      </trkpt>
      <trkpt lat="45.46355" lon="6.88501">
        <ele>2424.4</ele>
        <time>2020-01-10T09:08:03Z</time>
      </trkpt>
      <trkpt lat="45.46353" lon="6.88499">
        <ele>2424.4</ele>
        <time>2020-01-10T09:08:07Z</time>
      </trkpt>
      <trkpt lat="45.46352" lon="6.88497">
        <ele>2429.2</ele>
        <time>2020-01-10T09:08:09Z</time>
      </trkpt>
      <trkpt lat="45.4635" lon="6.88494">
        <ele>2429.2</ele>
        <time>2020-01-10T09:08:12Z</time>
      </trkpt>
      <trkpt lat="45.46349" lon="6.88491">
        <ele>2429.2</ele>
        <time>2020-01-10T09:08:15Z</time>
      </trkpt>
      <trkpt lat="45.46348" lon="6.88489">
        <ele>2429.2</ele>
        <time>2020-01-10T09:08:17Z</time>
      </trkpt>
      <trkpt lat="45.46348" lon="6.88486">
        <ele>2432</ele>
        <time>2020-01-10T09:08:19Z</time>
      </trkpt>
      <trkpt lat="45.46347" lon="6.88483">
        <ele>2432</ele>
        <time>2020-01-10T09:08:22Z</time>
      </trkpt>
      <trkpt lat="45.46346" lon="6.88481">
        <ele>2432</ele>
        <time>2020-01-10T09:08:25Z</time>
      </trkpt>
      <trkpt lat="45.46344" lon="6.88478">
        <ele>2432</ele>
        <time>2020-01-10T09:08:28Z</time>
      </trkpt>
      <trkpt lat="45.46343" lon="6.88475">
        <ele>2432</ele>
        <time>2020-01-10T09:08:31Z</time>
      </trkpt>
      <trkpt lat="45.46342" lon="6.88472">
        <ele>2432</ele>
        <time>2020-01-10T09:08:34Z</time>
      </trkpt>
      <trkpt lat="45.4634" lon="6.88469">
        <ele>2432</ele>
        <time>2020-01-10T09:08:37Z</time>
      </trkpt>
      <trkpt lat="45.46339" lon="6.88466">
        <ele>2432</ele>
        <time>2020-01-10T09:08:40Z</time>
      </trkpt>
      <trkpt lat="45.46338" lon="6.88463">
        <ele>2432</ele>
        <time>2020-01-10T09:08:43Z</time>
      </trkpt>
      <trkpt lat="45.46336" lon="6.88462">
        <ele>2432</ele>
        <time>2020-01-10T09:08:45Z</time>
      </trkpt>
      <trkpt lat="45.46335" lon="6.88459">
        <ele>2432</ele>
        <time>2020-01-10T09:08:48Z</time>
      </trkpt>
      <trkpt lat="45.46333" lon="6.88456">
        <ele>2432</ele>
        <time>2020-01-10T09:08:51Z</time>
      </trkpt>
      <trkpt lat="45.46332" lon="6.88453">
        <ele>2432</ele>
        <time>2020-01-10T09:08:53Z</time>
      </trkpt>
      <trkpt lat="45.46331" lon="6.88451">
        <ele>2432</ele>
        <time>2020-01-10T09:08:56Z</time>
      </trkpt>
      <trkpt lat="45.46329" lon="6.88447">
        <ele>2441.6</ele>
        <time>2020-01-10T09:08:59Z</time>
      </trkpt>
      <trkpt lat="45.46328" lon="6.88445">
        <ele>2441.6</ele>
        <time>2020-01-10T09:09:01Z</time>
      </trkpt>
      <trkpt lat="45.46326" lon="6.88443">
        <ele>2441.6</ele>
        <time>2020-01-10T09:09:03Z</time>
      </trkpt>
      <trkpt lat="45.46324" lon="6.88441">
        <ele>2441.6</ele>
        <time>2020-01-10T09:09:05Z</time>
      </trkpt>
      <trkpt lat="45.46323" lon="6.88439">
        <ele>2441.6</ele>
        <time>2020-01-10T09:09:07Z</time>
      </trkpt>
      <trkpt lat="45.46322" lon="6.88437">
        <ele>2444.6</ele>
        <time>2020-01-10T09:09:09Z</time>
      </trkpt>
      <trkpt lat="45.4632" lon="6.88435">
        <ele>2444.6</ele>
        <time>2020-01-10T09:09:11Z</time>
      </trkpt>
      <trkpt lat="45.46319" lon="6.88433">
        <ele>2444.6</ele>
        <time>2020-01-10T09:09:13Z</time>
      </trkpt>
      <trkpt lat="45.46317" lon="6.8843">
        <ele>2444.6</ele>
        <time>2020-01-10T09:09:16Z</time>
      </trkpt>
      <trkpt lat="45.46316" lon="6.88427">
        <ele>2444.6</ele>
        <time>2020-01-10T09:09:18Z</time>
      </trkpt>
      <trkpt lat="45.46314" lon="6.88425">
        <ele>2444.6</ele>
        <time>2020-01-10T09:09:20Z</time>
      </trkpt>
      <trkpt lat="45.46312" lon="6.88423">
        <ele>2444.6</ele>
        <time>2020-01-10T09:09:22Z</time>
      </trkpt>
      <trkpt lat="45.46311" lon="6.88421">
        <ele>2444.6</ele>
        <time>2020-01-10T09:09:24Z</time>
      </trkpt>
      <trkpt lat="45.46309" lon="6.88419">
        <ele>2444.6</ele>
        <time>2020-01-10T09:09:27Z</time>
      </trkpt>
      <trkpt lat="45.46307" lon="6.88416">
        <ele>2444.6</ele>
        <time>2020-01-10T09:09:30Z</time>
      </trkpt>
      <trkpt lat="45.46305" lon="6.88414">
        <ele>2444.6</ele>
        <time>2020-01-10T09:09:32Z</time>
      </trkpt>
      <trkpt lat="45.46303" lon="6.88413">
        <ele>2444.6</ele>
        <time>2020-01-10T09:09:34Z</time>
      </trkpt>
      <trkpt lat="45.46301" lon="6.8841">
        <ele>2444.6</ele>
        <time>2020-01-10T09:09:37Z</time>
      </trkpt>
      <trkpt lat="45.46299" lon="6.88408">
        <ele>2444.6</ele>
        <time>2020-01-10T09:09:40Z</time>
      </trkpt>
      <trkpt lat="45.46297" lon="6.88406">
        <ele>2444.6</ele>
        <time>2020-01-10T09:09:42Z</time>
      </trkpt>
      <trkpt lat="45.46295" lon="6.88404">
        <ele>2444.6</ele>
        <time>2020-01-10T09:09:45Z</time>
      </trkpt>
      <trkpt lat="45.46293" lon="6.88402">
        <ele>2444.6</ele>
        <time>2020-01-10T09:09:48Z</time>
      </trkpt>
      <trkpt lat="45.46291" lon="6.884">
        <ele>2444.6</ele>
        <time>2020-01-10T09:09:50Z</time>
      </trkpt>
      <trkpt lat="45.4629" lon="6.88399">
        <ele>2444.6</ele>
        <time>2020-01-10T09:09:52Z</time>
      </trkpt>
      <trkpt lat="45.46288" lon="6.88397">
        <ele>2444.6</ele>
        <time>2020-01-10T09:09:54Z</time>
      </trkpt>
      <trkpt lat="45.46286" lon="6.88396">
        <ele>2444.6</ele>
        <time>2020-01-10T09:09:56Z</time>
      </trkpt>
      <trkpt lat="45.46284" lon="6.88395">
        <ele>2444.6</ele>
        <time>2020-01-10T09:09:58Z</time>
      </trkpt>
      <trkpt lat="45.46282" lon="6.88393">
        <ele>2444.6</ele>
        <time>2020-01-10T09:10:01Z</time>
      </trkpt>
      <trkpt lat="45.46281" lon="6.88391">
        <ele>2444.6</ele>
        <time>2020-01-10T09:10:03Z</time>
      </trkpt>
      <trkpt lat="45.46279" lon="6.88389">
        <ele>2444.6</ele>
        <time>2020-01-10T09:10:05Z</time>
      </trkpt>
      <trkpt lat="45.46277" lon="6.88386">
        <ele>2444.6</ele>
        <time>2020-01-10T09:10:08Z</time>
      </trkpt>
      <trkpt lat="45.46275" lon="6.88385">
        <ele>2444.6</ele>
        <time>2020-01-10T09:10:10Z</time>
      </trkpt>
      <trkpt lat="45.46273" lon="6.88382">
        <ele>2444.6</ele>
        <time>2020-01-10T09:10:13Z</time>
      </trkpt>
      <trkpt lat="45.4627" lon="6.8838">
        <ele>2444.6</ele>
        <time>2020-01-10T09:10:16Z</time>
      </trkpt>
      <trkpt lat="45.46268" lon="6.88378">
        <ele>2463.4</ele>
        <time>2020-01-10T09:10:19Z</time>
      </trkpt>
      <trkpt lat="45.46266" lon="6.88377">
        <ele>2463.4</ele>
        <time>2020-01-10T09:10:21Z</time>
      </trkpt>
      <trkpt lat="45.46264" lon="6.88375">
        <ele>2463.4</ele>
        <time>2020-01-10T09:10:23Z</time>
      </trkpt>
      <trkpt lat="45.46263" lon="6.88373">
        <ele>2463.4</ele>
        <time>2020-01-10T09:10:25Z</time>
      </trkpt>
      <trkpt lat="45.46261" lon="6.88371">
        <ele>2463.4</ele>
        <time>2020-01-10T09:10:27Z</time>
      </trkpt>
      <trkpt lat="45.46259" lon="6.88369">
        <ele>2466.2</ele>
        <time>2020-01-10T09:10:29Z</time>
      </trkpt>
      <trkpt lat="45.46258" lon="6.88367">
        <ele>2466.2</ele>
        <time>2020-01-10T09:10:31Z</time>
      </trkpt>
      <trkpt lat="45.46257" lon="6.88364">
        <ele>2466.2</ele>
        <time>2020-01-10T09:10:33Z</time>
      </trkpt>
      <trkpt lat="45.46255" lon="6.88362">
        <ele>2466.2</ele>
        <time>2020-01-10T09:10:35Z</time>
      </trkpt>
      <trkpt lat="45.46254" lon="6.8836">
        <ele>2466.2</ele>
        <time>2020-01-10T09:10:37Z</time>
      </trkpt>
      <trkpt lat="45.46252" lon="6.88357">
        <ele>2468.4</ele>
        <time>2020-01-10T09:10:39Z</time>
      </trkpt>
      <trkpt lat="45.46251" lon="6.88355">
        <ele>2468.4</ele>
        <time>2020-01-10T09:10:41Z</time>
      </trkpt>
      <trkpt lat="45.4625" lon="6.88352">
        <ele>2468.4</ele>
        <time>2020-01-10T09:10:43Z</time>
      </trkpt>
      <trkpt lat="45.46249" lon="6.8835">
        <ele>2468.4</ele>
        <time>2020-01-10T09:10:45Z</time>
      </trkpt>
      <trkpt lat="45.46248" lon="6.88347">
        <ele>2468.4</ele>
        <time>2020-01-10T09:10:47Z</time>
      </trkpt>
      <trkpt lat="45.46246" lon="6.88345">
        <ele>2470</ele>
        <time>2020-01-10T09:10:49Z</time>
      </trkpt>
      <trkpt lat="45.46245" lon="6.88342">
        <ele>2470</ele>
        <time>2020-01-10T09:10:51Z</time>
      </trkpt>
      <trkpt lat="45.46244" lon="6.88339">
        <ele>2470</ele>
        <time>2020-01-10T09:10:54Z</time>
      </trkpt>
      <trkpt lat="45.46243" lon="6.88336">
        <ele>2470</ele>
        <time>2020-01-10T09:10:56Z</time>
      </trkpt>
      <trkpt lat="45.46242" lon="6.88333">
        <ele>2472.8</ele>
        <time>2020-01-10T09:10:59Z</time>
      </trkpt>
      <trkpt lat="45.46241" lon="6.8833">
        <ele>2472.8</ele>
        <time>2020-01-10T09:11:02Z</time>
      </trkpt>
      <trkpt lat="45.46239" lon="6.88326">
        <ele>2472.8</ele>
        <time>2020-01-10T09:11:05Z</time>
      </trkpt>
      <trkpt lat="45.46238" lon="6.88323">
        <ele>2472.8</ele>
        <time>2020-01-10T09:11:08Z</time>
      </trkpt>
      <trkpt lat="45.46237" lon="6.8832">
        <ele>2472.8</ele>
        <time>2020-01-10T09:11:11Z</time>
      </trkpt>
      <trkpt lat="45.46236" lon="6.88316">
        <ele>2472.8</ele>
        <time>2020-01-10T09:11:14Z</time>
      </trkpt>
      <trkpt lat="45.46235" lon="6.88314">
        <ele>2472.8</ele>
        <time>2020-01-10T09:11:16Z</time>
      </trkpt>
      <trkpt lat="45.46234" lon="6.88311">
        <ele>2472.8</ele>
        <time>2020-01-10T09:11:18Z</time>
      </trkpt>
      <trkpt lat="45.46233" lon="6.88309">
        <ele>2472.8</ele>
        <time>2020-01-10T09:11:20Z</time>
      </trkpt>
      <trkpt lat="45.46233" lon="6.88305">
        <ele>2472.8</ele>
        <time>2020-01-10T09:11:23Z</time>
      </trkpt>
      <trkpt lat="45.46232" lon="6.88303">
        <ele>2472.8</ele>
        <time>2020-01-10T09:11:25Z</time>
      </trkpt>
      <trkpt lat="45.46231" lon="6.88301">
        <ele>2472.8</ele>
        <time>2020-01-10T09:11:27Z</time>
      </trkpt>
      <trkpt lat="45.4623" lon="6.88297">
        <ele>2472.8</ele>
        <time>2020-01-10T09:11:30Z</time>
      </trkpt>
      <trkpt lat="45.4623" lon="6.88294">
        <ele>2472.8</ele>
        <time>2020-01-10T09:11:33Z</time>
      </trkpt>
      <trkpt lat="45.46229" lon="6.8829">
        <ele>2472.8</ele>
        <time>2020-01-10T09:11:36Z</time>
      </trkpt>
      <trkpt lat="45.46229" lon="6.88287">
        <ele>2483.2</ele>
        <time>2020-01-10T09:11:39Z</time>
      </trkpt>
      <trkpt lat="45.46229" lon="6.88284">
        <ele>2483.2</ele>
        <time>2020-01-10T09:11:42Z</time>
      </trkpt>
      <trkpt lat="45.46229" lon="6.88281">
        <ele>2483.2</ele>
        <time>2020-01-10T09:11:45Z</time>
      </trkpt>
      <trkpt lat="45.46228" lon="6.88278">
        <ele>2483.2</ele>
        <time>2020-01-10T09:11:48Z</time>
      </trkpt>
      <trkpt lat="45.46227" lon="6.88274">
        <ele>2483.2</ele>
        <time>2020-01-10T09:11:51Z</time>
      </trkpt>
      <trkpt lat="45.46227" lon="6.88272">
        <ele>2483.2</ele>
        <time>2020-01-10T09:11:53Z</time>
      </trkpt>
      <trkpt lat="45.46226" lon="6.88268">
        <ele>2483.2</ele>
        <time>2020-01-10T09:11:56Z</time>
      </trkpt>
      <trkpt lat="45.46226" lon="6.88265">
        <ele>2487.6</ele>
        <time>2020-01-10T09:11:59Z</time>
      </trkpt>
      <trkpt lat="45.46225" lon="6.88263">
        <ele>2487.6</ele>
        <time>2020-01-10T09:12:01Z</time>
      </trkpt>
      <trkpt lat="45.46225" lon="6.8826">
        <ele>2487.6</ele>
        <time>2020-01-10T09:12:03Z</time>
      </trkpt>
      <trkpt lat="45.46224" lon="6.88256">
        <ele>2487.6</ele>
        <time>2020-01-10T09:12:06Z</time>
      </trkpt>
      <trkpt lat="45.46224" lon="6.88253">
        <ele>2490.4</ele>
        <time>2020-01-10T09:12:09Z</time>
      </trkpt>
      <trkpt lat="45.46224" lon="6.8825">
        <ele>2490.4</ele>
        <time>2020-01-10T09:12:12Z</time>
      </trkpt>
      <trkpt lat="45.46223" lon="6.88246">
        <ele>2490.4</ele>
        <time>2020-01-10T09:12:15Z</time>
      </trkpt>
      <trkpt lat="45.46223" lon="6.88243">
        <ele>2490.4</ele>
        <time>2020-01-10T09:12:18Z</time>
      </trkpt>
      <trkpt lat="45.46223" lon="6.8824">
        <ele>2490.4</ele>
        <time>2020-01-10T09:12:20Z</time>
      </trkpt>
      <trkpt lat="45.46223" lon="6.88237">
        <ele>2490.4</ele>
        <time>2020-01-10T09:12:22Z</time>
      </trkpt>
      <trkpt lat="45.46223" lon="6.88234">
        <ele>2490.4</ele>
        <time>2020-01-10T09:12:24Z</time>
      </trkpt>
      <trkpt lat="45.46223" lon="6.8823">
        <ele>2490.4</ele>
        <time>2020-01-10T09:12:27Z</time>
      </trkpt>
      <trkpt lat="45.46222" lon="6.88227">
        <ele>2490.4</ele>
        <time>2020-01-10T09:12:30Z</time>
      </trkpt>
      <trkpt lat="45.46222" lon="6.88224">
        <ele>2490.4</ele>
        <time>2020-01-10T09:12:33Z</time>
      </trkpt>
      <trkpt lat="45.46221" lon="6.8822">
        <ele>2490.4</ele>
        <time>2020-01-10T09:12:36Z</time>
      </trkpt>
      <trkpt lat="45.46221" lon="6.88217">
        <ele>2498.4</ele>
        <time>2020-01-10T09:12:39Z</time>
      </trkpt>
      <trkpt lat="45.4622" lon="6.88214">
        <ele>2498.4</ele>
        <time>2020-01-10T09:12:42Z</time>
      </trkpt>
      <trkpt lat="45.46219" lon="6.88211">
        <ele>2498.4</ele>
        <time>2020-01-10T09:12:45Z</time>
      </trkpt>
      <trkpt lat="45.46219" lon="6.88208">
        <ele>2498.4</ele>
        <time>2020-01-10T09:12:48Z</time>
      </trkpt>
      <trkpt lat="45.46218" lon="6.88205">
        <ele>2498.4</ele>
        <time>2020-01-10T09:12:51Z</time>
      </trkpt>
      <trkpt lat="45.46218" lon="6.88201">
        <ele>2498.4</ele>
        <time>2020-01-10T09:12:54Z</time>
      </trkpt>
      <trkpt lat="45.46218" lon="6.88198">
        <ele>2498.4</ele>
        <time>2020-01-10T09:12:57Z</time>
      </trkpt>
      <trkpt lat="45.46217" lon="6.88194">
        <ele>2498.4</ele>
        <time>2020-01-10T09:13:00Z</time>
      </trkpt>
      <trkpt lat="45.46217" lon="6.88191">
        <ele>2498.4</ele>
        <time>2020-01-10T09:13:03Z</time>
      </trkpt>
      <trkpt lat="45.46217" lon="6.88187">
        <ele>2498.4</ele>
        <time>2020-01-10T09:13:06Z</time>
      </trkpt>
      <trkpt lat="45.46217" lon="6.88184">
        <ele>2506.4</ele>
        <time>2020-01-10T09:13:09Z</time>
      </trkpt>
      <trkpt lat="45.46216" lon="6.8818">
        <ele>2506.4</ele>
        <time>2020-01-10T09:13:12Z</time>
      </trkpt>
      <trkpt lat="45.46215" lon="6.88177">
        <ele>2506.4</ele>
        <time>2020-01-10T09:13:15Z</time>
      </trkpt>
      <trkpt lat="45.46214" lon="6.88174">
        <ele>2506.4</ele>
        <time>2020-01-10T09:13:18Z</time>
      </trkpt>
      <trkpt lat="45.46214" lon="6.88171">
        <ele>2506.4</ele>
        <time>2020-01-10T09:13:20Z</time>
      </trkpt>
      <trkpt lat="45.46213" lon="6.88169">
        <ele>2506.4</ele>
        <time>2020-01-10T09:13:22Z</time>
      </trkpt>
      <trkpt lat="45.46213" lon="6.88165">
        <ele>2506.4</ele>
        <time>2020-01-10T09:13:25Z</time>
      </trkpt>
      <trkpt lat="45.46212" lon="6.88162">
        <ele>2506.4</ele>
        <time>2020-01-10T09:13:28Z</time>
      </trkpt>
      <trkpt lat="45.46211" lon="6.88158">
        <ele>2506.4</ele>
        <time>2020-01-10T09:13:31Z</time>
      </trkpt>
      <trkpt lat="45.46211" lon="6.88155">
        <ele>2506.4</ele>
        <time>2020-01-10T09:13:34Z</time>
      </trkpt>
      <trkpt lat="45.4621" lon="6.88152">
        <ele>2506.4</ele>
        <time>2020-01-10T09:13:36Z</time>
      </trkpt>
      <trkpt lat="45.4621" lon="6.8815">
        <ele>2506.4</ele>
        <time>2020-01-10T09:13:38Z</time>
      </trkpt>
      <trkpt lat="45.4621" lon="6.88146">
        <ele>2506.4</ele>
        <time>2020-01-10T09:13:41Z</time>
      </trkpt>
      <trkpt lat="45.4621" lon="6.88142">
        <ele>2506.4</ele>
        <time>2020-01-10T09:13:44Z</time>
      </trkpt>
      <trkpt lat="45.46209" lon="6.88139">
        <ele>2506.4</ele>
        <time>2020-01-10T09:13:47Z</time>
      </trkpt>
      <trkpt lat="45.46209" lon="6.88136">
        <ele>2506.4</ele>
        <time>2020-01-10T09:13:50Z</time>
      </trkpt>
      <trkpt lat="45.46209" lon="6.88132">
        <ele>2506.4</ele>
        <time>2020-01-10T09:13:53Z</time>
      </trkpt>
      <trkpt lat="45.46209" lon="6.88129">
        <ele>2506.4</ele>
        <time>2020-01-10T09:13:56Z</time>
      </trkpt>
      <trkpt lat="45.46208" lon="6.88126">
        <ele>2519.4</ele>
        <time>2020-01-10T09:13:59Z</time>
      </trkpt>
      <trkpt lat="45.46207" lon="6.88123">
        <ele>2519.4</ele>
        <time>2020-01-10T09:14:02Z</time>
      </trkpt>
      <trkpt lat="45.46207" lon="6.88119">
        <ele>2519.4</ele>
        <time>2020-01-10T09:14:05Z</time>
      </trkpt>
      <trkpt lat="45.46207" lon="6.88116">
        <ele>2519.4</ele>
        <time>2020-01-10T09:14:08Z</time>
      </trkpt>
      <trkpt lat="45.46206" lon="6.88113">
        <ele>2519.4</ele>
        <time>2020-01-10T09:14:11Z</time>
      </trkpt>
      <trkpt lat="45.46205" lon="6.8811">
        <ele>2519.4</ele>
        <time>2020-01-10T09:14:14Z</time>
      </trkpt>
      <trkpt lat="45.46205" lon="6.88107">
        <ele>2519.4</ele>
        <time>2020-01-10T09:14:17Z</time>
      </trkpt>
      <trkpt lat="45.46205" lon="6.88104">
        <ele>2519.4</ele>
        <time>2020-01-10T09:14:20Z</time>
      </trkpt>
      <trkpt lat="45.46204" lon="6.881">
        <ele>2519.4</ele>
        <time>2020-01-10T09:14:23Z</time>
      </trkpt>
      <trkpt lat="45.46204" lon="6.88097">
        <ele>2519.4</ele>
        <time>2020-01-10T09:14:25Z</time>
      </trkpt>
      <trkpt lat="45.46204" lon="6.88094">
        <ele>2519.4</ele>
        <time>2020-01-10T09:14:28Z</time>
      </trkpt>
      <trkpt lat="45.46204" lon="6.8809">
        <ele>2519.4</ele>
        <time>2020-01-10T09:14:31Z</time>
      </trkpt>
      <trkpt lat="45.46204" lon="6.88087">
        <ele>2519.4</ele>
        <time>2020-01-10T09:14:34Z</time>
      </trkpt>
      <trkpt lat="45.46203" lon="6.88083">
        <ele>2519.4</ele>
        <time>2020-01-10T09:14:37Z</time>
      </trkpt>
      <trkpt lat="45.46203" lon="6.8808">
        <ele>2519.4</ele>
        <time>2020-01-10T09:14:40Z</time>
      </trkpt>
      <trkpt lat="45.46202" lon="6.88076">
        <ele>2519.4</ele>
        <time>2020-01-10T09:14:43Z</time>
      </trkpt>
      <trkpt lat="45.46202" lon="6.88073">
        <ele>2519.4</ele>
        <time>2020-01-10T09:14:46Z</time>
      </trkpt>
      <trkpt lat="45.46202" lon="6.8807">
        <ele>2533</ele>
        <time>2020-01-10T09:14:49Z</time>
      </trkpt>
      <trkpt lat="45.46201" lon="6.88066">
        <ele>2533</ele>
        <time>2020-01-10T09:14:52Z</time>
      </trkpt>
      <trkpt lat="45.46201" lon="6.88063">
        <ele>2533</ele>
        <time>2020-01-10T09:14:54Z</time>
      </trkpt>
      <trkpt lat="45.46201" lon="6.88059">
        <ele>2533</ele>
        <time>2020-01-10T09:14:57Z</time>
      </trkpt>
      <trkpt lat="45.46201" lon="6.88055">
        <ele>2533</ele>
        <time>2020-01-10T09:15:00Z</time>
      </trkpt>
      <trkpt lat="45.46201" lon="6.88052">
        <ele>2533</ele>
        <time>2020-01-10T09:15:02Z</time>
      </trkpt>
      <trkpt lat="45.46202" lon="6.88049">
        <ele>2533</ele>
        <time>2020-01-10T09:15:05Z</time>
      </trkpt>
      <trkpt lat="45.46202" lon="6.88047">
        <ele>2533</ele>
        <time>2020-01-10T09:15:07Z</time>
      </trkpt>
      <trkpt lat="45.46203" lon="6.88044">
        <ele>2533</ele>
        <time>2020-01-10T09:15:10Z</time>
      </trkpt>
      <trkpt lat="45.46203" lon="6.88041">
        <ele>2533</ele>
        <time>2020-01-10T09:15:13Z</time>
      </trkpt>
      <trkpt lat="45.46203" lon="6.88038">
        <ele>2533</ele>
        <time>2020-01-10T09:15:16Z</time>
      </trkpt>
      <trkpt lat="45.46203" lon="6.88035">
        <ele>2533</ele>
        <time>2020-01-10T09:15:18Z</time>
      </trkpt>
      <trkpt lat="45.46203" lon="6.88032">
        <ele>2533</ele>
        <time>2020-01-10T09:15:21Z</time>
      </trkpt>
      <trkpt lat="45.46203" lon="6.88028">
        <ele>2533</ele>
        <time>2020-01-10T09:15:24Z</time>
      </trkpt>
      <trkpt lat="45.46204" lon="6.88025">
        <ele>2533</ele>
        <time>2020-01-10T09:15:26Z</time>
      </trkpt>
      <trkpt lat="45.46204" lon="6.88022">
        <ele>2544.8</ele>
        <time>2020-01-10T09:15:29Z</time>
      </trkpt>
      <trkpt lat="45.46205" lon="6.88019">
        <ele>2544.8</ele>
        <time>2020-01-10T09:15:31Z</time>
      </trkpt>
      <trkpt lat="45.46205" lon="6.88016">
        <ele>2544.8</ele>
        <time>2020-01-10T09:15:34Z</time>
      </trkpt>
      <trkpt lat="45.46206" lon="6.88013">
        <ele>2544.8</ele>
        <time>2020-01-10T09:15:37Z</time>
      </trkpt>
      <trkpt lat="45.46207" lon="6.8801">
        <ele>2544.8</ele>
        <time>2020-01-10T09:15:40Z</time>
      </trkpt>
      <trkpt lat="45.46207" lon="6.88006">
        <ele>2544.8</ele>
        <time>2020-01-10T09:15:43Z</time>
      </trkpt>
      <trkpt lat="45.46207" lon="6.88003">
        <ele>2544.8</ele>
        <time>2020-01-10T09:15:45Z</time>
      </trkpt>
      <trkpt lat="45.46207" lon="6.87999">
        <ele>2544.8</ele>
        <time>2020-01-10T09:15:48Z</time>
      </trkpt>
      <trkpt lat="45.46208" lon="6.87996">
        <ele>2544.8</ele>
        <time>2020-01-10T09:15:51Z</time>
      </trkpt>
      <trkpt lat="45.46208" lon="6.87992">
        <ele>2544.8</ele>
        <time>2020-01-10T09:15:53Z</time>
      </trkpt>
      <trkpt lat="45.46208" lon="6.8799">
        <ele>2544.8</ele>
        <time>2020-01-10T09:15:55Z</time>
      </trkpt>
      <trkpt lat="45.46208" lon="6.87986">
        <ele>2544.8</ele>
        <time>2020-01-10T09:15:58Z</time>
      </trkpt>
      <trkpt lat="45.46208" lon="6.87982">
        <ele>2544.8</ele>
        <time>2020-01-10T09:16:01Z</time>
      </trkpt>
      <trkpt lat="45.46208" lon="6.87979">
        <ele>2544.8</ele>
        <time>2020-01-10T09:16:03Z</time>
      </trkpt>
      <trkpt lat="45.46208" lon="6.87976">
        <ele>2544.8</ele>
        <time>2020-01-10T09:16:05Z</time>
      </trkpt>
      <trkpt lat="45.46208" lon="6.87973">
        <ele>2544.8</ele>
        <time>2020-01-10T09:16:07Z</time>
      </trkpt>
      <trkpt lat="45.46208" lon="6.8797">
        <ele>2555.2</ele>
        <time>2020-01-10T09:16:09Z</time>
      </trkpt>
      <trkpt lat="45.46209" lon="6.87967">
        <ele>2555.2</ele>
        <time>2020-01-10T09:16:11Z</time>
      </trkpt>
      <trkpt lat="45.46209" lon="6.87964">
        <ele>2555.2</ele>
        <time>2020-01-10T09:16:13Z</time>
      </trkpt>
      <trkpt lat="45.46209" lon="6.87961">
        <ele>2555.2</ele>
        <time>2020-01-10T09:16:15Z</time>
      </trkpt>
      <trkpt lat="45.46209" lon="6.87958">
        <ele>2555.2</ele>
        <time>2020-01-10T09:16:17Z</time>
      </trkpt>
      <trkpt lat="45.46209" lon="6.87955">
        <ele>2557.8</ele>
        <time>2020-01-10T09:16:19Z</time>
      </trkpt>
      <trkpt lat="45.46209" lon="6.87951">
        <ele>2557.8</ele>
        <time>2020-01-10T09:16:21Z</time>
      </trkpt>
      <trkpt lat="45.46208" lon="6.87948">
        <ele>2557.8</ele>
        <time>2020-01-10T09:16:23Z</time>
      </trkpt>
      <trkpt lat="45.46208" lon="6.87944">
        <ele>2557.8</ele>
        <time>2020-01-10T09:16:26Z</time>
      </trkpt>
      <trkpt lat="45.46207" lon="6.87941">
        <ele>2557.8</ele>
        <time>2020-01-10T09:16:28Z</time>
      </trkpt>
      <trkpt lat="45.46207" lon="6.87938">
        <ele>2557.8</ele>
        <time>2020-01-10T09:16:30Z</time>
      </trkpt>
      <trkpt lat="45.46205" lon="6.87936">
        <ele>2557.8</ele>
        <time>2020-01-10T09:16:33Z</time>
      </trkpt>
      <trkpt lat="45.46203" lon="6.87934">
        <ele>2557.8</ele>
        <time>2020-01-10T09:16:35Z</time>
      </trkpt>
      <trkpt lat="45.46202" lon="6.87932">
        <ele>2557.8</ele>
        <time>2020-01-10T09:16:37Z</time>
      </trkpt>
      <trkpt lat="45.462" lon="6.8793">
        <ele>2563</ele>
        <time>2020-01-10T09:16:39Z</time>
      </trkpt>
      <trkpt lat="45.46199" lon="6.87927">
        <ele>2563</ele>
        <time>2020-01-10T09:16:41Z</time>
      </trkpt>
      <trkpt lat="45.46198" lon="6.87925">
        <ele>2563</ele>
        <time>2020-01-10T09:16:43Z</time>
      </trkpt>
      <trkpt lat="45.46196" lon="6.87922">
        <ele>2563</ele>
        <time>2020-01-10T09:16:45Z</time>
      </trkpt>
      <trkpt lat="45.46195" lon="6.87919">
        <ele>2563</ele>
        <time>2020-01-10T09:16:47Z</time>
      </trkpt>
      <trkpt lat="45.46195" lon="6.87915">
        <ele>2564.8</ele>
        <time>2020-01-10T09:16:49Z</time>
      </trkpt>
      <trkpt lat="45.46193" lon="6.87912">
        <ele>2564.8</ele>
        <time>2020-01-10T09:16:51Z</time>
      </trkpt>
      <trkpt lat="45.46192" lon="6.87909">
        <ele>2564.8</ele>
        <time>2020-01-10T09:16:53Z</time>
      </trkpt>
      <trkpt lat="45.46191" lon="6.87907">
        <ele>2564.8</ele>
        <time>2020-01-10T09:16:55Z</time>
      </trkpt>
      <trkpt lat="45.46189" lon="6.87904">
        <ele>2564.8</ele>
        <time>2020-01-10T09:16:57Z</time>
      </trkpt>
      <trkpt lat="45.46188" lon="6.87901">
        <ele>2567.8</ele>
        <time>2020-01-10T09:16:59Z</time>
      </trkpt>
      <trkpt lat="45.46187" lon="6.87898">
        <ele>2567.8</ele>
        <time>2020-01-10T09:17:01Z</time>
      </trkpt>
      <trkpt lat="45.46185" lon="6.87895">
        <ele>2567.8</ele>
        <time>2020-01-10T09:17:03Z</time>
      </trkpt>
      <trkpt lat="45.46184" lon="6.87892">
        <ele>2567.8</ele>
        <time>2020-01-10T09:17:05Z</time>
      </trkpt>
      <trkpt lat="45.46183" lon="6.87888">
        <ele>2567.8</ele>
        <time>2020-01-10T09:17:07Z</time>
      </trkpt>
      <trkpt lat="45.46181" lon="6.87885">
        <ele>2570</ele>
        <time>2020-01-10T09:17:09Z</time>
      </trkpt>
      <trkpt lat="45.4618" lon="6.87881">
        <ele>2570</ele>
        <time>2020-01-10T09:17:11Z</time>
      </trkpt>
      <trkpt lat="45.4618" lon="6.87878">
        <ele>2570</ele>
        <time>2020-01-10T09:17:13Z</time>
      </trkpt>
      <trkpt lat="45.46179" lon="6.87874">
        <ele>2570</ele>
        <time>2020-01-10T09:17:15Z</time>
      </trkpt>
      <trkpt lat="45.46178" lon="6.87871">
        <ele>2570</ele>
        <time>2020-01-10T09:17:17Z</time>
      </trkpt>
      <trkpt lat="45.46176" lon="6.87868">
        <ele>2571.6</ele>
        <time>2020-01-10T09:17:19Z</time>
      </trkpt>
      <trkpt lat="45.46175" lon="6.87864">
        <ele>2571.6</ele>
        <time>2020-01-10T09:17:21Z</time>
      </trkpt>
      <trkpt lat="45.46174" lon="6.8786">
        <ele>2571.6</ele>
        <time>2020-01-10T09:17:23Z</time>
      </trkpt>
      <trkpt lat="45.46173" lon="6.87856">
        <ele>2571.6</ele>
        <time>2020-01-10T09:17:25Z</time>
      </trkpt>
      <trkpt lat="45.46172" lon="6.87852">
        <ele>2571.6</ele>
        <time>2020-01-10T09:17:27Z</time>
      </trkpt>
      <trkpt lat="45.46171" lon="6.87849">
        <ele>2572.8</ele>
        <time>2020-01-10T09:17:29Z</time>
      </trkpt>
      <trkpt lat="45.46171" lon="6.87846">
        <ele>2572.8</ele>
        <time>2020-01-10T09:17:31Z</time>
      </trkpt>
      <trkpt lat="45.46169" lon="6.87842">
        <ele>2572.8</ele>
        <time>2020-01-10T09:17:33Z</time>
      </trkpt>
      <trkpt lat="45.46169" lon="6.8784">
        <ele>2572.8</ele>
        <time>2020-01-10T09:17:35Z</time>
      </trkpt>
      <trkpt lat="45.46168" lon="6.87836">
        <ele>2572.8</ele>
        <time>2020-01-10T09:17:37Z</time>
      </trkpt>
      <trkpt lat="45.46167" lon="6.87833">
        <ele>2574.4</ele>
        <time>2020-01-10T09:17:39Z</time>
      </trkpt>
      <trkpt lat="45.46166" lon="6.87831">
        <ele>2574.4</ele>
        <time>2020-01-10T09:17:41Z</time>
      </trkpt>
      <trkpt lat="45.46165" lon="6.87827">
        <ele>2574.4</ele>
        <time>2020-01-10T09:17:43Z</time>
      </trkpt>
      <trkpt lat="45.46164" lon="6.87823">
        <ele>2574.4</ele>
        <time>2020-01-10T09:17:46Z</time>
      </trkpt>
      <trkpt lat="45.46163" lon="6.8782">
        <ele>2574.4</ele>
        <time>2020-01-10T09:17:48Z</time>
      </trkpt>
      <trkpt lat="45.46163" lon="6.87816">
        <ele>2574.4</ele>
        <time>2020-01-10T09:17:51Z</time>
      </trkpt>
      <trkpt lat="45.46162" lon="6.87814">
        <ele>2574.4</ele>
        <time>2020-01-10T09:17:53Z</time>
      </trkpt>
      <trkpt lat="45.46161" lon="6.87811">
        <ele>2574.4</ele>
        <time>2020-01-10T09:17:55Z</time>
      </trkpt>
      <trkpt lat="45.46161" lon="6.87808">
        <ele>2574.4</ele>
        <time>2020-01-10T09:17:57Z</time>
      </trkpt>
      <trkpt lat="45.4616" lon="6.87804">
        <ele>2574.4</ele>
        <time>2020-01-10T09:18:00Z</time>
      </trkpt>
      <trkpt lat="45.46159" lon="6.87802">
        <ele>2574.4</ele>
        <time>2020-01-10T09:18:02Z</time>
      </trkpt>
      <trkpt lat="45.46159" lon="6.87798">
        <ele>2574.4</ele>
        <time>2020-01-10T09:18:05Z</time>
      </trkpt>
      <trkpt lat="45.46158" lon="6.87795">
        <ele>2574.4</ele>
        <time>2020-01-10T09:18:07Z</time>
      </trkpt>
      <trkpt lat="45.46157" lon="6.87792">
        <ele>2574.4</ele>
        <time>2020-01-10T09:18:10Z</time>
      </trkpt>
      <trkpt lat="45.46156" lon="6.87789">
        <ele>2574.4</ele>
        <time>2020-01-10T09:18:12Z</time>
      </trkpt>
      <trkpt lat="45.46156" lon="6.87787">
        <ele>2574.4</ele>
        <time>2020-01-10T09:18:14Z</time>
      </trkpt>
      <trkpt lat="45.46155" lon="6.87784">
        <ele>2574.4</ele>
        <time>2020-01-10T09:18:16Z</time>
      </trkpt>
      <trkpt lat="45.46155" lon="6.8778">
        <ele>2584</ele>
        <time>2020-01-10T09:18:19Z</time>
      </trkpt>
      <trkpt lat="45.46154" lon="6.87777">
        <ele>2584</ele>
        <time>2020-01-10T09:18:21Z</time>
      </trkpt>
      <trkpt lat="45.46154" lon="6.87774">
        <ele>2584</ele>
        <time>2020-01-10T09:18:23Z</time>
      </trkpt>
      <trkpt lat="45.46153" lon="6.87772">
        <ele>2584</ele>
        <time>2020-01-10T09:18:25Z</time>
      </trkpt>
      <trkpt lat="45.46153" lon="6.87768">
        <ele>2584</ele>
        <time>2020-01-10T09:18:28Z</time>
      </trkpt>
      <trkpt lat="45.46152" lon="6.87765">
        <ele>2584</ele>
        <time>2020-01-10T09:18:31Z</time>
      </trkpt>
      <trkpt lat="45.46152" lon="6.87762">
        <ele>2584</ele>
        <time>2020-01-10T09:18:33Z</time>
      </trkpt>
      <trkpt lat="45.46152" lon="6.87758">
        <ele>2584</ele>
        <time>2020-01-10T09:18:36Z</time>
      </trkpt>
      <trkpt lat="45.46151" lon="6.87755">
        <ele>2588.8</ele>
        <time>2020-01-10T09:18:39Z</time>
      </trkpt>
      <trkpt lat="45.46151" lon="6.87751">
        <ele>2588.8</ele>
        <time>2020-01-10T09:18:42Z</time>
      </trkpt>
      <trkpt lat="45.46151" lon="6.87747">
        <ele>2588.8</ele>
        <time>2020-01-10T09:18:45Z</time>
      </trkpt>
      <trkpt lat="45.46151" lon="6.87744">
        <ele>2588.8</ele>
        <time>2020-01-10T09:18:47Z</time>
      </trkpt>
      <trkpt lat="45.4615" lon="6.8774">
        <ele>2588.8</ele>
        <time>2020-01-10T09:18:50Z</time>
      </trkpt>
      <trkpt lat="45.4615" lon="6.87737">
        <ele>2588.8</ele>
        <time>2020-01-10T09:18:53Z</time>
      </trkpt>
      <trkpt lat="45.46149" lon="6.87733">
        <ele>2588.8</ele>
        <time>2020-01-10T09:18:56Z</time>
      </trkpt>
      <trkpt lat="45.46149" lon="6.8773">
        <ele>2588.8</ele>
        <time>2020-01-10T09:18:58Z</time>
      </trkpt>
      <trkpt lat="45.46149" lon="6.87727">
        <ele>2588.8</ele>
        <time>2020-01-10T09:19:01Z</time>
      </trkpt>
      <trkpt lat="45.46149" lon="6.87723">
        <ele>2588.8</ele>
        <time>2020-01-10T09:19:04Z</time>
      </trkpt>
      <trkpt lat="45.46149" lon="6.87721">
        <ele>2588.8</ele>
        <time>2020-01-10T09:19:06Z</time>
      </trkpt>
      <trkpt lat="45.46149" lon="6.87718">
        <ele>2588.8</ele>
        <time>2020-01-10T09:19:08Z</time>
      </trkpt>
      <trkpt lat="45.46149" lon="6.87715">
        <ele>2588.8</ele>
        <time>2020-01-10T09:19:10Z</time>
      </trkpt>
      <trkpt lat="45.46149" lon="6.87712">
        <ele>2588.8</ele>
        <time>2020-01-10T09:19:12Z</time>
      </trkpt>
      <trkpt lat="45.46149" lon="6.87708">
        <ele>2588.8</ele>
        <time>2020-01-10T09:19:15Z</time>
      </trkpt>
      <trkpt lat="45.46149" lon="6.87706">
        <ele>2588.8</ele>
        <time>2020-01-10T09:19:17Z</time>
      </trkpt>
      <trkpt lat="45.46149" lon="6.87702">
        <ele>2588.8</ele>
        <time>2020-01-10T09:19:20Z</time>
      </trkpt>
      <trkpt lat="45.46149" lon="6.87698">
        <ele>2588.8</ele>
        <time>2020-01-10T09:19:23Z</time>
      </trkpt>
      <trkpt lat="45.46149" lon="6.87694">
        <ele>2588.8</ele>
        <time>2020-01-10T09:19:26Z</time>
      </trkpt>
      <trkpt lat="45.46149" lon="6.87691">
        <ele>2601.4</ele>
        <time>2020-01-10T09:19:29Z</time>
      </trkpt>
      <trkpt lat="45.46148" lon="6.87688">
        <ele>2601.4</ele>
        <time>2020-01-10T09:19:32Z</time>
      </trkpt>
      <trkpt lat="45.46148" lon="6.87684">
        <ele>2601.4</ele>
        <time>2020-01-10T09:19:35Z</time>
      </trkpt>
      <trkpt lat="45.46147" lon="6.87681">
        <ele>2601.4</ele>
        <time>2020-01-10T09:19:37Z</time>
      </trkpt>
      <trkpt lat="45.46147" lon="6.87678">
        <ele>2601.4</ele>
        <time>2020-01-10T09:19:40Z</time>
      </trkpt>
      <trkpt lat="45.46147" lon="6.87675">
        <ele>2601.4</ele>
        <time>2020-01-10T09:19:42Z</time>
      </trkpt>
      <trkpt lat="45.46147" lon="6.87672">
        <ele>2601.4</ele>
        <time>2020-01-10T09:19:45Z</time>
      </trkpt>
      <trkpt lat="45.46146" lon="6.87669">
        <ele>2601.4</ele>
        <time>2020-01-10T09:19:48Z</time>
      </trkpt>
      <trkpt lat="45.46145" lon="6.87666">
        <ele>2601.4</ele>
        <time>2020-01-10T09:19:50Z</time>
      </trkpt>
      <trkpt lat="45.46144" lon="6.87664">
        <ele>2601.4</ele>
        <time>2020-01-10T09:19:53Z</time>
      </trkpt>
      <trkpt lat="45.46143" lon="6.87661">
        <ele>2601.4</ele>
        <time>2020-01-10T09:19:56Z</time>
      </trkpt>
      <trkpt lat="45.46142" lon="6.87658">
        <ele>2609.8</ele>
        <time>2020-01-10T09:19:59Z</time>
      </trkpt>
      <trkpt lat="45.46141" lon="6.87654">
        <ele>2609.8</ele>
        <time>2020-01-10T09:20:02Z</time>
      </trkpt>
      <trkpt lat="45.4614" lon="6.87652">
        <ele>2609.8</ele>
        <time>2020-01-10T09:20:05Z</time>
      </trkpt>
      <trkpt lat="45.46139" lon="6.87649">
        <ele>2609.8</ele>
        <time>2020-01-10T09:20:08Z</time>
      </trkpt>
      <trkpt lat="45.46138" lon="6.87647">
        <ele>2609.8</ele>
        <time>2020-01-10T09:20:10Z</time>
      </trkpt>
      <trkpt lat="45.46136" lon="6.87645">
        <ele>2609.8</ele>
        <time>2020-01-10T09:20:13Z</time>
      </trkpt>
      <trkpt lat="45.46134" lon="6.87644">
        <ele>2609.8</ele>
        <time>2020-01-10T09:20:16Z</time>
      </trkpt>
      <trkpt lat="45.46132" lon="6.87641">
        <ele>2609.8</ele>
        <time>2020-01-10T09:20:21Z</time>
      </trkpt>
      <trkpt lat="45.4613" lon="6.87638">
        <ele>2609.8</ele>
        <time>2020-01-10T09:20:24Z</time>
      </trkpt>
      <trkpt lat="45.46128" lon="6.87636">
        <ele>2609.8</ele>
        <time>2020-01-10T09:20:27Z</time>
      </trkpt>
      <trkpt lat="45.46126" lon="6.87633">
        <ele>2609.8</ele>
        <time>2020-01-10T09:20:30Z</time>
      </trkpt>
      <trkpt lat="45.46125" lon="6.87631">
        <ele>2609.8</ele>
        <time>2020-01-10T09:20:33Z</time>
      </trkpt>
      <trkpt lat="45.46124" lon="6.87629">
        <ele>2609.8</ele>
        <time>2020-01-10T09:20:35Z</time>
      </trkpt>
      <trkpt lat="45.46122" lon="6.87627">
        <ele>2609.8</ele>
        <time>2020-01-10T09:20:37Z</time>
      </trkpt>
      <trkpt lat="45.4612" lon="6.87625">
        <ele>2609.8</ele>
        <time>2020-01-10T09:20:40Z</time>
      </trkpt>
      <trkpt lat="45.46118" lon="6.87623">
        <ele>2609.8</ele>
        <time>2020-01-10T09:20:42Z</time>
      </trkpt>
      <trkpt lat="45.46117" lon="6.8762">
        <ele>2609.8</ele>
        <time>2020-01-10T09:20:45Z</time>
      </trkpt>
      <trkpt lat="45.46116" lon="6.87618">
        <ele>2609.8</ele>
        <time>2020-01-10T09:20:48Z</time>
      </trkpt>
      <trkpt lat="45.46114" lon="6.87616">
        <ele>2609.8</ele>
        <time>2020-01-10T09:20:50Z</time>
      </trkpt>
      <trkpt lat="45.46112" lon="6.87615">
        <ele>2609.8</ele>
        <time>2020-01-10T09:20:53Z</time>
      </trkpt>
      <trkpt lat="45.4611" lon="6.87614">
        <ele>2609.8</ele>
        <time>2020-01-10T09:20:56Z</time>
      </trkpt>
      <trkpt lat="45.46108" lon="6.87612">
        <ele>2627</ele>
        <time>2020-01-10T09:20:59Z</time>
      </trkpt>
      <trkpt lat="45.46107" lon="6.87611">
        <ele>2627</ele>
        <time>2020-01-10T09:21:01Z</time>
      </trkpt>
      <trkpt lat="45.46105" lon="6.87609">
        <ele>2627</ele>
        <time>2020-01-10T09:21:04Z</time>
      </trkpt>
      <trkpt lat="45.46104" lon="6.87607">
        <ele>2627</ele>
        <time>2020-01-10T09:21:06Z</time>
      </trkpt>
      <trkpt lat="45.46102" lon="6.87605">
        <ele>2627</ele>
        <time>2020-01-10T09:21:08Z</time>
      </trkpt>
      <trkpt lat="45.461" lon="6.87602">
        <ele>2627</ele>
        <time>2020-01-10T09:21:11Z</time>
      </trkpt>
      <trkpt lat="45.461" lon="6.87598">
        <ele>2627</ele>
        <time>2020-01-10T09:21:14Z</time>
      </trkpt>
      <trkpt lat="45.46098" lon="6.87596">
        <ele>2627</ele>
        <time>2020-01-10T09:21:16Z</time>
      </trkpt>
      <trkpt lat="45.46098" lon="6.87593">
        <ele>2627</ele>
        <time>2020-01-10T09:21:18Z</time>
      </trkpt>
      <trkpt lat="45.46097" lon="6.8759">
        <ele>2627</ele>
        <time>2020-01-10T09:21:20Z</time>
      </trkpt>
      <trkpt lat="45.46096" lon="6.87587">
        <ele>2627</ele>
        <time>2020-01-10T09:21:22Z</time>
      </trkpt>
      <trkpt lat="45.46096" lon="6.87584">
        <ele>2627</ele>
        <time>2020-01-10T09:21:24Z</time>
      </trkpt>
      <trkpt lat="45.46095" lon="6.87582">
        <ele>2627</ele>
        <time>2020-01-10T09:21:26Z</time>
      </trkpt>
      <trkpt lat="45.46093" lon="6.87578">
        <ele>2633.8</ele>
        <time>2020-01-10T09:21:29Z</time>
      </trkpt>
      <trkpt lat="45.46092" lon="6.87576">
        <ele>2633.8</ele>
        <time>2020-01-10T09:21:31Z</time>
      </trkpt>
      <trkpt lat="45.46092" lon="6.87573">
        <ele>2633.8</ele>
        <time>2020-01-10T09:21:33Z</time>
      </trkpt>
      <trkpt lat="45.4609" lon="6.8757">
        <ele>2633.8</ele>
        <time>2020-01-10T09:21:36Z</time>
      </trkpt>
      <trkpt lat="45.46089" lon="6.87568">
        <ele>2633.8</ele>
        <time>2020-01-10T09:21:38Z</time>
      </trkpt>
      <trkpt lat="45.46087" lon="6.87565">
        <ele>2633.8</ele>
        <time>2020-01-10T09:21:40Z</time>
      </trkpt>
      <trkpt lat="45.46086" lon="6.87563">
        <ele>2633.8</ele>
        <time>2020-01-10T09:21:42Z</time>
      </trkpt>
      <trkpt lat="45.46084" lon="6.87561">
        <ele>2633.8</ele>
        <time>2020-01-10T09:21:44Z</time>
      </trkpt>
      <trkpt lat="45.46082" lon="6.87558">
        <ele>2633.8</ele>
        <time>2020-01-10T09:21:47Z</time>
      </trkpt>
      <trkpt lat="45.46081" lon="6.87555">
        <ele>2638.8</ele>
        <time>2020-01-10T09:21:49Z</time>
      </trkpt>
      <trkpt lat="45.4608" lon="6.87553">
        <ele>2638.8</ele>
        <time>2020-01-10T09:21:51Z</time>
      </trkpt>
      <trkpt lat="45.46078" lon="6.87552">
        <ele>2638.8</ele>
        <time>2020-01-10T09:21:53Z</time>
      </trkpt>
      <trkpt lat="45.46076" lon="6.8755">
        <ele>2638.8</ele>
        <time>2020-01-10T09:21:55Z</time>
      </trkpt>
      <trkpt lat="45.46074" lon="6.87548">
        <ele>2638.8</ele>
        <time>2020-01-10T09:21:58Z</time>
      </trkpt>
      <trkpt lat="45.46072" lon="6.87547">
        <ele>2638.8</ele>
        <time>2020-01-10T09:22:00Z</time>
      </trkpt>
      <trkpt lat="45.4607" lon="6.87544">
        <ele>2638.8</ele>
        <time>2020-01-10T09:22:02Z</time>
      </trkpt>
      <trkpt lat="45.46068" lon="6.87542">
        <ele>2638.8</ele>
        <time>2020-01-10T09:22:04Z</time>
      </trkpt>
      <trkpt lat="45.46067" lon="6.8754">
        <ele>2638.8</ele>
        <time>2020-01-10T09:22:06Z</time>
      </trkpt>
      <trkpt lat="45.46065" lon="6.87538">
        <ele>2638.8</ele>
        <time>2020-01-10T09:22:08Z</time>
      </trkpt>
      <trkpt lat="45.46063" lon="6.87537">
        <ele>2638.8</ele>
        <time>2020-01-10T09:22:10Z</time>
      </trkpt>
      <trkpt lat="45.46061" lon="6.87535">
        <ele>2638.8</ele>
        <time>2020-01-10T09:22:12Z</time>
      </trkpt>
      <trkpt lat="45.4606" lon="6.87533">
        <ele>2638.8</ele>
        <time>2020-01-10T09:22:14Z</time>
      </trkpt>
      <trkpt lat="45.46058" lon="6.87531">
        <ele>2638.8</ele>
        <time>2020-01-10T09:22:16Z</time>
      </trkpt>
      <trkpt lat="45.46056" lon="6.87529">
        <ele>2638.8</ele>
        <time>2020-01-10T09:22:18Z</time>
      </trkpt>
      <trkpt lat="45.46054" lon="6.87527">
        <ele>2638.8</ele>
        <time>2020-01-10T09:22:20Z</time>
      </trkpt>
      <trkpt lat="45.46052" lon="6.87524">
        <ele>2638.8</ele>
        <time>2020-01-10T09:22:22Z</time>
      </trkpt>
      <trkpt lat="45.4605" lon="6.87522">
        <ele>2638.8</ele>
        <time>2020-01-10T09:22:24Z</time>
      </trkpt>
      <trkpt lat="45.46048" lon="6.87519">
        <ele>2638.8</ele>
        <time>2020-01-10T09:22:26Z</time>
      </trkpt>
      <trkpt lat="45.46046" lon="6.87516">
        <ele>2638.8</ele>
        <time>2020-01-10T09:22:28Z</time>
      </trkpt>
      <trkpt lat="45.46044" lon="6.87514">
        <ele>2638.8</ele>
        <time>2020-01-10T09:22:30Z</time>
      </trkpt>
      <trkpt lat="45.46042" lon="6.87511">
        <ele>2638.8</ele>
        <time>2020-01-10T09:22:32Z</time>
      </trkpt>
      <trkpt lat="45.4604" lon="6.87508">
        <ele>2638.8</ele>
        <time>2020-01-10T09:22:34Z</time>
      </trkpt>
      <trkpt lat="45.46038" lon="6.87506">
        <ele>2638.8</ele>
        <time>2020-01-10T09:22:36Z</time>
      </trkpt>
      <trkpt lat="45.46036" lon="6.87502">
        <ele>2638.8</ele>
        <time>2020-01-10T09:22:38Z</time>
      </trkpt>
      <trkpt lat="45.46035" lon="6.875">
        <ele>2638.8</ele>
        <time>2020-01-10T09:22:40Z</time>
      </trkpt>
      <trkpt lat="45.46032" lon="6.87498">
        <ele>2638.8</ele>
        <time>2020-01-10T09:22:42Z</time>
      </trkpt>
      <trkpt lat="45.4603" lon="6.87496">
        <ele>2638.8</ele>
        <time>2020-01-10T09:22:44Z</time>
      </trkpt>
      <trkpt lat="45.46028" lon="6.87493">
        <ele>2638.8</ele>
        <time>2020-01-10T09:22:46Z</time>
      </trkpt>
      <trkpt lat="45.46027" lon="6.8749">
        <ele>2638.8</ele>
        <time>2020-01-10T09:22:48Z</time>
      </trkpt>
      <trkpt lat="45.46025" lon="6.87487">
        <ele>2638.8</ele>
        <time>2020-01-10T09:22:50Z</time>
      </trkpt>
      <trkpt lat="45.46023" lon="6.87484">
        <ele>2638.8</ele>
        <time>2020-01-10T09:22:52Z</time>
      </trkpt>
      <trkpt lat="45.46021" lon="6.87481">
        <ele>2638.8</ele>
        <time>2020-01-10T09:22:54Z</time>
      </trkpt>
      <trkpt lat="45.46019" lon="6.87478">
        <ele>2638.8</ele>
        <time>2020-01-10T09:22:56Z</time>
      </trkpt>
      <trkpt lat="45.46017" lon="6.87476">
        <ele>2638.8</ele>
        <time>2020-01-10T09:22:58Z</time>
      </trkpt>
      <trkpt lat="45.46015" lon="6.87474">
        <ele>2651.4</ele>
        <time>2020-01-10T09:22:59Z</time>
      </trkpt>
      <trkpt lat="45.46013" lon="6.87471">
        <ele>2651.4</ele>
        <time>2020-01-10T09:23:01Z</time>
      </trkpt>
      <trkpt lat="45.46011" lon="6.87468">
        <ele>2651.4</ele>
        <time>2020-01-10T09:23:03Z</time>
      </trkpt>
      <trkpt lat="45.4601" lon="6.87465">
        <ele>2651.4</ele>
        <time>2020-01-10T09:23:05Z</time>
      </trkpt>
      <trkpt lat="45.46008" lon="6.87463">
        <ele>2651.4</ele>
        <time>2020-01-10T09:23:06Z</time>
      </trkpt>
      <trkpt lat="45.46006" lon="6.8746">
        <ele>2651.4</ele>
        <time>2020-01-10T09:23:08Z</time>
      </trkpt>
      <trkpt lat="45.46004" lon="6.87457">
        <ele>2651.4</ele>
        <time>2020-01-10T09:23:10Z</time>
      </trkpt>
      <trkpt lat="45.46002" lon="6.87455">
        <ele>2651.4</ele>
        <time>2020-01-10T09:23:12Z</time>
      </trkpt>
      <trkpt lat="45.46" lon="6.87452">
        <ele>2651.4</ele>
        <time>2020-01-10T09:23:14Z</time>
      </trkpt>
      <trkpt lat="45.45998" lon="6.8745">
        <ele>2651.4</ele>
        <time>2020-01-10T09:23:16Z</time>
      </trkpt>
      <trkpt lat="45.45996" lon="6.87447">
        <ele>2651.4</ele>
        <time>2020-01-10T09:23:18Z</time>
      </trkpt>
      <trkpt lat="45.45995" lon="6.87444">
        <ele>2651.4</ele>
        <time>2020-01-10T09:23:20Z</time>
      </trkpt>
      <trkpt lat="45.45993" lon="6.87442">
        <ele>2651.4</ele>
        <time>2020-01-10T09:23:22Z</time>
      </trkpt>
      <trkpt lat="45.45991" lon="6.87439">
        <ele>2651.4</ele>
        <time>2020-01-10T09:23:24Z</time>
      </trkpt>
      <trkpt lat="45.4599" lon="6.87436">
        <ele>2651.4</ele>
        <time>2020-01-10T09:23:26Z</time>
      </trkpt>
      <trkpt lat="45.45988" lon="6.87434">
        <ele>2651.4</ele>
        <time>2020-01-10T09:23:28Z</time>
      </trkpt>
      <trkpt lat="45.45987" lon="6.87431">
        <ele>2651.4</ele>
        <time>2020-01-10T09:23:30Z</time>
      </trkpt>
      <trkpt lat="45.45985" lon="6.87428">
        <ele>2651.4</ele>
        <time>2020-01-10T09:23:32Z</time>
      </trkpt>
      <trkpt lat="45.45984" lon="6.87425">
        <ele>2651.4</ele>
        <time>2020-01-10T09:23:34Z</time>
      </trkpt>
      <trkpt lat="45.45982" lon="6.87422">
        <ele>2651.4</ele>
        <time>2020-01-10T09:23:36Z</time>
      </trkpt>
      <trkpt lat="45.45981" lon="6.8742">
        <ele>2651.4</ele>
        <time>2020-01-10T09:23:38Z</time>
      </trkpt>
      <trkpt lat="45.4598" lon="6.87416">
        <ele>2651.4</ele>
        <time>2020-01-10T09:23:44Z</time>
      </trkpt>
      <trkpt lat="45.45979" lon="6.87413">
        <ele>2651.4</ele>
        <time>2020-01-10T09:23:46Z</time>
      </trkpt>
      <trkpt lat="45.45978" lon="6.87409">
        <ele>2651.4</ele>
        <time>2020-01-10T09:23:48Z</time>
      </trkpt>
      <trkpt lat="45.45977" lon="6.87406">
        <ele>2651.4</ele>
        <time>2020-01-10T09:23:50Z</time>
      </trkpt>
      <trkpt lat="45.45976" lon="6.87402">
        <ele>2651.4</ele>
        <time>2020-01-10T09:23:52Z</time>
      </trkpt>
      <trkpt lat="45.45974" lon="6.87399">
        <ele>2651.4</ele>
        <time>2020-01-10T09:23:54Z</time>
      </trkpt>
      <trkpt lat="45.45973" lon="6.87395">
        <ele>2651.4</ele>
        <time>2020-01-10T09:23:56Z</time>
      </trkpt>
      <trkpt lat="45.45972" lon="6.87392">
        <ele>2651.4</ele>
        <time>2020-01-10T09:23:58Z</time>
      </trkpt>
      <trkpt lat="45.45971" lon="6.87388">
        <ele>2651.4</ele>
        <time>2020-01-10T09:24:00Z</time>
      </trkpt>
      <trkpt lat="45.4597" lon="6.87385">
        <ele>2651.4</ele>
        <time>2020-01-10T09:24:02Z</time>
      </trkpt>
      <trkpt lat="45.45969" lon="6.87381">
        <ele>2651.4</ele>
        <time>2020-01-10T09:24:04Z</time>
      </trkpt>
      <trkpt lat="45.45967" lon="6.87378">
        <ele>2651.4</ele>
        <time>2020-01-10T09:24:06Z</time>
      </trkpt>
      <trkpt lat="45.45967" lon="6.87374">
        <ele>2651.4</ele>
        <time>2020-01-10T09:24:08Z</time>
      </trkpt>
      <trkpt lat="45.45965" lon="6.87371">
        <ele>2651.4</ele>
        <time>2020-01-10T09:24:10Z</time>
      </trkpt>
      <trkpt lat="45.45965" lon="6.87368">
        <ele>2651.4</ele>
        <time>2020-01-10T09:24:12Z</time>
      </trkpt>
      <trkpt lat="45.45963" lon="6.87364">
        <ele>2651.4</ele>
        <time>2020-01-10T09:24:14Z</time>
      </trkpt>
      <trkpt lat="45.45962" lon="6.87361">
        <ele>2651.4</ele>
        <time>2020-01-10T09:24:16Z</time>
      </trkpt>
      <trkpt lat="45.45961" lon="6.87358">
        <ele>2651.4</ele>
        <time>2020-01-10T09:24:18Z</time>
      </trkpt>
      <trkpt lat="45.45959" lon="6.87354">
        <ele>2651.4</ele>
        <time>2020-01-10T09:24:20Z</time>
      </trkpt>
      <trkpt lat="45.45958" lon="6.87352">
        <ele>2651.4</ele>
        <time>2020-01-10T09:24:22Z</time>
      </trkpt>
      <trkpt lat="45.45957" lon="6.87349">
        <ele>2651.4</ele>
        <time>2020-01-10T09:24:24Z</time>
      </trkpt>
      <trkpt lat="45.45956" lon="6.87346">
        <ele>2651.4</ele>
        <time>2020-01-10T09:24:26Z</time>
      </trkpt>
      <trkpt lat="45.45955" lon="6.87343">
        <ele>2651.4</ele>
        <time>2020-01-10T09:24:28Z</time>
      </trkpt>
      <trkpt lat="45.45953" lon="6.8734">
        <ele>2651.4</ele>
        <time>2020-01-10T09:24:30Z</time>
      </trkpt>
      <trkpt lat="45.45951" lon="6.87336">
        <ele>2651.4</ele>
        <time>2020-01-10T09:24:32Z</time>
      </trkpt>
      <trkpt lat="45.45949" lon="6.87333">
        <ele>2651.4</ele>
        <time>2020-01-10T09:24:34Z</time>
      </trkpt>
      <trkpt lat="45.45949" lon="6.87329">
        <ele>2651.4</ele>
        <time>2020-01-10T09:24:36Z</time>
      </trkpt>
      <trkpt lat="45.45948" lon="6.87325">
        <ele>2651.4</ele>
        <time>2020-01-10T09:24:38Z</time>
      </trkpt>
      <trkpt lat="45.45947" lon="6.87322">
        <ele>2651.4</ele>
        <time>2020-01-10T09:24:40Z</time>
      </trkpt>
      <trkpt lat="45.45946" lon="6.87318">
        <ele>2651.4</ele>
        <time>2020-01-10T09:24:42Z</time>
      </trkpt>
      <trkpt lat="45.45945" lon="6.87314">
        <ele>2651.4</ele>
        <time>2020-01-10T09:24:44Z</time>
      </trkpt>
      <trkpt lat="45.45944" lon="6.8731">
        <ele>2651.4</ele>
        <time>2020-01-10T09:24:46Z</time>
      </trkpt>
      <trkpt lat="45.45943" lon="6.87307">
        <ele>2651.4</ele>
        <time>2020-01-10T09:24:48Z</time>
      </trkpt>
      <trkpt lat="45.45943" lon="6.87303">
        <ele>2651.4</ele>
        <time>2020-01-10T09:24:50Z</time>
      </trkpt>
      <trkpt lat="45.45941" lon="6.87301">
        <ele>2651.4</ele>
        <time>2020-01-10T09:24:52Z</time>
      </trkpt>
      <trkpt lat="45.45941" lon="6.87298">
        <ele>2651.4</ele>
        <time>2020-01-10T09:24:54Z</time>
      </trkpt>
      <trkpt lat="45.4594" lon="6.87294">
        <ele>2651.4</ele>
        <time>2020-01-10T09:24:56Z</time>
      </trkpt>
      <trkpt lat="45.45939" lon="6.8729">
        <ele>2651.4</ele>
        <time>2020-01-10T09:24:58Z</time>
      </trkpt>
      <trkpt lat="45.45939" lon="6.87286">
        <ele>2651.4</ele>
        <time>2020-01-10T09:25:00Z</time>
      </trkpt>
      <trkpt lat="45.45939" lon="6.87282">
        <ele>2651.4</ele>
        <time>2020-01-10T09:25:02Z</time>
      </trkpt>
      <trkpt lat="45.45939" lon="6.87278">
        <ele>2651.4</ele>
        <time>2020-01-10T09:25:04Z</time>
      </trkpt>
      <trkpt lat="45.45939" lon="6.87274">
        <ele>2651.4</ele>
        <time>2020-01-10T09:25:06Z</time>
      </trkpt>
      <trkpt lat="45.45939" lon="6.87271">
        <ele>2651.4</ele>
        <time>2020-01-10T09:25:08Z</time>
      </trkpt>
      <trkpt lat="45.45939" lon="6.87268">
        <ele>2651.4</ele>
        <time>2020-01-10T09:25:10Z</time>
      </trkpt>
      <trkpt lat="45.45939" lon="6.87265">
        <ele>2651.4</ele>
        <time>2020-01-10T09:25:12Z</time>
      </trkpt>
      <trkpt lat="45.45939" lon="6.87261">
        <ele>2651.4</ele>
        <time>2020-01-10T09:25:14Z</time>
      </trkpt>
      <trkpt lat="45.4594" lon="6.87258">
        <ele>2651.4</ele>
        <time>2020-01-10T09:25:16Z</time>
      </trkpt>
      <trkpt lat="45.4594" lon="6.87255">
        <ele>2651.4</ele>
        <time>2020-01-10T09:25:18Z</time>
      </trkpt>
      <trkpt lat="45.4594" lon="6.87252">
        <ele>2651.4</ele>
        <time>2020-01-10T09:25:20Z</time>
      </trkpt>
      <trkpt lat="45.4594" lon="6.87248">
        <ele>2651.4</ele>
        <time>2020-01-10T09:25:22Z</time>
      </trkpt>
      <trkpt lat="45.45941" lon="6.87245">
        <ele>2651.4</ele>
        <time>2020-01-10T09:25:24Z</time>
      </trkpt>
      <trkpt lat="45.45941" lon="6.87242">
        <ele>2651.4</ele>
        <time>2020-01-10T09:25:26Z</time>
      </trkpt>
      <trkpt lat="45.45942" lon="6.87239">
        <ele>2651.4</ele>
        <time>2020-01-10T09:25:28Z</time>
      </trkpt>
      <trkpt lat="45.45943" lon="6.87236">
        <ele>2651.4</ele>
        <time>2020-01-10T09:25:30Z</time>
      </trkpt>
      <trkpt lat="45.45944" lon="6.87233">
        <ele>2651.4</ele>
        <time>2020-01-10T09:25:32Z</time>
      </trkpt>
      <trkpt lat="45.45945" lon="6.8723">
        <ele>2651.4</ele>
        <time>2020-01-10T09:25:34Z</time>
      </trkpt>
      <trkpt lat="45.45945" lon="6.87227">
        <ele>2651.4</ele>
        <time>2020-01-10T09:25:36Z</time>
      </trkpt>
      <trkpt lat="45.45946" lon="6.87224">
        <ele>2651.4</ele>
        <time>2020-01-10T09:25:38Z</time>
      </trkpt>
      <trkpt lat="45.45947" lon="6.87221">
        <ele>2651.4</ele>
        <time>2020-01-10T09:25:40Z</time>
      </trkpt>
      <trkpt lat="45.45947" lon="6.87219">
        <ele>2651.4</ele>
        <time>2020-01-10T09:25:42Z</time>
      </trkpt>
      <trkpt lat="45.45948" lon="6.87216">
        <ele>2651.4</ele>
        <time>2020-01-10T09:25:44Z</time>
      </trkpt>
      <trkpt lat="45.45949" lon="6.87213">
        <ele>2651.4</ele>
        <time>2020-01-10T09:25:46Z</time>
      </trkpt>
      <trkpt lat="45.45949" lon="6.8721">
        <ele>2651.4</ele>
        <time>2020-01-10T09:25:48Z</time>
      </trkpt>
      <trkpt lat="45.4595" lon="6.87207">
        <ele>2651.4</ele>
        <time>2020-01-10T09:25:50Z</time>
      </trkpt>
      <trkpt lat="45.45951" lon="6.87204">
        <ele>2651.4</ele>
        <time>2020-01-10T09:25:52Z</time>
      </trkpt>
      <trkpt lat="45.45951" lon="6.87201">
        <ele>2651.4</ele>
        <time>2020-01-10T09:25:54Z</time>
      </trkpt>
      <trkpt lat="45.45952" lon="6.87198">
        <ele>2651.4</ele>
        <time>2020-01-10T09:25:57Z</time>
      </trkpt>
      <trkpt lat="45.45953" lon="6.87194">
        <ele>2651.4</ele>
        <time>2020-01-10T09:26:00Z</time>
      </trkpt>
      <trkpt lat="45.45954" lon="6.87192">
        <ele>2651.4</ele>
        <time>2020-01-10T09:26:02Z</time>
      </trkpt>
      <trkpt lat="45.45955" lon="6.87189">
        <ele>2651.4</ele>
        <time>2020-01-10T09:26:05Z</time>
      </trkpt>
      <trkpt lat="45.45956" lon="6.87186">
        <ele>2651.4</ele>
        <time>2020-01-10T09:26:07Z</time>
      </trkpt>
      <trkpt lat="45.45957" lon="6.87183">
        <ele>2651.4</ele>
        <time>2020-01-10T09:26:10Z</time>
      </trkpt>
      <trkpt lat="45.45958" lon="6.87181">
        <ele>2651.4</ele>
        <time>2020-01-10T09:26:12Z</time>
      </trkpt>
      <trkpt lat="45.45959" lon="6.87178">
        <ele>2651.4</ele>
        <time>2020-01-10T09:26:14Z</time>
      </trkpt>
      <trkpt lat="45.45959" lon="6.87176">
        <ele>2651.4</ele>
        <time>2020-01-10T09:26:16Z</time>
      </trkpt>
      <trkpt lat="45.4596" lon="6.87173">
        <ele>2651.4</ele>
        <time>2020-01-10T09:26:18Z</time>
      </trkpt>
      <trkpt lat="45.45961" lon="6.8717">
        <ele>2651.4</ele>
        <time>2020-01-10T09:26:20Z</time>
      </trkpt>
      <trkpt lat="45.45962" lon="6.87167">
        <ele>2651.4</ele>
        <time>2020-01-10T09:26:23Z</time>
      </trkpt>
      <trkpt lat="45.45963" lon="6.87164">
        <ele>2651.4</ele>
        <time>2020-01-10T09:26:25Z</time>
      </trkpt>
      <trkpt lat="45.45964" lon="6.87161">
        <ele>2651.4</ele>
        <time>2020-01-10T09:26:28Z</time>
      </trkpt>
      <trkpt lat="45.45965" lon="6.87158">
        <ele>2651.4</ele>
        <time>2020-01-10T09:26:31Z</time>
      </trkpt>
      <trkpt lat="45.45966" lon="6.87154">
        <ele>2651.4</ele>
        <time>2020-01-10T09:26:34Z</time>
      </trkpt>
      <trkpt lat="45.45967" lon="6.87151">
        <ele>2651.4</ele>
        <time>2020-01-10T09:26:37Z</time>
      </trkpt>
      <trkpt lat="45.45967" lon="6.87147">
        <ele>2651.4</ele>
        <time>2020-01-10T09:26:40Z</time>
      </trkpt>
      <trkpt lat="45.45968" lon="6.87145">
        <ele>2651.4</ele>
        <time>2020-01-10T09:26:42Z</time>
      </trkpt>
      <trkpt lat="45.45969" lon="6.87141">
        <ele>2651.4</ele>
        <time>2020-01-10T09:26:45Z</time>
      </trkpt>
      <trkpt lat="45.45971" lon="6.87139">
        <ele>2651.4</ele>
        <time>2020-01-10T09:26:47Z</time>
      </trkpt>
      <trkpt lat="45.45972" lon="6.87136">
        <ele>2651.4</ele>
        <time>2020-01-10T09:26:50Z</time>
      </trkpt>
      <trkpt lat="45.45973" lon="6.87133">
        <ele>2651.4</ele>
        <time>2020-01-10T09:26:53Z</time>
      </trkpt>
      <trkpt lat="45.45974" lon="6.87131">
        <ele>2651.4</ele>
        <time>2020-01-10T09:26:55Z</time>
      </trkpt>
      <trkpt lat="45.45975" lon="6.87127">
        <ele>2651.4</ele>
        <time>2020-01-10T09:26:58Z</time>
      </trkpt>
      <trkpt lat="45.45975" lon="6.87124">
        <ele>2651.4</ele>
        <time>2020-01-10T09:27:01Z</time>
      </trkpt>
      <trkpt lat="45.45976" lon="6.87122">
        <ele>2651.4</ele>
        <time>2020-01-10T09:27:03Z</time>
      </trkpt>
      <trkpt lat="45.45977" lon="6.87119">
        <ele>2651.4</ele>
        <time>2020-01-10T09:27:05Z</time>
      </trkpt>
      <trkpt lat="45.45978" lon="6.87117">
        <ele>2651.4</ele>
        <time>2020-01-10T09:27:07Z</time>
      </trkpt>
      <trkpt lat="45.45979" lon="6.87113">
        <ele>2651.4</ele>
        <time>2020-01-10T09:27:10Z</time>
      </trkpt>
      <trkpt lat="45.4598" lon="6.87111">
        <ele>2651.4</ele>
        <time>2020-01-10T09:27:12Z</time>
      </trkpt>
      <trkpt lat="45.45982" lon="6.87108">
        <ele>2651.4</ele>
        <time>2020-01-10T09:27:15Z</time>
      </trkpt>
      <trkpt lat="45.45983" lon="6.87106">
        <ele>2651.4</ele>
        <time>2020-01-10T09:27:18Z</time>
      </trkpt>
      <trkpt lat="45.45984" lon="6.87103">
        <ele>2651.4</ele>
        <time>2020-01-10T09:27:21Z</time>
      </trkpt>
      <trkpt lat="45.45986" lon="6.871">
        <ele>2651.4</ele>
        <time>2020-01-10T09:27:24Z</time>
      </trkpt>
      <trkpt lat="45.45987" lon="6.87097">
        <ele>2651.4</ele>
        <time>2020-01-10T09:27:27Z</time>
      </trkpt>
      <trkpt lat="45.45988" lon="6.87094">
        <ele>2651.4</ele>
        <time>2020-01-10T09:27:30Z</time>
      </trkpt>
      <trkpt lat="45.45989" lon="6.8709">
        <ele>2651.4</ele>
        <time>2020-01-10T09:27:33Z</time>
      </trkpt>
      <trkpt lat="45.4599" lon="6.87088">
        <ele>2651.4</ele>
        <time>2020-01-10T09:27:35Z</time>
      </trkpt>
      <trkpt lat="45.45991" lon="6.87085">
        <ele>2651.4</ele>
        <time>2020-01-10T09:27:38Z</time>
      </trkpt>
      <trkpt lat="45.45992" lon="6.87082">
        <ele>2651.4</ele>
        <time>2020-01-10T09:27:41Z</time>
      </trkpt>
      <trkpt lat="45.45993" lon="6.87079">
        <ele>2651.4</ele>
        <time>2020-01-10T09:27:44Z</time>
      </trkpt>
      <trkpt lat="45.45994" lon="6.87077">
        <ele>2651.4</ele>
        <time>2020-01-10T09:27:46Z</time>
      </trkpt>
      <trkpt lat="45.45995" lon="6.87074">
        <ele>2705.4</ele>
        <time>2020-01-10T09:27:49Z</time>
      </trkpt>
      <trkpt lat="45.45996" lon="6.87073">
        <ele>2705.4</ele>
        <time>2020-01-10T09:27:51Z</time>
      </trkpt>
      <trkpt lat="45.45998" lon="6.87069">
        <ele>2705.4</ele>
        <time>2020-01-10T09:27:55Z</time>
      </trkpt>
      <trkpt lat="45.45999" lon="6.87066">
        <ele>2705.4</ele>
        <time>2020-01-10T09:27:58Z</time>
      </trkpt>
      <trkpt lat="45.46" lon="6.87064">
        <ele>2705.4</ele>
        <time>2020-01-10T09:28:01Z</time>
      </trkpt>
      <trkpt lat="45.46001" lon="6.87061">
        <ele>2705.4</ele>
        <time>2020-01-10T09:28:04Z</time>
      </trkpt>
      <trkpt lat="45.46002" lon="6.87059">
        <ele>2705.4</ele>
        <time>2020-01-10T09:28:06Z</time>
      </trkpt>
      <trkpt lat="45.46003" lon="6.87056">
        <ele>2710</ele>
        <time>2020-01-10T09:28:09Z</time>
      </trkpt>
      <trkpt lat="45.46004" lon="6.87053">
        <ele>2710</ele>
        <time>2020-01-10T09:28:12Z</time>
      </trkpt>
      <trkpt lat="45.46005" lon="6.8705">
        <ele>2710</ele>
        <time>2020-01-10T09:28:15Z</time>
      </trkpt>
      <trkpt lat="45.46006" lon="6.87047">
        <ele>2710</ele>
        <time>2020-01-10T09:28:18Z</time>
      </trkpt>
      <trkpt lat="45.46008" lon="6.87045">
        <ele>2710</ele>
        <time>2020-01-10T09:28:21Z</time>
      </trkpt>
      <trkpt lat="45.46009" lon="6.87042">
        <ele>2710</ele>
        <time>2020-01-10T09:28:24Z</time>
      </trkpt>
      <trkpt lat="45.46011" lon="6.8704">
        <ele>2710</ele>
        <time>2020-01-10T09:28:27Z</time>
      </trkpt>
      <trkpt lat="45.46012" lon="6.87038">
        <ele>2714.6</ele>
        <time>2020-01-10T09:28:29Z</time>
      </trkpt>
      <trkpt lat="45.46014" lon="6.87036">
        <ele>2714.6</ele>
        <time>2020-01-10T09:28:32Z</time>
      </trkpt>
      <trkpt lat="45.46015" lon="6.87033">
        <ele>2714.6</ele>
        <time>2020-01-10T09:28:35Z</time>
      </trkpt>
      <trkpt lat="45.46016" lon="6.8703">
        <ele>2714.6</ele>
        <time>2020-01-10T09:28:38Z</time>
      </trkpt>
      <trkpt lat="45.46016" lon="6.87027">
        <ele>2714.6</ele>
        <time>2020-01-10T09:28:41Z</time>
      </trkpt>
      <trkpt lat="45.46018" lon="6.87024">
        <ele>2714.6</ele>
        <time>2020-01-10T09:28:44Z</time>
      </trkpt>
      <trkpt lat="45.4602" lon="6.87022">
        <ele>2714.6</ele>
        <time>2020-01-10T09:28:47Z</time>
      </trkpt>
      <trkpt lat="45.46021" lon="6.87019">
        <ele>2714.6</ele>
        <time>2020-01-10T09:28:50Z</time>
      </trkpt>
      <trkpt lat="45.46023" lon="6.87018">
        <ele>2714.6</ele>
        <time>2020-01-10T09:28:53Z</time>
      </trkpt>
      <trkpt lat="45.46024" lon="6.87016">
        <ele>2714.6</ele>
        <time>2020-01-10T09:28:55Z</time>
      </trkpt>
      <trkpt lat="45.46026" lon="6.87012">
        <ele>2714.6</ele>
        <time>2020-01-10T09:28:58Z</time>
      </trkpt>
      <trkpt lat="45.46028" lon="6.8701">
        <ele>2714.6</ele>
        <time>2020-01-10T09:29:01Z</time>
      </trkpt>
      <trkpt lat="45.46029" lon="6.87008">
        <ele>2714.6</ele>
        <time>2020-01-10T09:29:04Z</time>
      </trkpt>
      <trkpt lat="45.46031" lon="6.87006">
        <ele>2714.6</ele>
        <time>2020-01-10T09:29:07Z</time>
      </trkpt>
      <trkpt lat="45.46033" lon="6.87004">
        <ele>2714.6</ele>
        <time>2020-01-10T09:29:10Z</time>
      </trkpt>
      <trkpt lat="45.46035" lon="6.87002">
        <ele>2714.6</ele>
        <time>2020-01-10T09:29:12Z</time>
      </trkpt>
      <trkpt lat="45.46036" lon="6.87">
        <ele>2714.6</ele>
        <time>2020-01-10T09:29:15Z</time>
      </trkpt>
      <trkpt lat="45.46037" lon="6.86998">
        <ele>2714.6</ele>
        <time>2020-01-10T09:29:17Z</time>
      </trkpt>
      <trkpt lat="45.46039" lon="6.86995">
        <ele>2714.6</ele>
        <time>2020-01-10T09:29:20Z</time>
      </trkpt>
      <trkpt lat="45.46041" lon="6.86993">
        <ele>2714.6</ele>
        <time>2020-01-10T09:29:23Z</time>
      </trkpt>
      <trkpt lat="45.46043" lon="6.86991">
        <ele>2714.6</ele>
        <time>2020-01-10T09:29:25Z</time>
      </trkpt>
      <trkpt lat="45.46045" lon="6.86989">
        <ele>2714.6</ele>
        <time>2020-01-10T09:29:28Z</time>
      </trkpt>
      <trkpt lat="45.46048" lon="6.86987">
        <ele>2714.6</ele>
        <time>2020-01-10T09:29:31Z</time>
      </trkpt>
      <trkpt lat="45.4605" lon="6.86985">
        <ele>2714.6</ele>
        <time>2020-01-10T09:29:34Z</time>
      </trkpt>
      <trkpt lat="45.46052" lon="6.86984">
        <ele>2714.6</ele>
        <time>2020-01-10T09:29:36Z</time>
      </trkpt>
      <trkpt lat="45.46053" lon="6.86983">
        <ele>2714.6</ele>
        <time>2020-01-10T09:29:38Z</time>
      </trkpt>
      <trkpt lat="45.46055" lon="6.86982">
        <ele>2714.6</ele>
        <time>2020-01-10T09:29:40Z</time>
      </trkpt>
      <trkpt lat="45.46057" lon="6.86981">
        <ele>2714.6</ele>
        <time>2020-01-10T09:29:42Z</time>
      </trkpt>
      <trkpt lat="45.4606" lon="6.8698">
        <ele>2714.6</ele>
        <time>2020-01-10T09:29:45Z</time>
      </trkpt>
      <trkpt lat="45.46062" lon="6.8698">
        <ele>2714.6</ele>
        <time>2020-01-10T09:29:48Z</time>
      </trkpt>
      <trkpt lat="45.46064" lon="6.86979">
        <ele>2714.6</ele>
        <time>2020-01-10T09:29:50Z</time>
      </trkpt>
      <trkpt lat="45.46066" lon="6.8698">
        <ele>2714.6</ele>
        <time>2020-01-10T09:29:52Z</time>
      </trkpt>
      <trkpt lat="45.46068" lon="6.8698">
        <ele>2714.6</ele>
        <time>2020-01-10T09:29:55Z</time>
      </trkpt>
      <trkpt lat="45.4607" lon="6.8698">
        <ele>2714.6</ele>
        <time>2020-01-10T09:29:57Z</time>
      </trkpt>
      <trkpt lat="45.46074" lon="6.8698">
        <ele>2736</ele>
        <time>2020-01-10T09:29:59Z</time>
      </trkpt>
      <trkpt lat="45.46076" lon="6.86981">
        <ele>2736</ele>
        <time>2020-01-10T09:30:00Z</time>
      </trkpt>
      <trkpt lat="45.46078" lon="6.86982">
        <ele>2736</ele>
        <time>2020-01-10T09:30:02Z</time>
      </trkpt>
      <trkpt lat="45.4608" lon="6.86982">
        <ele>2736</ele>
        <time>2020-01-10T09:30:03Z</time>
      </trkpt>
      <trkpt lat="45.46082" lon="6.86983">
        <ele>2736</ele>
        <time>2020-01-10T09:30:05Z</time>
      </trkpt>
      <trkpt lat="45.46084" lon="6.86984">
        <ele>2736</ele>
        <time>2020-01-10T09:30:07Z</time>
      </trkpt>
      <trkpt lat="45.46087" lon="6.86985">
        <ele>2736.2</ele>
        <time>2020-01-10T09:30:09Z</time>
      </trkpt>
      <trkpt lat="45.46089" lon="6.86985">
        <ele>2736.2</ele>
        <time>2020-01-10T09:30:11Z</time>
      </trkpt>
      <trkpt lat="45.46092" lon="6.86985">
        <ele>2736.2</ele>
        <time>2020-01-10T09:30:13Z</time>
      </trkpt>
      <trkpt lat="45.46094" lon="6.86986">
        <ele>2736.2</ele>
        <time>2020-01-10T09:30:15Z</time>
      </trkpt>
      <trkpt lat="45.46096" lon="6.86986">
        <ele>2736.2</ele>
        <time>2020-01-10T09:30:17Z</time>
      </trkpt>
      <trkpt lat="45.46099" lon="6.86986">
        <ele>2737.4</ele>
        <time>2020-01-10T09:30:19Z</time>
      </trkpt>
      <trkpt lat="45.46101" lon="6.86987">
        <ele>2737.4</ele>
        <time>2020-01-10T09:30:21Z</time>
      </trkpt>
      <trkpt lat="45.46103" lon="6.86987">
        <ele>2737.4</ele>
        <time>2020-01-10T09:30:23Z</time>
      </trkpt>
      <trkpt lat="45.46106" lon="6.86987">
        <ele>2737.4</ele>
        <time>2020-01-10T09:30:25Z</time>
      </trkpt>
      <trkpt lat="45.46108" lon="6.86988">
        <ele>2737.4</ele>
        <time>2020-01-10T09:30:27Z</time>
      </trkpt>
      <trkpt lat="45.4611" lon="6.86989">
        <ele>2739.6</ele>
        <time>2020-01-10T09:30:29Z</time>
      </trkpt>
      <trkpt lat="45.46112" lon="6.86989">
        <ele>2739.6</ele>
        <time>2020-01-10T09:30:31Z</time>
      </trkpt>
      <trkpt lat="45.46114" lon="6.8699">
        <ele>2739.6</ele>
        <time>2020-01-10T09:30:33Z</time>
      </trkpt>
      <trkpt lat="45.46116" lon="6.86991">
        <ele>2739.6</ele>
        <time>2020-01-10T09:30:35Z</time>
      </trkpt>
      <trkpt lat="45.46118" lon="6.86991">
        <ele>2739.6</ele>
        <time>2020-01-10T09:30:37Z</time>
      </trkpt>
      <trkpt lat="45.4612" lon="6.86992">
        <ele>2741.6</ele>
        <time>2020-01-10T09:30:39Z</time>
      </trkpt>
      <trkpt lat="45.46122" lon="6.86992">
        <ele>2741.6</ele>
        <time>2020-01-10T09:30:41Z</time>
      </trkpt>
      <trkpt lat="45.46124" lon="6.86992">
        <ele>2741.6</ele>
        <time>2020-01-10T09:30:44Z</time>
      </trkpt>
      <trkpt lat="45.46126" lon="6.86994">
        <ele>2741.6</ele>
        <time>2020-01-10T09:30:47Z</time>
      </trkpt>
      <trkpt lat="45.46129" lon="6.86994">
        <ele>2741.6</ele>
        <time>2020-01-10T09:30:50Z</time>
      </trkpt>
      <trkpt lat="45.46131" lon="6.86996">
        <ele>2741.6</ele>
        <time>2020-01-10T09:30:53Z</time>
      </trkpt>
      <trkpt lat="45.46132" lon="6.87">
        <ele>2741.6</ele>
        <time>2020-01-10T09:30:56Z</time>
      </trkpt>
      <trkpt lat="45.4613" lon="6.87002">
        <ele>2741.6</ele>
        <time>2020-01-10T09:30:58Z</time>
      </trkpt>
      <trkpt lat="45.46132" lon="6.87004">
        <ele>2741.6</ele>
        <time>2020-01-10T09:31:11Z</time>
      </trkpt>
      <trkpt lat="45.4613" lon="6.87004">
        <ele>2741.6</ele>
        <time>2020-01-10T09:32:48Z</time>
      </trkpt>
      <trkpt lat="45.46128" lon="6.86999">
        <ele>2741.6</ele>
        <time>2020-01-10T09:32:50Z</time>
      </trkpt>
      <trkpt lat="45.46125" lon="6.86997">
        <ele>2741.6</ele>
        <time>2020-01-10T09:32:51Z</time>
      </trkpt>
      <trkpt lat="45.46121" lon="6.86994">
        <ele>2741.6</ele>
        <time>2020-01-10T09:32:52Z</time>
      </trkpt>
      <trkpt lat="45.46117" lon="6.86989">
        <ele>2741.6</ele>
        <time>2020-01-10T09:32:53Z</time>
      </trkpt>
      <trkpt lat="45.46112" lon="6.86984">
        <ele>2741.6</ele>
        <time>2020-01-10T09:32:54Z</time>
      </trkpt>
      <trkpt lat="45.46107" lon="6.86978">
        <ele>2741.6</ele>
        <time>2020-01-10T09:32:55Z</time>
      </trkpt>
      <trkpt lat="45.46101" lon="6.86973">
        <ele>2741.6</ele>
        <time>2020-01-10T09:32:56Z</time>
      </trkpt>
      <trkpt lat="45.46094" lon="6.86968">
        <ele>2741.6</ele>
        <time>2020-01-10T09:32:57Z</time>
      </trkpt>
      <trkpt lat="45.46086" lon="6.86964">
        <ele>2741.6</ele>
        <time>2020-01-10T09:32:58Z</time>
      </trkpt>
      <trkpt lat="45.46078" lon="6.8696">
        <ele>2734.6</ele>
        <time>2020-01-10T09:32:59Z</time>
      </trkpt>
      <trkpt lat="45.4607" lon="6.86959">
        <ele>2734.6</ele>
        <time>2020-01-10T09:33:00Z</time>
      </trkpt>
      <trkpt lat="45.46064" lon="6.86959">
        <ele>2734.6</ele>
        <time>2020-01-10T09:33:01Z</time>
      </trkpt>
      <trkpt lat="45.46057" lon="6.86961">
        <ele>2734.6</ele>
        <time>2020-01-10T09:33:02Z</time>
      </trkpt>
      <trkpt lat="45.46049" lon="6.86966">
        <ele>2734.6</ele>
        <time>2020-01-10T09:33:03Z</time>
      </trkpt>
      <trkpt lat="45.46044" lon="6.8697">
        <ele>2734.6</ele>
        <time>2020-01-10T09:33:04Z</time>
      </trkpt>
      <trkpt lat="45.46038" lon="6.86975">
        <ele>2734.6</ele>
        <time>2020-01-10T09:33:05Z</time>
      </trkpt>
      <trkpt lat="45.46032" lon="6.8698">
        <ele>2734.6</ele>
        <time>2020-01-10T09:33:06Z</time>
      </trkpt>
      <trkpt lat="45.46027" lon="6.86986">
        <ele>2734.6</ele>
        <time>2020-01-10T09:33:07Z</time>
      </trkpt>
      <trkpt lat="45.46024" lon="6.86993">
        <ele>2734.6</ele>
        <time>2020-01-10T09:33:08Z</time>
      </trkpt>
      <trkpt lat="45.4602" lon="6.86999">
        <ele>2726.6</ele>
        <time>2020-01-10T09:33:09Z</time>
      </trkpt>
      <trkpt lat="45.46015" lon="6.87003">
        <ele>2726.6</ele>
        <time>2020-01-10T09:33:10Z</time>
      </trkpt>
      <trkpt lat="45.46011" lon="6.87004">
        <ele>2726.6</ele>
        <time>2020-01-10T09:33:11Z</time>
      </trkpt>
      <trkpt lat="45.46007" lon="6.87007">
        <ele>2726.6</ele>
        <time>2020-01-10T09:33:12Z</time>
      </trkpt>
      <trkpt lat="45.46004" lon="6.87013">
        <ele>2726.6</ele>
        <time>2020-01-10T09:33:13Z</time>
      </trkpt>
      <trkpt lat="45.46003" lon="6.8702">
        <ele>2726.6</ele>
        <time>2020-01-10T09:33:14Z</time>
      </trkpt>
      <trkpt lat="45.46" lon="6.87026">
        <ele>2726.6</ele>
        <time>2020-01-10T09:33:15Z</time>
      </trkpt>
      <trkpt lat="45.45996" lon="6.8703">
        <ele>2726.6</ele>
        <time>2020-01-10T09:33:16Z</time>
      </trkpt>
      <trkpt lat="45.45993" lon="6.87035">
        <ele>2726.6</ele>
        <time>2020-01-10T09:33:17Z</time>
      </trkpt>
      <trkpt lat="45.45991" lon="6.87043">
        <ele>2726.6</ele>
        <time>2020-01-10T09:33:18Z</time>
      </trkpt>
      <trkpt lat="45.4599" lon="6.8705">
        <ele>2713.2</ele>
        <time>2020-01-10T09:33:19Z</time>
      </trkpt>
      <trkpt lat="45.45987" lon="6.87057">
        <ele>2713.2</ele>
        <time>2020-01-10T09:33:20Z</time>
      </trkpt>
      <trkpt lat="45.45985" lon="6.87063">
        <ele>2713.2</ele>
        <time>2020-01-10T09:33:21Z</time>
      </trkpt>
      <trkpt lat="45.45983" lon="6.87069">
        <ele>2713.2</ele>
        <time>2020-01-10T09:33:22Z</time>
      </trkpt>
      <trkpt lat="45.45982" lon="6.87075">
        <ele>2713.2</ele>
        <time>2020-01-10T09:33:23Z</time>
      </trkpt>
      <trkpt lat="45.45981" lon="6.87082">
        <ele>2713.2</ele>
        <time>2020-01-10T09:33:24Z</time>
      </trkpt>
      <trkpt lat="45.4598" lon="6.87089">
        <ele>2713.2</ele>
        <time>2020-01-10T09:33:25Z</time>
      </trkpt>
      <trkpt lat="45.45978" lon="6.87095">
        <ele>2713.2</ele>
        <time>2020-01-10T09:33:26Z</time>
      </trkpt>
      <trkpt lat="45.45978" lon="6.871">
        <ele>2713.2</ele>
        <time>2020-01-10T09:33:27Z</time>
      </trkpt>
      <trkpt lat="45.45979" lon="6.87104">
        <ele>2713.2</ele>
        <time>2020-01-10T09:33:28Z</time>
      </trkpt>
      <trkpt lat="45.4598" lon="6.87106">
        <ele>2713.2</ele>
        <time>2020-01-10T09:33:31Z</time>
      </trkpt>
      <trkpt lat="45.45978" lon="6.87108">
        <ele>2713.2</ele>
        <time>2020-01-10T09:33:50Z</time>
      </trkpt>
      <trkpt lat="45.45977" lon="6.87112">
        <ele>2713.2</ele>
        <time>2020-01-10T09:33:51Z</time>
      </trkpt>
      <trkpt lat="45.45975" lon="6.87116">
        <ele>2713.2</ele>
        <time>2020-01-10T09:33:52Z</time>
      </trkpt>
      <trkpt lat="45.45973" lon="6.87121">
        <ele>2713.2</ele>
        <time>2020-01-10T09:33:53Z</time>
      </trkpt>
      <trkpt lat="45.45971" lon="6.87126">
        <ele>2713.2</ele>
        <time>2020-01-10T09:33:54Z</time>
      </trkpt>
      <trkpt lat="45.45968" lon="6.87131">
        <ele>2713.2</ele>
        <time>2020-01-10T09:33:55Z</time>
      </trkpt>
      <trkpt lat="45.45964" lon="6.87135">
        <ele>2713.2</ele>
        <time>2020-01-10T09:33:56Z</time>
      </trkpt>
      <trkpt lat="45.45962" lon="6.87141">
        <ele>2713.2</ele>
        <time>2020-01-10T09:33:57Z</time>
      </trkpt>
      <trkpt lat="45.45961" lon="6.87148">
        <ele>2713.2</ele>
        <time>2020-01-10T09:33:58Z</time>
      </trkpt>
      <trkpt lat="45.45959" lon="6.87154">
        <ele>2689.4</ele>
        <time>2020-01-10T09:33:59Z</time>
      </trkpt>
      <trkpt lat="45.45956" lon="6.87159">
        <ele>2689.4</ele>
        <time>2020-01-10T09:34:00Z</time>
      </trkpt>
      <trkpt lat="45.45954" lon="6.87164">
        <ele>2689.4</ele>
        <time>2020-01-10T09:34:01Z</time>
      </trkpt>
      <trkpt lat="45.45952" lon="6.8717">
        <ele>2689.4</ele>
        <time>2020-01-10T09:34:02Z</time>
      </trkpt>
      <trkpt lat="45.45951" lon="6.87177">
        <ele>2689.4</ele>
        <time>2020-01-10T09:34:03Z</time>
      </trkpt>
      <trkpt lat="45.45949" lon="6.87183">
        <ele>2689.4</ele>
        <time>2020-01-10T09:34:04Z</time>
      </trkpt>
      <trkpt lat="45.45946" lon="6.87188">
        <ele>2689.4</ele>
        <time>2020-01-10T09:34:05Z</time>
      </trkpt>
      <trkpt lat="45.45943" lon="6.87192">
        <ele>2689.4</ele>
        <time>2020-01-10T09:34:06Z</time>
      </trkpt>
      <trkpt lat="45.45939" lon="6.87198">
        <ele>2689.4</ele>
        <time>2020-01-10T09:34:07Z</time>
      </trkpt>
      <trkpt lat="45.45938" lon="6.87204">
        <ele>2689.4</ele>
        <time>2020-01-10T09:34:08Z</time>
      </trkpt>
      <trkpt lat="45.45936" lon="6.87212">
        <ele>2677</ele>
        <time>2020-01-10T09:34:09Z</time>
      </trkpt>
      <trkpt lat="45.45933" lon="6.87218">
        <ele>2677</ele>
        <time>2020-01-10T09:34:10Z</time>
      </trkpt>
      <trkpt lat="45.4593" lon="6.87225">
        <ele>2677</ele>
        <time>2020-01-10T09:34:11Z</time>
      </trkpt>
      <trkpt lat="45.45927" lon="6.87232">
        <ele>2677</ele>
        <time>2020-01-10T09:34:12Z</time>
      </trkpt>
      <trkpt lat="45.45927" lon="6.87241">
        <ele>2677</ele>
        <time>2020-01-10T09:34:13Z</time>
      </trkpt>
      <trkpt lat="45.45925" lon="6.8725">
        <ele>2677</ele>
        <time>2020-01-10T09:34:14Z</time>
      </trkpt>
      <trkpt lat="45.45923" lon="6.87257">
        <ele>2677</ele>
        <time>2020-01-10T09:34:15Z</time>
      </trkpt>
      <trkpt lat="45.4592" lon="6.87264">
        <ele>2677</ele>
        <time>2020-01-10T09:34:16Z</time>
      </trkpt>
      <trkpt lat="45.45917" lon="6.87271">
        <ele>2677</ele>
        <time>2020-01-10T09:34:17Z</time>
      </trkpt>
      <trkpt lat="45.45916" lon="6.87278">
        <ele>2677</ele>
        <time>2020-01-10T09:34:18Z</time>
      </trkpt>
      <trkpt lat="45.45917" lon="6.87286">
        <ele>2666.6</ele>
        <time>2020-01-10T09:34:19Z</time>
      </trkpt>
      <trkpt lat="45.45917" lon="6.87294">
        <ele>2666.6</ele>
        <time>2020-01-10T09:34:20Z</time>
      </trkpt>
      <trkpt lat="45.45917" lon="6.87302">
        <ele>2666.6</ele>
        <time>2020-01-10T09:34:21Z</time>
      </trkpt>
      <trkpt lat="45.45916" lon="6.87311">
        <ele>2666.6</ele>
        <time>2020-01-10T09:34:22Z</time>
      </trkpt>
      <trkpt lat="45.45915" lon="6.8732">
        <ele>2666.6</ele>
        <time>2020-01-10T09:34:23Z</time>
      </trkpt>
      <trkpt lat="45.45913" lon="6.87329">
        <ele>2666.6</ele>
        <time>2020-01-10T09:34:24Z</time>
      </trkpt>
      <trkpt lat="45.4591" lon="6.87338">
        <ele>2666.6</ele>
        <time>2020-01-10T09:34:25Z</time>
      </trkpt>
      <trkpt lat="45.45907" lon="6.87343">
        <ele>2666.6</ele>
        <time>2020-01-10T09:34:26Z</time>
      </trkpt>
      <trkpt lat="45.45901" lon="6.87348">
        <ele>2666.6</ele>
        <time>2020-01-10T09:34:27Z</time>
      </trkpt>
      <trkpt lat="45.45898" lon="6.87353">
        <ele>2666.6</ele>
        <time>2020-01-10T09:34:28Z</time>
      </trkpt>
      <trkpt lat="45.45893" lon="6.8736">
        <ele>2661</ele>
        <time>2020-01-10T09:34:29Z</time>
      </trkpt>
      <trkpt lat="45.45889" lon="6.87364">
        <ele>2661</ele>
        <time>2020-01-10T09:34:30Z</time>
      </trkpt>
      <trkpt lat="45.45885" lon="6.87368">
        <ele>2661</ele>
        <time>2020-01-10T09:34:31Z</time>
      </trkpt>
      <trkpt lat="45.45882" lon="6.87372">
        <ele>2661</ele>
        <time>2020-01-10T09:34:32Z</time>
      </trkpt>
      <trkpt lat="45.45878" lon="6.87377">
        <ele>2661</ele>
        <time>2020-01-10T09:34:33Z</time>
      </trkpt>
      <trkpt lat="45.45875" lon="6.8738">
        <ele>2661</ele>
        <time>2020-01-10T09:34:34Z</time>
      </trkpt>
      <trkpt lat="45.45871" lon="6.87382">
        <ele>2661</ele>
        <time>2020-01-10T09:34:35Z</time>
      </trkpt>
      <trkpt lat="45.45867" lon="6.87384">
        <ele>2661</ele>
        <time>2020-01-10T09:34:36Z</time>
      </trkpt>
      <trkpt lat="45.45866" lon="6.87389">
        <ele>2661</ele>
        <time>2020-01-10T09:34:37Z</time>
      </trkpt>
      <trkpt lat="45.45863" lon="6.87395">
        <ele>2661</ele>
        <time>2020-01-10T09:34:38Z</time>
      </trkpt>
      <trkpt lat="45.4586" lon="6.87399">
        <ele>2646</ele>
        <time>2020-01-10T09:34:39Z</time>
      </trkpt>
      <trkpt lat="45.45856" lon="6.87401">
        <ele>2646</ele>
        <time>2020-01-10T09:34:40Z</time>
      </trkpt>
      <trkpt lat="45.45852" lon="6.87402">
        <ele>2646</ele>
        <time>2020-01-10T09:34:41Z</time>
      </trkpt>
      <trkpt lat="45.45848" lon="6.87402">
        <ele>2646</ele>
        <time>2020-01-10T09:34:42Z</time>
      </trkpt>
      <trkpt lat="45.45846" lon="6.87406">
        <ele>2646</ele>
        <time>2020-01-10T09:34:43Z</time>
      </trkpt>
      <trkpt lat="45.45843" lon="6.87411">
        <ele>2646</ele>
        <time>2020-01-10T09:34:44Z</time>
      </trkpt>
      <trkpt lat="45.45839" lon="6.87416">
        <ele>2646</ele>
        <time>2020-01-10T09:34:45Z</time>
      </trkpt>
      <trkpt lat="45.45835" lon="6.87419">
        <ele>2646</ele>
        <time>2020-01-10T09:34:46Z</time>
      </trkpt>
      <trkpt lat="45.45831" lon="6.87422">
        <ele>2646</ele>
        <time>2020-01-10T09:34:47Z</time>
      </trkpt>
      <trkpt lat="45.45828" lon="6.87429">
        <ele>2646</ele>
        <time>2020-01-10T09:34:48Z</time>
      </trkpt>
      <trkpt lat="45.45825" lon="6.87433">
        <ele>2632.2</ele>
        <time>2020-01-10T09:34:49Z</time>
      </trkpt>
      <trkpt lat="45.45822" lon="6.87438">
        <ele>2632.2</ele>
        <time>2020-01-10T09:34:50Z</time>
      </trkpt>
      <trkpt lat="45.4582" lon="6.87444">
        <ele>2632.2</ele>
        <time>2020-01-10T09:34:51Z</time>
      </trkpt>
      <trkpt lat="45.45816" lon="6.8745">
        <ele>2632.2</ele>
        <time>2020-01-10T09:34:52Z</time>
      </trkpt>
      <trkpt lat="45.45811" lon="6.87457">
        <ele>2632.2</ele>
        <time>2020-01-10T09:34:53Z</time>
      </trkpt>
      <trkpt lat="45.45808" lon="6.87463">
        <ele>2632.2</ele>
        <time>2020-01-10T09:34:54Z</time>
      </trkpt>
      <trkpt lat="45.45804" lon="6.8747">
        <ele>2632.2</ele>
        <time>2020-01-10T09:34:55Z</time>
      </trkpt>
      <trkpt lat="45.45798" lon="6.87474">
        <ele>2632.2</ele>
        <time>2020-01-10T09:34:56Z</time>
      </trkpt>
      <trkpt lat="45.45793" lon="6.87479">
        <ele>2632.2</ele>
        <time>2020-01-10T09:34:57Z</time>
      </trkpt>
      <trkpt lat="45.45788" lon="6.87488">
        <ele>2632.2</ele>
        <time>2020-01-10T09:34:58Z</time>
      </trkpt>
      <trkpt lat="45.45784" lon="6.87494">
        <ele>2618.2</ele>
        <time>2020-01-10T09:34:59Z</time>
      </trkpt>
      <trkpt lat="45.45778" lon="6.87499">
        <ele>2618.2</ele>
        <time>2020-01-10T09:35:00Z</time>
      </trkpt>
      <trkpt lat="45.45768" lon="6.87515">
        <ele>2618.2</ele>
        <time>2020-01-10T09:35:02Z</time>
      </trkpt>
      <trkpt lat="45.45756" lon="6.87526">
        <ele>2618.2</ele>
        <time>2020-01-10T09:35:04Z</time>
      </trkpt>
      <trkpt lat="45.4575" lon="6.87533">
        <ele>2618.2</ele>
        <time>2020-01-10T09:35:05Z</time>
      </trkpt>
      <trkpt lat="45.45744" lon="6.87541">
        <ele>2618.2</ele>
        <time>2020-01-10T09:35:06Z</time>
      </trkpt>
      <trkpt lat="45.45739" lon="6.87551">
        <ele>2618.2</ele>
        <time>2020-01-10T09:35:07Z</time>
      </trkpt>
      <trkpt lat="45.45731" lon="6.87563">
        <ele>2618.2</ele>
        <time>2020-01-10T09:35:08Z</time>
      </trkpt>
      <trkpt lat="45.45724" lon="6.87569">
        <ele>2599.6</ele>
        <time>2020-01-10T09:35:09Z</time>
      </trkpt>
      <trkpt lat="45.45715" lon="6.87576">
        <ele>2599.6</ele>
        <time>2020-01-10T09:35:10Z</time>
      </trkpt>
      <trkpt lat="45.45706" lon="6.87586">
        <ele>2599.6</ele>
        <time>2020-01-10T09:35:11Z</time>
      </trkpt>
      <trkpt lat="45.45699" lon="6.87598">
        <ele>2599.6</ele>
        <time>2020-01-10T09:35:12Z</time>
      </trkpt>
      <trkpt lat="45.45689" lon="6.87611">
        <ele>2599.6</ele>
        <time>2020-01-10T09:35:13Z</time>
      </trkpt>
      <trkpt lat="45.45681" lon="6.87617">
        <ele>2599.6</ele>
        <time>2020-01-10T09:35:14Z</time>
      </trkpt>
      <trkpt lat="45.45672" lon="6.87627">
        <ele>2599.6</ele>
        <time>2020-01-10T09:35:15Z</time>
      </trkpt>
      <trkpt lat="45.45664" lon="6.87638">
        <ele>2599.6</ele>
        <time>2020-01-10T09:35:16Z</time>
      </trkpt>
      <trkpt lat="45.45657" lon="6.87648">
        <ele>2599.6</ele>
        <time>2020-01-10T09:35:17Z</time>
      </trkpt>
      <trkpt lat="45.45649" lon="6.87656">
        <ele>2599.6</ele>
        <time>2020-01-10T09:35:18Z</time>
      </trkpt>
      <trkpt lat="45.45642" lon="6.87665">
        <ele>2576.2</ele>
        <time>2020-01-10T09:35:19Z</time>
      </trkpt>
      <trkpt lat="45.45637" lon="6.87675">
        <ele>2576.2</ele>
        <time>2020-01-10T09:35:20Z</time>
      </trkpt>
      <trkpt lat="45.45631" lon="6.87684">
        <ele>2576.2</ele>
        <time>2020-01-10T09:35:21Z</time>
      </trkpt>
      <trkpt lat="45.45624" lon="6.8769">
        <ele>2576.2</ele>
        <time>2020-01-10T09:35:22Z</time>
      </trkpt>
      <trkpt lat="45.45618" lon="6.87697">
        <ele>2576.2</ele>
        <time>2020-01-10T09:35:23Z</time>
      </trkpt>
      <trkpt lat="45.45613" lon="6.87706">
        <ele>2576.2</ele>
        <time>2020-01-10T09:35:24Z</time>
      </trkpt>
      <trkpt lat="45.45607" lon="6.87715">
        <ele>2576.2</ele>
        <time>2020-01-10T09:35:25Z</time>
      </trkpt>
      <trkpt lat="45.45601" lon="6.8772">
        <ele>2576.2</ele>
        <time>2020-01-10T09:35:26Z</time>
      </trkpt>
      <trkpt lat="45.45593" lon="6.87726">
        <ele>2576.2</ele>
        <time>2020-01-10T09:35:27Z</time>
      </trkpt>
      <trkpt lat="45.45587" lon="6.87732">
        <ele>2576.2</ele>
        <time>2020-01-10T09:35:28Z</time>
      </trkpt>
      <trkpt lat="45.45584" lon="6.8774">
        <ele>2556.6</ele>
        <time>2020-01-10T09:35:29Z</time>
      </trkpt>
      <trkpt lat="45.45578" lon="6.87749">
        <ele>2556.6</ele>
        <time>2020-01-10T09:35:30Z</time>
      </trkpt>
      <trkpt lat="45.4557" lon="6.87755">
        <ele>2556.6</ele>
        <time>2020-01-10T09:35:31Z</time>
      </trkpt>
      <trkpt lat="45.45565" lon="6.87758">
        <ele>2556.6</ele>
        <time>2020-01-10T09:35:32Z</time>
      </trkpt>
      <trkpt lat="45.45558" lon="6.87765">
        <ele>2556.6</ele>
        <time>2020-01-10T09:35:33Z</time>
      </trkpt>
      <trkpt lat="45.45554" lon="6.87774">
        <ele>2556.6</ele>
        <time>2020-01-10T09:35:34Z</time>
      </trkpt>
      <trkpt lat="45.45548" lon="6.87782">
        <ele>2556.6</ele>
        <time>2020-01-10T09:35:35Z</time>
      </trkpt>
      <trkpt lat="45.45541" lon="6.87786">
        <ele>2556.6</ele>
        <time>2020-01-10T09:35:36Z</time>
      </trkpt>
      <trkpt lat="45.45535" lon="6.87791">
        <ele>2556.6</ele>
        <time>2020-01-10T09:35:37Z</time>
      </trkpt>
      <trkpt lat="45.4553" lon="6.87798">
        <ele>2556.6</ele>
        <time>2020-01-10T09:35:38Z</time>
      </trkpt>
      <trkpt lat="45.45526" lon="6.87806">
        <ele>2532.6</ele>
        <time>2020-01-10T09:35:39Z</time>
      </trkpt>
      <trkpt lat="45.45514" lon="6.87815">
        <ele>2532.6</ele>
        <time>2020-01-10T09:35:41Z</time>
      </trkpt>
      <trkpt lat="45.45508" lon="6.87815">
        <ele>2532.6</ele>
        <time>2020-01-10T09:35:42Z</time>
      </trkpt>
      <trkpt lat="45.45502" lon="6.87816">
        <ele>2532.6</ele>
        <time>2020-01-10T09:35:43Z</time>
      </trkpt>
      <trkpt lat="45.45499" lon="6.87821">
        <ele>2532.6</ele>
        <time>2020-01-10T09:35:44Z</time>
      </trkpt>
      <trkpt lat="45.45496" lon="6.8783">
        <ele>2532.6</ele>
        <time>2020-01-10T09:35:45Z</time>
      </trkpt>
      <trkpt lat="45.45492" lon="6.87838">
        <ele>2532.6</ele>
        <time>2020-01-10T09:35:46Z</time>
      </trkpt>
      <trkpt lat="45.45486" lon="6.87843">
        <ele>2532.6</ele>
        <time>2020-01-10T09:35:47Z</time>
      </trkpt>
      <trkpt lat="45.45482" lon="6.87849">
        <ele>2532.6</ele>
        <time>2020-01-10T09:35:48Z</time>
      </trkpt>
      <trkpt lat="45.4548" lon="6.87859">
        <ele>2511.6</ele>
        <time>2020-01-10T09:35:49Z</time>
      </trkpt>
      <trkpt lat="45.45476" lon="6.8787">
        <ele>2511.6</ele>
        <time>2020-01-10T09:35:50Z</time>
      </trkpt>
      <trkpt lat="45.45472" lon="6.87876">
        <ele>2511.6</ele>
        <time>2020-01-10T09:35:51Z</time>
      </trkpt>
      <trkpt lat="45.45465" lon="6.8788">
        <ele>2511.6</ele>
        <time>2020-01-10T09:35:52Z</time>
      </trkpt>
      <trkpt lat="45.45459" lon="6.87882">
        <ele>2511.6</ele>
        <time>2020-01-10T09:35:53Z</time>
      </trkpt>
      <trkpt lat="45.45455" lon="6.87887">
        <ele>2511.6</ele>
        <time>2020-01-10T09:35:54Z</time>
      </trkpt>
      <trkpt lat="45.45452" lon="6.87896">
        <ele>2511.6</ele>
        <time>2020-01-10T09:35:55Z</time>
      </trkpt>
      <trkpt lat="45.45449" lon="6.87906">
        <ele>2511.6</ele>
        <time>2020-01-10T09:35:56Z</time>
      </trkpt>
      <trkpt lat="45.45444" lon="6.87912">
        <ele>2511.6</ele>
        <time>2020-01-10T09:35:57Z</time>
      </trkpt>
      <trkpt lat="45.45431" lon="6.87924">
        <ele>2489.4</ele>
        <time>2020-01-10T09:35:59Z</time>
      </trkpt>
      <trkpt lat="45.45426" lon="6.87932">
        <ele>2489.4</ele>
        <time>2020-01-10T09:36:00Z</time>
      </trkpt>
      <trkpt lat="45.45422" lon="6.87942">
        <ele>2489.4</ele>
        <time>2020-01-10T09:36:01Z</time>
      </trkpt>
      <trkpt lat="45.45418" lon="6.87951">
        <ele>2489.4</ele>
        <time>2020-01-10T09:36:02Z</time>
      </trkpt>
      <trkpt lat="45.45412" lon="6.87958">
        <ele>2489.4</ele>
        <time>2020-01-10T09:36:03Z</time>
      </trkpt>
      <trkpt lat="45.45401" lon="6.87969">
        <ele>2489.4</ele>
        <time>2020-01-10T09:36:05Z</time>
      </trkpt>
      <trkpt lat="45.45397" lon="6.87977">
        <ele>2489.4</ele>
        <time>2020-01-10T09:36:06Z</time>
      </trkpt>
      <trkpt lat="45.45396" lon="6.87987">
        <ele>2489.4</ele>
        <time>2020-01-10T09:36:07Z</time>
      </trkpt>
      <trkpt lat="45.45394" lon="6.87996">
        <ele>2489.4</ele>
        <time>2020-01-10T09:36:08Z</time>
      </trkpt>
      <trkpt lat="45.45391" lon="6.88004">
        <ele>2475</ele>
        <time>2020-01-10T09:36:09Z</time>
      </trkpt>
      <trkpt lat="45.45388" lon="6.88013">
        <ele>2475</ele>
        <time>2020-01-10T09:36:10Z</time>
      </trkpt>
      <trkpt lat="45.45387" lon="6.88023">
        <ele>2475</ele>
        <time>2020-01-10T09:36:11Z</time>
      </trkpt>
      <trkpt lat="45.45387" lon="6.88033">
        <ele>2475</ele>
        <time>2020-01-10T09:36:12Z</time>
      </trkpt>
      <trkpt lat="45.45385" lon="6.88044">
        <ele>2475</ele>
        <time>2020-01-10T09:36:13Z</time>
      </trkpt>
      <trkpt lat="45.45381" lon="6.88054">
        <ele>2475</ele>
        <time>2020-01-10T09:36:14Z</time>
      </trkpt>
      <trkpt lat="45.45377" lon="6.88064">
        <ele>2475</ele>
        <time>2020-01-10T09:36:15Z</time>
      </trkpt>
      <trkpt lat="45.45373" lon="6.88076">
        <ele>2475</ele>
        <time>2020-01-10T09:36:16Z</time>
      </trkpt>
      <trkpt lat="45.45368" lon="6.88091">
        <ele>2475</ele>
        <time>2020-01-10T09:36:17Z</time>
      </trkpt>
      <trkpt lat="45.45365" lon="6.88102">
        <ele>2475</ele>
        <time>2020-01-10T09:36:18Z</time>
      </trkpt>
      <trkpt lat="45.45361" lon="6.88116">
        <ele>2460.6</ele>
        <time>2020-01-10T09:36:19Z</time>
      </trkpt>
      <trkpt lat="45.45357" lon="6.88131">
        <ele>2460.6</ele>
        <time>2020-01-10T09:36:20Z</time>
      </trkpt>
      <trkpt lat="45.45353" lon="6.88144">
        <ele>2460.6</ele>
        <time>2020-01-10T09:36:21Z</time>
      </trkpt>
      <trkpt lat="45.45349" lon="6.88158">
        <ele>2460.6</ele>
        <time>2020-01-10T09:36:22Z</time>
      </trkpt>
      <trkpt lat="45.45345" lon="6.8817">
        <ele>2460.6</ele>
        <time>2020-01-10T09:36:23Z</time>
      </trkpt>
      <trkpt lat="45.45341" lon="6.88181">
        <ele>2460.6</ele>
        <time>2020-01-10T09:36:24Z</time>
      </trkpt>
      <trkpt lat="45.45335" lon="6.88189">
        <ele>2460.6</ele>
        <time>2020-01-10T09:36:25Z</time>
      </trkpt>
      <trkpt lat="45.45327" lon="6.88196">
        <ele>2460.6</ele>
        <time>2020-01-10T09:36:26Z</time>
      </trkpt>
      <trkpt lat="45.45319" lon="6.88199">
        <ele>2460.6</ele>
        <time>2020-01-10T09:36:27Z</time>
      </trkpt>
      <trkpt lat="45.45312" lon="6.882">
        <ele>2460.6</ele>
        <time>2020-01-10T09:36:28Z</time>
      </trkpt>
      <trkpt lat="45.45305" lon="6.882">
        <ele>2447.6</ele>
        <time>2020-01-10T09:36:29Z</time>
      </trkpt>
      <trkpt lat="45.453" lon="6.88203">
        <ele>2447.6</ele>
        <time>2020-01-10T09:36:30Z</time>
      </trkpt>
      <trkpt lat="45.45293" lon="6.88207">
        <ele>2447.6</ele>
        <time>2020-01-10T09:36:31Z</time>
      </trkpt>
      <trkpt lat="45.45288" lon="6.88208">
        <ele>2447.6</ele>
        <time>2020-01-10T09:36:32Z</time>
      </trkpt>
      <trkpt lat="45.45282" lon="6.88211">
        <ele>2447.6</ele>
        <time>2020-01-10T09:36:33Z</time>
      </trkpt>
      <trkpt lat="45.45276" lon="6.88217">
        <ele>2447.6</ele>
        <time>2020-01-10T09:36:34Z</time>
      </trkpt>
      <trkpt lat="45.45273" lon="6.88222">
        <ele>2447.6</ele>
        <time>2020-01-10T09:36:35Z</time>
      </trkpt>
      <trkpt lat="45.4527" lon="6.88229">
        <ele>2447.6</ele>
        <time>2020-01-10T09:36:36Z</time>
      </trkpt>
      <trkpt lat="45.45267" lon="6.88237">
        <ele>2447.6</ele>
        <time>2020-01-10T09:36:37Z</time>
      </trkpt>
      <trkpt lat="45.45264" lon="6.88245">
        <ele>2447.6</ele>
        <time>2020-01-10T09:36:38Z</time>
      </trkpt>
      <trkpt lat="45.4526" lon="6.88253">
        <ele>2437.6</ele>
        <time>2020-01-10T09:36:39Z</time>
      </trkpt>
      <trkpt lat="45.45258" lon="6.88262">
        <ele>2437.6</ele>
        <time>2020-01-10T09:36:40Z</time>
      </trkpt>
      <trkpt lat="45.45256" lon="6.88272">
        <ele>2437.6</ele>
        <time>2020-01-10T09:36:41Z</time>
      </trkpt>
      <trkpt lat="45.45254" lon="6.88283">
        <ele>2437.6</ele>
        <time>2020-01-10T09:36:42Z</time>
      </trkpt>
      <trkpt lat="45.45253" lon="6.88294">
        <ele>2437.6</ele>
        <time>2020-01-10T09:36:43Z</time>
      </trkpt>
      <trkpt lat="45.4525" lon="6.88305">
        <ele>2437.6</ele>
        <time>2020-01-10T09:36:44Z</time>
      </trkpt>
      <trkpt lat="45.45246" lon="6.88314">
        <ele>2437.6</ele>
        <time>2020-01-10T09:36:45Z</time>
      </trkpt>
      <trkpt lat="45.45244" lon="6.88324">
        <ele>2437.6</ele>
        <time>2020-01-10T09:36:46Z</time>
      </trkpt>
      <trkpt lat="45.45241" lon="6.88334">
        <ele>2437.6</ele>
        <time>2020-01-10T09:36:47Z</time>
      </trkpt>
      <trkpt lat="45.45238" lon="6.88344">
        <ele>2437.6</ele>
        <time>2020-01-10T09:36:48Z</time>
      </trkpt>
      <trkpt lat="45.45235" lon="6.88353">
        <ele>2427.2</ele>
        <time>2020-01-10T09:36:49Z</time>
      </trkpt>
      <trkpt lat="45.45233" lon="6.88363">
        <ele>2427.2</ele>
        <time>2020-01-10T09:36:50Z</time>
      </trkpt>
      <trkpt lat="45.45232" lon="6.88373">
        <ele>2427.2</ele>
        <time>2020-01-10T09:36:51Z</time>
      </trkpt>
      <trkpt lat="45.45228" lon="6.88382">
        <ele>2427.2</ele>
        <time>2020-01-10T09:36:52Z</time>
      </trkpt>
      <trkpt lat="45.45224" lon="6.8839">
        <ele>2427.2</ele>
        <time>2020-01-10T09:36:53Z</time>
      </trkpt>
      <trkpt lat="45.4522" lon="6.88397">
        <ele>2427.2</ele>
        <time>2020-01-10T09:36:54Z</time>
      </trkpt>
      <trkpt lat="45.4522" lon="6.88405">
        <ele>2427.2</ele>
        <time>2020-01-10T09:36:55Z</time>
      </trkpt>
      <trkpt lat="45.4522" lon="6.88414">
        <ele>2427.2</ele>
        <time>2020-01-10T09:36:56Z</time>
      </trkpt>
      <trkpt lat="45.4522" lon="6.88423">
        <ele>2427.2</ele>
        <time>2020-01-10T09:36:57Z</time>
      </trkpt>
      <trkpt lat="45.45216" lon="6.88429">
        <ele>2427.2</ele>
        <time>2020-01-10T09:36:58Z</time>
      </trkpt>
      <trkpt lat="45.45212" lon="6.88436">
        <ele>2409.6</ele>
        <time>2020-01-10T09:36:59Z</time>
      </trkpt>
      <trkpt lat="45.45209" lon="6.88443">
        <ele>2409.6</ele>
        <time>2020-01-10T09:37:00Z</time>
      </trkpt>
      <trkpt lat="45.45208" lon="6.88452">
        <ele>2409.6</ele>
        <time>2020-01-10T09:37:01Z</time>
      </trkpt>
      <trkpt lat="45.45208" lon="6.88462">
        <ele>2409.6</ele>
        <time>2020-01-10T09:37:02Z</time>
      </trkpt>
      <trkpt lat="45.45204" lon="6.88474">
        <ele>2409.6</ele>
        <time>2020-01-10T09:37:03Z</time>
      </trkpt>
      <trkpt lat="45.452" lon="6.8848">
        <ele>2409.6</ele>
        <time>2020-01-10T09:37:04Z</time>
      </trkpt>
      <trkpt lat="45.45195" lon="6.88489">
        <ele>2409.6</ele>
        <time>2020-01-10T09:37:05Z</time>
      </trkpt>
      <trkpt lat="45.45193" lon="6.88497">
        <ele>2409.6</ele>
        <time>2020-01-10T09:37:06Z</time>
      </trkpt>
      <trkpt lat="45.45194" lon="6.88504">
        <ele>2409.6</ele>
        <time>2020-01-10T09:37:07Z</time>
      </trkpt>
      <trkpt lat="45.45195" lon="6.88512">
        <ele>2409.6</ele>
        <time>2020-01-10T09:37:08Z</time>
      </trkpt>
      <trkpt lat="45.45194" lon="6.88522">
        <ele>2390.6</ele>
        <time>2020-01-10T09:37:09Z</time>
      </trkpt>
      <trkpt lat="45.4519" lon="6.88528">
        <ele>2390.6</ele>
        <time>2020-01-10T09:37:10Z</time>
      </trkpt>
      <trkpt lat="45.45185" lon="6.88534">
        <ele>2390.6</ele>
        <time>2020-01-10T09:37:11Z</time>
      </trkpt>
      <trkpt lat="45.4518" lon="6.88539">
        <ele>2390.6</ele>
        <time>2020-01-10T09:37:12Z</time>
      </trkpt>
      <trkpt lat="45.45179" lon="6.88545">
        <ele>2390.6</ele>
        <time>2020-01-10T09:37:13Z</time>
      </trkpt>
      <trkpt lat="45.4518" lon="6.88551">
        <ele>2390.6</ele>
        <time>2020-01-10T09:37:14Z</time>
      </trkpt>
      <trkpt lat="45.45182" lon="6.8856">
        <ele>2390.6</ele>
        <time>2020-01-10T09:37:15Z</time>
      </trkpt>
      <trkpt lat="45.45183" lon="6.88568">
        <ele>2390.6</ele>
        <time>2020-01-10T09:37:16Z</time>
      </trkpt>
      <trkpt lat="45.45182" lon="6.88576">
        <ele>2390.6</ele>
        <time>2020-01-10T09:37:17Z</time>
      </trkpt>
      <trkpt lat="45.45179" lon="6.88582">
        <ele>2390.6</ele>
        <time>2020-01-10T09:37:18Z</time>
      </trkpt>
      <trkpt lat="45.45175" lon="6.88586">
        <ele>2369.6</ele>
        <time>2020-01-10T09:37:19Z</time>
      </trkpt>
      <trkpt lat="45.45172" lon="6.88591">
        <ele>2369.6</ele>
        <time>2020-01-10T09:37:20Z</time>
      </trkpt>
      <trkpt lat="45.45171" lon="6.88598">
        <ele>2369.6</ele>
        <time>2020-01-10T09:37:21Z</time>
      </trkpt>
      <trkpt lat="45.45172" lon="6.88604">
        <ele>2369.6</ele>
        <time>2020-01-10T09:37:22Z</time>
      </trkpt>
      <trkpt lat="45.45173" lon="6.88615">
        <ele>2369.6</ele>
        <time>2020-01-10T09:37:23Z</time>
      </trkpt>
      <trkpt lat="45.4517" lon="6.88622">
        <ele>2369.6</ele>
        <time>2020-01-10T09:37:24Z</time>
      </trkpt>
      <trkpt lat="45.45164" lon="6.88629">
        <ele>2369.6</ele>
        <time>2020-01-10T09:37:25Z</time>
      </trkpt>
      <trkpt lat="45.4516" lon="6.88632">
        <ele>2369.6</ele>
        <time>2020-01-10T09:37:26Z</time>
      </trkpt>
      <trkpt lat="45.45156" lon="6.88638">
        <ele>2369.6</ele>
        <time>2020-01-10T09:37:27Z</time>
      </trkpt>
      <trkpt lat="45.45156" lon="6.88644">
        <ele>2369.6</ele>
        <time>2020-01-10T09:37:28Z</time>
      </trkpt>
      <trkpt lat="45.45157" lon="6.88649">
        <ele>2351</ele>
        <time>2020-01-10T09:37:29Z</time>
      </trkpt>
      <trkpt lat="45.45158" lon="6.88656">
        <ele>2351</ele>
        <time>2020-01-10T09:37:30Z</time>
      </trkpt>
      <trkpt lat="45.45156" lon="6.88661">
        <ele>2351</ele>
        <time>2020-01-10T09:37:31Z</time>
      </trkpt>
      <trkpt lat="45.45153" lon="6.88668">
        <ele>2351</ele>
        <time>2020-01-10T09:37:32Z</time>
      </trkpt>
      <trkpt lat="45.45151" lon="6.88675">
        <ele>2351</ele>
        <time>2020-01-10T09:37:33Z</time>
      </trkpt>
      <trkpt lat="45.45153" lon="6.88682">
        <ele>2351</ele>
        <time>2020-01-10T09:37:34Z</time>
      </trkpt>
      <trkpt lat="45.45155" lon="6.88689">
        <ele>2351</ele>
        <time>2020-01-10T09:37:35Z</time>
      </trkpt>
      <trkpt lat="45.45155" lon="6.88696">
        <ele>2351</ele>
        <time>2020-01-10T09:37:36Z</time>
      </trkpt>
      <trkpt lat="45.45153" lon="6.88703">
        <ele>2351</ele>
        <time>2020-01-10T09:37:37Z</time>
      </trkpt>
      <trkpt lat="45.4515" lon="6.88709">
        <ele>2351</ele>
        <time>2020-01-10T09:37:38Z</time>
      </trkpt>
      <trkpt lat="45.45147" lon="6.88716">
        <ele>2332</ele>
        <time>2020-01-10T09:37:39Z</time>
      </trkpt>
      <trkpt lat="45.45147" lon="6.88725">
        <ele>2332</ele>
        <time>2020-01-10T09:37:40Z</time>
      </trkpt>
      <trkpt lat="45.45151" lon="6.88733">
        <ele>2332</ele>
        <time>2020-01-10T09:37:41Z</time>
      </trkpt>
      <trkpt lat="45.45154" lon="6.88743">
        <ele>2332</ele>
        <time>2020-01-10T09:37:42Z</time>
      </trkpt>
      <trkpt lat="45.45156" lon="6.88754">
        <ele>2332</ele>
        <time>2020-01-10T09:37:43Z</time>
      </trkpt>
      <trkpt lat="45.45156" lon="6.88764">
        <ele>2332</ele>
        <time>2020-01-10T09:37:44Z</time>
      </trkpt>
      <trkpt lat="45.45156" lon="6.88775">
        <ele>2332</ele>
        <time>2020-01-10T09:37:45Z</time>
      </trkpt>
      <trkpt lat="45.45158" lon="6.88786">
        <ele>2332</ele>
        <time>2020-01-10T09:37:46Z</time>
      </trkpt>
      <trkpt lat="45.45163" lon="6.88794">
        <ele>2332</ele>
        <time>2020-01-10T09:37:47Z</time>
      </trkpt>
      <trkpt lat="45.45167" lon="6.88804">
        <ele>2332</ele>
        <time>2020-01-10T09:37:48Z</time>
      </trkpt>
      <trkpt lat="45.45168" lon="6.88812">
        <ele>2315.4</ele>
        <time>2020-01-10T09:37:49Z</time>
      </trkpt>
      <trkpt lat="45.45169" lon="6.88821">
        <ele>2315.4</ele>
        <time>2020-01-10T09:37:50Z</time>
      </trkpt>
      <trkpt lat="45.45171" lon="6.88827">
        <ele>2315.4</ele>
        <time>2020-01-10T09:37:51Z</time>
      </trkpt>
      <trkpt lat="45.45174" lon="6.88834">
        <ele>2315.4</ele>
        <time>2020-01-10T09:37:52Z</time>
      </trkpt>
      <trkpt lat="45.45175" lon="6.88841">
        <ele>2315.4</ele>
        <time>2020-01-10T09:37:53Z</time>
      </trkpt>
      <trkpt lat="45.45177" lon="6.88848">
        <ele>2315.4</ele>
        <time>2020-01-10T09:37:54Z</time>
      </trkpt>
      <trkpt lat="45.4518" lon="6.88855">
        <ele>2315.4</ele>
        <time>2020-01-10T09:37:55Z</time>
      </trkpt>
      <trkpt lat="45.45182" lon="6.88863">
        <ele>2315.4</ele>
        <time>2020-01-10T09:37:56Z</time>
      </trkpt>
      <trkpt lat="45.45182" lon="6.88871">
        <ele>2315.4</ele>
        <time>2020-01-10T09:37:57Z</time>
      </trkpt>
      <trkpt lat="45.45182" lon="6.88878">
        <ele>2315.4</ele>
        <time>2020-01-10T09:37:58Z</time>
      </trkpt>
      <trkpt lat="45.45184" lon="6.88885">
        <ele>2304.4</ele>
        <time>2020-01-10T09:37:59Z</time>
      </trkpt>
      <trkpt lat="45.45187" lon="6.88893">
        <ele>2304.4</ele>
        <time>2020-01-10T09:38:00Z</time>
      </trkpt>
      <trkpt lat="45.45188" lon="6.88901">
        <ele>2304.4</ele>
        <time>2020-01-10T09:38:01Z</time>
      </trkpt>
      <trkpt lat="45.4519" lon="6.8891">
        <ele>2304.4</ele>
        <time>2020-01-10T09:38:02Z</time>
      </trkpt>
      <trkpt lat="45.45192" lon="6.88916">
        <ele>2304.4</ele>
        <time>2020-01-10T09:38:03Z</time>
      </trkpt>
      <trkpt lat="45.45195" lon="6.88923">
        <ele>2304.4</ele>
        <time>2020-01-10T09:38:04Z</time>
      </trkpt>
      <trkpt lat="45.45195" lon="6.8893">
        <ele>2304.4</ele>
        <time>2020-01-10T09:38:05Z</time>
      </trkpt>
      <trkpt lat="45.45194" lon="6.88938">
        <ele>2304.4</ele>
        <time>2020-01-10T09:38:06Z</time>
      </trkpt>
      <trkpt lat="45.45194" lon="6.88945">
        <ele>2304.4</ele>
        <time>2020-01-10T09:38:07Z</time>
      </trkpt>
      <trkpt lat="45.45196" lon="6.88953">
        <ele>2304.4</ele>
        <time>2020-01-10T09:38:08Z</time>
      </trkpt>
      <trkpt lat="45.45196" lon="6.88962">
        <ele>2292.2</ele>
        <time>2020-01-10T09:38:09Z</time>
      </trkpt>
      <trkpt lat="45.45196" lon="6.88972">
        <ele>2292.2</ele>
        <time>2020-01-10T09:38:10Z</time>
      </trkpt>
      <trkpt lat="45.45195" lon="6.8898">
        <ele>2292.2</ele>
        <time>2020-01-10T09:38:11Z</time>
      </trkpt>
      <trkpt lat="45.45195" lon="6.88988">
        <ele>2292.2</ele>
        <time>2020-01-10T09:38:12Z</time>
      </trkpt>
      <trkpt lat="45.45197" lon="6.88995">
        <ele>2292.2</ele>
        <time>2020-01-10T09:38:13Z</time>
      </trkpt>
      <trkpt lat="45.45199" lon="6.89003">
        <ele>2292.2</ele>
        <time>2020-01-10T09:38:14Z</time>
      </trkpt>
      <trkpt lat="45.452" lon="6.89013">
        <ele>2292.2</ele>
        <time>2020-01-10T09:38:15Z</time>
      </trkpt>
      <trkpt lat="45.45199" lon="6.89023">
        <ele>2292.2</ele>
        <time>2020-01-10T09:38:16Z</time>
      </trkpt>
      <trkpt lat="45.45198" lon="6.89038">
        <ele>2292.2</ele>
        <time>2020-01-10T09:38:17Z</time>
      </trkpt>
      <trkpt lat="45.45197" lon="6.89048">
        <ele>2292.2</ele>
        <time>2020-01-10T09:38:18Z</time>
      </trkpt>
      <trkpt lat="45.45195" lon="6.89062">
        <ele>2278</ele>
        <time>2020-01-10T09:38:19Z</time>
      </trkpt>
      <trkpt lat="45.45193" lon="6.89075">
        <ele>2278</ele>
        <time>2020-01-10T09:38:20Z</time>
      </trkpt>
      <trkpt lat="45.45193" lon="6.8909">
        <ele>2278</ele>
        <time>2020-01-10T09:38:21Z</time>
      </trkpt>
      <trkpt lat="45.45193" lon="6.89105">
        <ele>2278</ele>
        <time>2020-01-10T09:38:22Z</time>
      </trkpt>
      <trkpt lat="45.45194" lon="6.89121">
        <ele>2278</ele>
        <time>2020-01-10T09:38:23Z</time>
      </trkpt>
      <trkpt lat="45.45196" lon="6.89137">
        <ele>2278</ele>
        <time>2020-01-10T09:38:24Z</time>
      </trkpt>
      <trkpt lat="45.45196" lon="6.89153">
        <ele>2278</ele>
        <time>2020-01-10T09:38:25Z</time>
      </trkpt>
      <trkpt lat="45.45196" lon="6.89169">
        <ele>2278</ele>
        <time>2020-01-10T09:38:26Z</time>
      </trkpt>
      <trkpt lat="45.45194" lon="6.89187">
        <ele>2278</ele>
        <time>2020-01-10T09:38:27Z</time>
      </trkpt>
      <trkpt lat="45.4519" lon="6.89198">
        <ele>2278</ele>
        <time>2020-01-10T09:38:28Z</time>
      </trkpt>
      <trkpt lat="45.45187" lon="6.8921">
        <ele>2259.6</ele>
        <time>2020-01-10T09:38:29Z</time>
      </trkpt>
      <trkpt lat="45.45187" lon="6.89221">
        <ele>2259.6</ele>
        <time>2020-01-10T09:38:30Z</time>
      </trkpt>
      <trkpt lat="45.45188" lon="6.8923">
        <ele>2259.6</ele>
        <time>2020-01-10T09:38:31Z</time>
      </trkpt>
      <trkpt lat="45.45191" lon="6.8924">
        <ele>2259.6</ele>
        <time>2020-01-10T09:38:32Z</time>
      </trkpt>
      <trkpt lat="45.45195" lon="6.89249">
        <ele>2259.6</ele>
        <time>2020-01-10T09:38:33Z</time>
      </trkpt>
      <trkpt lat="45.45197" lon="6.89258">
        <ele>2259.6</ele>
        <time>2020-01-10T09:38:34Z</time>
      </trkpt>
      <trkpt lat="45.452" lon="6.89267">
        <ele>2259.6</ele>
        <time>2020-01-10T09:38:35Z</time>
      </trkpt>
      <trkpt lat="45.45204" lon="6.89275">
        <ele>2259.6</ele>
        <time>2020-01-10T09:38:36Z</time>
      </trkpt>
      <trkpt lat="45.45208" lon="6.89282">
        <ele>2259.6</ele>
        <time>2020-01-10T09:38:37Z</time>
      </trkpt>
      <trkpt lat="45.45211" lon="6.8929">
        <ele>2259.6</ele>
        <time>2020-01-10T09:38:38Z</time>
      </trkpt>
      <trkpt lat="45.45211" lon="6.89299">
        <ele>2246.4</ele>
        <time>2020-01-10T09:38:39Z</time>
      </trkpt>
      <trkpt lat="45.45211" lon="6.89307">
        <ele>2246.4</ele>
        <time>2020-01-10T09:38:40Z</time>
      </trkpt>
      <trkpt lat="45.45214" lon="6.89315">
        <ele>2246.4</ele>
        <time>2020-01-10T09:38:41Z</time>
      </trkpt>
      <trkpt lat="45.45217" lon="6.89321">
        <ele>2246.4</ele>
        <time>2020-01-10T09:38:42Z</time>
      </trkpt>
      <trkpt lat="45.45219" lon="6.89329">
        <ele>2246.4</ele>
        <time>2020-01-10T09:38:43Z</time>
      </trkpt>
      <trkpt lat="45.45218" lon="6.89336">
        <ele>2246.4</ele>
        <time>2020-01-10T09:38:44Z</time>
      </trkpt>
      <trkpt lat="45.45216" lon="6.89343">
        <ele>2246.4</ele>
        <time>2020-01-10T09:38:45Z</time>
      </trkpt>
      <trkpt lat="45.45212" lon="6.89349">
        <ele>2246.4</ele>
        <time>2020-01-10T09:38:46Z</time>
      </trkpt>
      <trkpt lat="45.45208" lon="6.89355">
        <ele>2246.4</ele>
        <time>2020-01-10T09:38:47Z</time>
      </trkpt>
      <trkpt lat="45.45206" lon="6.89364">
        <ele>2246.4</ele>
        <time>2020-01-10T09:38:48Z</time>
      </trkpt>
      <trkpt lat="45.45203" lon="6.89372">
        <ele>2227.6</ele>
        <time>2020-01-10T09:38:49Z</time>
      </trkpt>
      <trkpt lat="45.45199" lon="6.89379">
        <ele>2227.6</ele>
        <time>2020-01-10T09:38:50Z</time>
      </trkpt>
      <trkpt lat="45.45196" lon="6.89386">
        <ele>2227.6</ele>
        <time>2020-01-10T09:38:51Z</time>
      </trkpt>
      <trkpt lat="45.45194" lon="6.89394">
        <ele>2227.6</ele>
        <time>2020-01-10T09:38:52Z</time>
      </trkpt>
      <trkpt lat="45.45192" lon="6.89403">
        <ele>2227.6</ele>
        <time>2020-01-10T09:38:53Z</time>
      </trkpt>
      <trkpt lat="45.45188" lon="6.8941">
        <ele>2227.6</ele>
        <time>2020-01-10T09:38:54Z</time>
      </trkpt>
      <trkpt lat="45.45184" lon="6.89414">
        <ele>2227.6</ele>
        <time>2020-01-10T09:38:55Z</time>
      </trkpt>
      <trkpt lat="45.4518" lon="6.89419">
        <ele>2227.6</ele>
        <time>2020-01-10T09:38:56Z</time>
      </trkpt>
      <trkpt lat="45.45177" lon="6.89425">
        <ele>2227.6</ele>
        <time>2020-01-10T09:38:57Z</time>
      </trkpt>
      <trkpt lat="45.45173" lon="6.89431">
        <ele>2227.6</ele>
        <time>2020-01-10T09:38:58Z</time>
      </trkpt>
      <trkpt lat="45.45168" lon="6.89436">
        <ele>2206.2</ele>
        <time>2020-01-10T09:38:59Z</time>
      </trkpt>
      <trkpt lat="45.45163" lon="6.8944">
        <ele>2206.2</ele>
        <time>2020-01-10T09:39:00Z</time>
      </trkpt>
      <trkpt lat="45.45158" lon="6.89446">
        <ele>2206.2</ele>
        <time>2020-01-10T09:39:01Z</time>
      </trkpt>
      <trkpt lat="45.45154" lon="6.89452">
        <ele>2206.2</ele>
        <time>2020-01-10T09:39:02Z</time>
      </trkpt>
      <trkpt lat="45.4515" lon="6.89459">
        <ele>2206.2</ele>
        <time>2020-01-10T09:39:03Z</time>
      </trkpt>
      <trkpt lat="45.45147" lon="6.89465">
        <ele>2206.2</ele>
        <time>2020-01-10T09:39:04Z</time>
      </trkpt>
      <trkpt lat="45.45145" lon="6.89472">
        <ele>2206.2</ele>
        <time>2020-01-10T09:39:05Z</time>
      </trkpt>
      <trkpt lat="45.45147" lon="6.89478">
        <ele>2206.2</ele>
        <time>2020-01-10T09:39:06Z</time>
      </trkpt>
      <trkpt lat="45.45148" lon="6.89485">
        <ele>2206.2</ele>
        <time>2020-01-10T09:39:07Z</time>
      </trkpt>
      <trkpt lat="45.45148" lon="6.89493">
        <ele>2206.2</ele>
        <time>2020-01-10T09:39:08Z</time>
      </trkpt>
      <trkpt lat="45.45147" lon="6.89499">
        <ele>2189.2</ele>
        <time>2020-01-10T09:39:09Z</time>
      </trkpt>
      <trkpt lat="45.45147" lon="6.89505">
        <ele>2189.2</ele>
        <time>2020-01-10T09:39:10Z</time>
      </trkpt>
      <trkpt lat="45.45149" lon="6.89508">
        <ele>2189.2</ele>
        <time>2020-01-10T09:39:11Z</time>
      </trkpt>
      <trkpt lat="45.45152" lon="6.89513">
        <ele>2189.2</ele>
        <time>2020-01-10T09:39:12Z</time>
      </trkpt>
      <trkpt lat="45.45153" lon="6.8952">
        <ele>2189.2</ele>
        <time>2020-01-10T09:39:13Z</time>
      </trkpt>
      <trkpt lat="45.45153" lon="6.89529">
        <ele>2189.2</ele>
        <time>2020-01-10T09:39:14Z</time>
      </trkpt>
      <trkpt lat="45.45155" lon="6.89534">
        <ele>2189.2</ele>
        <time>2020-01-10T09:39:15Z</time>
      </trkpt>
      <trkpt lat="45.45156" lon="6.89537">
        <ele>2189.2</ele>
        <time>2020-01-10T09:39:16Z</time>
      </trkpt>
      <trkpt lat="45.45156" lon="6.89539">
        <ele>2189.2</ele>
        <time>2020-01-10T09:39:17Z</time>
      </trkpt>
      <trkpt lat="45.45158" lon="6.89541">
        <ele>2189.2</ele>
        <time>2020-01-10T09:39:20Z</time>
      </trkpt>
      <trkpt lat="45.4516" lon="6.89542">
        <ele>2189.2</ele>
        <time>2020-01-10T09:39:21Z</time>
      </trkpt>
      <trkpt lat="45.45163" lon="6.89546">
        <ele>2189.2</ele>
        <time>2020-01-10T09:39:22Z</time>
      </trkpt>
      <trkpt lat="45.45164" lon="6.89551">
        <ele>2189.2</ele>
        <time>2020-01-10T09:39:23Z</time>
      </trkpt>
      <trkpt lat="45.45168" lon="6.89556">
        <ele>2189.2</ele>
        <time>2020-01-10T09:39:24Z</time>
      </trkpt>
      <trkpt lat="45.45172" lon="6.89559">
        <ele>2189.2</ele>
        <time>2020-01-10T09:39:25Z</time>
      </trkpt>
      <trkpt lat="45.45178" lon="6.89563">
        <ele>2189.2</ele>
        <time>2020-01-10T09:39:26Z</time>
      </trkpt>
      <trkpt lat="45.45182" lon="6.89566">
        <ele>2189.2</ele>
        <time>2020-01-10T09:39:27Z</time>
      </trkpt>
      <trkpt lat="45.45184" lon="6.89571">
        <ele>2189.2</ele>
        <time>2020-01-10T09:39:28Z</time>
      </trkpt>
      <trkpt lat="45.45186" lon="6.89577">
        <ele>2164.8</ele>
        <time>2020-01-10T09:39:29Z</time>
      </trkpt>
      <trkpt lat="45.45187" lon="6.89583">
        <ele>2164.8</ele>
        <time>2020-01-10T09:39:30Z</time>
      </trkpt>
      <trkpt lat="45.45187" lon="6.89589">
        <ele>2164.8</ele>
        <time>2020-01-10T09:39:31Z</time>
      </trkpt>
      <trkpt lat="45.45188" lon="6.89595">
        <ele>2164.8</ele>
        <time>2020-01-10T09:39:32Z</time>
      </trkpt>
      <trkpt lat="45.4519" lon="6.896">
        <ele>2164.8</ele>
        <time>2020-01-10T09:39:33Z</time>
      </trkpt>
      <trkpt lat="45.45194" lon="6.89602">
        <ele>2164.8</ele>
        <time>2020-01-10T09:39:34Z</time>
      </trkpt>
      <trkpt lat="45.45199" lon="6.89603">
        <ele>2164.8</ele>
        <time>2020-01-10T09:39:35Z</time>
      </trkpt>
      <trkpt lat="45.45204" lon="6.89606">
        <ele>2164.8</ele>
        <time>2020-01-10T09:39:36Z</time>
      </trkpt>
      <trkpt lat="45.45208" lon="6.89611">
        <ele>2164.8</ele>
        <time>2020-01-10T09:39:37Z</time>
      </trkpt>
      <trkpt lat="45.4521" lon="6.89617">
        <ele>2164.8</ele>
        <time>2020-01-10T09:39:38Z</time>
      </trkpt>
      <trkpt lat="45.4521" lon="6.89624">
        <ele>2147.2</ele>
        <time>2020-01-10T09:39:39Z</time>
      </trkpt>
      <trkpt lat="45.45209" lon="6.89631">
        <ele>2147.2</ele>
        <time>2020-01-10T09:39:40Z</time>
      </trkpt>
      <trkpt lat="45.45208" lon="6.89638">
        <ele>2147.2</ele>
        <time>2020-01-10T09:39:41Z</time>
      </trkpt>
      <trkpt lat="45.45209" lon="6.89643">
        <ele>2147.2</ele>
        <time>2020-01-10T09:39:42Z</time>
      </trkpt>
      <trkpt lat="45.45212" lon="6.89646">
        <ele>2147.2</ele>
        <time>2020-01-10T09:39:43Z</time>
      </trkpt>
      <trkpt lat="45.45216" lon="6.89648">
        <ele>2147.2</ele>
        <time>2020-01-10T09:39:44Z</time>
      </trkpt>
      <trkpt lat="45.4522" lon="6.89652">
        <ele>2147.2</ele>
        <time>2020-01-10T09:39:45Z</time>
      </trkpt>
      <trkpt lat="45.45222" lon="6.89658">
        <ele>2147.2</ele>
        <time>2020-01-10T09:39:46Z</time>
      </trkpt>
      <trkpt lat="45.45222" lon="6.89665">
        <ele>2147.2</ele>
        <time>2020-01-10T09:39:47Z</time>
      </trkpt>
      <trkpt lat="45.45222" lon="6.89671">
        <ele>2147.2</ele>
        <time>2020-01-10T09:39:48Z</time>
      </trkpt>
      <trkpt lat="45.45224" lon="6.89677">
        <ele>2128.2</ele>
        <time>2020-01-10T09:39:49Z</time>
      </trkpt>
      <trkpt lat="45.45227" lon="6.89681">
        <ele>2128.2</ele>
        <time>2020-01-10T09:39:50Z</time>
      </trkpt>
      <trkpt lat="45.45232" lon="6.89682">
        <ele>2128.2</ele>
        <time>2020-01-10T09:39:51Z</time>
      </trkpt>
      <trkpt lat="45.45238" lon="6.89685">
        <ele>2128.2</ele>
        <time>2020-01-10T09:39:52Z</time>
      </trkpt>
      <trkpt lat="45.45244" lon="6.89692">
        <ele>2128.2</ele>
        <time>2020-01-10T09:39:53Z</time>
      </trkpt>
      <trkpt lat="45.45248" lon="6.89701">
        <ele>2128.2</ele>
        <time>2020-01-10T09:39:54Z</time>
      </trkpt>
      <trkpt lat="45.45252" lon="6.89711">
        <ele>2128.2</ele>
        <time>2020-01-10T09:39:55Z</time>
      </trkpt>
      <trkpt lat="45.45255" lon="6.89721">
        <ele>2128.2</ele>
        <time>2020-01-10T09:39:56Z</time>
      </trkpt>
      <trkpt lat="45.45258" lon="6.89731">
        <ele>2128.2</ele>
        <time>2020-01-10T09:39:57Z</time>
      </trkpt>
      <trkpt lat="45.4526" lon="6.8974">
        <ele>2128.2</ele>
        <time>2020-01-10T09:39:58Z</time>
      </trkpt>
      <trkpt lat="45.45262" lon="6.89748">
        <ele>2115.2</ele>
        <time>2020-01-10T09:39:59Z</time>
      </trkpt>
      <trkpt lat="45.45265" lon="6.89755">
        <ele>2115.2</ele>
        <time>2020-01-10T09:40:00Z</time>
      </trkpt>
      <trkpt lat="45.45268" lon="6.89761">
        <ele>2115.2</ele>
        <time>2020-01-10T09:40:01Z</time>
      </trkpt>
      <trkpt lat="45.4527" lon="6.89767">
        <ele>2115.2</ele>
        <time>2020-01-10T09:40:02Z</time>
      </trkpt>
      <trkpt lat="45.4527" lon="6.89773">
        <ele>2115.2</ele>
        <time>2020-01-10T09:40:03Z</time>
      </trkpt>
      <trkpt lat="45.45269" lon="6.89778">
        <ele>2115.2</ele>
        <time>2020-01-10T09:40:04Z</time>
      </trkpt>
      <trkpt lat="45.45269" lon="6.89783">
        <ele>2115.2</ele>
        <time>2020-01-10T09:40:05Z</time>
      </trkpt>
      <trkpt lat="45.45267" lon="6.89788">
        <ele>2115.2</ele>
        <time>2020-01-10T09:40:06Z</time>
      </trkpt>
      <trkpt lat="45.45266" lon="6.89791">
        <ele>2115.2</ele>
        <time>2020-01-10T09:40:07Z</time>
      </trkpt>
      <trkpt lat="45.45265" lon="6.89794">
        <ele>2115.2</ele>
        <time>2020-01-10T09:40:08Z</time>
      </trkpt>
      <trkpt lat="45.45264" lon="6.89798">
        <ele>2115.2</ele>
        <time>2020-01-10T09:40:10Z</time>
      </trkpt>
      <trkpt lat="45.45265" lon="6.89801">
        <ele>2115.2</ele>
        <time>2020-01-10T09:40:12Z</time>
      </trkpt>
      <trkpt lat="45.45266" lon="6.89806">
        <ele>2115.2</ele>
        <time>2020-01-10T09:40:14Z</time>
      </trkpt>
      <trkpt lat="45.45267" lon="6.89811">
        <ele>2115.2</ele>
        <time>2020-01-10T09:40:16Z</time>
      </trkpt>
      <trkpt lat="45.45268" lon="6.89814">
        <ele>2115.2</ele>
        <time>2020-01-10T09:40:17Z</time>
      </trkpt>
      <trkpt lat="45.45268" lon="6.89818">
        <ele>2115.2</ele>
        <time>2020-01-10T09:40:18Z</time>
      </trkpt>
      <trkpt lat="45.45269" lon="6.89822">
        <ele>2113</ele>
        <time>2020-01-10T09:40:19Z</time>
      </trkpt>
      <trkpt lat="45.4527" lon="6.89826">
        <ele>2113</ele>
        <time>2020-01-10T09:40:21Z</time>
      </trkpt>
      <trkpt lat="45.4527" lon="6.89829">
        <ele>2113</ele>
        <time>2020-01-10T09:40:22Z</time>
      </trkpt>
      <trkpt lat="45.4527" lon="6.89833">
        <ele>2113</ele>
        <time>2020-01-10T09:40:24Z</time>
      </trkpt>
      <trkpt lat="45.4527" lon="6.89836">
        <ele>2113</ele>
        <time>2020-01-10T09:40:25Z</time>
      </trkpt>
      <trkpt lat="45.45271" lon="6.89839">
        <ele>2113</ele>
        <time>2020-01-10T09:40:27Z</time>
      </trkpt>
      <trkpt lat="45.45271" lon="6.89842">
        <ele>2113</ele>
        <time>2020-01-10T09:40:28Z</time>
      </trkpt>
      <trkpt lat="45.45271" lon="6.89847">
        <ele>2113</ele>
        <time>2020-01-10T09:40:30Z</time>
      </trkpt>
      <trkpt lat="45.45271" lon="6.8985">
        <ele>2113</ele>
        <time>2020-01-10T09:40:31Z</time>
      </trkpt>
      <trkpt lat="45.45272" lon="6.89853">
        <ele>2113</ele>
        <time>2020-01-10T09:40:32Z</time>
      </trkpt>
      <trkpt lat="45.45272" lon="6.89858">
        <ele>2113</ele>
        <time>2020-01-10T09:40:34Z</time>
      </trkpt>
      <trkpt lat="45.45273" lon="6.8986">
        <ele>2113</ele>
        <time>2020-01-10T09:40:36Z</time>
      </trkpt>
      <trkpt lat="45.45274" lon="6.89864">
        <ele>2113</ele>
        <time>2020-01-10T09:40:41Z</time>
      </trkpt>
      <trkpt lat="45.45277" lon="6.89867">
        <ele>2113</ele>
        <time>2020-01-10T09:41:52Z</time>
      </trkpt>
      <trkpt lat="45.45276" lon="6.8987">
        <ele>2113</ele>
        <time>2020-01-10T09:41:53Z</time>
      </trkpt>
      <trkpt lat="45.45276" lon="6.89874">
        <ele>2113</ele>
        <time>2020-01-10T09:41:55Z</time>
      </trkpt>
      <trkpt lat="45.45276" lon="6.89877">
        <ele>2113</ele>
        <time>2020-01-10T09:41:56Z</time>
      </trkpt>
      <trkpt lat="45.45275" lon="6.89882">
        <ele>2113</ele>
        <time>2020-01-10T09:41:58Z</time>
      </trkpt>
      <trkpt lat="45.45275" lon="6.89886">
        <ele>2113</ele>
        <time>2020-01-10T09:42:00Z</time>
      </trkpt>
      <trkpt lat="45.45274" lon="6.8989">
        <ele>2113</ele>
        <time>2020-01-10T09:42:02Z</time>
      </trkpt>
      <trkpt lat="45.45273" lon="6.89894">
        <ele>2113</ele>
        <time>2020-01-10T09:42:04Z</time>
      </trkpt>
      <trkpt lat="45.45272" lon="6.89897">
        <ele>2113</ele>
        <time>2020-01-10T09:42:06Z</time>
      </trkpt>
      <trkpt lat="45.45272" lon="6.899">
        <ele>2113</ele>
        <time>2020-01-10T09:42:08Z</time>
      </trkpt>
      <trkpt lat="45.45272" lon="6.89903">
        <ele>2113</ele>
        <time>2020-01-10T09:42:10Z</time>
      </trkpt>
      <trkpt lat="45.45272" lon="6.89906">
        <ele>2113</ele>
        <time>2020-01-10T09:42:12Z</time>
      </trkpt>
      <trkpt lat="45.45271" lon="6.89909">
        <ele>2113</ele>
        <time>2020-01-10T09:42:15Z</time>
      </trkpt>
      <trkpt lat="45.45271" lon="6.89912">
        <ele>2113</ele>
        <time>2020-01-10T09:42:17Z</time>
      </trkpt>
      <trkpt lat="45.4527" lon="6.89915">
        <ele>2112.2</ele>
        <time>2020-01-10T09:42:19Z</time>
      </trkpt>
      <trkpt lat="45.45269" lon="6.89918">
        <ele>2112.2</ele>
        <time>2020-01-10T09:42:21Z</time>
      </trkpt>
      <trkpt lat="45.45269" lon="6.89922">
        <ele>2112.2</ele>
        <time>2020-01-10T09:42:23Z</time>
      </trkpt>
      <trkpt lat="45.45268" lon="6.89924">
        <ele>2112.2</ele>
        <time>2020-01-10T09:42:25Z</time>
      </trkpt>
      <trkpt lat="45.45268" lon="6.89928">
        <ele>2112.2</ele>
        <time>2020-01-10T09:42:27Z</time>
      </trkpt>
      <trkpt lat="45.45267" lon="6.8993">
        <ele>2114.4</ele>
        <time>2020-01-10T09:42:29Z</time>
      </trkpt>
      <trkpt lat="45.45267" lon="6.89934">
        <ele>2114.4</ele>
        <time>2020-01-10T09:42:32Z</time>
      </trkpt>
      <trkpt lat="45.45267" lon="6.89937">
        <ele>2114.4</ele>
        <time>2020-01-10T09:42:35Z</time>
      </trkpt>
      <trkpt lat="45.45267" lon="6.8994">
        <ele>2114.4</ele>
        <time>2020-01-10T09:42:38Z</time>
      </trkpt>
      <trkpt lat="45.45266" lon="6.89943">
        <ele>2114.4</ele>
        <time>2020-01-10T09:42:40Z</time>
      </trkpt>
      <trkpt lat="45.45265" lon="6.89947">
        <ele>2114.4</ele>
        <time>2020-01-10T09:42:43Z</time>
      </trkpt>
      <trkpt lat="45.45264" lon="6.89949">
        <ele>2114.4</ele>
        <time>2020-01-10T09:42:45Z</time>
      </trkpt>
      <trkpt lat="45.45263" lon="6.89952">
        <ele>2114.4</ele>
        <time>2020-01-10T09:42:47Z</time>
      </trkpt>
      <trkpt lat="45.45263" lon="6.89955">
        <ele>2114.4</ele>
        <time>2020-01-10T09:42:50Z</time>
      </trkpt>
      <trkpt lat="45.45264" lon="6.89958">
        <ele>2114.4</ele>
        <time>2020-01-10T09:42:53Z</time>
      </trkpt>
      <trkpt lat="45.45264" lon="6.89961">
        <ele>2114.4</ele>
        <time>2020-01-10T09:42:55Z</time>
      </trkpt>
      <trkpt lat="45.45264" lon="6.89965">
        <ele>2114.4</ele>
        <time>2020-01-10T09:42:58Z</time>
      </trkpt>
      <trkpt lat="45.45264" lon="6.89967">
        <ele>2114.4</ele>
        <time>2020-01-10T09:43:00Z</time>
      </trkpt>
      <trkpt lat="45.45263" lon="6.8997">
        <ele>2114.4</ele>
        <time>2020-01-10T09:43:02Z</time>
      </trkpt>
      <trkpt lat="45.45262" lon="6.89973">
        <ele>2114.4</ele>
        <time>2020-01-10T09:43:04Z</time>
      </trkpt>
      <trkpt lat="45.4526" lon="6.89976">
        <ele>2114.4</ele>
        <time>2020-01-10T09:43:06Z</time>
      </trkpt>
      <trkpt lat="45.4526" lon="6.89978">
        <ele>2114.4</ele>
        <time>2020-01-10T09:43:08Z</time>
      </trkpt>
      <trkpt lat="45.45258" lon="6.89981">
        <ele>2114.4</ele>
        <time>2020-01-10T09:43:10Z</time>
      </trkpt>
      <trkpt lat="45.45257" lon="6.89984">
        <ele>2114.4</ele>
        <time>2020-01-10T09:43:12Z</time>
      </trkpt>
      <trkpt lat="45.45256" lon="6.89987">
        <ele>2114.4</ele>
        <time>2020-01-10T09:43:15Z</time>
      </trkpt>
      <trkpt lat="45.45256" lon="6.8999">
        <ele>2114.4</ele>
        <time>2020-01-10T09:43:17Z</time>
      </trkpt>
      <trkpt lat="45.45254" lon="6.89992">
        <ele>2127.8</ele>
        <time>2020-01-10T09:43:19Z</time>
      </trkpt>
      <trkpt lat="45.45253" lon="6.89995">
        <ele>2127.8</ele>
        <time>2020-01-10T09:43:21Z</time>
      </trkpt>
      <trkpt lat="45.45253" lon="6.89998">
        <ele>2127.8</ele>
        <time>2020-01-10T09:43:23Z</time>
      </trkpt>
      <trkpt lat="45.45252" lon="6.9">
        <ele>2127.8</ele>
        <time>2020-01-10T09:43:26Z</time>
      </trkpt>
      <trkpt lat="45.45252" lon="6.90004">
        <ele>2127.8</ele>
        <time>2020-01-10T09:43:28Z</time>
      </trkpt>
      <trkpt lat="45.45251" lon="6.90007">
        <ele>2127.8</ele>
        <time>2020-01-10T09:43:30Z</time>
      </trkpt>
      <trkpt lat="45.4525" lon="6.9001">
        <ele>2127.8</ele>
        <time>2020-01-10T09:43:32Z</time>
      </trkpt>
      <trkpt lat="45.4525" lon="6.90014">
        <ele>2127.8</ele>
        <time>2020-01-10T09:43:35Z</time>
      </trkpt>
      <trkpt lat="45.45249" lon="6.90017">
        <ele>2127.8</ele>
        <time>2020-01-10T09:43:37Z</time>
      </trkpt>
      <trkpt lat="45.45249" lon="6.9002">
        <ele>2132.2</ele>
        <time>2020-01-10T09:43:39Z</time>
      </trkpt>
      <trkpt lat="45.45246" lon="6.90034">
        <ele>2132.2</ele>
        <time>2020-01-10T09:43:46Z</time>
      </trkpt>
      <trkpt lat="45.45245" lon="6.90038">
        <ele>2132.2</ele>
        <time>2020-01-10T09:43:48Z</time>
      </trkpt>
      <trkpt lat="45.45244" lon="6.90042">
        <ele>2132.2</ele>
        <time>2020-01-10T09:43:50Z</time>
      </trkpt>
      <trkpt lat="45.45244" lon="6.90045">
        <ele>2132.2</ele>
        <time>2020-01-10T09:43:52Z</time>
      </trkpt>
      <trkpt lat="45.45242" lon="6.90049">
        <ele>2132.2</ele>
        <time>2020-01-10T09:43:54Z</time>
      </trkpt>
      <trkpt lat="45.4524" lon="6.90052">
        <ele>2132.2</ele>
        <time>2020-01-10T09:43:56Z</time>
      </trkpt>
      <trkpt lat="45.45239" lon="6.90056">
        <ele>2132.2</ele>
        <time>2020-01-10T09:43:58Z</time>
      </trkpt>
      <trkpt lat="45.45238" lon="6.90059">
        <ele>2132.2</ele>
        <time>2020-01-10T09:44:00Z</time>
      </trkpt>
      <trkpt lat="45.45238" lon="6.90063">
        <ele>2132.2</ele>
        <time>2020-01-10T09:44:02Z</time>
      </trkpt>
      <trkpt lat="45.45237" lon="6.90065">
        <ele>2132.2</ele>
        <time>2020-01-10T09:44:03Z</time>
      </trkpt>
      <trkpt lat="45.45236" lon="6.90069">
        <ele>2132.2</ele>
        <time>2020-01-10T09:44:05Z</time>
      </trkpt>
      <trkpt lat="45.45236" lon="6.90071">
        <ele>2132.2</ele>
        <time>2020-01-10T09:44:06Z</time>
      </trkpt>
      <trkpt lat="45.45235" lon="6.90073">
        <ele>2132.2</ele>
        <time>2020-01-10T09:44:07Z</time>
      </trkpt>
      <trkpt lat="45.45234" lon="6.90078">
        <ele>2137.8</ele>
        <time>2020-01-10T09:44:09Z</time>
      </trkpt>
      <trkpt lat="45.45233" lon="6.90082">
        <ele>2137.8</ele>
        <time>2020-01-10T09:44:11Z</time>
      </trkpt>
      <trkpt lat="45.45233" lon="6.90086">
        <ele>2137.8</ele>
        <time>2020-01-10T09:44:13Z</time>
      </trkpt>
      <trkpt lat="45.45232" lon="6.9009">
        <ele>2137.8</ele>
        <time>2020-01-10T09:44:15Z</time>
      </trkpt>
      <trkpt lat="45.45232" lon="6.90094">
        <ele>2137.8</ele>
        <time>2020-01-10T09:44:17Z</time>
      </trkpt>
      <trkpt lat="45.45232" lon="6.90098">
        <ele>2139</ele>
        <time>2020-01-10T09:44:19Z</time>
      </trkpt>
      <trkpt lat="45.4523" lon="6.90102">
        <ele>2139</ele>
        <time>2020-01-10T09:44:21Z</time>
      </trkpt>
      <trkpt lat="45.4523" lon="6.90107">
        <ele>2139</ele>
        <time>2020-01-10T09:44:23Z</time>
      </trkpt>
      <trkpt lat="45.45229" lon="6.90109">
        <ele>2139</ele>
        <time>2020-01-10T09:44:24Z</time>
      </trkpt>
      <trkpt lat="45.45228" lon="6.90114">
        <ele>2139</ele>
        <time>2020-01-10T09:44:26Z</time>
      </trkpt>
      <trkpt lat="45.45227" lon="6.90118">
        <ele>2139</ele>
        <time>2020-01-10T09:44:28Z</time>
      </trkpt>
      <trkpt lat="45.45226" lon="6.90121">
        <ele>2139</ele>
        <time>2020-01-10T09:44:30Z</time>
      </trkpt>
      <trkpt lat="45.45225" lon="6.90125">
        <ele>2139</ele>
        <time>2020-01-10T09:44:32Z</time>
      </trkpt>
      <trkpt lat="45.45224" lon="6.90129">
        <ele>2139</ele>
        <time>2020-01-10T09:44:34Z</time>
      </trkpt>
      <trkpt lat="45.45223" lon="6.90132">
        <ele>2139</ele>
        <time>2020-01-10T09:44:36Z</time>
      </trkpt>
      <trkpt lat="45.45222" lon="6.90135">
        <ele>2139</ele>
        <time>2020-01-10T09:44:38Z</time>
      </trkpt>
      <trkpt lat="45.45221" lon="6.90139">
        <ele>2139</ele>
        <time>2020-01-10T09:44:40Z</time>
      </trkpt>
      <trkpt lat="45.4522" lon="6.90144">
        <ele>2139</ele>
        <time>2020-01-10T09:44:42Z</time>
      </trkpt>
      <trkpt lat="45.45219" lon="6.90147">
        <ele>2139</ele>
        <time>2020-01-10T09:44:44Z</time>
      </trkpt>
      <trkpt lat="45.45218" lon="6.90151">
        <ele>2139</ele>
        <time>2020-01-10T09:44:46Z</time>
      </trkpt>
      <trkpt lat="45.45217" lon="6.90155">
        <ele>2139</ele>
        <time>2020-01-10T09:44:48Z</time>
      </trkpt>
      <trkpt lat="45.45216" lon="6.90159">
        <ele>2139</ele>
        <time>2020-01-10T09:44:50Z</time>
      </trkpt>
      <trkpt lat="45.45214" lon="6.90163">
        <ele>2139</ele>
        <time>2020-01-10T09:44:52Z</time>
      </trkpt>
      <trkpt lat="45.45212" lon="6.90167">
        <ele>2139</ele>
        <time>2020-01-10T09:44:54Z</time>
      </trkpt>
      <trkpt lat="45.45211" lon="6.9017">
        <ele>2139</ele>
        <time>2020-01-10T09:44:55Z</time>
      </trkpt>
      <trkpt lat="45.45209" lon="6.90175">
        <ele>2139</ele>
        <time>2020-01-10T09:44:57Z</time>
      </trkpt>
      <trkpt lat="45.45208" lon="6.90178">
        <ele>2145</ele>
        <time>2020-01-10T09:44:59Z</time>
      </trkpt>
      <trkpt lat="45.45208" lon="6.90182">
        <ele>2145</ele>
        <time>2020-01-10T09:45:01Z</time>
      </trkpt>
      <trkpt lat="45.45208" lon="6.90186">
        <ele>2145</ele>
        <time>2020-01-10T09:45:03Z</time>
      </trkpt>
      <trkpt lat="45.45207" lon="6.90189">
        <ele>2145</ele>
        <time>2020-01-10T09:45:05Z</time>
      </trkpt>
      <trkpt lat="45.45207" lon="6.90192">
        <ele>2145</ele>
        <time>2020-01-10T09:45:06Z</time>
      </trkpt>
      <trkpt lat="45.45207" lon="6.90194">
        <ele>2145</ele>
        <time>2020-01-10T09:45:07Z</time>
      </trkpt>
      <trkpt lat="45.45207" lon="6.90198">
        <ele>2146</ele>
        <time>2020-01-10T09:45:09Z</time>
      </trkpt>
      <trkpt lat="45.45208" lon="6.90201">
        <ele>2146</ele>
        <time>2020-01-10T09:45:11Z</time>
      </trkpt>
      <trkpt lat="45.45209" lon="6.90205">
        <ele>2146</ele>
        <time>2020-01-10T09:45:14Z</time>
      </trkpt>
      <trkpt lat="45.4521" lon="6.9021">
        <ele>2146</ele>
        <time>2020-01-10T09:45:16Z</time>
      </trkpt>
      <trkpt lat="45.45211" lon="6.90213">
        <ele>2146</ele>
        <time>2020-01-10T09:45:18Z</time>
      </trkpt>
      <trkpt lat="45.45212" lon="6.90216">
        <ele>2146</ele>
        <time>2020-01-10T09:45:20Z</time>
      </trkpt>
      <trkpt lat="45.45212" lon="6.9022">
        <ele>2146</ele>
        <time>2020-01-10T09:45:22Z</time>
      </trkpt>
      <trkpt lat="45.45213" lon="6.90223">
        <ele>2146</ele>
        <time>2020-01-10T09:45:24Z</time>
      </trkpt>
      <trkpt lat="45.45214" lon="6.90226">
        <ele>2146</ele>
        <time>2020-01-10T09:45:26Z</time>
      </trkpt>
      <trkpt lat="45.45215" lon="6.90229">
        <ele>2146</ele>
        <time>2020-01-10T09:45:28Z</time>
      </trkpt>
      <trkpt lat="45.45216" lon="6.90232">
        <ele>2146</ele>
        <time>2020-01-10T09:45:30Z</time>
      </trkpt>
      <trkpt lat="45.45218" lon="6.90235">
        <ele>2146</ele>
        <time>2020-01-10T09:45:32Z</time>
      </trkpt>
      <trkpt lat="45.45219" lon="6.90238">
        <ele>2146</ele>
        <time>2020-01-10T09:45:34Z</time>
      </trkpt>
      <trkpt lat="45.4522" lon="6.90241">
        <ele>2146</ele>
        <time>2020-01-10T09:45:36Z</time>
      </trkpt>
      <trkpt lat="45.4522" lon="6.90244">
        <ele>2146</ele>
        <time>2020-01-10T09:45:38Z</time>
      </trkpt>
      <trkpt lat="45.4522" lon="6.90247">
        <ele>2146</ele>
        <time>2020-01-10T09:45:40Z</time>
      </trkpt>
      <trkpt lat="45.45218" lon="6.9025">
        <ele>2146</ele>
        <time>2020-01-10T09:45:42Z</time>
      </trkpt>
      <trkpt lat="45.45216" lon="6.90253">
        <ele>2146</ele>
        <time>2020-01-10T09:45:44Z</time>
      </trkpt>
      <trkpt lat="45.45214" lon="6.90255">
        <ele>2146</ele>
        <time>2020-01-10T09:45:46Z</time>
      </trkpt>
      <trkpt lat="45.45212" lon="6.90258">
        <ele>2146</ele>
        <time>2020-01-10T09:45:48Z</time>
      </trkpt>
      <trkpt lat="45.45211" lon="6.9026">
        <ele>2146</ele>
        <time>2020-01-10T09:45:50Z</time>
      </trkpt>
      <trkpt lat="45.45209" lon="6.90262">
        <ele>2146</ele>
        <time>2020-01-10T09:45:52Z</time>
      </trkpt>
      <trkpt lat="45.45207" lon="6.90264">
        <ele>2146</ele>
        <time>2020-01-10T09:45:54Z</time>
      </trkpt>
      <trkpt lat="45.45205" lon="6.90267">
        <ele>2146</ele>
        <time>2020-01-10T09:45:56Z</time>
      </trkpt>
      <trkpt lat="45.45203" lon="6.9027">
        <ele>2146</ele>
        <time>2020-01-10T09:45:58Z</time>
      </trkpt>
      <trkpt lat="45.45202" lon="6.90273">
        <ele>2146</ele>
        <time>2020-01-10T09:46:01Z</time>
      </trkpt>
      <trkpt lat="45.45202" lon="6.90276">
        <ele>2146</ele>
        <time>2020-01-10T09:46:04Z</time>
      </trkpt>
      <trkpt lat="45.45204" lon="6.90276">
        <ele>2146</ele>
        <time>2020-01-10T09:46:06Z</time>
      </trkpt>
      <trkpt lat="45.45206" lon="6.90277">
        <ele>2146</ele>
        <time>2020-01-10T09:46:08Z</time>
      </trkpt>
      <trkpt lat="45.4521" lon="6.90279">
        <ele>2146</ele>
        <time>2020-01-10T09:46:11Z</time>
      </trkpt>
      <trkpt lat="45.45212" lon="6.90281">
        <ele>2146</ele>
        <time>2020-01-10T09:46:13Z</time>
      </trkpt>
      <trkpt lat="45.45214" lon="6.90284">
        <ele>2146</ele>
        <time>2020-01-10T09:46:15Z</time>
      </trkpt>
      <trkpt lat="45.45216" lon="6.90286">
        <ele>2146</ele>
        <time>2020-01-10T09:46:17Z</time>
      </trkpt>
      <trkpt lat="45.45218" lon="6.90288">
        <ele>2163.4</ele>
        <time>2020-01-10T09:46:19Z</time>
      </trkpt>
      <trkpt lat="45.4522" lon="6.90291">
        <ele>2163.4</ele>
        <time>2020-01-10T09:46:21Z</time>
      </trkpt>
      <trkpt lat="45.45221" lon="6.90293">
        <ele>2163.4</ele>
        <time>2020-01-10T09:46:23Z</time>
      </trkpt>
      <trkpt lat="45.45224" lon="6.90296">
        <ele>2163.4</ele>
        <time>2020-01-10T09:46:26Z</time>
      </trkpt>
      <trkpt lat="45.45226" lon="6.90297">
        <ele>2163.4</ele>
        <time>2020-01-10T09:46:28Z</time>
      </trkpt>
      <trkpt lat="45.45225" lon="6.903">
        <ele>2163.4</ele>
        <time>2020-01-10T09:46:31Z</time>
      </trkpt>
      <trkpt lat="45.45223" lon="6.90302">
        <ele>2163.4</ele>
        <time>2020-01-10T09:46:33Z</time>
      </trkpt>
      <trkpt lat="45.45221" lon="6.90305">
        <ele>2163.4</ele>
        <time>2020-01-10T09:46:35Z</time>
      </trkpt>
      <trkpt lat="45.4522" lon="6.90307">
        <ele>2163.4</ele>
        <time>2020-01-10T09:46:37Z</time>
      </trkpt>
      <trkpt lat="45.45218" lon="6.90309">
        <ele>2168</ele>
        <time>2020-01-10T09:46:39Z</time>
      </trkpt>
      <trkpt lat="45.45216" lon="6.90311">
        <ele>2168</ele>
        <time>2020-01-10T09:46:41Z</time>
      </trkpt>
      <trkpt lat="45.45214" lon="6.90313">
        <ele>2168</ele>
        <time>2020-01-10T09:46:43Z</time>
      </trkpt>
      <trkpt lat="45.45212" lon="6.90314">
        <ele>2168</ele>
        <time>2020-01-10T09:46:45Z</time>
      </trkpt>
      <trkpt lat="45.4521" lon="6.90316">
        <ele>2168</ele>
        <time>2020-01-10T09:46:47Z</time>
      </trkpt>
      <trkpt lat="45.45208" lon="6.90318">
        <ele>2168</ele>
        <time>2020-01-10T09:46:50Z</time>
      </trkpt>
      <trkpt lat="45.45207" lon="6.9032">
        <ele>2168</ele>
        <time>2020-01-10T09:46:52Z</time>
      </trkpt>
      <trkpt lat="45.45204" lon="6.90322">
        <ele>2168</ele>
        <time>2020-01-10T09:46:54Z</time>
      </trkpt>
      <trkpt lat="45.45206" lon="6.90324">
        <ele>2173.2</ele>
        <time>2020-01-10T09:46:59Z</time>
      </trkpt>
      <trkpt lat="45.45208" lon="6.90325">
        <ele>2173.2</ele>
        <time>2020-01-10T09:47:01Z</time>
      </trkpt>
      <trkpt lat="45.4521" lon="6.90326">
        <ele>2173.2</ele>
        <time>2020-01-10T09:47:04Z</time>
      </trkpt>
      <trkpt lat="45.45212" lon="6.90326">
        <ele>2173.2</ele>
        <time>2020-01-10T09:47:06Z</time>
      </trkpt>
      <trkpt lat="45.45215" lon="6.90327">
        <ele>2173.2</ele>
        <time>2020-01-10T09:47:08Z</time>
      </trkpt>
      <trkpt lat="45.45217" lon="6.90328">
        <ele>2173.2</ele>
        <time>2020-01-10T09:47:10Z</time>
      </trkpt>
      <trkpt lat="45.45216" lon="6.90331">
        <ele>2173.2</ele>
        <time>2020-01-10T09:47:13Z</time>
      </trkpt>
      <trkpt lat="45.45214" lon="6.90332">
        <ele>2173.2</ele>
        <time>2020-01-10T09:47:15Z</time>
      </trkpt>
      <trkpt lat="45.45212" lon="6.90334">
        <ele>2173.2</ele>
        <time>2020-01-10T09:47:17Z</time>
      </trkpt>
      <trkpt lat="45.45214" lon="6.90336">
        <ele>2173.2</ele>
        <time>2020-01-10T09:47:23Z</time>
      </trkpt>
      <trkpt lat="45.45216" lon="6.90337">
        <ele>2173.2</ele>
        <time>2020-01-10T09:47:25Z</time>
      </trkpt>
      <trkpt lat="45.45218" lon="6.90338">
        <ele>2173.2</ele>
        <time>2020-01-10T09:47:27Z</time>
      </trkpt>
      <trkpt lat="45.4522" lon="6.9034">
        <ele>2173.2</ele>
        <time>2020-01-10T09:47:30Z</time>
      </trkpt>
      <trkpt lat="45.45222" lon="6.90341">
        <ele>2173.2</ele>
        <time>2020-01-10T09:47:32Z</time>
      </trkpt>
      <trkpt lat="45.45224" lon="6.90343">
        <ele>2173.2</ele>
        <time>2020-01-10T09:47:34Z</time>
      </trkpt>
      <trkpt lat="45.45223" lon="6.90345">
        <ele>2173.2</ele>
        <time>2020-01-10T09:47:36Z</time>
      </trkpt>
      <trkpt lat="45.4522" lon="6.90348">
        <ele>2181.4</ele>
        <time>2020-01-10T09:47:39Z</time>
      </trkpt>
      <trkpt lat="45.45219" lon="6.90349">
        <ele>2181.4</ele>
        <time>2020-01-10T09:47:41Z</time>
      </trkpt>
      <trkpt lat="45.45217" lon="6.90351">
        <ele>2181.4</ele>
        <time>2020-01-10T09:47:43Z</time>
      </trkpt>
      <trkpt lat="45.45216" lon="6.90353">
        <ele>2181.4</ele>
        <time>2020-01-10T09:47:45Z</time>
      </trkpt>
      <trkpt lat="45.45214" lon="6.90354">
        <ele>2181.4</ele>
        <time>2020-01-10T09:47:47Z</time>
      </trkpt>
      <trkpt lat="45.45215" lon="6.90357">
        <ele>2181.4</ele>
        <time>2020-01-10T09:47:53Z</time>
      </trkpt>
      <trkpt lat="45.45217" lon="6.90358">
        <ele>2181.4</ele>
        <time>2020-01-10T09:47:56Z</time>
      </trkpt>
      <trkpt lat="45.4522" lon="6.9036">
        <ele>2185.8</ele>
        <time>2020-01-10T09:47:59Z</time>
      </trkpt>
      <trkpt lat="45.45222" lon="6.90361">
        <ele>2185.8</ele>
        <time>2020-01-10T09:48:01Z</time>
      </trkpt>
      <trkpt lat="45.45224" lon="6.90362">
        <ele>2185.8</ele>
        <time>2020-01-10T09:48:03Z</time>
      </trkpt>
      <trkpt lat="45.45225" lon="6.90365">
        <ele>2185.8</ele>
        <time>2020-01-10T09:48:05Z</time>
      </trkpt>
      <trkpt lat="45.45223" lon="6.90368">
        <ele>2185.8</ele>
        <time>2020-01-10T09:48:08Z</time>
      </trkpt>
      <trkpt lat="45.45221" lon="6.9037">
        <ele>2185.8</ele>
        <time>2020-01-10T09:48:10Z</time>
      </trkpt>
      <trkpt lat="45.4522" lon="6.90372">
        <ele>2185.8</ele>
        <time>2020-01-10T09:48:12Z</time>
      </trkpt>
      <trkpt lat="45.45218" lon="6.90375">
        <ele>2185.8</ele>
        <time>2020-01-10T09:48:14Z</time>
      </trkpt>
      <trkpt lat="45.45216" lon="6.90377">
        <ele>2185.8</ele>
        <time>2020-01-10T09:48:16Z</time>
      </trkpt>
      <trkpt lat="45.45214" lon="6.9038">
        <ele>2185.8</ele>
        <time>2020-01-10T09:48:18Z</time>
      </trkpt>
      <trkpt lat="45.45212" lon="6.90381">
        <ele>2185.8</ele>
        <time>2020-01-10T09:48:20Z</time>
      </trkpt>
      <trkpt lat="45.45211" lon="6.90384">
        <ele>2185.8</ele>
        <time>2020-01-10T09:48:22Z</time>
      </trkpt>
      <trkpt lat="45.45211" lon="6.90388">
        <ele>2185.8</ele>
        <time>2020-01-10T09:48:25Z</time>
      </trkpt>
      <trkpt lat="45.45214" lon="6.9039">
        <ele>2185.8</ele>
        <time>2020-01-10T09:48:28Z</time>
      </trkpt>
      <trkpt lat="45.45216" lon="6.90392">
        <ele>2185.8</ele>
        <time>2020-01-10T09:48:30Z</time>
      </trkpt>
      <trkpt lat="45.45218" lon="6.90393">
        <ele>2185.8</ele>
        <time>2020-01-10T09:48:32Z</time>
      </trkpt>
      <trkpt lat="45.45219" lon="6.90395">
        <ele>2185.8</ele>
        <time>2020-01-10T09:48:34Z</time>
      </trkpt>
      <trkpt lat="45.45221" lon="6.90397">
        <ele>2185.8</ele>
        <time>2020-01-10T09:48:36Z</time>
      </trkpt>
      <trkpt lat="45.45223" lon="6.90399">
        <ele>2185.8</ele>
        <time>2020-01-10T09:48:38Z</time>
      </trkpt>
      <trkpt lat="45.45225" lon="6.90402">
        <ele>2185.8</ele>
        <time>2020-01-10T09:48:40Z</time>
      </trkpt>
      <trkpt lat="45.45225" lon="6.90404">
        <ele>2185.8</ele>
        <time>2020-01-10T09:48:42Z</time>
      </trkpt>
      <trkpt lat="45.45222" lon="6.90408">
        <ele>2185.8</ele>
        <time>2020-01-10T09:48:44Z</time>
      </trkpt>
      <trkpt lat="45.45221" lon="6.90409">
        <ele>2185.8</ele>
        <time>2020-01-10T09:48:45Z</time>
      </trkpt>
      <trkpt lat="45.45219" lon="6.90411">
        <ele>2185.8</ele>
        <time>2020-01-10T09:48:47Z</time>
      </trkpt>
      <trkpt lat="45.45218" lon="6.90413">
        <ele>2198.4</ele>
        <time>2020-01-10T09:48:49Z</time>
      </trkpt>
      <trkpt lat="45.45216" lon="6.90415">
        <ele>2198.4</ele>
        <time>2020-01-10T09:48:51Z</time>
      </trkpt>
      <trkpt lat="45.45214" lon="6.90416">
        <ele>2198.4</ele>
        <time>2020-01-10T09:48:53Z</time>
      </trkpt>
      <trkpt lat="45.45212" lon="6.90419">
        <ele>2198.4</ele>
        <time>2020-01-10T09:48:55Z</time>
      </trkpt>
      <trkpt lat="45.45211" lon="6.90422">
        <ele>2198.4</ele>
        <time>2020-01-10T09:48:57Z</time>
      </trkpt>
      <trkpt lat="45.45212" lon="6.90425">
        <ele>2198.4</ele>
        <time>2020-01-10T09:49:00Z</time>
      </trkpt>
      <trkpt lat="45.45214" lon="6.90427">
        <ele>2198.4</ele>
        <time>2020-01-10T09:49:03Z</time>
      </trkpt>
      <trkpt lat="45.45216" lon="6.90429">
        <ele>2198.4</ele>
        <time>2020-01-10T09:49:05Z</time>
      </trkpt>
      <trkpt lat="45.45218" lon="6.90431">
        <ele>2198.4</ele>
        <time>2020-01-10T09:49:07Z</time>
      </trkpt>
      <trkpt lat="45.4522" lon="6.90432">
        <ele>2203</ele>
        <time>2020-01-10T09:49:09Z</time>
      </trkpt>
      <trkpt lat="45.45221" lon="6.90434">
        <ele>2203</ele>
        <time>2020-01-10T09:49:11Z</time>
      </trkpt>
      <trkpt lat="45.45222" lon="6.90437">
        <ele>2203</ele>
        <time>2020-01-10T09:49:13Z</time>
      </trkpt>
      <trkpt lat="45.45222" lon="6.9044">
        <ele>2203</ele>
        <time>2020-01-10T09:49:14Z</time>
      </trkpt>
      <trkpt lat="45.4522" lon="6.90442">
        <ele>2203</ele>
        <time>2020-01-10T09:49:16Z</time>
      </trkpt>
      <trkpt lat="45.4522" lon="6.90445">
        <ele>2203</ele>
        <time>2020-01-10T09:49:18Z</time>
      </trkpt>
      <trkpt lat="45.45218" lon="6.90447">
        <ele>2203</ele>
        <time>2020-01-10T09:49:20Z</time>
      </trkpt>
      <trkpt lat="45.45216" lon="6.90449">
        <ele>2203</ele>
        <time>2020-01-10T09:49:22Z</time>
      </trkpt>
      <trkpt lat="45.45215" lon="6.90452">
        <ele>2203</ele>
        <time>2020-01-10T09:49:24Z</time>
      </trkpt>
      <trkpt lat="45.45214" lon="6.90454">
        <ele>2203</ele>
        <time>2020-01-10T09:49:26Z</time>
      </trkpt>
      <trkpt lat="45.45212" lon="6.90457">
        <ele>2203</ele>
        <time>2020-01-10T09:49:28Z</time>
      </trkpt>
      <trkpt lat="45.45211" lon="6.9046">
        <ele>2203</ele>
        <time>2020-01-10T09:49:31Z</time>
      </trkpt>
      <trkpt lat="45.4521" lon="6.90462">
        <ele>2203</ele>
        <time>2020-01-10T09:49:33Z</time>
      </trkpt>
      <trkpt lat="45.4521" lon="6.90466">
        <ele>2203</ele>
        <time>2020-01-10T09:49:36Z</time>
      </trkpt>
      <trkpt lat="45.45208" lon="6.9047">
        <ele>2203</ele>
        <time>2020-01-10T09:49:38Z</time>
      </trkpt>
      <trkpt lat="45.45207" lon="6.90473">
        <ele>2203</ele>
        <time>2020-01-10T09:49:40Z</time>
      </trkpt>
      <trkpt lat="45.45206" lon="6.90476">
        <ele>2203</ele>
        <time>2020-01-10T09:49:42Z</time>
      </trkpt>
      <trkpt lat="45.45205" lon="6.90479">
        <ele>2203</ele>
        <time>2020-01-10T09:49:44Z</time>
      </trkpt>
      <trkpt lat="45.45204" lon="6.90483">
        <ele>2203</ele>
        <time>2020-01-10T09:49:46Z</time>
      </trkpt>
      <trkpt lat="45.45202" lon="6.90487">
        <ele>2203</ele>
        <time>2020-01-10T09:49:48Z</time>
      </trkpt>
      <trkpt lat="45.452" lon="6.9049">
        <ele>2203</ele>
        <time>2020-01-10T09:49:50Z</time>
      </trkpt>
      <trkpt lat="45.45198" lon="6.90492">
        <ele>2203</ele>
        <time>2020-01-10T09:49:51Z</time>
      </trkpt>
      <trkpt lat="45.45197" lon="6.90493">
        <ele>2203</ele>
        <time>2020-01-10T09:49:52Z</time>
      </trkpt>
      <trkpt lat="45.45196" lon="6.90496">
        <ele>2203</ele>
        <time>2020-01-10T09:49:53Z</time>
      </trkpt>
      <trkpt lat="45.45195" lon="6.905">
        <ele>2203</ele>
        <time>2020-01-10T09:49:55Z</time>
      </trkpt>
      <trkpt lat="45.45192" lon="6.90504">
        <ele>2203</ele>
        <time>2020-01-10T09:49:57Z</time>
      </trkpt>
      <trkpt lat="45.45191" lon="6.90506">
        <ele>2214.8</ele>
        <time>2020-01-10T09:49:59Z</time>
      </trkpt>
      <trkpt lat="45.4519" lon="6.9051">
        <ele>2214.8</ele>
        <time>2020-01-10T09:50:01Z</time>
      </trkpt>
      <trkpt lat="45.45188" lon="6.90512">
        <ele>2214.8</ele>
        <time>2020-01-10T09:50:02Z</time>
      </trkpt>
      <trkpt lat="45.45188" lon="6.90515">
        <ele>2214.8</ele>
        <time>2020-01-10T09:50:04Z</time>
      </trkpt>
      <trkpt lat="45.45187" lon="6.90518">
        <ele>2214.8</ele>
        <time>2020-01-10T09:50:06Z</time>
      </trkpt>
      <trkpt lat="45.45185" lon="6.90522">
        <ele>2214.8</ele>
        <time>2020-01-10T09:50:08Z</time>
      </trkpt>
      <trkpt lat="45.45184" lon="6.90525">
        <ele>2214.8</ele>
        <time>2020-01-10T09:50:10Z</time>
      </trkpt>
      <trkpt lat="45.45182" lon="6.90528">
        <ele>2214.8</ele>
        <time>2020-01-10T09:50:12Z</time>
      </trkpt>
      <trkpt lat="45.45179" lon="6.90532">
        <ele>2214.8</ele>
        <time>2020-01-10T09:50:14Z</time>
      </trkpt>
      <trkpt lat="45.45178" lon="6.90536">
        <ele>2214.8</ele>
        <time>2020-01-10T09:50:16Z</time>
      </trkpt>
      <trkpt lat="45.45176" lon="6.90539">
        <ele>2214.8</ele>
        <time>2020-01-10T09:50:18Z</time>
      </trkpt>
      <trkpt lat="45.45174" lon="6.90541">
        <ele>2219.2</ele>
        <time>2020-01-10T09:50:19Z</time>
      </trkpt>
      <trkpt lat="45.45172" lon="6.90542">
        <ele>2219.2</ele>
        <time>2020-01-10T09:50:20Z</time>
      </trkpt>
      <trkpt lat="45.45171" lon="6.90544">
        <ele>2219.2</ele>
        <time>2020-01-10T09:50:22Z</time>
      </trkpt>
      <trkpt lat="45.45169" lon="6.90546">
        <ele>2219.2</ele>
        <time>2020-01-10T09:50:23Z</time>
      </trkpt>
      <trkpt lat="45.45167" lon="6.90549">
        <ele>2219.2</ele>
        <time>2020-01-10T09:50:24Z</time>
      </trkpt>
      <trkpt lat="45.45166" lon="6.90551">
        <ele>2219.2</ele>
        <time>2020-01-10T09:50:25Z</time>
      </trkpt>
      <trkpt lat="45.45163" lon="6.90554">
        <ele>2219.2</ele>
        <time>2020-01-10T09:50:27Z</time>
      </trkpt>
      <trkpt lat="45.45161" lon="6.90557">
        <ele>2221</ele>
        <time>2020-01-10T09:50:29Z</time>
      </trkpt>
      <trkpt lat="45.45159" lon="6.90558">
        <ele>2221</ele>
        <time>2020-01-10T09:50:30Z</time>
      </trkpt>
      <trkpt lat="45.45158" lon="6.90561">
        <ele>2221</ele>
        <time>2020-01-10T09:50:32Z</time>
      </trkpt>
      <trkpt lat="45.45156" lon="6.90563">
        <ele>2221</ele>
        <time>2020-01-10T09:50:33Z</time>
      </trkpt>
      <trkpt lat="45.45155" lon="6.90565">
        <ele>2221</ele>
        <time>2020-01-10T09:50:34Z</time>
      </trkpt>
      <trkpt lat="45.45154" lon="6.90568">
        <ele>2221</ele>
        <time>2020-01-10T09:50:35Z</time>
      </trkpt>
      <trkpt lat="45.45153" lon="6.90571">
        <ele>2221</ele>
        <time>2020-01-10T09:50:37Z</time>
      </trkpt>
      <trkpt lat="45.45151" lon="6.90575">
        <ele>2223.6</ele>
        <time>2020-01-10T09:50:39Z</time>
      </trkpt>
      <trkpt lat="45.4515" lon="6.90578">
        <ele>2223.6</ele>
        <time>2020-01-10T09:50:41Z</time>
      </trkpt>
      <trkpt lat="45.45149" lon="6.90581">
        <ele>2223.6</ele>
        <time>2020-01-10T09:50:43Z</time>
      </trkpt>
      <trkpt lat="45.45148" lon="6.90584">
        <ele>2223.6</ele>
        <time>2020-01-10T09:50:44Z</time>
      </trkpt>
      <trkpt lat="45.45147" lon="6.90586">
        <ele>2223.6</ele>
        <time>2020-01-10T09:50:45Z</time>
      </trkpt>
      <trkpt lat="45.45145" lon="6.90589">
        <ele>2223.6</ele>
        <time>2020-01-10T09:50:47Z</time>
      </trkpt>
      <trkpt lat="45.45144" lon="6.90592">
        <ele>2225.6</ele>
        <time>2020-01-10T09:50:49Z</time>
      </trkpt>
      <trkpt lat="45.45142" lon="6.90596">
        <ele>2225.6</ele>
        <time>2020-01-10T09:50:51Z</time>
      </trkpt>
      <trkpt lat="45.45141" lon="6.90599">
        <ele>2225.6</ele>
        <time>2020-01-10T09:50:53Z</time>
      </trkpt>
      <trkpt lat="45.45139" lon="6.90601">
        <ele>2225.6</ele>
        <time>2020-01-10T09:50:54Z</time>
      </trkpt>
      <trkpt lat="45.45138" lon="6.90605">
        <ele>2225.6</ele>
        <time>2020-01-10T09:50:56Z</time>
      </trkpt>
      <trkpt lat="45.45136" lon="6.90609">
        <ele>2225.6</ele>
        <time>2020-01-10T09:50:58Z</time>
      </trkpt>
      <trkpt lat="45.45134" lon="6.90612">
        <ele>2225.6</ele>
        <time>2020-01-10T09:51:00Z</time>
      </trkpt>
      <trkpt lat="45.45133" lon="6.90615">
        <ele>2225.6</ele>
        <time>2020-01-10T09:51:02Z</time>
      </trkpt>
      <trkpt lat="45.45131" lon="6.90618">
        <ele>2225.6</ele>
        <time>2020-01-10T09:51:04Z</time>
      </trkpt>
      <trkpt lat="45.4513" lon="6.9062">
        <ele>2225.6</ele>
        <time>2020-01-10T09:51:05Z</time>
      </trkpt>
      <trkpt lat="45.45129" lon="6.90623">
        <ele>2225.6</ele>
        <time>2020-01-10T09:51:07Z</time>
      </trkpt>
      <trkpt lat="45.45127" lon="6.90626">
        <ele>2230.2</ele>
        <time>2020-01-10T09:51:09Z</time>
      </trkpt>
      <trkpt lat="45.45125" lon="6.90629">
        <ele>2230.2</ele>
        <time>2020-01-10T09:51:11Z</time>
      </trkpt>
      <trkpt lat="45.45124" lon="6.90632">
        <ele>2230.2</ele>
        <time>2020-01-10T09:51:13Z</time>
      </trkpt>
      <trkpt lat="45.45122" lon="6.90636">
        <ele>2230.2</ele>
        <time>2020-01-10T09:51:15Z</time>
      </trkpt>
      <trkpt lat="45.45121" lon="6.90638">
        <ele>2230.2</ele>
        <time>2020-01-10T09:51:16Z</time>
      </trkpt>
      <trkpt lat="45.4512" lon="6.9064">
        <ele>2230.2</ele>
        <time>2020-01-10T09:51:18Z</time>
      </trkpt>
      <trkpt lat="45.45119" lon="6.90644">
        <ele>2230.2</ele>
        <time>2020-01-10T09:51:20Z</time>
      </trkpt>
      <trkpt lat="45.45117" lon="6.90646">
        <ele>2230.2</ele>
        <time>2020-01-10T09:51:22Z</time>
      </trkpt>
      <trkpt lat="45.45116" lon="6.90649">
        <ele>2230.2</ele>
        <time>2020-01-10T09:51:24Z</time>
      </trkpt>
      <trkpt lat="45.45114" lon="6.90652">
        <ele>2230.2</ele>
        <time>2020-01-10T09:51:26Z</time>
      </trkpt>
      <trkpt lat="45.45113" lon="6.90654">
        <ele>2230.2</ele>
        <time>2020-01-10T09:51:28Z</time>
      </trkpt>
      <trkpt lat="45.45111" lon="6.90657">
        <ele>2230.2</ele>
        <time>2020-01-10T09:51:30Z</time>
      </trkpt>
      <trkpt lat="45.45109" lon="6.9066">
        <ele>2230.2</ele>
        <time>2020-01-10T09:51:33Z</time>
      </trkpt>
      <trkpt lat="45.45108" lon="6.90663">
        <ele>2230.2</ele>
        <time>2020-01-10T09:51:35Z</time>
      </trkpt>
      <trkpt lat="45.45107" lon="6.90666">
        <ele>2230.2</ele>
        <time>2020-01-10T09:51:37Z</time>
      </trkpt>
      <trkpt lat="45.45105" lon="6.90669">
        <ele>2239</ele>
        <time>2020-01-10T09:51:39Z</time>
      </trkpt>
      <trkpt lat="45.45104" lon="6.90672">
        <ele>2239</ele>
        <time>2020-01-10T09:51:42Z</time>
      </trkpt>
      <trkpt lat="45.45101" lon="6.90675">
        <ele>2239</ele>
        <time>2020-01-10T09:51:44Z</time>
      </trkpt>
      <trkpt lat="45.451" lon="6.90678">
        <ele>2239</ele>
        <time>2020-01-10T09:51:46Z</time>
      </trkpt>
      <trkpt lat="45.45099" lon="6.90681">
        <ele>2239</ele>
        <time>2020-01-10T09:51:48Z</time>
      </trkpt>
      <trkpt lat="45.45098" lon="6.90684">
        <ele>2239</ele>
        <time>2020-01-10T09:51:50Z</time>
      </trkpt>
      <trkpt lat="45.45095" lon="6.90687">
        <ele>2239</ele>
        <time>2020-01-10T09:51:53Z</time>
      </trkpt>
      <trkpt lat="45.45093" lon="6.9069">
        <ele>2239</ele>
        <time>2020-01-10T09:51:56Z</time>
      </trkpt>
      <trkpt lat="45.45092" lon="6.90693">
        <ele>2239</ele>
        <time>2020-01-10T09:51:58Z</time>
      </trkpt>
      <trkpt lat="45.45091" lon="6.90697">
        <ele>2239</ele>
        <time>2020-01-10T09:52:01Z</time>
      </trkpt>
      <trkpt lat="45.45089" lon="6.907">
        <ele>2239</ele>
        <time>2020-01-10T09:52:03Z</time>
      </trkpt>
      <trkpt lat="45.45089" lon="6.90703">
        <ele>2239</ele>
        <time>2020-01-10T09:52:05Z</time>
      </trkpt>
      <trkpt lat="45.45087" lon="6.90706">
        <ele>2239</ele>
        <time>2020-01-10T09:52:07Z</time>
      </trkpt>
      <trkpt lat="45.45085" lon="6.90709">
        <ele>2246</ele>
        <time>2020-01-10T09:52:09Z</time>
      </trkpt>
      <trkpt lat="45.45084" lon="6.90712">
        <ele>2246</ele>
        <time>2020-01-10T09:52:11Z</time>
      </trkpt>
      <trkpt lat="45.45082" lon="6.90716">
        <ele>2246</ele>
        <time>2020-01-10T09:52:13Z</time>
      </trkpt>
      <trkpt lat="45.45081" lon="6.90718">
        <ele>2246</ele>
        <time>2020-01-10T09:52:15Z</time>
      </trkpt>
      <trkpt lat="45.4508" lon="6.90721">
        <ele>2246</ele>
        <time>2020-01-10T09:52:17Z</time>
      </trkpt>
      <trkpt lat="45.45078" lon="6.90726">
        <ele>2248.2</ele>
        <time>2020-01-10T09:52:19Z</time>
      </trkpt>
      <trkpt lat="45.45076" lon="6.90728">
        <ele>2248.2</ele>
        <time>2020-01-10T09:52:21Z</time>
      </trkpt>
      <trkpt lat="45.45075" lon="6.90731">
        <ele>2248.2</ele>
        <time>2020-01-10T09:52:23Z</time>
      </trkpt>
      <trkpt lat="45.45073" lon="6.90734">
        <ele>2248.2</ele>
        <time>2020-01-10T09:52:25Z</time>
      </trkpt>
      <trkpt lat="45.45072" lon="6.90737">
        <ele>2248.2</ele>
        <time>2020-01-10T09:52:27Z</time>
      </trkpt>
      <trkpt lat="45.4507" lon="6.9074">
        <ele>2250.4</ele>
        <time>2020-01-10T09:52:29Z</time>
      </trkpt>
      <trkpt lat="45.45068" lon="6.90743">
        <ele>2250.4</ele>
        <time>2020-01-10T09:52:31Z</time>
      </trkpt>
      <trkpt lat="45.45067" lon="6.90745">
        <ele>2250.4</ele>
        <time>2020-01-10T09:52:33Z</time>
      </trkpt>
      <trkpt lat="45.45066" lon="6.90748">
        <ele>2250.4</ele>
        <time>2020-01-10T09:52:35Z</time>
      </trkpt>
      <trkpt lat="45.45064" lon="6.9075">
        <ele>2250.4</ele>
        <time>2020-01-10T09:52:37Z</time>
      </trkpt>
      <trkpt lat="45.45062" lon="6.90753">
        <ele>2252.2</ele>
        <time>2020-01-10T09:52:39Z</time>
      </trkpt>
      <trkpt lat="45.4506" lon="6.90756">
        <ele>2252.2</ele>
        <time>2020-01-10T09:52:41Z</time>
      </trkpt>
      <trkpt lat="45.45059" lon="6.90759">
        <ele>2252.2</ele>
        <time>2020-01-10T09:52:43Z</time>
      </trkpt>
      <trkpt lat="45.45057" lon="6.90762">
        <ele>2252.2</ele>
        <time>2020-01-10T09:52:45Z</time>
      </trkpt>
      <trkpt lat="45.45056" lon="6.90764">
        <ele>2252.2</ele>
        <time>2020-01-10T09:52:47Z</time>
      </trkpt>
      <trkpt lat="45.45053" lon="6.90767">
        <ele>2254.6</ele>
        <time>2020-01-10T09:52:49Z</time>
      </trkpt>
      <trkpt lat="45.45052" lon="6.9077">
        <ele>2254.6</ele>
        <time>2020-01-10T09:52:51Z</time>
      </trkpt>
      <trkpt lat="45.45051" lon="6.90772">
        <ele>2254.6</ele>
        <time>2020-01-10T09:52:53Z</time>
      </trkpt>
      <trkpt lat="45.45049" lon="6.90775">
        <ele>2254.6</ele>
        <time>2020-01-10T09:52:55Z</time>
      </trkpt>
      <trkpt lat="45.45048" lon="6.90777">
        <ele>2254.6</ele>
        <time>2020-01-10T09:52:57Z</time>
      </trkpt>
      <trkpt lat="45.45046" lon="6.90779">
        <ele>2256.8</ele>
        <time>2020-01-10T09:52:59Z</time>
      </trkpt>
      <trkpt lat="45.45043" lon="6.90782">
        <ele>2256.8</ele>
        <time>2020-01-10T09:53:01Z</time>
      </trkpt>
      <trkpt lat="45.45041" lon="6.90785">
        <ele>2256.8</ele>
        <time>2020-01-10T09:53:03Z</time>
      </trkpt>
      <trkpt lat="45.45039" lon="6.90788">
        <ele>2256.8</ele>
        <time>2020-01-10T09:53:05Z</time>
      </trkpt>
      <trkpt lat="45.45037" lon="6.90789">
        <ele>2256.8</ele>
        <time>2020-01-10T09:53:07Z</time>
      </trkpt>
      <trkpt lat="45.45036" lon="6.90791">
        <ele>2259.2</ele>
        <time>2020-01-10T09:53:09Z</time>
      </trkpt>
      <trkpt lat="45.45035" lon="6.90794">
        <ele>2259.2</ele>
        <time>2020-01-10T09:53:11Z</time>
      </trkpt>
      <trkpt lat="45.45033" lon="6.90797">
        <ele>2259.2</ele>
        <time>2020-01-10T09:53:14Z</time>
      </trkpt>
      <trkpt lat="45.45031" lon="6.90799">
        <ele>2259.2</ele>
        <time>2020-01-10T09:53:16Z</time>
      </trkpt>
      <trkpt lat="45.45029" lon="6.90802">
        <ele>2259.2</ele>
        <time>2020-01-10T09:53:18Z</time>
      </trkpt>
      <trkpt lat="45.45028" lon="6.90804">
        <ele>2259.2</ele>
        <time>2020-01-10T09:53:20Z</time>
      </trkpt>
      <trkpt lat="45.45026" lon="6.90808">
        <ele>2259.2</ele>
        <time>2020-01-10T09:53:22Z</time>
      </trkpt>
      <trkpt lat="45.45024" lon="6.9081">
        <ele>2259.2</ele>
        <time>2020-01-10T09:53:24Z</time>
      </trkpt>
      <trkpt lat="45.45022" lon="6.90813">
        <ele>2259.2</ele>
        <time>2020-01-10T09:53:26Z</time>
      </trkpt>
      <trkpt lat="45.45021" lon="6.90815">
        <ele>2259.2</ele>
        <time>2020-01-10T09:53:28Z</time>
      </trkpt>
      <trkpt lat="45.45019" lon="6.90818">
        <ele>2259.2</ele>
        <time>2020-01-10T09:53:30Z</time>
      </trkpt>
      <trkpt lat="45.45018" lon="6.9082">
        <ele>2259.2</ele>
        <time>2020-01-10T09:53:32Z</time>
      </trkpt>
      <trkpt lat="45.45016" lon="6.90823">
        <ele>2259.2</ele>
        <time>2020-01-10T09:53:34Z</time>
      </trkpt>
      <trkpt lat="45.45015" lon="6.90826">
        <ele>2259.2</ele>
        <time>2020-01-10T09:53:36Z</time>
      </trkpt>
      <trkpt lat="45.45014" lon="6.90829">
        <ele>2259.2</ele>
        <time>2020-01-10T09:53:38Z</time>
      </trkpt>
      <trkpt lat="45.45012" lon="6.90831">
        <ele>2259.2</ele>
        <time>2020-01-10T09:53:40Z</time>
      </trkpt>
      <trkpt lat="45.45011" lon="6.90834">
        <ele>2259.2</ele>
        <time>2020-01-10T09:53:42Z</time>
      </trkpt>
      <trkpt lat="45.4501" lon="6.90836">
        <ele>2259.2</ele>
        <time>2020-01-10T09:53:44Z</time>
      </trkpt>
      <trkpt lat="45.45008" lon="6.90839">
        <ele>2259.2</ele>
        <time>2020-01-10T09:53:46Z</time>
      </trkpt>
      <trkpt lat="45.45007" lon="6.90842">
        <ele>2259.2</ele>
        <time>2020-01-10T09:53:48Z</time>
      </trkpt>
      <trkpt lat="45.45007" lon="6.90844">
        <ele>2259.2</ele>
        <time>2020-01-10T09:53:50Z</time>
      </trkpt>
      <trkpt lat="45.45006" lon="6.90847">
        <ele>2259.2</ele>
        <time>2020-01-10T09:53:52Z</time>
      </trkpt>
      <trkpt lat="45.45005" lon="6.9085">
        <ele>2259.2</ele>
        <time>2020-01-10T09:53:54Z</time>
      </trkpt>
      <trkpt lat="45.45004" lon="6.90853">
        <ele>2259.2</ele>
        <time>2020-01-10T09:53:56Z</time>
      </trkpt>
      <trkpt lat="45.45002" lon="6.90855">
        <ele>2259.2</ele>
        <time>2020-01-10T09:53:58Z</time>
      </trkpt>
      <trkpt lat="45.45001" lon="6.90858">
        <ele>2259.2</ele>
        <time>2020-01-10T09:54:01Z</time>
      </trkpt>
      <trkpt lat="45.45" lon="6.90862">
        <ele>2259.2</ele>
        <time>2020-01-10T09:54:03Z</time>
      </trkpt>
      <trkpt lat="45.44999" lon="6.90865">
        <ele>2259.2</ele>
        <time>2020-01-10T09:54:05Z</time>
      </trkpt>
      <trkpt lat="45.44998" lon="6.90867">
        <ele>2259.2</ele>
        <time>2020-01-10T09:54:07Z</time>
      </trkpt>
      <trkpt lat="45.44997" lon="6.9087">
        <ele>2272.2</ele>
        <time>2020-01-10T09:54:09Z</time>
      </trkpt>
      <trkpt lat="45.44996" lon="6.90873">
        <ele>2272.2</ele>
        <time>2020-01-10T09:54:11Z</time>
      </trkpt>
      <trkpt lat="45.44994" lon="6.90875">
        <ele>2272.2</ele>
        <time>2020-01-10T09:54:13Z</time>
      </trkpt>
      <trkpt lat="45.44993" lon="6.90878">
        <ele>2272.2</ele>
        <time>2020-01-10T09:54:15Z</time>
      </trkpt>
      <trkpt lat="45.44991" lon="6.90881">
        <ele>2272.2</ele>
        <time>2020-01-10T09:54:17Z</time>
      </trkpt>
      <trkpt lat="45.4499" lon="6.90883">
        <ele>2272.2</ele>
        <time>2020-01-10T09:54:18Z</time>
      </trkpt>
      <trkpt lat="45.44988" lon="6.90886">
        <ele>2272.2</ele>
        <time>2020-01-10T09:54:20Z</time>
      </trkpt>
      <trkpt lat="45.44988" lon="6.90889">
        <ele>2272.2</ele>
        <time>2020-01-10T09:54:22Z</time>
      </trkpt>
      <trkpt lat="45.44986" lon="6.90892">
        <ele>2272.2</ele>
        <time>2020-01-10T09:54:24Z</time>
      </trkpt>
      <trkpt lat="45.44986" lon="6.90895">
        <ele>2272.2</ele>
        <time>2020-01-10T09:54:26Z</time>
      </trkpt>
      <trkpt lat="45.44984" lon="6.90898">
        <ele>2272.2</ele>
        <time>2020-01-10T09:54:28Z</time>
      </trkpt>
      <trkpt lat="45.44983" lon="6.909">
        <ele>2272.2</ele>
        <time>2020-01-10T09:54:30Z</time>
      </trkpt>
      <trkpt lat="45.44982" lon="6.90903">
        <ele>2272.2</ele>
        <time>2020-01-10T09:54:32Z</time>
      </trkpt>
      <trkpt lat="45.4498" lon="6.90906">
        <ele>2272.2</ele>
        <time>2020-01-10T09:54:34Z</time>
      </trkpt>
      <trkpt lat="45.4498" lon="6.90909">
        <ele>2272.2</ele>
        <time>2020-01-10T09:54:36Z</time>
      </trkpt>
      <trkpt lat="45.44978" lon="6.90912">
        <ele>2272.2</ele>
        <time>2020-01-10T09:54:38Z</time>
      </trkpt>
      <trkpt lat="45.44978" lon="6.90914">
        <ele>2272.2</ele>
        <time>2020-01-10T09:54:40Z</time>
      </trkpt>
      <trkpt lat="45.44976" lon="6.90917">
        <ele>2272.2</ele>
        <time>2020-01-10T09:54:42Z</time>
      </trkpt>
      <trkpt lat="45.44974" lon="6.90919">
        <ele>2272.2</ele>
        <time>2020-01-10T09:54:44Z</time>
      </trkpt>
      <trkpt lat="45.44973" lon="6.90922">
        <ele>2272.2</ele>
        <time>2020-01-10T09:54:46Z</time>
      </trkpt>
      <trkpt lat="45.44972" lon="6.90924">
        <ele>2272.2</ele>
        <time>2020-01-10T09:54:48Z</time>
      </trkpt>
      <trkpt lat="45.4497" lon="6.90927">
        <ele>2272.2</ele>
        <time>2020-01-10T09:54:50Z</time>
      </trkpt>
      <trkpt lat="45.44969" lon="6.9093">
        <ele>2272.2</ele>
        <time>2020-01-10T09:54:52Z</time>
      </trkpt>
      <trkpt lat="45.44968" lon="6.90933">
        <ele>2272.2</ele>
        <time>2020-01-10T09:54:54Z</time>
      </trkpt>
      <trkpt lat="45.44967" lon="6.90935">
        <ele>2272.2</ele>
        <time>2020-01-10T09:54:56Z</time>
      </trkpt>
      <trkpt lat="45.44966" lon="6.90938">
        <ele>2272.2</ele>
        <time>2020-01-10T09:54:58Z</time>
      </trkpt>
      <trkpt lat="45.44964" lon="6.9094">
        <ele>2272.2</ele>
        <time>2020-01-10T09:55:00Z</time>
      </trkpt>
      <trkpt lat="45.44963" lon="6.90944">
        <ele>2272.2</ele>
        <time>2020-01-10T09:55:03Z</time>
      </trkpt>
      <trkpt lat="45.44962" lon="6.90946">
        <ele>2272.2</ele>
        <time>2020-01-10T09:55:05Z</time>
      </trkpt>
      <trkpt lat="45.44961" lon="6.90948">
        <ele>2272.2</ele>
        <time>2020-01-10T09:55:07Z</time>
      </trkpt>
      <trkpt lat="45.44959" lon="6.90952">
        <ele>2286</ele>
        <time>2020-01-10T09:55:09Z</time>
      </trkpt>
      <trkpt lat="45.44958" lon="6.90954">
        <ele>2286</ele>
        <time>2020-01-10T09:55:11Z</time>
      </trkpt>
      <trkpt lat="45.44956" lon="6.90957">
        <ele>2286</ele>
        <time>2020-01-10T09:55:13Z</time>
      </trkpt>
      <trkpt lat="45.44955" lon="6.9096">
        <ele>2286</ele>
        <time>2020-01-10T09:55:15Z</time>
      </trkpt>
      <trkpt lat="45.44953" lon="6.90964">
        <ele>2286</ele>
        <time>2020-01-10T09:55:17Z</time>
      </trkpt>
      <trkpt lat="45.44952" lon="6.90967">
        <ele>2287.6</ele>
        <time>2020-01-10T09:55:19Z</time>
      </trkpt>
      <trkpt lat="45.4495" lon="6.9097">
        <ele>2287.6</ele>
        <time>2020-01-10T09:55:21Z</time>
      </trkpt>
      <trkpt lat="45.44948" lon="6.90972">
        <ele>2287.6</ele>
        <time>2020-01-10T09:55:23Z</time>
      </trkpt>
      <trkpt lat="45.44948" lon="6.90975">
        <ele>2287.6</ele>
        <time>2020-01-10T09:55:25Z</time>
      </trkpt>
      <trkpt lat="45.44946" lon="6.90978">
        <ele>2287.6</ele>
        <time>2020-01-10T09:55:27Z</time>
      </trkpt>
      <trkpt lat="45.44945" lon="6.90981">
        <ele>2289.8</ele>
        <time>2020-01-10T09:55:29Z</time>
      </trkpt>
      <trkpt lat="45.44944" lon="6.90984">
        <ele>2289.8</ele>
        <time>2020-01-10T09:55:31Z</time>
      </trkpt>
      <trkpt lat="45.44942" lon="6.90987">
        <ele>2289.8</ele>
        <time>2020-01-10T09:55:33Z</time>
      </trkpt>
      <trkpt lat="45.44941" lon="6.9099">
        <ele>2289.8</ele>
        <time>2020-01-10T09:55:35Z</time>
      </trkpt>
      <trkpt lat="45.44939" lon="6.90994">
        <ele>2289.8</ele>
        <time>2020-01-10T09:55:38Z</time>
      </trkpt>
      <trkpt lat="45.44938" lon="6.90997">
        <ele>2289.8</ele>
        <time>2020-01-10T09:55:40Z</time>
      </trkpt>
      <trkpt lat="45.44936" lon="6.91">
        <ele>2289.8</ele>
        <time>2020-01-10T09:55:42Z</time>
      </trkpt>
      <trkpt lat="45.44934" lon="6.91003">
        <ele>2289.8</ele>
        <time>2020-01-10T09:55:44Z</time>
      </trkpt>
      <trkpt lat="45.44933" lon="6.91006">
        <ele>2289.8</ele>
        <time>2020-01-10T09:55:46Z</time>
      </trkpt>
      <trkpt lat="45.44932" lon="6.91009">
        <ele>2289.8</ele>
        <time>2020-01-10T09:55:48Z</time>
      </trkpt>
      <trkpt lat="45.44931" lon="6.91012">
        <ele>2289.8</ele>
        <time>2020-01-10T09:55:50Z</time>
      </trkpt>
      <trkpt lat="45.44929" lon="6.91015">
        <ele>2289.8</ele>
        <time>2020-01-10T09:55:53Z</time>
      </trkpt>
      <trkpt lat="45.44927" lon="6.91018">
        <ele>2289.8</ele>
        <time>2020-01-10T09:55:55Z</time>
      </trkpt>
      <trkpt lat="45.44926" lon="6.9102">
        <ele>2289.8</ele>
        <time>2020-01-10T09:55:57Z</time>
      </trkpt>
      <trkpt lat="45.44925" lon="6.91023">
        <ele>2296.2</ele>
        <time>2020-01-10T09:55:59Z</time>
      </trkpt>
      <trkpt lat="45.44924" lon="6.91026">
        <ele>2296.2</ele>
        <time>2020-01-10T09:56:01Z</time>
      </trkpt>
      <trkpt lat="45.44923" lon="6.91028">
        <ele>2296.2</ele>
        <time>2020-01-10T09:56:03Z</time>
      </trkpt>
      <trkpt lat="45.44921" lon="6.91031">
        <ele>2296.2</ele>
        <time>2020-01-10T09:56:05Z</time>
      </trkpt>
      <trkpt lat="45.44919" lon="6.91035">
        <ele>2296.2</ele>
        <time>2020-01-10T09:56:07Z</time>
      </trkpt>
      <trkpt lat="45.44919" lon="6.91037">
        <ele>2298</ele>
        <time>2020-01-10T09:56:09Z</time>
      </trkpt>
      <trkpt lat="45.44918" lon="6.9104">
        <ele>2298</ele>
        <time>2020-01-10T09:56:11Z</time>
      </trkpt>
      <trkpt lat="45.44916" lon="6.91042">
        <ele>2298</ele>
        <time>2020-01-10T09:56:13Z</time>
      </trkpt>
      <trkpt lat="45.44915" lon="6.91045">
        <ele>2298</ele>
        <time>2020-01-10T09:56:15Z</time>
      </trkpt>
      <trkpt lat="45.44914" lon="6.91047">
        <ele>2298</ele>
        <time>2020-01-10T09:56:17Z</time>
      </trkpt>
      <trkpt lat="45.44912" lon="6.9105">
        <ele>2300.2</ele>
        <time>2020-01-10T09:56:19Z</time>
      </trkpt>
      <trkpt lat="45.44911" lon="6.91054">
        <ele>2300.2</ele>
        <time>2020-01-10T09:56:21Z</time>
      </trkpt>
      <trkpt lat="45.4491" lon="6.91056">
        <ele>2300.2</ele>
        <time>2020-01-10T09:56:23Z</time>
      </trkpt>
      <trkpt lat="45.44908" lon="6.91059">
        <ele>2300.2</ele>
        <time>2020-01-10T09:56:25Z</time>
      </trkpt>
      <trkpt lat="45.44908" lon="6.91062">
        <ele>2300.2</ele>
        <time>2020-01-10T09:56:27Z</time>
      </trkpt>
      <trkpt lat="45.44906" lon="6.91065">
        <ele>2302.8</ele>
        <time>2020-01-10T09:56:29Z</time>
      </trkpt>
      <trkpt lat="45.44905" lon="6.91068">
        <ele>2302.8</ele>
        <time>2020-01-10T09:56:31Z</time>
      </trkpt>
      <trkpt lat="45.44903" lon="6.91071">
        <ele>2302.8</ele>
        <time>2020-01-10T09:56:33Z</time>
      </trkpt>
      <trkpt lat="45.44901" lon="6.91074">
        <ele>2302.8</ele>
        <time>2020-01-10T09:56:35Z</time>
      </trkpt>
      <trkpt lat="45.449" lon="6.91079">
        <ele>2302.8</ele>
        <time>2020-01-10T09:56:38Z</time>
      </trkpt>
      <trkpt lat="45.44898" lon="6.91083">
        <ele>2302.8</ele>
        <time>2020-01-10T09:56:40Z</time>
      </trkpt>
      <trkpt lat="45.44897" lon="6.91085">
        <ele>2302.8</ele>
        <time>2020-01-10T09:56:42Z</time>
      </trkpt>
      <trkpt lat="45.44896" lon="6.91088">
        <ele>2302.8</ele>
        <time>2020-01-10T09:56:44Z</time>
      </trkpt>
      <trkpt lat="45.44895" lon="6.91091">
        <ele>2302.8</ele>
        <time>2020-01-10T09:56:46Z</time>
      </trkpt>
      <trkpt lat="45.44894" lon="6.91094">
        <ele>2302.8</ele>
        <time>2020-01-10T09:56:48Z</time>
      </trkpt>
      <trkpt lat="45.44892" lon="6.91098">
        <ele>2302.8</ele>
        <time>2020-01-10T09:56:50Z</time>
      </trkpt>
      <trkpt lat="45.44891" lon="6.91101">
        <ele>2302.8</ele>
        <time>2020-01-10T09:56:52Z</time>
      </trkpt>
      <trkpt lat="45.4489" lon="6.91104">
        <ele>2302.8</ele>
        <time>2020-01-10T09:56:54Z</time>
      </trkpt>
      <trkpt lat="45.44889" lon="6.91107">
        <ele>2302.8</ele>
        <time>2020-01-10T09:56:56Z</time>
      </trkpt>
      <trkpt lat="45.44888" lon="6.9111">
        <ele>2302.8</ele>
        <time>2020-01-10T09:56:58Z</time>
      </trkpt>
      <trkpt lat="45.44887" lon="6.91113">
        <ele>2302.8</ele>
        <time>2020-01-10T09:57:00Z</time>
      </trkpt>
      <trkpt lat="45.44886" lon="6.91116">
        <ele>2302.8</ele>
        <time>2020-01-10T09:57:02Z</time>
      </trkpt>
      <trkpt lat="45.44885" lon="6.91119">
        <ele>2302.8</ele>
        <time>2020-01-10T09:57:04Z</time>
      </trkpt>
      <trkpt lat="45.44884" lon="6.91122">
        <ele>2302.8</ele>
        <time>2020-01-10T09:57:06Z</time>
      </trkpt>
      <trkpt lat="45.44883" lon="6.91125">
        <ele>2302.8</ele>
        <time>2020-01-10T09:57:08Z</time>
      </trkpt>
      <trkpt lat="45.44883" lon="6.91128">
        <ele>2302.8</ele>
        <time>2020-01-10T09:57:10Z</time>
      </trkpt>
      <trkpt lat="45.44882" lon="6.9113">
        <ele>2302.8</ele>
        <time>2020-01-10T09:57:12Z</time>
      </trkpt>
      <trkpt lat="45.44881" lon="6.91133">
        <ele>2302.8</ele>
        <time>2020-01-10T09:57:14Z</time>
      </trkpt>
      <trkpt lat="45.44881" lon="6.91136">
        <ele>2302.8</ele>
        <time>2020-01-10T09:57:16Z</time>
      </trkpt>
      <trkpt lat="45.4488" lon="6.91139">
        <ele>2302.8</ele>
        <time>2020-01-10T09:57:18Z</time>
      </trkpt>
      <trkpt lat="45.44879" lon="6.91143">
        <ele>2302.8</ele>
        <time>2020-01-10T09:57:21Z</time>
      </trkpt>
      <trkpt lat="45.44879" lon="6.91146">
        <ele>2302.8</ele>
        <time>2020-01-10T09:57:23Z</time>
      </trkpt>
      <trkpt lat="45.44878" lon="6.91148">
        <ele>2302.8</ele>
        <time>2020-01-10T09:57:25Z</time>
      </trkpt>
      <trkpt lat="45.44878" lon="6.91152">
        <ele>2302.8</ele>
        <time>2020-01-10T09:57:28Z</time>
      </trkpt>
      <trkpt lat="45.44877" lon="6.91154">
        <ele>2302.8</ele>
        <time>2020-01-10T09:57:30Z</time>
      </trkpt>
      <trkpt lat="45.44877" lon="6.91157">
        <ele>2302.8</ele>
        <time>2020-01-10T09:57:32Z</time>
      </trkpt>
      <trkpt lat="45.44876" lon="6.9116">
        <ele>2302.8</ele>
        <time>2020-01-10T09:57:34Z</time>
      </trkpt>
      <trkpt lat="45.44876" lon="6.91163">
        <ele>2302.8</ele>
        <time>2020-01-10T09:57:36Z</time>
      </trkpt>
      <trkpt lat="45.44876" lon="6.91166">
        <ele>2318.2</ele>
        <time>2020-01-10T09:57:39Z</time>
      </trkpt>
      <trkpt lat="45.44875" lon="6.91168">
        <ele>2318.2</ele>
        <time>2020-01-10T09:57:41Z</time>
      </trkpt>
      <trkpt lat="45.44875" lon="6.91171">
        <ele>2318.2</ele>
        <time>2020-01-10T09:57:43Z</time>
      </trkpt>
      <trkpt lat="45.44874" lon="6.91174">
        <ele>2318.2</ele>
        <time>2020-01-10T09:57:45Z</time>
      </trkpt>
      <trkpt lat="45.44874" lon="6.91178">
        <ele>2318.2</ele>
        <time>2020-01-10T09:57:48Z</time>
      </trkpt>
      <trkpt lat="45.44873" lon="6.9118">
        <ele>2318.2</ele>
        <time>2020-01-10T09:57:50Z</time>
      </trkpt>
      <trkpt lat="45.44873" lon="6.91183">
        <ele>2318.2</ele>
        <time>2020-01-10T09:57:52Z</time>
      </trkpt>
      <trkpt lat="45.44873" lon="6.91186">
        <ele>2318.2</ele>
        <time>2020-01-10T09:57:54Z</time>
      </trkpt>
      <trkpt lat="45.44873" lon="6.9119">
        <ele>2318.2</ele>
        <time>2020-01-10T09:57:57Z</time>
      </trkpt>
      <trkpt lat="45.44872" lon="6.91194">
        <ele>2318.2</ele>
        <time>2020-01-10T09:58:00Z</time>
      </trkpt>
      <trkpt lat="45.44872" lon="6.91196">
        <ele>2318.2</ele>
        <time>2020-01-10T09:58:02Z</time>
      </trkpt>
      <trkpt lat="45.44871" lon="6.91199">
        <ele>2318.2</ele>
        <time>2020-01-10T09:58:04Z</time>
      </trkpt>
      <trkpt lat="45.44871" lon="6.91202">
        <ele>2318.2</ele>
        <time>2020-01-10T09:58:06Z</time>
      </trkpt>
      <trkpt lat="45.4487" lon="6.91206">
        <ele>2324.6</ele>
        <time>2020-01-10T09:58:09Z</time>
      </trkpt>
      <trkpt lat="45.4487" lon="6.9121">
        <ele>2324.6</ele>
        <time>2020-01-10T09:58:12Z</time>
      </trkpt>
      <trkpt lat="45.4487" lon="6.91212">
        <ele>2324.6</ele>
        <time>2020-01-10T09:58:14Z</time>
      </trkpt>
      <trkpt lat="45.4487" lon="6.91216">
        <ele>2324.6</ele>
        <time>2020-01-10T09:58:17Z</time>
      </trkpt>
      <trkpt lat="45.4487" lon="6.9122">
        <ele>2324.6</ele>
        <time>2020-01-10T09:58:20Z</time>
      </trkpt>
      <trkpt lat="45.4487" lon="6.91224">
        <ele>2324.6</ele>
        <time>2020-01-10T09:58:23Z</time>
      </trkpt>
      <trkpt lat="45.4487" lon="6.91226">
        <ele>2324.6</ele>
        <time>2020-01-10T09:58:26Z</time>
      </trkpt>
      <trkpt lat="45.4487" lon="6.9123">
        <ele>2329.2</ele>
        <time>2020-01-10T09:58:29Z</time>
      </trkpt>
      <trkpt lat="45.44869" lon="6.91233">
        <ele>2329.2</ele>
        <time>2020-01-10T09:58:32Z</time>
      </trkpt>
      <trkpt lat="45.44869" lon="6.91236">
        <ele>2329.2</ele>
        <time>2020-01-10T09:58:34Z</time>
      </trkpt>
      <trkpt lat="45.44869" lon="6.9124">
        <ele>2329.2</ele>
        <time>2020-01-10T09:58:37Z</time>
      </trkpt>
      <trkpt lat="45.44869" lon="6.91242">
        <ele>2331.8</ele>
        <time>2020-01-10T09:58:39Z</time>
      </trkpt>
      <trkpt lat="45.44868" lon="6.91246">
        <ele>2331.8</ele>
        <time>2020-01-10T09:58:42Z</time>
      </trkpt>
      <trkpt lat="45.44868" lon="6.91249">
        <ele>2331.8</ele>
        <time>2020-01-10T09:58:45Z</time>
      </trkpt>
      <trkpt lat="45.44868" lon="6.91252">
        <ele>2331.8</ele>
        <time>2020-01-10T09:58:47Z</time>
      </trkpt>
      <trkpt lat="45.44868" lon="6.91254">
        <ele>2334.2</ele>
        <time>2020-01-10T09:58:49Z</time>
      </trkpt>
      <trkpt lat="45.44868" lon="6.91258">
        <ele>2334.2</ele>
        <time>2020-01-10T09:58:52Z</time>
      </trkpt>
      <trkpt lat="45.44869" lon="6.9126">
        <ele>2334.2</ele>
        <time>2020-01-10T09:58:54Z</time>
      </trkpt>
      <trkpt lat="45.44869" lon="6.91263">
        <ele>2334.2</ele>
        <time>2020-01-10T09:58:56Z</time>
      </trkpt>
      <trkpt lat="45.44869" lon="6.91266">
        <ele>2336.2</ele>
        <time>2020-01-10T09:58:59Z</time>
      </trkpt>
      <trkpt lat="45.44869" lon="6.91269">
        <ele>2336.2</ele>
        <time>2020-01-10T09:59:01Z</time>
      </trkpt>
      <trkpt lat="45.44868" lon="6.91272">
        <ele>2336.2</ele>
        <time>2020-01-10T09:59:03Z</time>
      </trkpt>
      <trkpt lat="45.44868" lon="6.91275">
        <ele>2336.2</ele>
        <time>2020-01-10T09:59:06Z</time>
      </trkpt>
      <trkpt lat="45.44868" lon="6.91279">
        <ele>2339.2</ele>
        <time>2020-01-10T09:59:09Z</time>
      </trkpt>
      <trkpt lat="45.44868" lon="6.91281">
        <ele>2339.2</ele>
        <time>2020-01-10T09:59:11Z</time>
      </trkpt>
      <trkpt lat="45.44868" lon="6.91284">
        <ele>2339.2</ele>
        <time>2020-01-10T09:59:13Z</time>
      </trkpt>
      <trkpt lat="45.44868" lon="6.91287">
        <ele>2339.2</ele>
        <time>2020-01-10T09:59:15Z</time>
      </trkpt>
      <trkpt lat="45.44868" lon="6.9129">
        <ele>2339.2</ele>
        <time>2020-01-10T09:59:18Z</time>
      </trkpt>
      <trkpt lat="45.44868" lon="6.91293">
        <ele>2339.2</ele>
        <time>2020-01-10T09:59:21Z</time>
      </trkpt>
      <trkpt lat="45.44868" lon="6.91297">
        <ele>2339.2</ele>
        <time>2020-01-10T09:59:24Z</time>
      </trkpt>
      <trkpt lat="45.44867" lon="6.91299">
        <ele>2339.2</ele>
        <time>2020-01-10T09:59:26Z</time>
      </trkpt>
      <trkpt lat="45.44867" lon="6.91303">
        <ele>2344.4</ele>
        <time>2020-01-10T09:59:29Z</time>
      </trkpt>
      <trkpt lat="45.44867" lon="6.91306">
        <ele>2344.4</ele>
        <time>2020-01-10T09:59:32Z</time>
      </trkpt>
      <trkpt lat="45.44867" lon="6.91309">
        <ele>2344.4</ele>
        <time>2020-01-10T09:59:34Z</time>
      </trkpt>
      <trkpt lat="45.44867" lon="6.91312">
        <ele>2344.4</ele>
        <time>2020-01-10T09:59:37Z</time>
      </trkpt>
      <trkpt lat="45.44867" lon="6.91316">
        <ele>2344.4</ele>
        <time>2020-01-10T09:59:40Z</time>
      </trkpt>
      <trkpt lat="45.44867" lon="6.91319">
        <ele>2344.4</ele>
        <time>2020-01-10T09:59:42Z</time>
      </trkpt>
      <trkpt lat="45.44867" lon="6.91322">
        <ele>2344.4</ele>
        <time>2020-01-10T09:59:45Z</time>
      </trkpt>
      <trkpt lat="45.44867" lon="6.91325">
        <ele>2344.4</ele>
        <time>2020-01-10T09:59:48Z</time>
      </trkpt>
      <trkpt lat="45.44867" lon="6.91329">
        <ele>2344.4</ele>
        <time>2020-01-10T09:59:51Z</time>
      </trkpt>
      <trkpt lat="45.44867" lon="6.91332">
        <ele>2344.4</ele>
        <time>2020-01-10T09:59:54Z</time>
      </trkpt>
      <trkpt lat="45.44867" lon="6.91334">
        <ele>2344.4</ele>
        <time>2020-01-10T09:59:56Z</time>
      </trkpt>
      <trkpt lat="45.44867" lon="6.91338">
        <ele>2352.6</ele>
        <time>2020-01-10T09:59:59Z</time>
      </trkpt>
      <trkpt lat="45.44867" lon="6.91341">
        <ele>2352.6</ele>
        <time>2020-01-10T10:00:01Z</time>
      </trkpt>
      <trkpt lat="45.44867" lon="6.91345">
        <ele>2352.6</ele>
        <time>2020-01-10T10:00:04Z</time>
      </trkpt>
      <trkpt lat="45.44866" lon="6.91348">
        <ele>2352.6</ele>
        <time>2020-01-10T10:00:07Z</time>
      </trkpt>
      <trkpt lat="45.44867" lon="6.91352">
        <ele>2352.6</ele>
        <time>2020-01-10T10:00:10Z</time>
      </trkpt>
      <trkpt lat="45.44867" lon="6.91354">
        <ele>2352.6</ele>
        <time>2020-01-10T10:00:12Z</time>
      </trkpt>
      <trkpt lat="45.44866" lon="6.91358">
        <ele>2352.6</ele>
        <time>2020-01-10T10:00:15Z</time>
      </trkpt>
      <trkpt lat="45.44865" lon="6.91361">
        <ele>2352.6</ele>
        <time>2020-01-10T10:00:17Z</time>
      </trkpt>
      <trkpt lat="45.44865" lon="6.91365">
        <ele>2352.6</ele>
        <time>2020-01-10T10:00:20Z</time>
      </trkpt>
      <trkpt lat="45.44866" lon="6.91368">
        <ele>2352.6</ele>
        <time>2020-01-10T10:00:22Z</time>
      </trkpt>
      <trkpt lat="45.44866" lon="6.91372">
        <ele>2352.6</ele>
        <time>2020-01-10T10:00:25Z</time>
      </trkpt>
      <trkpt lat="45.44866" lon="6.91374">
        <ele>2352.6</ele>
        <time>2020-01-10T10:00:27Z</time>
      </trkpt>
      <trkpt lat="45.44866" lon="6.91377">
        <ele>2360.4</ele>
        <time>2020-01-10T10:00:29Z</time>
      </trkpt>
      <trkpt lat="45.44866" lon="6.9138">
        <ele>2360.4</ele>
        <time>2020-01-10T10:00:31Z</time>
      </trkpt>
      <trkpt lat="45.44866" lon="6.91384">
        <ele>2360.4</ele>
        <time>2020-01-10T10:00:34Z</time>
      </trkpt>
      <trkpt lat="45.44867" lon="6.91388">
        <ele>2360.4</ele>
        <time>2020-01-10T10:00:37Z</time>
      </trkpt>
      <trkpt lat="45.44867" lon="6.91391">
        <ele>2360.4</ele>
        <time>2020-01-10T10:00:40Z</time>
      </trkpt>
      <trkpt lat="45.44867" lon="6.91395">
        <ele>2360.4</ele>
        <time>2020-01-10T10:00:43Z</time>
      </trkpt>
      <trkpt lat="45.44867" lon="6.91398">
        <ele>2360.4</ele>
        <time>2020-01-10T10:00:46Z</time>
      </trkpt>
      <trkpt lat="45.44867" lon="6.91401">
        <ele>2360.4</ele>
        <time>2020-01-10T10:00:48Z</time>
      </trkpt>
      <trkpt lat="45.44867" lon="6.91404">
        <ele>2360.4</ele>
        <time>2020-01-10T10:00:50Z</time>
      </trkpt>
      <trkpt lat="45.44868" lon="6.91406">
        <ele>2360.4</ele>
        <time>2020-01-10T10:00:52Z</time>
      </trkpt>
      <trkpt lat="45.44868" lon="6.91409">
        <ele>2360.4</ele>
        <time>2020-01-10T10:00:54Z</time>
      </trkpt>
      <trkpt lat="45.44868" lon="6.91412">
        <ele>2360.4</ele>
        <time>2020-01-10T10:00:57Z</time>
      </trkpt>
      <trkpt lat="45.44867" lon="6.91416">
        <ele>2360.4</ele>
        <time>2020-01-10T10:01:00Z</time>
      </trkpt>
      <trkpt lat="45.44867" lon="6.91419">
        <ele>2360.4</ele>
        <time>2020-01-10T10:01:03Z</time>
      </trkpt>
      <trkpt lat="45.44866" lon="6.91422">
        <ele>2360.4</ele>
        <time>2020-01-10T10:01:05Z</time>
      </trkpt>
      <trkpt lat="45.44866" lon="6.91424">
        <ele>2360.4</ele>
        <time>2020-01-10T10:01:07Z</time>
      </trkpt>
      <trkpt lat="45.44866" lon="6.91428">
        <ele>2360.4</ele>
        <time>2020-01-10T10:01:10Z</time>
      </trkpt>
      <trkpt lat="45.44866" lon="6.91432">
        <ele>2360.4</ele>
        <time>2020-01-10T10:01:13Z</time>
      </trkpt>
      <trkpt lat="45.44865" lon="6.91435">
        <ele>2360.4</ele>
        <time>2020-01-10T10:01:16Z</time>
      </trkpt>
      <trkpt lat="45.44865" lon="6.91438">
        <ele>2372.6</ele>
        <time>2020-01-10T10:01:19Z</time>
      </trkpt>
      <trkpt lat="45.44865" lon="6.91442">
        <ele>2372.6</ele>
        <time>2020-01-10T10:01:22Z</time>
      </trkpt>
      <trkpt lat="45.44865" lon="6.91445">
        <ele>2372.6</ele>
        <time>2020-01-10T10:01:25Z</time>
      </trkpt>
      <trkpt lat="45.44864" lon="6.91448">
        <ele>2372.6</ele>
        <time>2020-01-10T10:01:28Z</time>
      </trkpt>
      <trkpt lat="45.44865" lon="6.91451">
        <ele>2372.6</ele>
        <time>2020-01-10T10:01:31Z</time>
      </trkpt>
      <trkpt lat="45.44865" lon="6.91455">
        <ele>2372.6</ele>
        <time>2020-01-10T10:01:34Z</time>
      </trkpt>
      <trkpt lat="45.44865" lon="6.91458">
        <ele>2372.6</ele>
        <time>2020-01-10T10:01:36Z</time>
      </trkpt>
      <trkpt lat="45.44865" lon="6.91461">
        <ele>2378</ele>
        <time>2020-01-10T10:01:39Z</time>
      </trkpt>
      <trkpt lat="45.44864" lon="6.91465">
        <ele>2378</ele>
        <time>2020-01-10T10:01:42Z</time>
      </trkpt>
      <trkpt lat="45.44864" lon="6.91468">
        <ele>2378</ele>
        <time>2020-01-10T10:01:45Z</time>
      </trkpt>
      <trkpt lat="45.44864" lon="6.91471">
        <ele>2378</ele>
        <time>2020-01-10T10:01:48Z</time>
      </trkpt>
      <trkpt lat="45.44864" lon="6.91475">
        <ele>2378</ele>
        <time>2020-01-10T10:01:52Z</time>
      </trkpt>
      <trkpt lat="45.44864" lon="6.91478">
        <ele>2378</ele>
        <time>2020-01-10T10:01:55Z</time>
      </trkpt>
      <trkpt lat="45.44864" lon="6.91481">
        <ele>2378</ele>
        <time>2020-01-10T10:01:57Z</time>
      </trkpt>
      <trkpt lat="45.44864" lon="6.91484">
        <ele>2383.2</ele>
        <time>2020-01-10T10:01:59Z</time>
      </trkpt>
      <trkpt lat="45.44863" lon="6.91488">
        <ele>2383.2</ele>
        <time>2020-01-10T10:02:02Z</time>
      </trkpt>
      <trkpt lat="45.44862" lon="6.91491">
        <ele>2383.2</ele>
        <time>2020-01-10T10:02:05Z</time>
      </trkpt>
      <trkpt lat="45.44861" lon="6.91493">
        <ele>2383.2</ele>
        <time>2020-01-10T10:02:07Z</time>
      </trkpt>
      <trkpt lat="45.44861" lon="6.91496">
        <ele>2383.2</ele>
        <time>2020-01-10T10:02:10Z</time>
      </trkpt>
      <trkpt lat="45.44861" lon="6.915">
        <ele>2383.2</ele>
        <time>2020-01-10T10:02:13Z</time>
      </trkpt>
      <trkpt lat="45.4486" lon="6.91503">
        <ele>2383.2</ele>
        <time>2020-01-10T10:02:16Z</time>
      </trkpt>
      <trkpt lat="45.44859" lon="6.91505">
        <ele>2383.2</ele>
        <time>2020-01-10T10:02:18Z</time>
      </trkpt>
      <trkpt lat="45.44858" lon="6.91508">
        <ele>2383.2</ele>
        <time>2020-01-10T10:02:21Z</time>
      </trkpt>
      <trkpt lat="45.44857" lon="6.9151">
        <ele>2383.2</ele>
        <time>2020-01-10T10:02:25Z</time>
      </trkpt>
      <trkpt lat="45.44856" lon="6.91513">
        <ele>2383.2</ele>
        <time>2020-01-10T10:02:28Z</time>
      </trkpt>
      <trkpt lat="45.44856" lon="6.91516">
        <ele>2383.2</ele>
        <time>2020-01-10T10:02:31Z</time>
      </trkpt>
      <trkpt lat="45.44855" lon="6.91519">
        <ele>2383.2</ele>
        <time>2020-01-10T10:02:34Z</time>
      </trkpt>
      <trkpt lat="45.44854" lon="6.91522">
        <ele>2383.2</ele>
        <time>2020-01-10T10:02:38Z</time>
      </trkpt>
      <trkpt lat="45.44853" lon="6.91525">
        <ele>2383.2</ele>
        <time>2020-01-10T10:02:41Z</time>
      </trkpt>
      <trkpt lat="45.44852" lon="6.91528">
        <ele>2383.2</ele>
        <time>2020-01-10T10:02:44Z</time>
      </trkpt>
      <trkpt lat="45.44852" lon="6.91531">
        <ele>2383.2</ele>
        <time>2020-01-10T10:02:46Z</time>
      </trkpt>
      <trkpt lat="45.44851" lon="6.91534">
        <ele>2383.2</ele>
        <time>2020-01-10T10:02:50Z</time>
      </trkpt>
      <trkpt lat="45.4485" lon="6.91537">
        <ele>2383.2</ele>
        <time>2020-01-10T10:02:52Z</time>
      </trkpt>
      <trkpt lat="45.4485" lon="6.9154">
        <ele>2383.2</ele>
        <time>2020-01-10T10:02:55Z</time>
      </trkpt>
      <trkpt lat="45.44849" lon="6.91542">
        <ele>2383.2</ele>
        <time>2020-01-10T10:02:57Z</time>
      </trkpt>
      <trkpt lat="45.44847" lon="6.91546">
        <ele>2383.2</ele>
        <time>2020-01-10T10:03:00Z</time>
      </trkpt>
      <trkpt lat="45.44846" lon="6.91548">
        <ele>2383.2</ele>
        <time>2020-01-10T10:03:03Z</time>
      </trkpt>
      <trkpt lat="45.44845" lon="6.91552">
        <ele>2383.2</ele>
        <time>2020-01-10T10:03:07Z</time>
      </trkpt>
      <trkpt lat="45.44844" lon="6.91556">
        <ele>2383.2</ele>
        <time>2020-01-10T10:03:10Z</time>
      </trkpt>
      <trkpt lat="45.44844" lon="6.91558">
        <ele>2383.2</ele>
        <time>2020-01-10T10:03:13Z</time>
      </trkpt>
      <trkpt lat="45.44843" lon="6.91562">
        <ele>2383.2</ele>
        <time>2020-01-10T10:03:17Z</time>
      </trkpt>
      <trkpt lat="45.44843" lon="6.91565">
        <ele>2383.2</ele>
        <time>2020-01-10T10:03:20Z</time>
      </trkpt>
      <trkpt lat="45.44842" lon="6.91568">
        <ele>2383.2</ele>
        <time>2020-01-10T10:03:22Z</time>
      </trkpt>
      <trkpt lat="45.44841" lon="6.91571">
        <ele>2383.2</ele>
        <time>2020-01-10T10:03:25Z</time>
      </trkpt>
      <trkpt lat="45.44841" lon="6.91573">
        <ele>2383.2</ele>
        <time>2020-01-10T10:03:27Z</time>
      </trkpt>
      <trkpt lat="45.44839" lon="6.91577">
        <ele>2383.2</ele>
        <time>2020-01-10T10:03:30Z</time>
      </trkpt>
      <trkpt lat="45.44839" lon="6.91581">
        <ele>2383.2</ele>
        <time>2020-01-10T10:03:33Z</time>
      </trkpt>
      <trkpt lat="45.44838" lon="6.91584">
        <ele>2383.2</ele>
        <time>2020-01-10T10:03:35Z</time>
      </trkpt>
      <trkpt lat="45.44838" lon="6.91587">
        <ele>2383.2</ele>
        <time>2020-01-10T10:03:38Z</time>
      </trkpt>
      <trkpt lat="45.44837" lon="6.91589">
        <ele>2383.2</ele>
        <time>2020-01-10T10:03:40Z</time>
      </trkpt>
      <trkpt lat="45.44836" lon="6.91593">
        <ele>2383.2</ele>
        <time>2020-01-10T10:03:43Z</time>
      </trkpt>
      <trkpt lat="45.44835" lon="6.91596">
        <ele>2383.2</ele>
        <time>2020-01-10T10:03:45Z</time>
      </trkpt>
      <trkpt lat="45.44835" lon="6.91599">
        <ele>2383.2</ele>
        <time>2020-01-10T10:03:47Z</time>
      </trkpt>
      <trkpt lat="45.44834" lon="6.91602">
        <ele>2410.6</ele>
        <time>2020-01-10T10:03:49Z</time>
      </trkpt>
      <trkpt lat="45.44833" lon="6.91604">
        <ele>2410.6</ele>
        <time>2020-01-10T10:03:51Z</time>
      </trkpt>
      <trkpt lat="45.44833" lon="6.91607">
        <ele>2410.6</ele>
        <time>2020-01-10T10:03:53Z</time>
      </trkpt>
      <trkpt lat="45.44833" lon="6.9161">
        <ele>2410.6</ele>
        <time>2020-01-10T10:03:55Z</time>
      </trkpt>
      <trkpt lat="45.44832" lon="6.91613">
        <ele>2410.6</ele>
        <time>2020-01-10T10:03:57Z</time>
      </trkpt>
      <trkpt lat="45.44832" lon="6.91616">
        <ele>2412.6</ele>
        <time>2020-01-10T10:03:59Z</time>
      </trkpt>
      <trkpt lat="45.44831" lon="6.9162">
        <ele>2412.6</ele>
        <time>2020-01-10T10:04:02Z</time>
      </trkpt>
      <trkpt lat="45.4483" lon="6.91622">
        <ele>2412.6</ele>
        <time>2020-01-10T10:04:04Z</time>
      </trkpt>
      <trkpt lat="45.44829" lon="6.91625">
        <ele>2412.6</ele>
        <time>2020-01-10T10:04:06Z</time>
      </trkpt>
      <trkpt lat="45.44829" lon="6.91628">
        <ele>2412.6</ele>
        <time>2020-01-10T10:04:08Z</time>
      </trkpt>
      <trkpt lat="45.44828" lon="6.91631">
        <ele>2412.6</ele>
        <time>2020-01-10T10:04:10Z</time>
      </trkpt>
      <trkpt lat="45.44828" lon="6.91633">
        <ele>2412.6</ele>
        <time>2020-01-10T10:04:12Z</time>
      </trkpt>
      <trkpt lat="45.44828" lon="6.91637">
        <ele>2412.6</ele>
        <time>2020-01-10T10:04:14Z</time>
      </trkpt>
      <trkpt lat="45.44828" lon="6.9164">
        <ele>2412.6</ele>
        <time>2020-01-10T10:04:16Z</time>
      </trkpt>
      <trkpt lat="45.44827" lon="6.91644">
        <ele>2412.6</ele>
        <time>2020-01-10T10:04:18Z</time>
      </trkpt>
      <trkpt lat="45.44827" lon="6.91647">
        <ele>2412.6</ele>
        <time>2020-01-10T10:04:20Z</time>
      </trkpt>
      <trkpt lat="45.44825" lon="6.9165">
        <ele>2412.6</ele>
        <time>2020-01-10T10:04:22Z</time>
      </trkpt>
      <trkpt lat="45.44825" lon="6.91653">
        <ele>2412.6</ele>
        <time>2020-01-10T10:04:24Z</time>
      </trkpt>
      <trkpt lat="45.44823" lon="6.91656">
        <ele>2412.6</ele>
        <time>2020-01-10T10:04:26Z</time>
      </trkpt>
      <trkpt lat="45.44822" lon="6.91659">
        <ele>2412.6</ele>
        <time>2020-01-10T10:04:28Z</time>
      </trkpt>
      <trkpt lat="45.44821" lon="6.91661">
        <ele>2412.6</ele>
        <time>2020-01-10T10:04:30Z</time>
      </trkpt>
      <trkpt lat="45.4482" lon="6.91664">
        <ele>2412.6</ele>
        <time>2020-01-10T10:04:32Z</time>
      </trkpt>
      <trkpt lat="45.44819" lon="6.91666">
        <ele>2412.6</ele>
        <time>2020-01-10T10:04:34Z</time>
      </trkpt>
      <trkpt lat="45.44818" lon="6.91669">
        <ele>2412.6</ele>
        <time>2020-01-10T10:04:36Z</time>
      </trkpt>
      <trkpt lat="45.44817" lon="6.91672">
        <ele>2412.6</ele>
        <time>2020-01-10T10:04:38Z</time>
      </trkpt>
      <trkpt lat="45.44815" lon="6.91675">
        <ele>2412.6</ele>
        <time>2020-01-10T10:04:40Z</time>
      </trkpt>
      <trkpt lat="45.44813" lon="6.91678">
        <ele>2412.6</ele>
        <time>2020-01-10T10:04:42Z</time>
      </trkpt>
      <trkpt lat="45.44811" lon="6.91682">
        <ele>2412.6</ele>
        <time>2020-01-10T10:04:44Z</time>
      </trkpt>
      <trkpt lat="45.4481" lon="6.91684">
        <ele>2412.6</ele>
        <time>2020-01-10T10:04:46Z</time>
      </trkpt>
      <trkpt lat="45.44807" lon="6.91688">
        <ele>2412.6</ele>
        <time>2020-01-10T10:04:48Z</time>
      </trkpt>
      <trkpt lat="45.44805" lon="6.9169">
        <ele>2422.2</ele>
        <time>2020-01-10T10:04:49Z</time>
      </trkpt>
      <trkpt lat="45.44803" lon="6.91693">
        <ele>2422.2</ele>
        <time>2020-01-10T10:04:51Z</time>
      </trkpt>
      <trkpt lat="45.44801" lon="6.91696">
        <ele>2422.2</ele>
        <time>2020-01-10T10:04:53Z</time>
      </trkpt>
      <trkpt lat="45.44799" lon="6.91698">
        <ele>2422.2</ele>
        <time>2020-01-10T10:04:54Z</time>
      </trkpt>
      <trkpt lat="45.44798" lon="6.91699">
        <ele>2422.2</ele>
        <time>2020-01-10T10:04:55Z</time>
      </trkpt>
      <trkpt lat="45.44796" lon="6.91702">
        <ele>2422.2</ele>
        <time>2020-01-10T10:04:57Z</time>
      </trkpt>
      <trkpt lat="45.44793" lon="6.91705">
        <ele>2422.8</ele>
        <time>2020-01-10T10:04:59Z</time>
      </trkpt>
      <trkpt lat="45.44791" lon="6.91707">
        <ele>2422.8</ele>
        <time>2020-01-10T10:05:00Z</time>
      </trkpt>
      <trkpt lat="45.44789" lon="6.9171">
        <ele>2422.8</ele>
        <time>2020-01-10T10:05:02Z</time>
      </trkpt>
      <trkpt lat="45.44787" lon="6.91713">
        <ele>2422.8</ele>
        <time>2020-01-10T10:05:04Z</time>
      </trkpt>
      <trkpt lat="45.4478" lon="6.91722">
        <ele>2422.8</ele>
        <time>2020-01-10T10:05:10Z</time>
      </trkpt>
      <trkpt lat="45.44777" lon="6.91725">
        <ele>2422.8</ele>
        <time>2020-01-10T10:05:12Z</time>
      </trkpt>
      <trkpt lat="45.44775" lon="6.91729">
        <ele>2422.8</ele>
        <time>2020-01-10T10:05:14Z</time>
      </trkpt>
      <trkpt lat="45.44773" lon="6.91731">
        <ele>2422.8</ele>
        <time>2020-01-10T10:05:15Z</time>
      </trkpt>
      <trkpt lat="45.44771" lon="6.91734">
        <ele>2422.8</ele>
        <time>2020-01-10T10:05:17Z</time>
      </trkpt>
      <trkpt lat="45.4477" lon="6.91736">
        <ele>2422.8</ele>
        <time>2020-01-10T10:05:18Z</time>
      </trkpt>
      <trkpt lat="45.44769" lon="6.91738">
        <ele>2424.2</ele>
        <time>2020-01-10T10:05:19Z</time>
      </trkpt>
      <trkpt lat="45.44766" lon="6.91741">
        <ele>2424.2</ele>
        <time>2020-01-10T10:05:21Z</time>
      </trkpt>
      <trkpt lat="45.44764" lon="6.91744">
        <ele>2424.2</ele>
        <time>2020-01-10T10:05:23Z</time>
      </trkpt>
      <trkpt lat="45.44763" lon="6.91746">
        <ele>2424.2</ele>
        <time>2020-01-10T10:05:25Z</time>
      </trkpt>
      <trkpt lat="45.44761" lon="6.91748">
        <ele>2424.2</ele>
        <time>2020-01-10T10:05:27Z</time>
      </trkpt>
      <trkpt lat="45.44758" lon="6.91751">
        <ele>2424.6</ele>
        <time>2020-01-10T10:05:29Z</time>
      </trkpt>
      <trkpt lat="45.44756" lon="6.91753">
        <ele>2424.6</ele>
        <time>2020-01-10T10:05:31Z</time>
      </trkpt>
      <trkpt lat="45.44755" lon="6.91755">
        <ele>2424.6</ele>
        <time>2020-01-10T10:05:33Z</time>
      </trkpt>
      <trkpt lat="45.44753" lon="6.91757">
        <ele>2424.6</ele>
        <time>2020-01-10T10:05:34Z</time>
      </trkpt>
      <trkpt lat="45.44751" lon="6.91759">
        <ele>2424.6</ele>
        <time>2020-01-10T10:05:36Z</time>
      </trkpt>
      <trkpt lat="45.44749" lon="6.91762">
        <ele>2424.6</ele>
        <time>2020-01-10T10:05:38Z</time>
      </trkpt>
      <trkpt lat="45.44747" lon="6.91764">
        <ele>2424.6</ele>
        <time>2020-01-10T10:05:40Z</time>
      </trkpt>
      <trkpt lat="45.44746" lon="6.91766">
        <ele>2424.6</ele>
        <time>2020-01-10T10:05:42Z</time>
      </trkpt>
      <trkpt lat="45.44743" lon="6.9177">
        <ele>2424.6</ele>
        <time>2020-01-10T10:05:45Z</time>
      </trkpt>
      <trkpt lat="45.44742" lon="6.91772">
        <ele>2424.6</ele>
        <time>2020-01-10T10:05:47Z</time>
      </trkpt>
      <trkpt lat="45.4474" lon="6.91774">
        <ele>2428.2</ele>
        <time>2020-01-10T10:05:49Z</time>
      </trkpt>
      <trkpt lat="45.44738" lon="6.91776">
        <ele>2428.2</ele>
        <time>2020-01-10T10:05:51Z</time>
      </trkpt>
      <trkpt lat="45.44737" lon="6.9178">
        <ele>2428.2</ele>
        <time>2020-01-10T10:05:54Z</time>
      </trkpt>
      <trkpt lat="45.44735" lon="6.91782">
        <ele>2428.2</ele>
        <time>2020-01-10T10:05:57Z</time>
      </trkpt>
      <trkpt lat="45.44733" lon="6.91785">
        <ele>2430.4</ele>
        <time>2020-01-10T10:05:59Z</time>
      </trkpt>
      <trkpt lat="45.44731" lon="6.91788">
        <ele>2430.4</ele>
        <time>2020-01-10T10:06:01Z</time>
      </trkpt>
      <trkpt lat="45.4473" lon="6.9179">
        <ele>2430.4</ele>
        <time>2020-01-10T10:06:03Z</time>
      </trkpt>
      <trkpt lat="45.44728" lon="6.91792">
        <ele>2430.4</ele>
        <time>2020-01-10T10:06:05Z</time>
      </trkpt>
      <trkpt lat="45.44725" lon="6.91796">
        <ele>2430.4</ele>
        <time>2020-01-10T10:06:08Z</time>
      </trkpt>
      <trkpt lat="45.44724" lon="6.91798">
        <ele>2432.4</ele>
        <time>2020-01-10T10:06:09Z</time>
      </trkpt>
      <trkpt lat="45.44722" lon="6.918">
        <ele>2432.4</ele>
        <time>2020-01-10T10:06:11Z</time>
      </trkpt>
      <trkpt lat="45.44721" lon="6.91802">
        <ele>2432.4</ele>
        <time>2020-01-10T10:06:13Z</time>
      </trkpt>
      <trkpt lat="45.44719" lon="6.91805">
        <ele>2432.4</ele>
        <time>2020-01-10T10:06:16Z</time>
      </trkpt>
      <trkpt lat="45.44718" lon="6.91807">
        <ele>2432.4</ele>
        <time>2020-01-10T10:06:18Z</time>
      </trkpt>
      <trkpt lat="45.44716" lon="6.9181">
        <ele>2432.4</ele>
        <time>2020-01-10T10:06:20Z</time>
      </trkpt>
      <trkpt lat="45.44714" lon="6.91812">
        <ele>2432.4</ele>
        <time>2020-01-10T10:06:22Z</time>
      </trkpt>
      <trkpt lat="45.44711" lon="6.91816">
        <ele>2432.4</ele>
        <time>2020-01-10T10:06:24Z</time>
      </trkpt>
      <trkpt lat="45.44709" lon="6.91817">
        <ele>2432.4</ele>
        <time>2020-01-10T10:06:26Z</time>
      </trkpt>
      <trkpt lat="45.44708" lon="6.9182">
        <ele>2432.4</ele>
        <time>2020-01-10T10:06:28Z</time>
      </trkpt>
      <trkpt lat="45.44706" lon="6.91823">
        <ele>2432.4</ele>
        <time>2020-01-10T10:06:30Z</time>
      </trkpt>
      <trkpt lat="45.44704" lon="6.91826">
        <ele>2432.4</ele>
        <time>2020-01-10T10:06:32Z</time>
      </trkpt>
      <trkpt lat="45.44702" lon="6.91828">
        <ele>2432.4</ele>
        <time>2020-01-10T10:06:34Z</time>
      </trkpt>
      <trkpt lat="45.44701" lon="6.91831">
        <ele>2432.4</ele>
        <time>2020-01-10T10:06:36Z</time>
      </trkpt>
      <trkpt lat="45.447" lon="6.91833">
        <ele>2432.4</ele>
        <time>2020-01-10T10:06:38Z</time>
      </trkpt>
      <trkpt lat="45.44697" lon="6.91836">
        <ele>2432.4</ele>
        <time>2020-01-10T10:06:40Z</time>
      </trkpt>
      <trkpt lat="45.44696" lon="6.91838">
        <ele>2432.4</ele>
        <time>2020-01-10T10:06:42Z</time>
      </trkpt>
      <trkpt lat="45.44693" lon="6.91842">
        <ele>2432.4</ele>
        <time>2020-01-10T10:06:44Z</time>
      </trkpt>
      <trkpt lat="45.44692" lon="6.91844">
        <ele>2432.4</ele>
        <time>2020-01-10T10:06:46Z</time>
      </trkpt>
      <trkpt lat="45.44689" lon="6.91846">
        <ele>2432.4</ele>
        <time>2020-01-10T10:06:48Z</time>
      </trkpt>
      <trkpt lat="45.44686" lon="6.91849">
        <ele>2432.4</ele>
        <time>2020-01-10T10:06:50Z</time>
      </trkpt>
      <trkpt lat="45.44684" lon="6.91851">
        <ele>2432.4</ele>
        <time>2020-01-10T10:06:52Z</time>
      </trkpt>
      <trkpt lat="45.4468" lon="6.91852">
        <ele>2432.4</ele>
        <time>2020-01-10T10:06:54Z</time>
      </trkpt>
      <trkpt lat="45.44678" lon="6.91853">
        <ele>2432.4</ele>
        <time>2020-01-10T10:06:56Z</time>
      </trkpt>
      <trkpt lat="45.44676" lon="6.91854">
        <ele>2432.4</ele>
        <time>2020-01-10T10:06:58Z</time>
      </trkpt>
      <trkpt lat="45.44673" lon="6.91854">
        <ele>2442.2</ele>
        <time>2020-01-10T10:06:59Z</time>
      </trkpt>
      <trkpt lat="45.4467" lon="6.91854">
        <ele>2442.2</ele>
        <time>2020-01-10T10:07:01Z</time>
      </trkpt>
      <trkpt lat="45.44667" lon="6.91854">
        <ele>2442.2</ele>
        <time>2020-01-10T10:07:03Z</time>
      </trkpt>
      <trkpt lat="45.44664" lon="6.91854">
        <ele>2442.2</ele>
        <time>2020-01-10T10:07:04Z</time>
      </trkpt>
      <trkpt lat="45.44661" lon="6.91854">
        <ele>2442.2</ele>
        <time>2020-01-10T10:07:06Z</time>
      </trkpt>
      <trkpt lat="45.44659" lon="6.91854">
        <ele>2442.2</ele>
        <time>2020-01-10T10:07:07Z</time>
      </trkpt>
      <trkpt lat="45.44656" lon="6.91854">
        <ele>2443.6</ele>
        <time>2020-01-10T10:07:09Z</time>
      </trkpt>
      <trkpt lat="45.44652" lon="6.91854">
        <ele>2443.6</ele>
        <time>2020-01-10T10:07:11Z</time>
      </trkpt>
      <trkpt lat="45.44651" lon="6.91854">
        <ele>2443.6</ele>
        <time>2020-01-10T10:07:12Z</time>
      </trkpt>
      <trkpt lat="45.44649" lon="6.91854">
        <ele>2443.6</ele>
        <time>2020-01-10T10:07:13Z</time>
      </trkpt>
      <trkpt lat="45.44645" lon="6.91854">
        <ele>2443.6</ele>
        <time>2020-01-10T10:07:15Z</time>
      </trkpt>
      <trkpt lat="45.44644" lon="6.91854">
        <ele>2443.6</ele>
        <time>2020-01-10T10:07:16Z</time>
      </trkpt>
      <trkpt lat="45.44641" lon="6.91854">
        <ele>2443.6</ele>
        <time>2020-01-10T10:07:18Z</time>
      </trkpt>
      <trkpt lat="45.44638" lon="6.91854">
        <ele>2443.6</ele>
        <time>2020-01-10T10:07:20Z</time>
      </trkpt>
      <trkpt lat="45.44635" lon="6.91855">
        <ele>2443.6</ele>
        <time>2020-01-10T10:07:22Z</time>
      </trkpt>
      <trkpt lat="45.44631" lon="6.91855">
        <ele>2443.6</ele>
        <time>2020-01-10T10:07:24Z</time>
      </trkpt>
      <trkpt lat="45.44628" lon="6.91855">
        <ele>2443.6</ele>
        <time>2020-01-10T10:07:26Z</time>
      </trkpt>
      <trkpt lat="45.44626" lon="6.91856">
        <ele>2443.6</ele>
        <time>2020-01-10T10:07:28Z</time>
      </trkpt>
      <trkpt lat="45.44623" lon="6.91858">
        <ele>2443.6</ele>
        <time>2020-01-10T10:07:30Z</time>
      </trkpt>
      <trkpt lat="45.4462" lon="6.91859">
        <ele>2443.6</ele>
        <time>2020-01-10T10:07:32Z</time>
      </trkpt>
      <trkpt lat="45.44618" lon="6.91861">
        <ele>2443.6</ele>
        <time>2020-01-10T10:07:34Z</time>
      </trkpt>
      <trkpt lat="45.44616" lon="6.91862">
        <ele>2443.6</ele>
        <time>2020-01-10T10:07:35Z</time>
      </trkpt>
      <trkpt lat="45.44613" lon="6.91864">
        <ele>2443.6</ele>
        <time>2020-01-10T10:07:37Z</time>
      </trkpt>
      <trkpt lat="45.44611" lon="6.91867">
        <ele>2446.8</ele>
        <time>2020-01-10T10:07:39Z</time>
      </trkpt>
      <trkpt lat="45.4461" lon="6.91871">
        <ele>2446.8</ele>
        <time>2020-01-10T10:07:41Z</time>
      </trkpt>
      <trkpt lat="45.44608" lon="6.91875">
        <ele>2446.8</ele>
        <time>2020-01-10T10:07:43Z</time>
      </trkpt>
      <trkpt lat="45.44607" lon="6.91877">
        <ele>2446.8</ele>
        <time>2020-01-10T10:07:44Z</time>
      </trkpt>
      <trkpt lat="45.44606" lon="6.9188">
        <ele>2446.8</ele>
        <time>2020-01-10T10:07:46Z</time>
      </trkpt>
      <trkpt lat="45.44603" lon="6.91883">
        <ele>2446.8</ele>
        <time>2020-01-10T10:07:48Z</time>
      </trkpt>
      <trkpt lat="45.44601" lon="6.91886">
        <ele>2446.8</ele>
        <time>2020-01-10T10:07:50Z</time>
      </trkpt>
      <trkpt lat="45.44599" lon="6.91888">
        <ele>2446.8</ele>
        <time>2020-01-10T10:07:52Z</time>
      </trkpt>
      <trkpt lat="45.44597" lon="6.9189">
        <ele>2446.8</ele>
        <time>2020-01-10T10:07:53Z</time>
      </trkpt>
      <trkpt lat="45.44595" lon="6.91893">
        <ele>2446.8</ele>
        <time>2020-01-10T10:07:55Z</time>
      </trkpt>
      <trkpt lat="45.44593" lon="6.91896">
        <ele>2446.8</ele>
        <time>2020-01-10T10:07:57Z</time>
      </trkpt>
      <trkpt lat="45.44591" lon="6.91898">
        <ele>2448.8</ele>
        <time>2020-01-10T10:07:59Z</time>
      </trkpt>
      <trkpt lat="45.44589" lon="6.91901">
        <ele>2448.8</ele>
        <time>2020-01-10T10:08:01Z</time>
      </trkpt>
      <trkpt lat="45.44586" lon="6.91904">
        <ele>2448.8</ele>
        <time>2020-01-10T10:08:03Z</time>
      </trkpt>
      <trkpt lat="45.44584" lon="6.91906">
        <ele>2448.8</ele>
        <time>2020-01-10T10:08:05Z</time>
      </trkpt>
      <trkpt lat="45.44581" lon="6.91909">
        <ele>2448.8</ele>
        <time>2020-01-10T10:08:07Z</time>
      </trkpt>
      <trkpt lat="45.44579" lon="6.91911">
        <ele>2450.2</ele>
        <time>2020-01-10T10:08:09Z</time>
      </trkpt>
      <trkpt lat="45.44577" lon="6.91912">
        <ele>2450.2</ele>
        <time>2020-01-10T10:08:10Z</time>
      </trkpt>
      <trkpt lat="45.44575" lon="6.91914">
        <ele>2450.2</ele>
        <time>2020-01-10T10:08:12Z</time>
      </trkpt>
      <trkpt lat="45.44572" lon="6.91916">
        <ele>2450.2</ele>
        <time>2020-01-10T10:08:14Z</time>
      </trkpt>
      <trkpt lat="45.4457" lon="6.91918">
        <ele>2450.2</ele>
        <time>2020-01-10T10:08:16Z</time>
      </trkpt>
      <trkpt lat="45.44569" lon="6.9192">
        <ele>2450.2</ele>
        <time>2020-01-10T10:08:17Z</time>
      </trkpt>
      <trkpt lat="45.44567" lon="6.91921">
        <ele>2450.2</ele>
        <time>2020-01-10T10:08:18Z</time>
      </trkpt>
      <trkpt lat="45.44565" lon="6.91922">
        <ele>2450.4</ele>
        <time>2020-01-10T10:08:19Z</time>
      </trkpt>
      <trkpt lat="45.44562" lon="6.91925">
        <ele>2450.4</ele>
        <time>2020-01-10T10:08:21Z</time>
      </trkpt>
      <trkpt lat="45.44561" lon="6.91926">
        <ele>2450.4</ele>
        <time>2020-01-10T10:08:22Z</time>
      </trkpt>
      <trkpt lat="45.44558" lon="6.91928">
        <ele>2450.4</ele>
        <time>2020-01-10T10:08:24Z</time>
      </trkpt>
      <trkpt lat="45.44556" lon="6.9193">
        <ele>2450.4</ele>
        <time>2020-01-10T10:08:25Z</time>
      </trkpt>
      <trkpt lat="45.44555" lon="6.91931">
        <ele>2450.4</ele>
        <time>2020-01-10T10:08:26Z</time>
      </trkpt>
      <trkpt lat="45.44553" lon="6.91933">
        <ele>2450.4</ele>
        <time>2020-01-10T10:08:27Z</time>
      </trkpt>
      <trkpt lat="45.4455" lon="6.91936">
        <ele>2451.4</ele>
        <time>2020-01-10T10:08:29Z</time>
      </trkpt>
      <trkpt lat="45.44548" lon="6.91938">
        <ele>2451.4</ele>
        <time>2020-01-10T10:08:30Z</time>
      </trkpt>
      <trkpt lat="45.44547" lon="6.9194">
        <ele>2451.4</ele>
        <time>2020-01-10T10:08:31Z</time>
      </trkpt>
      <trkpt lat="45.44545" lon="6.91941">
        <ele>2451.4</ele>
        <time>2020-01-10T10:08:32Z</time>
      </trkpt>
      <trkpt lat="45.44542" lon="6.91944">
        <ele>2451.4</ele>
        <time>2020-01-10T10:08:34Z</time>
      </trkpt>
      <trkpt lat="45.44539" lon="6.91946">
        <ele>2451.4</ele>
        <time>2020-01-10T10:08:36Z</time>
      </trkpt>
      <trkpt lat="45.44536" lon="6.91948">
        <ele>2451.4</ele>
        <time>2020-01-10T10:08:38Z</time>
      </trkpt>
      <trkpt lat="45.44533" lon="6.91951">
        <ele>2451.4</ele>
        <time>2020-01-10T10:08:40Z</time>
      </trkpt>
      <trkpt lat="45.44531" lon="6.91954">
        <ele>2451.4</ele>
        <time>2020-01-10T10:08:42Z</time>
      </trkpt>
      <trkpt lat="45.44529" lon="6.91956">
        <ele>2451.4</ele>
        <time>2020-01-10T10:08:44Z</time>
      </trkpt>
      <trkpt lat="45.44526" lon="6.91959">
        <ele>2451.4</ele>
        <time>2020-01-10T10:08:46Z</time>
      </trkpt>
      <trkpt lat="45.44525" lon="6.91961">
        <ele>2451.4</ele>
        <time>2020-01-10T10:08:47Z</time>
      </trkpt>
      <trkpt lat="45.44522" lon="6.91964">
        <ele>2452.2</ele>
        <time>2020-01-10T10:08:49Z</time>
      </trkpt>
      <trkpt lat="45.4452" lon="6.91967">
        <ele>2452.2</ele>
        <time>2020-01-10T10:08:50Z</time>
      </trkpt>
      <trkpt lat="45.44519" lon="6.91969">
        <ele>2452.2</ele>
        <time>2020-01-10T10:08:51Z</time>
      </trkpt>
      <trkpt lat="45.44517" lon="6.91971">
        <ele>2452.2</ele>
        <time>2020-01-10T10:08:52Z</time>
      </trkpt>
      <trkpt lat="45.44516" lon="6.91972">
        <ele>2452.2</ele>
        <time>2020-01-10T10:08:53Z</time>
      </trkpt>
      <trkpt lat="45.44514" lon="6.91975">
        <ele>2452.2</ele>
        <time>2020-01-10T10:08:55Z</time>
      </trkpt>
      <trkpt lat="45.44512" lon="6.91977">
        <ele>2452.2</ele>
        <time>2020-01-10T10:08:56Z</time>
      </trkpt>
      <trkpt lat="45.4451" lon="6.9198">
        <ele>2452.2</ele>
        <time>2020-01-10T10:08:58Z</time>
      </trkpt>
      <trkpt lat="45.44507" lon="6.91984">
        <ele>2452.2</ele>
        <time>2020-01-10T10:09:00Z</time>
      </trkpt>
      <trkpt lat="45.44505" lon="6.91987">
        <ele>2452.2</ele>
        <time>2020-01-10T10:09:02Z</time>
      </trkpt>
      <trkpt lat="45.44503" lon="6.91989">
        <ele>2452.2</ele>
        <time>2020-01-10T10:09:03Z</time>
      </trkpt>
      <trkpt lat="45.44501" lon="6.91993">
        <ele>2452.2</ele>
        <time>2020-01-10T10:09:05Z</time>
      </trkpt>
      <trkpt lat="45.445" lon="6.91996">
        <ele>2452.2</ele>
        <time>2020-01-10T10:09:07Z</time>
      </trkpt>
      <trkpt lat="45.44499" lon="6.91999">
        <ele>2453.6</ele>
        <time>2020-01-10T10:09:09Z</time>
      </trkpt>
      <trkpt lat="45.44498" lon="6.92002">
        <ele>2453.6</ele>
        <time>2020-01-10T10:09:11Z</time>
      </trkpt>
      <trkpt lat="45.44495" lon="6.92006">
        <ele>2453.6</ele>
        <time>2020-01-10T10:09:13Z</time>
      </trkpt>
      <trkpt lat="45.44495" lon="6.9201">
        <ele>2453.6</ele>
        <time>2020-01-10T10:09:15Z</time>
      </trkpt>
      <trkpt lat="45.44493" lon="6.92014">
        <ele>2453.6</ele>
        <time>2020-01-10T10:09:17Z</time>
      </trkpt>
      <trkpt lat="45.44492" lon="6.92018">
        <ele>2454.6</ele>
        <time>2020-01-10T10:09:19Z</time>
      </trkpt>
      <trkpt lat="45.4449" lon="6.9202">
        <ele>2454.6</ele>
        <time>2020-01-10T10:09:21Z</time>
      </trkpt>
      <trkpt lat="45.44488" lon="6.92024">
        <ele>2454.6</ele>
        <time>2020-01-10T10:09:23Z</time>
      </trkpt>
      <trkpt lat="45.44486" lon="6.92027">
        <ele>2454.6</ele>
        <time>2020-01-10T10:09:25Z</time>
      </trkpt>
      <trkpt lat="45.44484" lon="6.92031">
        <ele>2454.6</ele>
        <time>2020-01-10T10:09:27Z</time>
      </trkpt>
      <trkpt lat="45.44483" lon="6.92034">
        <ele>2456.8</ele>
        <time>2020-01-10T10:09:29Z</time>
      </trkpt>
      <trkpt lat="45.44481" lon="6.92037">
        <ele>2456.8</ele>
        <time>2020-01-10T10:09:31Z</time>
      </trkpt>
      <trkpt lat="45.44479" lon="6.92039">
        <ele>2456.8</ele>
        <time>2020-01-10T10:09:32Z</time>
      </trkpt>
      <trkpt lat="45.44478" lon="6.92042">
        <ele>2456.8</ele>
        <time>2020-01-10T10:09:34Z</time>
      </trkpt>
      <trkpt lat="45.44476" lon="6.92044">
        <ele>2456.8</ele>
        <time>2020-01-10T10:09:36Z</time>
      </trkpt>
      <trkpt lat="45.44475" lon="6.92047">
        <ele>2456.8</ele>
        <time>2020-01-10T10:09:38Z</time>
      </trkpt>
      <trkpt lat="45.44473" lon="6.9205">
        <ele>2456.8</ele>
        <time>2020-01-10T10:09:40Z</time>
      </trkpt>
      <trkpt lat="45.44471" lon="6.92053">
        <ele>2456.8</ele>
        <time>2020-01-10T10:09:42Z</time>
      </trkpt>
      <trkpt lat="45.44468" lon="6.92056">
        <ele>2456.8</ele>
        <time>2020-01-10T10:09:44Z</time>
      </trkpt>
      <trkpt lat="45.44466" lon="6.9206">
        <ele>2456.8</ele>
        <time>2020-01-10T10:09:46Z</time>
      </trkpt>
      <trkpt lat="45.44465" lon="6.92062">
        <ele>2456.8</ele>
        <time>2020-01-10T10:09:48Z</time>
      </trkpt>
      <trkpt lat="45.44462" lon="6.92065">
        <ele>2456.8</ele>
        <time>2020-01-10T10:09:50Z</time>
      </trkpt>
      <trkpt lat="45.4446" lon="6.92068">
        <ele>2456.8</ele>
        <time>2020-01-10T10:09:52Z</time>
      </trkpt>
      <trkpt lat="45.44458" lon="6.92071">
        <ele>2456.8</ele>
        <time>2020-01-10T10:09:54Z</time>
      </trkpt>
      <trkpt lat="45.44457" lon="6.92074">
        <ele>2456.8</ele>
        <time>2020-01-10T10:09:56Z</time>
      </trkpt>
      <trkpt lat="45.44455" lon="6.92076">
        <ele>2456.8</ele>
        <time>2020-01-10T10:09:58Z</time>
      </trkpt>
      <trkpt lat="45.44453" lon="6.92079">
        <ele>2456.8</ele>
        <time>2020-01-10T10:10:00Z</time>
      </trkpt>
      <trkpt lat="45.4445" lon="6.92082">
        <ele>2456.8</ele>
        <time>2020-01-10T10:10:02Z</time>
      </trkpt>
      <trkpt lat="45.44448" lon="6.92084">
        <ele>2456.8</ele>
        <time>2020-01-10T10:10:04Z</time>
      </trkpt>
      <trkpt lat="45.44446" lon="6.92086">
        <ele>2456.8</ele>
        <time>2020-01-10T10:10:06Z</time>
      </trkpt>
      <trkpt lat="45.44444" lon="6.92088">
        <ele>2456.8</ele>
        <time>2020-01-10T10:10:07Z</time>
      </trkpt>
      <trkpt lat="45.44443" lon="6.9209">
        <ele>2456.8</ele>
        <time>2020-01-10T10:10:08Z</time>
      </trkpt>
      <trkpt lat="45.4444" lon="6.92093">
        <ele>2456.8</ele>
        <time>2020-01-10T10:10:10Z</time>
      </trkpt>
      <trkpt lat="45.44438" lon="6.92096">
        <ele>2456.8</ele>
        <time>2020-01-10T10:10:12Z</time>
      </trkpt>
      <trkpt lat="45.44436" lon="6.92098">
        <ele>2456.8</ele>
        <time>2020-01-10T10:10:13Z</time>
      </trkpt>
      <trkpt lat="45.44434" lon="6.921">
        <ele>2456.8</ele>
        <time>2020-01-10T10:10:14Z</time>
      </trkpt>
      <trkpt lat="45.44432" lon="6.92102">
        <ele>2456.8</ele>
        <time>2020-01-10T10:10:15Z</time>
      </trkpt>
      <trkpt lat="45.44429" lon="6.92106">
        <ele>2456.8</ele>
        <time>2020-01-10T10:10:17Z</time>
      </trkpt>
      <trkpt lat="45.44428" lon="6.92108">
        <ele>2456.8</ele>
        <time>2020-01-10T10:10:18Z</time>
      </trkpt>
      <trkpt lat="45.44425" lon="6.92111">
        <ele>2456.8</ele>
        <time>2020-01-10T10:10:20Z</time>
      </trkpt>
      <trkpt lat="45.44422" lon="6.92114">
        <ele>2456.8</ele>
        <time>2020-01-10T10:10:22Z</time>
      </trkpt>
      <trkpt lat="45.4442" lon="6.92118">
        <ele>2456.8</ele>
        <time>2020-01-10T10:10:24Z</time>
      </trkpt>
      <trkpt lat="45.44418" lon="6.9212">
        <ele>2456.8</ele>
        <time>2020-01-10T10:10:25Z</time>
      </trkpt>
      <trkpt lat="45.44417" lon="6.92123">
        <ele>2456.8</ele>
        <time>2020-01-10T10:10:26Z</time>
      </trkpt>
      <trkpt lat="45.44414" lon="6.92126">
        <ele>2456.8</ele>
        <time>2020-01-10T10:10:28Z</time>
      </trkpt>
      <trkpt lat="45.44412" lon="6.92131">
        <ele>2456.8</ele>
        <time>2020-01-10T10:10:30Z</time>
      </trkpt>
      <trkpt lat="45.4441" lon="6.92133">
        <ele>2456.8</ele>
        <time>2020-01-10T10:10:31Z</time>
      </trkpt>
      <trkpt lat="45.44409" lon="6.92135">
        <ele>2456.8</ele>
        <time>2020-01-10T10:10:32Z</time>
      </trkpt>
      <trkpt lat="45.44408" lon="6.92138">
        <ele>2456.8</ele>
        <time>2020-01-10T10:10:33Z</time>
      </trkpt>
      <trkpt lat="45.44407" lon="6.9214">
        <ele>2456.8</ele>
        <time>2020-01-10T10:10:34Z</time>
      </trkpt>
      <trkpt lat="45.44405" lon="6.92144">
        <ele>2456.8</ele>
        <time>2020-01-10T10:10:36Z</time>
      </trkpt>
      <trkpt lat="45.44404" lon="6.92146">
        <ele>2456.8</ele>
        <time>2020-01-10T10:10:37Z</time>
      </trkpt>
      <trkpt lat="45.44402" lon="6.92148">
        <ele>2456.8</ele>
        <time>2020-01-10T10:10:38Z</time>
      </trkpt>
      <trkpt lat="45.444" lon="6.92152">
        <ele>2456.8</ele>
        <time>2020-01-10T10:10:40Z</time>
      </trkpt>
      <trkpt lat="45.44399" lon="6.92155">
        <ele>2456.8</ele>
        <time>2020-01-10T10:10:41Z</time>
      </trkpt>
      <trkpt lat="45.44398" lon="6.92157">
        <ele>2456.8</ele>
        <time>2020-01-10T10:10:42Z</time>
      </trkpt>
      <trkpt lat="45.44396" lon="6.92161">
        <ele>2456.8</ele>
        <time>2020-01-10T10:10:44Z</time>
      </trkpt>
      <trkpt lat="45.44395" lon="6.92164">
        <ele>2456.8</ele>
        <time>2020-01-10T10:10:45Z</time>
      </trkpt>
      <trkpt lat="45.44393" lon="6.92168">
        <ele>2456.8</ele>
        <time>2020-01-10T10:10:47Z</time>
      </trkpt>
      <trkpt lat="45.4439" lon="6.92172">
        <ele>2461.8</ele>
        <time>2020-01-10T10:10:49Z</time>
      </trkpt>
      <trkpt lat="45.4439" lon="6.92174">
        <ele>2461.8</ele>
        <time>2020-01-10T10:10:50Z</time>
      </trkpt>
      <trkpt lat="45.44389" lon="6.92178">
        <ele>2461.8</ele>
        <time>2020-01-10T10:10:52Z</time>
      </trkpt>
      <trkpt lat="45.44388" lon="6.92179">
        <ele>2461.8</ele>
        <time>2020-01-10T10:10:53Z</time>
      </trkpt>
      <trkpt lat="45.44387" lon="6.92182">
        <ele>2461.8</ele>
        <time>2020-01-10T10:10:55Z</time>
      </trkpt>
      <trkpt lat="45.44385" lon="6.92185">
        <ele>2461.8</ele>
        <time>2020-01-10T10:10:57Z</time>
      </trkpt>
      <trkpt lat="45.44384" lon="6.92188">
        <ele>2461.8</ele>
        <time>2020-01-10T10:10:58Z</time>
      </trkpt>
      <trkpt lat="45.44383" lon="6.92191">
        <ele>2461.8</ele>
        <time>2020-01-10T10:11:00Z</time>
      </trkpt>
      <trkpt lat="45.44382" lon="6.92194">
        <ele>2461.8</ele>
        <time>2020-01-10T10:11:02Z</time>
      </trkpt>
      <trkpt lat="45.44381" lon="6.92197">
        <ele>2461.8</ele>
        <time>2020-01-10T10:11:04Z</time>
      </trkpt>
      <trkpt lat="45.4438" lon="6.92199">
        <ele>2461.8</ele>
        <time>2020-01-10T10:11:05Z</time>
      </trkpt>
      <trkpt lat="45.44379" lon="6.92202">
        <ele>2461.8</ele>
        <time>2020-01-10T10:11:07Z</time>
      </trkpt>
      <trkpt lat="45.44378" lon="6.92206">
        <ele>2464.8</ele>
        <time>2020-01-10T10:11:09Z</time>
      </trkpt>
      <trkpt lat="45.44377" lon="6.92209">
        <ele>2464.8</ele>
        <time>2020-01-10T10:11:11Z</time>
      </trkpt>
      <trkpt lat="45.44375" lon="6.92212">
        <ele>2464.8</ele>
        <time>2020-01-10T10:11:13Z</time>
      </trkpt>
      <trkpt lat="45.44374" lon="6.92214">
        <ele>2464.8</ele>
        <time>2020-01-10T10:11:14Z</time>
      </trkpt>
      <trkpt lat="45.44372" lon="6.92217">
        <ele>2464.8</ele>
        <time>2020-01-10T10:11:16Z</time>
      </trkpt>
      <trkpt lat="45.44371" lon="6.9222">
        <ele>2464.8</ele>
        <time>2020-01-10T10:11:18Z</time>
      </trkpt>
      <trkpt lat="45.44369" lon="6.92223">
        <ele>2464.8</ele>
        <time>2020-01-10T10:11:20Z</time>
      </trkpt>
      <trkpt lat="45.44367" lon="6.92225">
        <ele>2464.8</ele>
        <time>2020-01-10T10:11:22Z</time>
      </trkpt>
      <trkpt lat="45.44366" lon="6.92228">
        <ele>2464.8</ele>
        <time>2020-01-10T10:11:24Z</time>
      </trkpt>
      <trkpt lat="45.44364" lon="6.9223">
        <ele>2464.8</ele>
        <time>2020-01-10T10:11:26Z</time>
      </trkpt>
      <trkpt lat="45.44363" lon="6.92232">
        <ele>2464.8</ele>
        <time>2020-01-10T10:13:31Z</time>
      </trkpt>
      <trkpt lat="45.44363" lon="6.92235">
        <ele>2464.8</ele>
        <time>2020-01-10T10:13:33Z</time>
      </trkpt>
      <trkpt lat="45.44362" lon="6.92238">
        <ele>2464.8</ele>
        <time>2020-01-10T10:13:35Z</time>
      </trkpt>
      <trkpt lat="45.4436" lon="6.9224">
        <ele>2464.8</ele>
        <time>2020-01-10T10:13:37Z</time>
      </trkpt>
      <trkpt lat="45.44356" lon="6.92244">
        <ele>2464.8</ele>
        <time>2020-01-10T10:13:41Z</time>
      </trkpt>
      <trkpt lat="45.44351" lon="6.92256">
        <ele>2465.6</ele>
        <time>2020-01-10T10:13:49Z</time>
      </trkpt>
      <trkpt lat="45.4435" lon="6.92258">
        <ele>2465.6</ele>
        <time>2020-01-10T10:13:51Z</time>
      </trkpt>
      <trkpt lat="45.44348" lon="6.9226">
        <ele>2465.6</ele>
        <time>2020-01-10T10:13:53Z</time>
      </trkpt>
      <trkpt lat="45.44344" lon="6.92269">
        <ele>2465.6</ele>
        <time>2020-01-10T10:14:03Z</time>
      </trkpt>
      <trkpt lat="45.4434" lon="6.92273">
        <ele>2465.6</ele>
        <time>2020-01-10T10:14:06Z</time>
      </trkpt>
      <trkpt lat="45.44338" lon="6.92275">
        <ele>2465.6</ele>
        <time>2020-01-10T10:14:08Z</time>
      </trkpt>
      <trkpt lat="45.44336" lon="6.92277">
        <ele>2465.6</ele>
        <time>2020-01-10T10:14:10Z</time>
      </trkpt>
      <trkpt lat="45.44334" lon="6.92279">
        <ele>2465.6</ele>
        <time>2020-01-10T10:14:12Z</time>
      </trkpt>
      <trkpt lat="45.4433" lon="6.92283">
        <ele>2465.6</ele>
        <time>2020-01-10T10:14:15Z</time>
      </trkpt>
      <trkpt lat="45.44328" lon="6.92284">
        <ele>2465.6</ele>
        <time>2020-01-10T10:14:16Z</time>
      </trkpt>
      <trkpt lat="45.44326" lon="6.92287">
        <ele>2465.6</ele>
        <time>2020-01-10T10:14:18Z</time>
      </trkpt>
      <trkpt lat="45.44324" lon="6.9229">
        <ele>2465.6</ele>
        <time>2020-01-10T10:14:20Z</time>
      </trkpt>
      <trkpt lat="45.44316" lon="6.92297">
        <ele>2465.6</ele>
        <time>2020-01-10T10:14:28Z</time>
      </trkpt>
      <trkpt lat="45.44313" lon="6.92298">
        <ele>2465.6</ele>
        <time>2020-01-10T10:14:30Z</time>
      </trkpt>
      <trkpt lat="45.44311" lon="6.923">
        <ele>2465.6</ele>
        <time>2020-01-10T10:14:32Z</time>
      </trkpt>
      <trkpt lat="45.44309" lon="6.92302">
        <ele>2465.6</ele>
        <time>2020-01-10T10:14:34Z</time>
      </trkpt>
      <trkpt lat="45.44307" lon="6.92303">
        <ele>2465.6</ele>
        <time>2020-01-10T10:14:36Z</time>
      </trkpt>
      <trkpt lat="45.44304" lon="6.92305">
        <ele>2465.6</ele>
        <time>2020-01-10T10:14:38Z</time>
      </trkpt>
      <trkpt lat="45.44302" lon="6.92307">
        <ele>2465.6</ele>
        <time>2020-01-10T10:14:40Z</time>
      </trkpt>
      <trkpt lat="45.44299" lon="6.92309">
        <ele>2465.6</ele>
        <time>2020-01-10T10:14:42Z</time>
      </trkpt>
      <trkpt lat="45.44297" lon="6.9231">
        <ele>2465.6</ele>
        <time>2020-01-10T10:14:44Z</time>
      </trkpt>
      <trkpt lat="45.44295" lon="6.92311">
        <ele>2465.6</ele>
        <time>2020-01-10T10:14:46Z</time>
      </trkpt>
      <trkpt lat="45.44292" lon="6.92313">
        <ele>2465.6</ele>
        <time>2020-01-10T10:14:48Z</time>
      </trkpt>
      <trkpt lat="45.44291" lon="6.92314">
        <ele>2465.6</ele>
        <time>2020-01-10T10:14:50Z</time>
      </trkpt>
      <trkpt lat="45.44289" lon="6.92316">
        <ele>2465.6</ele>
        <time>2020-01-10T10:14:52Z</time>
      </trkpt>
      <trkpt lat="45.44287" lon="6.92318">
        <ele>2465.6</ele>
        <time>2020-01-10T10:14:54Z</time>
      </trkpt>
      <trkpt lat="45.44284" lon="6.92319">
        <ele>2465.6</ele>
        <time>2020-01-10T10:14:56Z</time>
      </trkpt>
      <trkpt lat="45.44282" lon="6.9232">
        <ele>2465.6</ele>
        <time>2020-01-10T10:14:58Z</time>
      </trkpt>
      <trkpt lat="45.44279" lon="6.92322">
        <ele>2465.6</ele>
        <time>2020-01-10T10:15:00Z</time>
      </trkpt>
      <trkpt lat="45.44277" lon="6.92324">
        <ele>2465.6</ele>
        <time>2020-01-10T10:15:02Z</time>
      </trkpt>
      <trkpt lat="45.44274" lon="6.92326">
        <ele>2465.6</ele>
        <time>2020-01-10T10:15:04Z</time>
      </trkpt>
      <trkpt lat="45.44271" lon="6.92327">
        <ele>2465.6</ele>
        <time>2020-01-10T10:15:06Z</time>
      </trkpt>
      <trkpt lat="45.44269" lon="6.92328">
        <ele>2465.6</ele>
        <time>2020-01-10T10:15:08Z</time>
      </trkpt>
      <trkpt lat="45.44267" lon="6.92329">
        <ele>2465.6</ele>
        <time>2020-01-10T10:15:10Z</time>
      </trkpt>
      <trkpt lat="45.44265" lon="6.92331">
        <ele>2465.6</ele>
        <time>2020-01-10T10:15:12Z</time>
      </trkpt>
      <trkpt lat="45.44262" lon="6.92332">
        <ele>2465.6</ele>
        <time>2020-01-10T10:15:14Z</time>
      </trkpt>
      <trkpt lat="45.44259" lon="6.92334">
        <ele>2465.6</ele>
        <time>2020-01-10T10:15:16Z</time>
      </trkpt>
      <trkpt lat="45.44257" lon="6.92335">
        <ele>2465.6</ele>
        <time>2020-01-10T10:15:18Z</time>
      </trkpt>
      <trkpt lat="45.44255" lon="6.92337">
        <ele>2465.6</ele>
        <time>2020-01-10T10:15:20Z</time>
      </trkpt>
      <trkpt lat="45.44252" lon="6.92338">
        <ele>2465.6</ele>
        <time>2020-01-10T10:15:22Z</time>
      </trkpt>
      <trkpt lat="45.4425" lon="6.9234">
        <ele>2465.6</ele>
        <time>2020-01-10T10:15:24Z</time>
      </trkpt>
      <trkpt lat="45.44247" lon="6.92342">
        <ele>2465.6</ele>
        <time>2020-01-10T10:15:26Z</time>
      </trkpt>
      <trkpt lat="45.44245" lon="6.92344">
        <ele>2489.2</ele>
        <time>2020-01-10T10:15:29Z</time>
      </trkpt>
      <trkpt lat="45.44242" lon="6.92346">
        <ele>2489.2</ele>
        <time>2020-01-10T10:15:31Z</time>
      </trkpt>
      <trkpt lat="45.44239" lon="6.92347">
        <ele>2489.2</ele>
        <time>2020-01-10T10:15:33Z</time>
      </trkpt>
      <trkpt lat="45.44237" lon="6.92349">
        <ele>2489.2</ele>
        <time>2020-01-10T10:15:35Z</time>
      </trkpt>
      <trkpt lat="45.44234" lon="6.9235">
        <ele>2489.2</ele>
        <time>2020-01-10T10:15:37Z</time>
      </trkpt>
      <trkpt lat="45.44231" lon="6.92351">
        <ele>2490.6</ele>
        <time>2020-01-10T10:15:39Z</time>
      </trkpt>
      <trkpt lat="45.44229" lon="6.92353">
        <ele>2490.6</ele>
        <time>2020-01-10T10:15:41Z</time>
      </trkpt>
      <trkpt lat="45.44227" lon="6.92354">
        <ele>2490.6</ele>
        <time>2020-01-10T10:15:43Z</time>
      </trkpt>
      <trkpt lat="45.44225" lon="6.92356">
        <ele>2490.6</ele>
        <time>2020-01-10T10:15:44Z</time>
      </trkpt>
      <trkpt lat="45.44222" lon="6.92358">
        <ele>2490.6</ele>
        <time>2020-01-10T10:15:46Z</time>
      </trkpt>
      <trkpt lat="45.4422" lon="6.92359">
        <ele>2490.6</ele>
        <time>2020-01-10T10:15:48Z</time>
      </trkpt>
      <trkpt lat="45.44217" lon="6.92361">
        <ele>2490.6</ele>
        <time>2020-01-10T10:15:50Z</time>
      </trkpt>
      <trkpt lat="45.44215" lon="6.92362">
        <ele>2490.6</ele>
        <time>2020-01-10T10:15:51Z</time>
      </trkpt>
      <trkpt lat="45.44213" lon="6.92364">
        <ele>2490.6</ele>
        <time>2020-01-10T10:15:52Z</time>
      </trkpt>
      <trkpt lat="45.44211" lon="6.92364">
        <ele>2490.6</ele>
        <time>2020-01-10T10:15:54Z</time>
      </trkpt>
      <trkpt lat="45.44209" lon="6.92365">
        <ele>2490.6</ele>
        <time>2020-01-10T10:15:55Z</time>
      </trkpt>
      <trkpt lat="45.44207" lon="6.92366">
        <ele>2490.6</ele>
        <time>2020-01-10T10:15:57Z</time>
      </trkpt>
      <trkpt lat="45.44205" lon="6.92367">
        <ele>2495.8</ele>
        <time>2020-01-10T10:15:59Z</time>
      </trkpt>
      <trkpt lat="45.44203" lon="6.92368">
        <ele>2495.8</ele>
        <time>2020-01-10T10:16:01Z</time>
      </trkpt>
      <trkpt lat="45.44201" lon="6.9237">
        <ele>2495.8</ele>
        <time>2020-01-10T10:16:03Z</time>
      </trkpt>
      <trkpt lat="45.44198" lon="6.92371">
        <ele>2495.8</ele>
        <time>2020-01-10T10:16:05Z</time>
      </trkpt>
      <trkpt lat="45.44195" lon="6.92372">
        <ele>2495.8</ele>
        <time>2020-01-10T10:16:07Z</time>
      </trkpt>
      <trkpt lat="45.44193" lon="6.92374">
        <ele>2498.2</ele>
        <time>2020-01-10T10:16:09Z</time>
      </trkpt>
      <trkpt lat="45.4419" lon="6.92375">
        <ele>2498.2</ele>
        <time>2020-01-10T10:16:11Z</time>
      </trkpt>
      <trkpt lat="45.44188" lon="6.92376">
        <ele>2498.2</ele>
        <time>2020-01-10T10:16:13Z</time>
      </trkpt>
      <trkpt lat="45.44185" lon="6.92377">
        <ele>2498.2</ele>
        <time>2020-01-10T10:16:15Z</time>
      </trkpt>
      <trkpt lat="45.44183" lon="6.92378">
        <ele>2498.2</ele>
        <time>2020-01-10T10:16:17Z</time>
      </trkpt>
      <trkpt lat="45.4418" lon="6.92379">
        <ele>2500.2</ele>
        <time>2020-01-10T10:16:19Z</time>
      </trkpt>
      <trkpt lat="45.44178" lon="6.9238">
        <ele>2500.2</ele>
        <time>2020-01-10T10:16:21Z</time>
      </trkpt>
      <trkpt lat="45.44176" lon="6.92381">
        <ele>2500.2</ele>
        <time>2020-01-10T10:16:23Z</time>
      </trkpt>
      <trkpt lat="45.44173" lon="6.92381">
        <ele>2500.2</ele>
        <time>2020-01-10T10:16:25Z</time>
      </trkpt>
      <trkpt lat="45.4417" lon="6.92381">
        <ele>2500.2</ele>
        <time>2020-01-10T10:16:27Z</time>
      </trkpt>
      <trkpt lat="45.44168" lon="6.92382">
        <ele>2502.6</ele>
        <time>2020-01-10T10:16:29Z</time>
      </trkpt>
      <trkpt lat="45.44165" lon="6.92383">
        <ele>2502.6</ele>
        <time>2020-01-10T10:16:31Z</time>
      </trkpt>
      <trkpt lat="45.44164" lon="6.92383">
        <ele>2502.6</ele>
        <time>2020-01-10T10:16:33Z</time>
      </trkpt>
      <trkpt lat="45.44162" lon="6.92384">
        <ele>2502.6</ele>
        <time>2020-01-10T10:16:35Z</time>
      </trkpt>
      <trkpt lat="45.44159" lon="6.92385">
        <ele>2502.6</ele>
        <time>2020-01-10T10:16:37Z</time>
      </trkpt>
      <trkpt lat="45.44157" lon="6.92385">
        <ele>2504.8</ele>
        <time>2020-01-10T10:16:39Z</time>
      </trkpt>
      <trkpt lat="45.44155" lon="6.92386">
        <ele>2504.8</ele>
        <time>2020-01-10T10:16:41Z</time>
      </trkpt>
      <trkpt lat="45.44152" lon="6.92387">
        <ele>2504.8</ele>
        <time>2020-01-10T10:16:43Z</time>
      </trkpt>
      <trkpt lat="45.4415" lon="6.92388">
        <ele>2504.8</ele>
        <time>2020-01-10T10:16:46Z</time>
      </trkpt>
      <trkpt lat="45.44147" lon="6.92388">
        <ele>2504.8</ele>
        <time>2020-01-10T10:16:48Z</time>
      </trkpt>
      <trkpt lat="45.44144" lon="6.92389">
        <ele>2504.8</ele>
        <time>2020-01-10T10:16:50Z</time>
      </trkpt>
      <trkpt lat="45.44141" lon="6.9239">
        <ele>2504.8</ele>
        <time>2020-01-10T10:16:52Z</time>
      </trkpt>
      <trkpt lat="45.44138" lon="6.9239">
        <ele>2504.8</ele>
        <time>2020-01-10T10:16:54Z</time>
      </trkpt>
      <trkpt lat="45.44136" lon="6.92391">
        <ele>2504.8</ele>
        <time>2020-01-10T10:16:56Z</time>
      </trkpt>
      <trkpt lat="45.44133" lon="6.92392">
        <ele>2504.8</ele>
        <time>2020-01-10T10:16:58Z</time>
      </trkpt>
      <trkpt lat="45.4413" lon="6.92393">
        <ele>2504.8</ele>
        <time>2020-01-10T10:17:00Z</time>
      </trkpt>
      <trkpt lat="45.44128" lon="6.92393">
        <ele>2504.8</ele>
        <time>2020-01-10T10:17:02Z</time>
      </trkpt>
      <trkpt lat="45.44125" lon="6.92394">
        <ele>2504.8</ele>
        <time>2020-01-10T10:17:04Z</time>
      </trkpt>
      <trkpt lat="45.44122" lon="6.92394">
        <ele>2504.8</ele>
        <time>2020-01-10T10:17:06Z</time>
      </trkpt>
      <trkpt lat="45.4412" lon="6.92395">
        <ele>2504.8</ele>
        <time>2020-01-10T10:17:08Z</time>
      </trkpt>
      <trkpt lat="45.44117" lon="6.92396">
        <ele>2504.8</ele>
        <time>2020-01-10T10:17:10Z</time>
      </trkpt>
      <trkpt lat="45.44116" lon="6.92396">
        <ele>2504.8</ele>
        <time>2020-01-10T10:17:11Z</time>
      </trkpt>
      <trkpt lat="45.44113" lon="6.92398">
        <ele>2504.8</ele>
        <time>2020-01-10T10:17:13Z</time>
      </trkpt>
      <trkpt lat="45.4411" lon="6.92399">
        <ele>2504.8</ele>
        <time>2020-01-10T10:17:15Z</time>
      </trkpt>
      <trkpt lat="45.44108" lon="6.92399">
        <ele>2504.8</ele>
        <time>2020-01-10T10:17:17Z</time>
      </trkpt>
      <trkpt lat="45.44106" lon="6.924">
        <ele>2512.2</ele>
        <time>2020-01-10T10:17:19Z</time>
      </trkpt>
      <trkpt lat="45.44104" lon="6.924">
        <ele>2512.2</ele>
        <time>2020-01-10T10:17:21Z</time>
      </trkpt>
      <trkpt lat="45.441" lon="6.924">
        <ele>2512.2</ele>
        <time>2020-01-10T10:17:23Z</time>
      </trkpt>
      <trkpt lat="45.44098" lon="6.924">
        <ele>2512.2</ele>
        <time>2020-01-10T10:17:25Z</time>
      </trkpt>
      <trkpt lat="45.44096" lon="6.924">
        <ele>2512.2</ele>
        <time>2020-01-10T10:17:27Z</time>
      </trkpt>
      <trkpt lat="45.44093" lon="6.92399">
        <ele>2514</ele>
        <time>2020-01-10T10:17:29Z</time>
      </trkpt>
      <trkpt lat="45.4409" lon="6.924">
        <ele>2514</ele>
        <time>2020-01-10T10:17:31Z</time>
      </trkpt>
      <trkpt lat="45.44087" lon="6.924">
        <ele>2514</ele>
        <time>2020-01-10T10:17:33Z</time>
      </trkpt>
      <trkpt lat="45.44084" lon="6.924">
        <ele>2514</ele>
        <time>2020-01-10T10:17:35Z</time>
      </trkpt>
      <trkpt lat="45.44082" lon="6.92399">
        <ele>2514</ele>
        <time>2020-01-10T10:17:37Z</time>
      </trkpt>
      <trkpt lat="45.44079" lon="6.92399">
        <ele>2515.8</ele>
        <time>2020-01-10T10:17:39Z</time>
      </trkpt>
      <trkpt lat="45.44076" lon="6.924">
        <ele>2515.8</ele>
        <time>2020-01-10T10:17:41Z</time>
      </trkpt>
      <trkpt lat="45.44075" lon="6.924">
        <ele>2515.8</ele>
        <time>2020-01-10T10:17:42Z</time>
      </trkpt>
      <trkpt lat="45.44072" lon="6.924">
        <ele>2515.8</ele>
        <time>2020-01-10T10:17:44Z</time>
      </trkpt>
      <trkpt lat="45.4407" lon="6.924">
        <ele>2515.8</ele>
        <time>2020-01-10T10:17:45Z</time>
      </trkpt>
      <trkpt lat="45.44067" lon="6.924">
        <ele>2515.8</ele>
        <time>2020-01-10T10:17:47Z</time>
      </trkpt>
      <trkpt lat="45.44063" lon="6.92401">
        <ele>2517.2</ele>
        <time>2020-01-10T10:17:49Z</time>
      </trkpt>
      <trkpt lat="45.4406" lon="6.92402">
        <ele>2517.2</ele>
        <time>2020-01-10T10:17:51Z</time>
      </trkpt>
      <trkpt lat="45.44058" lon="6.92402">
        <ele>2517.2</ele>
        <time>2020-01-10T10:17:52Z</time>
      </trkpt>
      <trkpt lat="45.44056" lon="6.92402">
        <ele>2517.2</ele>
        <time>2020-01-10T10:17:54Z</time>
      </trkpt>
      <trkpt lat="45.44052" lon="6.92402">
        <ele>2517.2</ele>
        <time>2020-01-10T10:17:56Z</time>
      </trkpt>
      <trkpt lat="45.44049" lon="6.92402">
        <ele>2517.2</ele>
        <time>2020-01-10T10:17:58Z</time>
      </trkpt>
      <trkpt lat="45.44047" lon="6.92403">
        <ele>2517.8</ele>
        <time>2020-01-10T10:17:59Z</time>
      </trkpt>
      <trkpt lat="45.44045" lon="6.92403">
        <ele>2517.8</ele>
        <time>2020-01-10T10:18:00Z</time>
      </trkpt>
      <trkpt lat="45.44043" lon="6.92403">
        <ele>2517.8</ele>
        <time>2020-01-10T10:18:01Z</time>
      </trkpt>
      <trkpt lat="45.44039" lon="6.92404">
        <ele>2517.8</ele>
        <time>2020-01-10T10:18:03Z</time>
      </trkpt>
      <trkpt lat="45.44037" lon="6.92405">
        <ele>2517.8</ele>
        <time>2020-01-10T10:18:04Z</time>
      </trkpt>
      <trkpt lat="45.44035" lon="6.92405">
        <ele>2517.8</ele>
        <time>2020-01-10T10:18:06Z</time>
      </trkpt>
      <trkpt lat="45.44033" lon="6.92406">
        <ele>2517.8</ele>
        <time>2020-01-10T10:18:07Z</time>
      </trkpt>
      <trkpt lat="45.4403" lon="6.92406">
        <ele>2518.2</ele>
        <time>2020-01-10T10:18:09Z</time>
      </trkpt>
      <trkpt lat="45.44028" lon="6.92406">
        <ele>2518.2</ele>
        <time>2020-01-10T10:18:11Z</time>
      </trkpt>
      <trkpt lat="45.44026" lon="6.92406">
        <ele>2518.2</ele>
        <time>2020-01-10T10:18:13Z</time>
      </trkpt>
      <trkpt lat="45.44024" lon="6.92406">
        <ele>2518.2</ele>
        <time>2020-01-10T10:18:15Z</time>
      </trkpt>
      <trkpt lat="45.44021" lon="6.92406">
        <ele>2518.2</ele>
        <time>2020-01-10T10:18:18Z</time>
      </trkpt>
      <trkpt lat="45.44019" lon="6.92407">
        <ele>2518.2</ele>
        <time>2020-01-10T10:18:20Z</time>
      </trkpt>
      <trkpt lat="45.44017" lon="6.92407">
        <ele>2518.2</ele>
        <time>2020-01-10T10:18:21Z</time>
      </trkpt>
      <trkpt lat="45.44015" lon="6.92408">
        <ele>2518.2</ele>
        <time>2020-01-10T10:18:24Z</time>
      </trkpt>
      <trkpt lat="45.44013" lon="6.92408">
        <ele>2518.2</ele>
        <time>2020-01-10T10:18:26Z</time>
      </trkpt>
      <trkpt lat="45.44011" lon="6.92408">
        <ele>2518.2</ele>
        <time>2020-01-10T10:18:28Z</time>
      </trkpt>
      <trkpt lat="45.44009" lon="6.92409">
        <ele>2518.2</ele>
        <time>2020-01-10T10:18:30Z</time>
      </trkpt>
      <trkpt lat="45.44007" lon="6.9241">
        <ele>2518.2</ele>
        <time>2020-01-10T10:18:33Z</time>
      </trkpt>
      <trkpt lat="45.44005" lon="6.9241">
        <ele>2518.2</ele>
        <time>2020-01-10T10:18:35Z</time>
      </trkpt>
      <trkpt lat="45.44003" lon="6.9241">
        <ele>2518.2</ele>
        <time>2020-01-10T10:18:38Z</time>
      </trkpt>
      <trkpt lat="45.44001" lon="6.9241">
        <ele>2518.2</ele>
        <time>2020-01-10T10:18:41Z</time>
      </trkpt>
      <trkpt lat="45.43999" lon="6.92411">
        <ele>2518.2</ele>
        <time>2020-01-10T10:18:45Z</time>
      </trkpt>
      <trkpt lat="45.43997" lon="6.92411">
        <ele>2518.2</ele>
        <time>2020-01-10T10:18:48Z</time>
      </trkpt>
      <trkpt lat="45.43995" lon="6.92412">
        <ele>2518.2</ele>
        <time>2020-01-10T10:18:52Z</time>
      </trkpt>
      <trkpt lat="45.43993" lon="6.92412">
        <ele>2518.2</ele>
        <time>2020-01-10T10:18:56Z</time>
      </trkpt>
      <trkpt lat="45.4399" lon="6.9241">
        <ele>2518.2</ele>
        <time>2020-01-10T10:18:58Z</time>
      </trkpt>
      <trkpt lat="45.43988" lon="6.92408">
        <ele>2518.2</ele>
        <time>2020-01-10T10:19:00Z</time>
      </trkpt>
      <trkpt lat="45.43987" lon="6.92407">
        <ele>2518.2</ele>
        <time>2020-01-10T10:19:02Z</time>
      </trkpt>
      <trkpt lat="45.43985" lon="6.92405">
        <ele>2518.2</ele>
        <time>2020-01-10T10:19:04Z</time>
      </trkpt>
      <trkpt lat="45.43983" lon="6.92404">
        <ele>2518.2</ele>
        <time>2020-01-10T10:19:06Z</time>
      </trkpt>
      <trkpt lat="45.43981" lon="6.92402">
        <ele>2518.2</ele>
        <time>2020-01-10T10:19:08Z</time>
      </trkpt>
      <trkpt lat="45.4398" lon="6.92401">
        <ele>2518.2</ele>
        <time>2020-01-10T10:19:10Z</time>
      </trkpt>
      <trkpt lat="45.43978" lon="6.92399">
        <ele>2518.2</ele>
        <time>2020-01-10T10:19:13Z</time>
      </trkpt>
      <trkpt lat="45.43976" lon="6.92399">
        <ele>2518.2</ele>
        <time>2020-01-10T10:19:15Z</time>
      </trkpt>
      <trkpt lat="45.43974" lon="6.92401">
        <ele>2518.2</ele>
        <time>2020-01-10T10:19:18Z</time>
      </trkpt>
      <trkpt lat="45.43972" lon="6.92404">
        <ele>2518.2</ele>
        <time>2020-01-10T10:19:21Z</time>
      </trkpt>
      <trkpt lat="45.4397" lon="6.92406">
        <ele>2518.2</ele>
        <time>2020-01-10T10:19:24Z</time>
      </trkpt>
      <trkpt lat="45.43969" lon="6.92407">
        <ele>2518.2</ele>
        <time>2020-01-10T10:19:26Z</time>
      </trkpt>
      <trkpt lat="45.43967" lon="6.9241">
        <ele>2538.6</ele>
        <time>2020-01-10T10:19:29Z</time>
      </trkpt>
      <trkpt lat="45.43966" lon="6.92413">
        <ele>2538.6</ele>
        <time>2020-01-10T10:19:32Z</time>
      </trkpt>
      <trkpt lat="45.43966" lon="6.92416">
        <ele>2538.6</ele>
        <time>2020-01-10T10:19:35Z</time>
      </trkpt>
      <trkpt lat="45.43966" lon="6.9242">
        <ele>2538.6</ele>
        <time>2020-01-10T10:19:38Z</time>
      </trkpt>
      <trkpt lat="45.43967" lon="6.92424">
        <ele>2538.6</ele>
        <time>2020-01-10T10:19:41Z</time>
      </trkpt>
      <trkpt lat="45.43967" lon="6.92427">
        <ele>2538.6</ele>
        <time>2020-01-10T10:19:43Z</time>
      </trkpt>
      <trkpt lat="45.43965" lon="6.9243">
        <ele>2538.6</ele>
        <time>2020-01-10T10:19:46Z</time>
      </trkpt>
      <trkpt lat="45.43966" lon="6.92434">
        <ele>2541.8</ele>
        <time>2020-01-10T10:19:49Z</time>
      </trkpt>
      <trkpt lat="45.43967" lon="6.92437">
        <ele>2541.8</ele>
        <time>2020-01-10T10:19:51Z</time>
      </trkpt>
      <trkpt lat="45.43968" lon="6.92439">
        <ele>2541.8</ele>
        <time>2020-01-10T10:19:53Z</time>
      </trkpt>
      <trkpt lat="45.4397" lon="6.92441">
        <ele>2541.8</ele>
        <time>2020-01-10T10:19:55Z</time>
      </trkpt>
      <trkpt lat="45.43971" lon="6.92443">
        <ele>2541.8</ele>
        <time>2020-01-10T10:19:57Z</time>
      </trkpt>
      <trkpt lat="45.43973" lon="6.92445">
        <ele>2543.4</ele>
        <time>2020-01-10T10:19:59Z</time>
      </trkpt>
      <trkpt lat="45.43975" lon="6.92447">
        <ele>2543.4</ele>
        <time>2020-01-10T10:20:01Z</time>
      </trkpt>
      <trkpt lat="45.43976" lon="6.9245">
        <ele>2543.4</ele>
        <time>2020-01-10T10:20:04Z</time>
      </trkpt>
      <trkpt lat="45.43978" lon="6.92453">
        <ele>2543.4</ele>
        <time>2020-01-10T10:20:08Z</time>
      </trkpt>
      <trkpt lat="45.43979" lon="6.92456">
        <ele>2543.4</ele>
        <time>2020-01-10T10:20:11Z</time>
      </trkpt>
      <trkpt lat="45.4398" lon="6.9246">
        <ele>2543.4</ele>
        <time>2020-01-10T10:20:14Z</time>
      </trkpt>
      <trkpt lat="45.43981" lon="6.92462">
        <ele>2543.4</ele>
        <time>2020-01-10T10:20:16Z</time>
      </trkpt>
      <trkpt lat="45.43981" lon="6.92465">
        <ele>2543.4</ele>
        <time>2020-01-10T10:20:18Z</time>
      </trkpt>
      <trkpt lat="45.43982" lon="6.92467">
        <ele>2543.4</ele>
        <time>2020-01-10T10:20:20Z</time>
      </trkpt>
      <trkpt lat="45.43983" lon="6.9247">
        <ele>2543.4</ele>
        <time>2020-01-10T10:20:23Z</time>
      </trkpt>
      <trkpt lat="45.43984" lon="6.92473">
        <ele>2543.4</ele>
        <time>2020-01-10T10:20:26Z</time>
      </trkpt>
      <trkpt lat="45.43984" lon="6.92476">
        <ele>2543.4</ele>
        <time>2020-01-10T10:20:28Z</time>
      </trkpt>
      <trkpt lat="45.43984" lon="6.92479">
        <ele>2543.4</ele>
        <time>2020-01-10T10:20:30Z</time>
      </trkpt>
      <trkpt lat="45.43985" lon="6.92482">
        <ele>2543.4</ele>
        <time>2020-01-10T10:20:33Z</time>
      </trkpt>
      <trkpt lat="45.43987" lon="6.92485">
        <ele>2543.4</ele>
        <time>2020-01-10T10:20:37Z</time>
      </trkpt>
      <trkpt lat="45.43988" lon="6.92488">
        <ele>2543.4</ele>
        <time>2020-01-10T10:20:40Z</time>
      </trkpt>
      <trkpt lat="45.43989" lon="6.9249">
        <ele>2543.4</ele>
        <time>2020-01-10T10:20:43Z</time>
      </trkpt>
      <trkpt lat="45.43989" lon="6.92494">
        <ele>2543.4</ele>
        <time>2020-01-10T10:20:46Z</time>
      </trkpt>
      <trkpt lat="45.43991" lon="6.92496">
        <ele>2557.2</ele>
        <time>2020-01-10T10:20:49Z</time>
      </trkpt>
      <trkpt lat="45.43991" lon="6.92499">
        <ele>2557.2</ele>
        <time>2020-01-10T10:20:52Z</time>
      </trkpt>
      <trkpt lat="45.43993" lon="6.92502">
        <ele>2557.2</ele>
        <time>2020-01-10T10:20:55Z</time>
      </trkpt>
      <trkpt lat="45.43994" lon="6.92505">
        <ele>2557.2</ele>
        <time>2020-01-10T10:20:58Z</time>
      </trkpt>
      <trkpt lat="45.43995" lon="6.92508">
        <ele>2557.2</ele>
        <time>2020-01-10T10:21:01Z</time>
      </trkpt>
      <trkpt lat="45.43996" lon="6.9251">
        <ele>2557.2</ele>
        <time>2020-01-10T10:21:03Z</time>
      </trkpt>
      <trkpt lat="45.43997" lon="6.92514">
        <ele>2557.2</ele>
        <time>2020-01-10T10:21:06Z</time>
      </trkpt>
      <trkpt lat="45.43998" lon="6.92517">
        <ele>2563.2</ele>
        <time>2020-01-10T10:21:09Z</time>
      </trkpt>
      <trkpt lat="45.43999" lon="6.92519">
        <ele>2563.2</ele>
        <time>2020-01-10T10:21:12Z</time>
      </trkpt>
      <trkpt lat="45.44" lon="6.92522">
        <ele>2563.2</ele>
        <time>2020-01-10T10:21:15Z</time>
      </trkpt>
      <trkpt lat="45.44001" lon="6.92525">
        <ele>2563.2</ele>
        <time>2020-01-10T10:21:18Z</time>
      </trkpt>
      <trkpt lat="45.44003" lon="6.92526">
        <ele>2563.2</ele>
        <time>2020-01-10T10:21:20Z</time>
      </trkpt>
      <trkpt lat="45.44004" lon="6.92529">
        <ele>2563.2</ele>
        <time>2020-01-10T10:21:22Z</time>
      </trkpt>
      <trkpt lat="45.44004" lon="6.92532">
        <ele>2563.2</ele>
        <time>2020-01-10T10:21:25Z</time>
      </trkpt>
      <trkpt lat="45.44005" lon="6.92536">
        <ele>2563.2</ele>
        <time>2020-01-10T10:21:28Z</time>
      </trkpt>
      <trkpt lat="45.44006" lon="6.92538">
        <ele>2563.2</ele>
        <time>2020-01-10T10:21:31Z</time>
      </trkpt>
      <trkpt lat="45.44006" lon="6.92541">
        <ele>2563.2</ele>
        <time>2020-01-10T10:21:34Z</time>
      </trkpt>
      <trkpt lat="45.44007" lon="6.92544">
        <ele>2563.2</ele>
        <time>2020-01-10T10:21:37Z</time>
      </trkpt>
      <trkpt lat="45.44008" lon="6.92546">
        <ele>2570.4</ele>
        <time>2020-01-10T10:21:39Z</time>
      </trkpt>
      <trkpt lat="45.44009" lon="6.92548">
        <ele>2570.4</ele>
        <time>2020-01-10T10:21:41Z</time>
      </trkpt>
      <trkpt lat="45.4401" lon="6.9255">
        <ele>2570.4</ele>
        <time>2020-01-10T10:21:43Z</time>
      </trkpt>
      <trkpt lat="45.44012" lon="6.92552">
        <ele>2570.4</ele>
        <time>2020-01-10T10:21:46Z</time>
      </trkpt>
      <trkpt lat="45.44014" lon="6.92555">
        <ele>2572.2</ele>
        <time>2020-01-10T10:21:49Z</time>
      </trkpt>
      <trkpt lat="45.44015" lon="6.92557">
        <ele>2572.2</ele>
        <time>2020-01-10T10:21:51Z</time>
      </trkpt>
      <trkpt lat="45.44016" lon="6.9256">
        <ele>2572.2</ele>
        <time>2020-01-10T10:21:54Z</time>
      </trkpt>
      <trkpt lat="45.44018" lon="6.92562">
        <ele>2572.2</ele>
        <time>2020-01-10T10:21:57Z</time>
      </trkpt>
      <trkpt lat="45.44019" lon="6.92566">
        <ele>2572.2</ele>
        <time>2020-01-10T10:22:00Z</time>
      </trkpt>
      <trkpt lat="45.4402" lon="6.92568">
        <ele>2572.2</ele>
        <time>2020-01-10T10:22:03Z</time>
      </trkpt>
      <trkpt lat="45.44022" lon="6.92569">
        <ele>2572.2</ele>
        <time>2020-01-10T10:22:06Z</time>
      </trkpt>
      <trkpt lat="45.44024" lon="6.9257">
        <ele>2577</ele>
        <time>2020-01-10T10:22:09Z</time>
      </trkpt>
      <trkpt lat="45.44026" lon="6.92572">
        <ele>2577</ele>
        <time>2020-01-10T10:22:12Z</time>
      </trkpt>
      <trkpt lat="45.44028" lon="6.92574">
        <ele>2577</ele>
        <time>2020-01-10T10:22:14Z</time>
      </trkpt>
      <trkpt lat="45.4403" lon="6.92576">
        <ele>2577</ele>
        <time>2020-01-10T10:22:16Z</time>
      </trkpt>
      <trkpt lat="45.44032" lon="6.92578">
        <ele>2577</ele>
        <time>2020-01-10T10:22:18Z</time>
      </trkpt>
      <trkpt lat="45.44033" lon="6.9258">
        <ele>2577</ele>
        <time>2020-01-10T10:22:20Z</time>
      </trkpt>
      <trkpt lat="45.44035" lon="6.92583">
        <ele>2577</ele>
        <time>2020-01-10T10:22:22Z</time>
      </trkpt>
      <trkpt lat="45.44037" lon="6.92584">
        <ele>2577</ele>
        <time>2020-01-10T10:22:24Z</time>
      </trkpt>
      <trkpt lat="45.44039" lon="6.92587">
        <ele>2577</ele>
        <time>2020-01-10T10:22:26Z</time>
      </trkpt>
      <trkpt lat="45.44041" lon="6.92589">
        <ele>2577</ele>
        <time>2020-01-10T10:22:28Z</time>
      </trkpt>
      <trkpt lat="45.44043" lon="6.92591">
        <ele>2577</ele>
        <time>2020-01-10T10:22:30Z</time>
      </trkpt>
      <trkpt lat="45.44046" lon="6.92593">
        <ele>2577</ele>
        <time>2020-01-10T10:22:32Z</time>
      </trkpt>
      <trkpt lat="45.44048" lon="6.92594">
        <ele>2577</ele>
        <time>2020-01-10T10:22:34Z</time>
      </trkpt>
      <trkpt lat="45.4405" lon="6.92596">
        <ele>2577</ele>
        <time>2020-01-10T10:22:35Z</time>
      </trkpt>
      <trkpt lat="45.44051" lon="6.92598">
        <ele>2577</ele>
        <time>2020-01-10T10:22:37Z</time>
      </trkpt>
      <trkpt lat="45.44052" lon="6.926">
        <ele>2583.4</ele>
        <time>2020-01-10T10:22:39Z</time>
      </trkpt>
      <trkpt lat="45.44055" lon="6.92602">
        <ele>2583.4</ele>
        <time>2020-01-10T10:22:41Z</time>
      </trkpt>
      <trkpt lat="45.44057" lon="6.92603">
        <ele>2583.4</ele>
        <time>2020-01-10T10:22:43Z</time>
      </trkpt>
      <trkpt lat="45.4406" lon="6.92605">
        <ele>2583.4</ele>
        <time>2020-01-10T10:22:45Z</time>
      </trkpt>
      <trkpt lat="45.44062" lon="6.92607">
        <ele>2583.4</ele>
        <time>2020-01-10T10:22:47Z</time>
      </trkpt>
      <trkpt lat="45.44064" lon="6.92609">
        <ele>2585.4</ele>
        <time>2020-01-10T10:22:49Z</time>
      </trkpt>
      <trkpt lat="45.44067" lon="6.9261">
        <ele>2585.4</ele>
        <time>2020-01-10T10:22:51Z</time>
      </trkpt>
      <trkpt lat="45.44069" lon="6.92611">
        <ele>2585.4</ele>
        <time>2020-01-10T10:22:53Z</time>
      </trkpt>
      <trkpt lat="45.44072" lon="6.92611">
        <ele>2585.4</ele>
        <time>2020-01-10T10:22:55Z</time>
      </trkpt>
      <trkpt lat="45.44074" lon="6.92612">
        <ele>2585.4</ele>
        <time>2020-01-10T10:22:57Z</time>
      </trkpt>
      <trkpt lat="45.44076" lon="6.92614">
        <ele>2587.6</ele>
        <time>2020-01-10T10:22:59Z</time>
      </trkpt>
      <trkpt lat="45.44079" lon="6.92615">
        <ele>2587.6</ele>
        <time>2020-01-10T10:23:01Z</time>
      </trkpt>
      <trkpt lat="45.44081" lon="6.92616">
        <ele>2587.6</ele>
        <time>2020-01-10T10:23:03Z</time>
      </trkpt>
      <trkpt lat="45.44084" lon="6.92617">
        <ele>2587.6</ele>
        <time>2020-01-10T10:23:05Z</time>
      </trkpt>
      <trkpt lat="45.44086" lon="6.92618">
        <ele>2587.6</ele>
        <time>2020-01-10T10:23:07Z</time>
      </trkpt>
      <trkpt lat="45.44088" lon="6.92618">
        <ele>2589.6</ele>
        <time>2020-01-10T10:23:09Z</time>
      </trkpt>
      <trkpt lat="45.44091" lon="6.92619">
        <ele>2589.6</ele>
        <time>2020-01-10T10:23:11Z</time>
      </trkpt>
      <trkpt lat="45.44092" lon="6.92619">
        <ele>2589.6</ele>
        <time>2020-01-10T10:23:12Z</time>
      </trkpt>
      <trkpt lat="45.44096" lon="6.9262">
        <ele>2589.6</ele>
        <time>2020-01-10T10:23:14Z</time>
      </trkpt>
      <trkpt lat="45.44098" lon="6.9262">
        <ele>2589.6</ele>
        <time>2020-01-10T10:23:16Z</time>
      </trkpt>
      <trkpt lat="45.441" lon="6.9262">
        <ele>2589.6</ele>
        <time>2020-01-10T10:23:18Z</time>
      </trkpt>
      <trkpt lat="45.44102" lon="6.92621">
        <ele>2589.6</ele>
        <time>2020-01-10T10:23:20Z</time>
      </trkpt>
      <trkpt lat="45.44105" lon="6.92621">
        <ele>2589.6</ele>
        <time>2020-01-10T10:23:22Z</time>
      </trkpt>
      <trkpt lat="45.44108" lon="6.92621">
        <ele>2589.6</ele>
        <time>2020-01-10T10:23:24Z</time>
      </trkpt>
      <trkpt lat="45.44111" lon="6.92622">
        <ele>2589.6</ele>
        <time>2020-01-10T10:23:26Z</time>
      </trkpt>
      <trkpt lat="45.44114" lon="6.92622">
        <ele>2589.6</ele>
        <time>2020-01-10T10:23:28Z</time>
      </trkpt>
      <trkpt lat="45.44116" lon="6.92624">
        <ele>2589.6</ele>
        <time>2020-01-10T10:23:30Z</time>
      </trkpt>
      <trkpt lat="45.44119" lon="6.92624">
        <ele>2589.6</ele>
        <time>2020-01-10T10:23:32Z</time>
      </trkpt>
      <trkpt lat="45.44122" lon="6.92623">
        <ele>2589.6</ele>
        <time>2020-01-10T10:23:34Z</time>
      </trkpt>
      <trkpt lat="45.44124" lon="6.92623">
        <ele>2589.6</ele>
        <time>2020-01-10T10:23:36Z</time>
      </trkpt>
      <trkpt lat="45.44127" lon="6.92623">
        <ele>2589.6</ele>
        <time>2020-01-10T10:23:38Z</time>
      </trkpt>
      <trkpt lat="45.4413" lon="6.92623">
        <ele>2589.6</ele>
        <time>2020-01-10T10:23:40Z</time>
      </trkpt>
      <trkpt lat="45.44132" lon="6.92622">
        <ele>2589.6</ele>
        <time>2020-01-10T10:23:42Z</time>
      </trkpt>
      <trkpt lat="45.44135" lon="6.92622">
        <ele>2589.6</ele>
        <time>2020-01-10T10:23:44Z</time>
      </trkpt>
      <trkpt lat="45.44137" lon="6.92621">
        <ele>2589.6</ele>
        <time>2020-01-10T10:23:46Z</time>
      </trkpt>
      <trkpt lat="45.4414" lon="6.92621">
        <ele>2589.6</ele>
        <time>2020-01-10T10:23:48Z</time>
      </trkpt>
      <trkpt lat="45.44142" lon="6.92621">
        <ele>2589.6</ele>
        <time>2020-01-10T10:23:50Z</time>
      </trkpt>
      <trkpt lat="45.44145" lon="6.92621">
        <ele>2589.6</ele>
        <time>2020-01-10T10:23:52Z</time>
      </trkpt>
      <trkpt lat="45.44148" lon="6.92621">
        <ele>2589.6</ele>
        <time>2020-01-10T10:23:54Z</time>
      </trkpt>
      <trkpt lat="45.44151" lon="6.9262">
        <ele>2589.6</ele>
        <time>2020-01-10T10:23:56Z</time>
      </trkpt>
      <trkpt lat="45.44153" lon="6.9262">
        <ele>2589.6</ele>
        <time>2020-01-10T10:23:57Z</time>
      </trkpt>
      <trkpt lat="45.44156" lon="6.92619">
        <ele>2598.6</ele>
        <time>2020-01-10T10:23:59Z</time>
      </trkpt>
      <trkpt lat="45.44158" lon="6.9262">
        <ele>2598.6</ele>
        <time>2020-01-10T10:24:00Z</time>
      </trkpt>
      <trkpt lat="45.4416" lon="6.9262">
        <ele>2598.6</ele>
        <time>2020-01-10T10:24:02Z</time>
      </trkpt>
      <trkpt lat="45.44162" lon="6.9262">
        <ele>2598.6</ele>
        <time>2020-01-10T10:24:03Z</time>
      </trkpt>
      <trkpt lat="45.44165" lon="6.92621">
        <ele>2598.6</ele>
        <time>2020-01-10T10:24:05Z</time>
      </trkpt>
      <trkpt lat="45.44167" lon="6.92621">
        <ele>2598.6</ele>
        <time>2020-01-10T10:24:06Z</time>
      </trkpt>
      <trkpt lat="45.4417" lon="6.92622">
        <ele>2598.6</ele>
        <time>2020-01-10T10:24:08Z</time>
      </trkpt>
      <trkpt lat="45.44173" lon="6.92622">
        <ele>2598.6</ele>
        <time>2020-01-10T10:24:10Z</time>
      </trkpt>
      <trkpt lat="45.44175" lon="6.92623">
        <ele>2598.6</ele>
        <time>2020-01-10T10:24:11Z</time>
      </trkpt>
      <trkpt lat="45.44178" lon="6.92624">
        <ele>2598.6</ele>
        <time>2020-01-10T10:24:13Z</time>
      </trkpt>
      <trkpt lat="45.44181" lon="6.92625">
        <ele>2598.6</ele>
        <time>2020-01-10T10:24:15Z</time>
      </trkpt>
      <trkpt lat="45.44185" lon="6.92626">
        <ele>2598.6</ele>
        <time>2020-01-10T10:24:17Z</time>
      </trkpt>
      <trkpt lat="45.44187" lon="6.92627">
        <ele>2598.8</ele>
        <time>2020-01-10T10:24:19Z</time>
      </trkpt>
      <trkpt lat="45.44189" lon="6.92628">
        <ele>2598.8</ele>
        <time>2020-01-10T10:24:21Z</time>
      </trkpt>
      <trkpt lat="45.44193" lon="6.9263">
        <ele>2598.8</ele>
        <time>2020-01-10T10:24:23Z</time>
      </trkpt>
      <trkpt lat="45.44196" lon="6.92632">
        <ele>2598.8</ele>
        <time>2020-01-10T10:24:25Z</time>
      </trkpt>
      <trkpt lat="45.44199" lon="6.92634">
        <ele>2598.8</ele>
        <time>2020-01-10T10:24:27Z</time>
      </trkpt>
      <trkpt lat="45.44201" lon="6.92636">
        <ele>2598.8</ele>
        <time>2020-01-10T10:24:28Z</time>
      </trkpt>
      <trkpt lat="45.44203" lon="6.92638">
        <ele>2598.8</ele>
        <time>2020-01-10T10:24:30Z</time>
      </trkpt>
      <trkpt lat="45.44206" lon="6.9264">
        <ele>2598.8</ele>
        <time>2020-01-10T10:24:32Z</time>
      </trkpt>
      <trkpt lat="45.44209" lon="6.92642">
        <ele>2598.8</ele>
        <time>2020-01-10T10:24:34Z</time>
      </trkpt>
      <trkpt lat="45.44212" lon="6.92644">
        <ele>2598.8</ele>
        <time>2020-01-10T10:24:36Z</time>
      </trkpt>
      <trkpt lat="45.44214" lon="6.92645">
        <ele>2598.8</ele>
        <time>2020-01-10T10:24:38Z</time>
      </trkpt>
      <trkpt lat="45.44216" lon="6.92647">
        <ele>2598.8</ele>
        <time>2020-01-10T10:24:40Z</time>
      </trkpt>
      <trkpt lat="45.44219" lon="6.92649">
        <ele>2598.8</ele>
        <time>2020-01-10T10:24:42Z</time>
      </trkpt>
      <trkpt lat="45.4422" lon="6.92651">
        <ele>2598.8</ele>
        <time>2020-01-10T10:24:44Z</time>
      </trkpt>
      <trkpt lat="45.44222" lon="6.92653">
        <ele>2598.8</ele>
        <time>2020-01-10T10:24:46Z</time>
      </trkpt>
      <trkpt lat="45.44224" lon="6.92655">
        <ele>2598.8</ele>
        <time>2020-01-10T10:24:48Z</time>
      </trkpt>
      <trkpt lat="45.44227" lon="6.92656">
        <ele>2598.8</ele>
        <time>2020-01-10T10:24:50Z</time>
      </trkpt>
      <trkpt lat="45.44228" lon="6.92657">
        <ele>2598.8</ele>
        <time>2020-01-10T10:24:52Z</time>
      </trkpt>
      <trkpt lat="45.4423" lon="6.92657">
        <ele>2598.8</ele>
        <time>2020-01-10T10:24:54Z</time>
      </trkpt>
      <trkpt lat="45.44232" lon="6.92657">
        <ele>2598.8</ele>
        <time>2020-01-10T10:24:56Z</time>
      </trkpt>
      <trkpt lat="45.44234" lon="6.92657">
        <ele>2598.8</ele>
        <time>2020-01-10T10:24:58Z</time>
      </trkpt>
      <trkpt lat="45.44236" lon="6.92657">
        <ele>2598.8</ele>
        <time>2020-01-10T10:25:00Z</time>
      </trkpt>
      <trkpt lat="45.44239" lon="6.92658">
        <ele>2598.8</ele>
        <time>2020-01-10T10:25:03Z</time>
      </trkpt>
      <trkpt lat="45.44241" lon="6.92658">
        <ele>2598.8</ele>
        <time>2020-01-10T10:25:06Z</time>
      </trkpt>
      <trkpt lat="45.44243" lon="6.92658">
        <ele>2598.8</ele>
        <time>2020-01-10T10:25:08Z</time>
      </trkpt>
      <trkpt lat="45.44245" lon="6.92658">
        <ele>2598.8</ele>
        <time>2020-01-10T10:25:10Z</time>
      </trkpt>
      <trkpt lat="45.44247" lon="6.92658">
        <ele>2598.8</ele>
        <time>2020-01-10T10:25:12Z</time>
      </trkpt>
      <trkpt lat="45.4425" lon="6.92658">
        <ele>2598.8</ele>
        <time>2020-01-10T10:25:15Z</time>
      </trkpt>
      <trkpt lat="45.44252" lon="6.92658">
        <ele>2598.8</ele>
        <time>2020-01-10T10:25:18Z</time>
      </trkpt>
      <trkpt lat="45.44253" lon="6.92658">
        <ele>2598.8</ele>
        <time>2020-01-10T10:25:20Z</time>
      </trkpt>
      <trkpt lat="45.44256" lon="6.92658">
        <ele>2598.8</ele>
        <time>2020-01-10T10:25:23Z</time>
      </trkpt>
      <trkpt lat="45.44258" lon="6.92658">
        <ele>2598.8</ele>
        <time>2020-01-10T10:25:25Z</time>
      </trkpt>
      <trkpt lat="45.44261" lon="6.92658">
        <ele>2598.8</ele>
        <time>2020-01-10T10:25:28Z</time>
      </trkpt>
      <trkpt lat="45.44263" lon="6.92659">
        <ele>2598.8</ele>
        <time>2020-01-10T10:25:31Z</time>
      </trkpt>
      <trkpt lat="45.44265" lon="6.92659">
        <ele>2598.8</ele>
        <time>2020-01-10T10:25:33Z</time>
      </trkpt>
      <trkpt lat="45.44268" lon="6.9266">
        <ele>2598.8</ele>
        <time>2020-01-10T10:25:35Z</time>
      </trkpt>
      <trkpt lat="45.4427" lon="6.92661">
        <ele>2598.8</ele>
        <time>2020-01-10T10:25:37Z</time>
      </trkpt>
      <trkpt lat="45.44272" lon="6.92661">
        <ele>2598.8</ele>
        <time>2020-01-10T10:25:38Z</time>
      </trkpt>
      <trkpt lat="45.44275" lon="6.92662">
        <ele>2598.8</ele>
        <time>2020-01-10T10:25:40Z</time>
      </trkpt>
      <trkpt lat="45.44278" lon="6.92663">
        <ele>2598.8</ele>
        <time>2020-01-10T10:25:42Z</time>
      </trkpt>
      <trkpt lat="45.4428" lon="6.92664">
        <ele>2598.8</ele>
        <time>2020-01-10T10:25:43Z</time>
      </trkpt>
      <trkpt lat="45.44284" lon="6.92665">
        <ele>2598.8</ele>
        <time>2020-01-10T10:25:44Z</time>
      </trkpt>
      <trkpt lat="45.44287" lon="6.92666">
        <ele>2598.8</ele>
        <time>2020-01-10T10:25:45Z</time>
      </trkpt>
      <trkpt lat="45.44289" lon="6.92666">
        <ele>2598.8</ele>
        <time>2020-01-10T10:25:46Z</time>
      </trkpt>
      <trkpt lat="45.44291" lon="6.92667">
        <ele>2598.8</ele>
        <time>2020-01-10T10:25:47Z</time>
      </trkpt>
      <trkpt lat="45.44295" lon="6.92667">
        <ele>2615.8</ele>
        <time>2020-01-10T10:25:49Z</time>
      </trkpt>
      <trkpt lat="45.44297" lon="6.92668">
        <ele>2615.8</ele>
        <time>2020-01-10T10:25:51Z</time>
      </trkpt>
      <trkpt lat="45.44299" lon="6.92668">
        <ele>2615.8</ele>
        <time>2020-01-10T10:25:53Z</time>
      </trkpt>
      <trkpt lat="45.44302" lon="6.92669">
        <ele>2615.8</ele>
        <time>2020-01-10T10:25:55Z</time>
      </trkpt>
      <trkpt lat="45.44305" lon="6.92669">
        <ele>2615.8</ele>
        <time>2020-01-10T10:25:58Z</time>
      </trkpt>
      <trkpt lat="45.44307" lon="6.9267">
        <ele>2615.8</ele>
        <time>2020-01-10T10:26:00Z</time>
      </trkpt>
      <trkpt lat="45.44308" lon="6.92671">
        <ele>2615.8</ele>
        <time>2020-01-10T10:26:02Z</time>
      </trkpt>
      <trkpt lat="45.44311" lon="6.92672">
        <ele>2615.8</ele>
        <time>2020-01-10T10:26:05Z</time>
      </trkpt>
      <trkpt lat="45.44313" lon="6.92673">
        <ele>2615.8</ele>
        <time>2020-01-10T10:26:08Z</time>
      </trkpt>
      <trkpt lat="45.44315" lon="6.92674">
        <ele>2615.8</ele>
        <time>2020-01-10T10:26:12Z</time>
      </trkpt>
      <trkpt lat="45.44317" lon="6.92674">
        <ele>2615.8</ele>
        <time>2020-01-10T10:26:15Z</time>
      </trkpt>
      <trkpt lat="45.44319" lon="6.92674">
        <ele>2615.8</ele>
        <time>2020-01-10T10:26:17Z</time>
      </trkpt>
      <trkpt lat="45.44322" lon="6.92674">
        <ele>2615.8</ele>
        <time>2020-01-10T10:26:20Z</time>
      </trkpt>
      <trkpt lat="45.44325" lon="6.92674">
        <ele>2615.8</ele>
        <time>2020-01-10T10:26:23Z</time>
      </trkpt>
      <trkpt lat="45.44327" lon="6.92674">
        <ele>2615.8</ele>
        <time>2020-01-10T10:26:25Z</time>
      </trkpt>
      <trkpt lat="45.4433" lon="6.92675">
        <ele>2615.8</ele>
        <time>2020-01-10T10:26:28Z</time>
      </trkpt>
      <trkpt lat="45.44332" lon="6.92677">
        <ele>2615.8</ele>
        <time>2020-01-10T10:26:31Z</time>
      </trkpt>
      <trkpt lat="45.44336" lon="6.92677">
        <ele>2615.8</ele>
        <time>2020-01-10T10:26:33Z</time>
      </trkpt>
      <trkpt lat="45.44339" lon="6.92677">
        <ele>2615.8</ele>
        <time>2020-01-10T10:26:34Z</time>
      </trkpt>
      <trkpt lat="45.44342" lon="6.92678">
        <ele>2615.8</ele>
        <time>2020-01-10T10:26:35Z</time>
      </trkpt>
      <trkpt lat="45.44344" lon="6.92678">
        <ele>2615.8</ele>
        <time>2020-01-10T10:26:37Z</time>
      </trkpt>
      <trkpt lat="45.44347" lon="6.92679">
        <ele>2626.4</ele>
        <time>2020-01-10T10:26:39Z</time>
      </trkpt>
      <trkpt lat="45.44349" lon="6.9268">
        <ele>2626.4</ele>
        <time>2020-01-10T10:26:42Z</time>
      </trkpt>
      <trkpt lat="45.44352" lon="6.9268">
        <ele>2626.4</ele>
        <time>2020-01-10T10:26:45Z</time>
      </trkpt>
      <trkpt lat="45.44354" lon="6.9268">
        <ele>2626.4</ele>
        <time>2020-01-10T10:26:47Z</time>
      </trkpt>
      <trkpt lat="45.44356" lon="6.92679">
        <ele>2628</ele>
        <time>2020-01-10T10:26:49Z</time>
      </trkpt>
      <trkpt lat="45.44358" lon="6.92679">
        <ele>2628</ele>
        <time>2020-01-10T10:26:51Z</time>
      </trkpt>
      <trkpt lat="45.4436" lon="6.92679">
        <ele>2628</ele>
        <time>2020-01-10T10:26:54Z</time>
      </trkpt>
      <trkpt lat="45.44362" lon="6.92678">
        <ele>2628</ele>
        <time>2020-01-10T10:26:57Z</time>
      </trkpt>
      <trkpt lat="45.44364" lon="6.92678">
        <ele>2631</ele>
        <time>2020-01-10T10:26:59Z</time>
      </trkpt>
      <trkpt lat="45.44366" lon="6.92677">
        <ele>2631</ele>
        <time>2020-01-10T10:27:01Z</time>
      </trkpt>
      <trkpt lat="45.44368" lon="6.92677">
        <ele>2631</ele>
        <time>2020-01-10T10:27:03Z</time>
      </trkpt>
      <trkpt lat="45.4437" lon="6.92677">
        <ele>2631</ele>
        <time>2020-01-10T10:27:05Z</time>
      </trkpt>
      <trkpt lat="45.44372" lon="6.92677">
        <ele>2631</ele>
        <time>2020-01-10T10:27:08Z</time>
      </trkpt>
      <trkpt lat="45.44375" lon="6.92678">
        <ele>2631</ele>
        <time>2020-01-10T10:27:10Z</time>
      </trkpt>
      <trkpt lat="45.44377" lon="6.92679">
        <ele>2631</ele>
        <time>2020-01-10T10:27:12Z</time>
      </trkpt>
      <trkpt lat="45.44379" lon="6.9268">
        <ele>2631</ele>
        <time>2020-01-10T10:27:14Z</time>
      </trkpt>
      <trkpt lat="45.44382" lon="6.92681">
        <ele>2631</ele>
        <time>2020-01-10T10:27:17Z</time>
      </trkpt>
      <trkpt lat="45.44384" lon="6.92681">
        <ele>2633.6</ele>
        <time>2020-01-10T10:27:19Z</time>
      </trkpt>
      <trkpt lat="45.44386" lon="6.92681">
        <ele>2633.6</ele>
        <time>2020-01-10T10:27:21Z</time>
      </trkpt>
      <trkpt lat="45.44388" lon="6.9268">
        <ele>2633.6</ele>
        <time>2020-01-10T10:27:24Z</time>
      </trkpt>
      <trkpt lat="45.4439" lon="6.9268">
        <ele>2633.6</ele>
        <time>2020-01-10T10:27:26Z</time>
      </trkpt>
      <trkpt lat="45.44392" lon="6.9268">
        <ele>2636.2</ele>
        <time>2020-01-10T10:27:29Z</time>
      </trkpt>
      <trkpt lat="45.44394" lon="6.92679">
        <ele>2636.2</ele>
        <time>2020-01-10T10:27:32Z</time>
      </trkpt>
      <trkpt lat="45.44396" lon="6.92677">
        <ele>2636.2</ele>
        <time>2020-01-10T10:27:35Z</time>
      </trkpt>
      <trkpt lat="45.44397" lon="6.92678">
        <ele>2636.2</ele>
        <time>2020-01-10T10:27:40Z</time>
      </trkpt>
      <trkpt lat="45.444" lon="6.92678">
        <ele>2636.2</ele>
        <time>2020-01-10T10:27:45Z</time>
      </trkpt>
      <trkpt lat="45.44402" lon="6.92678">
        <ele>2636.2</ele>
        <time>2020-01-10T10:27:47Z</time>
      </trkpt>
      <trkpt lat="45.44404" lon="6.92678">
        <ele>2642.4</ele>
        <time>2020-01-10T10:27:49Z</time>
      </trkpt>
      <trkpt lat="45.44406" lon="6.92677">
        <ele>2642.4</ele>
        <time>2020-01-10T10:27:52Z</time>
      </trkpt>
      <trkpt lat="45.44409" lon="6.92676">
        <ele>2642.4</ele>
        <time>2020-01-10T10:27:55Z</time>
      </trkpt>
      <trkpt lat="45.44412" lon="6.92676">
        <ele>2642.4</ele>
        <time>2020-01-10T10:27:58Z</time>
      </trkpt>
      <trkpt lat="45.44414" lon="6.92675">
        <ele>2642.4</ele>
        <time>2020-01-10T10:28:00Z</time>
      </trkpt>
      <trkpt lat="45.44416" lon="6.92674">
        <ele>2642.4</ele>
        <time>2020-01-10T10:28:03Z</time>
      </trkpt>
      <trkpt lat="45.44418" lon="6.92672">
        <ele>2642.4</ele>
        <time>2020-01-10T10:28:05Z</time>
      </trkpt>
      <trkpt lat="45.44419" lon="6.92671">
        <ele>2642.4</ele>
        <time>2020-01-10T10:28:08Z</time>
      </trkpt>
      <trkpt lat="45.44421" lon="6.92669">
        <ele>2645.2</ele>
        <time>2020-01-10T10:28:19Z</time>
      </trkpt>
      <trkpt lat="45.44426" lon="6.92666">
        <ele>2645.2</ele>
        <time>2020-01-10T10:30:55Z</time>
      </trkpt>
      <trkpt lat="45.44429" lon="6.92663">
        <ele>2645.2</ele>
        <time>2020-01-10T10:30:57Z</time>
      </trkpt>
      <trkpt lat="45.44431" lon="6.92661">
        <ele>2645.2</ele>
        <time>2020-01-10T10:30:58Z</time>
      </trkpt>
      <trkpt lat="45.44433" lon="6.92659">
        <ele>2631.6</ele>
        <time>2020-01-10T10:30:59Z</time>
      </trkpt>
      <trkpt lat="45.44435" lon="6.92658">
        <ele>2631.6</ele>
        <time>2020-01-10T10:31:00Z</time>
      </trkpt>
      <trkpt lat="45.44437" lon="6.92656">
        <ele>2631.6</ele>
        <time>2020-01-10T10:31:01Z</time>
      </trkpt>
      <trkpt lat="45.4444" lon="6.92654">
        <ele>2631.6</ele>
        <time>2020-01-10T10:31:03Z</time>
      </trkpt>
      <trkpt lat="45.44442" lon="6.92653">
        <ele>2631.6</ele>
        <time>2020-01-10T10:31:04Z</time>
      </trkpt>
      <trkpt lat="45.44444" lon="6.92651">
        <ele>2631.6</ele>
        <time>2020-01-10T10:31:05Z</time>
      </trkpt>
      <trkpt lat="45.44445" lon="6.9265">
        <ele>2631.6</ele>
        <time>2020-01-10T10:31:07Z</time>
      </trkpt>
      <trkpt lat="45.44447" lon="6.92648">
        <ele>2629.6</ele>
        <time>2020-01-10T10:31:09Z</time>
      </trkpt>
      <trkpt lat="45.44449" lon="6.92647">
        <ele>2629.6</ele>
        <time>2020-01-10T10:31:11Z</time>
      </trkpt>
      <trkpt lat="45.44452" lon="6.92647">
        <ele>2629.6</ele>
        <time>2020-01-10T10:31:14Z</time>
      </trkpt>
      <trkpt lat="45.4445" lon="6.92645">
        <ele>2629.6</ele>
        <time>2020-01-10T10:31:32Z</time>
      </trkpt>
      <trkpt lat="45.4445" lon="6.92641">
        <ele>2629.6</ele>
        <time>2020-01-10T10:31:35Z</time>
      </trkpt>
      <trkpt lat="45.4445" lon="6.92638">
        <ele>2629.6</ele>
        <time>2020-01-10T10:31:37Z</time>
      </trkpt>
      <trkpt lat="45.44451" lon="6.92635">
        <ele>2630</ele>
        <time>2020-01-10T10:31:39Z</time>
      </trkpt>
      <trkpt lat="45.44453" lon="6.92633">
        <ele>2630</ele>
        <time>2020-01-10T10:31:41Z</time>
      </trkpt>
      <trkpt lat="45.44455" lon="6.92631">
        <ele>2630</ele>
        <time>2020-01-10T10:31:44Z</time>
      </trkpt>
      <trkpt lat="45.44456" lon="6.92629">
        <ele>2630</ele>
        <time>2020-01-10T10:31:47Z</time>
      </trkpt>
      <trkpt lat="45.44458" lon="6.92627">
        <ele>2627.4</ele>
        <time>2020-01-10T10:31:49Z</time>
      </trkpt>
      <trkpt lat="45.44461" lon="6.92626">
        <ele>2627.4</ele>
        <time>2020-01-10T10:31:51Z</time>
      </trkpt>
      <trkpt lat="45.44463" lon="6.92626">
        <ele>2627.4</ele>
        <time>2020-01-10T10:31:53Z</time>
      </trkpt>
      <trkpt lat="45.44465" lon="6.92625">
        <ele>2627.4</ele>
        <time>2020-01-10T10:31:55Z</time>
      </trkpt>
      <trkpt lat="45.44467" lon="6.92625">
        <ele>2627.4</ele>
        <time>2020-01-10T10:31:57Z</time>
      </trkpt>
      <trkpt lat="45.44469" lon="6.92625">
        <ele>2625.8</ele>
        <time>2020-01-10T10:31:59Z</time>
      </trkpt>
      <trkpt lat="45.44471" lon="6.92624">
        <ele>2625.8</ele>
        <time>2020-01-10T10:32:01Z</time>
      </trkpt>
      <trkpt lat="45.44474" lon="6.92624">
        <ele>2625.8</ele>
        <time>2020-01-10T10:32:03Z</time>
      </trkpt>
      <trkpt lat="45.44476" lon="6.92624">
        <ele>2625.8</ele>
        <time>2020-01-10T10:32:06Z</time>
      </trkpt>
      <trkpt lat="45.44478" lon="6.92624">
        <ele>2625.8</ele>
        <time>2020-01-10T10:32:08Z</time>
      </trkpt>
      <trkpt lat="45.44481" lon="6.92624">
        <ele>2625.8</ele>
        <time>2020-01-10T10:32:11Z</time>
      </trkpt>
      <trkpt lat="45.44483" lon="6.92622">
        <ele>2625.8</ele>
        <time>2020-01-10T10:32:14Z</time>
      </trkpt>
      <trkpt lat="45.44485" lon="6.92621">
        <ele>2625.8</ele>
        <time>2020-01-10T10:32:17Z</time>
      </trkpt>
      <trkpt lat="45.44488" lon="6.9262">
        <ele>2625.8</ele>
        <time>2020-01-10T10:32:20Z</time>
      </trkpt>
      <trkpt lat="45.4449" lon="6.92618">
        <ele>2625.8</ele>
        <time>2020-01-10T10:32:22Z</time>
      </trkpt>
      <trkpt lat="45.44492" lon="6.92617">
        <ele>2625.8</ele>
        <time>2020-01-10T10:32:25Z</time>
      </trkpt>
      <trkpt lat="45.44494" lon="6.92616">
        <ele>2625.8</ele>
        <time>2020-01-10T10:32:28Z</time>
      </trkpt>
      <trkpt lat="45.44497" lon="6.92616">
        <ele>2625.8</ele>
        <time>2020-01-10T10:32:31Z</time>
      </trkpt>
      <trkpt lat="45.44499" lon="6.92616">
        <ele>2625.8</ele>
        <time>2020-01-10T10:32:33Z</time>
      </trkpt>
      <trkpt lat="45.44501" lon="6.92616">
        <ele>2625.8</ele>
        <time>2020-01-10T10:32:36Z</time>
      </trkpt>
      <trkpt lat="45.44503" lon="6.92616">
        <ele>2625.8</ele>
        <time>2020-01-10T10:32:38Z</time>
      </trkpt>
      <trkpt lat="45.44505" lon="6.92616">
        <ele>2625.8</ele>
        <time>2020-01-10T10:32:40Z</time>
      </trkpt>
      <trkpt lat="45.44507" lon="6.92616">
        <ele>2625.8</ele>
        <time>2020-01-10T10:32:42Z</time>
      </trkpt>
      <trkpt lat="45.44509" lon="6.92615">
        <ele>2625.8</ele>
        <time>2020-01-10T10:32:45Z</time>
      </trkpt>
      <trkpt lat="45.44512" lon="6.92614">
        <ele>2625.8</ele>
        <time>2020-01-10T10:32:48Z</time>
      </trkpt>
      <trkpt lat="45.44514" lon="6.92612">
        <ele>2625.8</ele>
        <time>2020-01-10T10:32:51Z</time>
      </trkpt>
      <trkpt lat="45.44516" lon="6.92612">
        <ele>2625.8</ele>
        <time>2020-01-10T10:32:55Z</time>
      </trkpt>
      <trkpt lat="45.44518" lon="6.92612">
        <ele>2625.8</ele>
        <time>2020-01-10T10:32:58Z</time>
      </trkpt>
      <trkpt lat="45.44521" lon="6.92612">
        <ele>2625.8</ele>
        <time>2020-01-10T10:33:02Z</time>
      </trkpt>
      <trkpt lat="45.44523" lon="6.92608">
        <ele>2625.8</ele>
        <time>2020-01-10T10:33:06Z</time>
      </trkpt>
      <trkpt lat="45.44524" lon="6.92607">
        <ele>2625.8</ele>
        <time>2020-01-10T10:33:08Z</time>
      </trkpt>
      <trkpt lat="45.44526" lon="6.92605">
        <ele>2625.8</ele>
        <time>2020-01-10T10:33:12Z</time>
      </trkpt>
      <trkpt lat="45.44529" lon="6.92603">
        <ele>2625.8</ele>
        <time>2020-01-10T10:33:16Z</time>
      </trkpt>
      <trkpt lat="45.44531" lon="6.92602">
        <ele>2635.4</ele>
        <time>2020-01-10T10:33:19Z</time>
      </trkpt>
      <trkpt lat="45.44533" lon="6.92603">
        <ele>2635.4</ele>
        <time>2020-01-10T10:33:22Z</time>
      </trkpt>
      <trkpt lat="45.44535" lon="6.92604">
        <ele>2635.4</ele>
        <time>2020-01-10T10:33:25Z</time>
      </trkpt>
      <trkpt lat="45.44537" lon="6.92604">
        <ele>2637.6</ele>
        <time>2020-01-10T10:33:29Z</time>
      </trkpt>
      <trkpt lat="45.44539" lon="6.92604">
        <ele>2637.6</ele>
        <time>2020-01-10T10:33:34Z</time>
      </trkpt>
      <trkpt lat="45.44541" lon="6.92603">
        <ele>2637.6</ele>
        <time>2020-01-10T10:33:37Z</time>
      </trkpt>
      <trkpt lat="45.44543" lon="6.92603">
        <ele>2637.6</ele>
        <time>2020-01-10T10:33:40Z</time>
      </trkpt>
      <trkpt lat="45.44545" lon="6.92602">
        <ele>2637.6</ele>
        <time>2020-01-10T10:33:43Z</time>
      </trkpt>
      <trkpt lat="45.44547" lon="6.92601">
        <ele>2637.6</ele>
        <time>2020-01-10T10:33:48Z</time>
      </trkpt>
      <trkpt lat="45.44548" lon="6.92599">
        <ele>2637.6</ele>
        <time>2020-01-10T10:33:51Z</time>
      </trkpt>
      <trkpt lat="45.4455" lon="6.92598">
        <ele>2637.6</ele>
        <time>2020-01-10T10:33:54Z</time>
      </trkpt>
      <trkpt lat="45.44552" lon="6.92596">
        <ele>2637.6</ele>
        <time>2020-01-10T10:33:57Z</time>
      </trkpt>
      <trkpt lat="45.44554" lon="6.92595">
        <ele>2637.6</ele>
        <time>2020-01-10T10:34:00Z</time>
      </trkpt>
      <trkpt lat="45.44556" lon="6.92595">
        <ele>2637.6</ele>
        <time>2020-01-10T10:34:04Z</time>
      </trkpt>
      <trkpt lat="45.44558" lon="6.92594">
        <ele>2645.6</ele>
        <time>2020-01-10T10:34:09Z</time>
      </trkpt>
      <trkpt lat="45.4456" lon="6.92594">
        <ele>2645.6</ele>
        <time>2020-01-10T10:34:12Z</time>
      </trkpt>
      <trkpt lat="45.44562" lon="6.92593">
        <ele>2645.6</ele>
        <time>2020-01-10T10:34:17Z</time>
      </trkpt>
      <trkpt lat="45.44564" lon="6.92593">
        <ele>2645.6</ele>
        <time>2020-01-10T10:34:20Z</time>
      </trkpt>
      <trkpt lat="45.44566" lon="6.92591">
        <ele>2645.6</ele>
        <time>2020-01-10T10:34:23Z</time>
      </trkpt>
      <trkpt lat="45.44568" lon="6.9259">
        <ele>2645.6</ele>
        <time>2020-01-10T10:34:27Z</time>
      </trkpt>
      <trkpt lat="45.4457" lon="6.92589">
        <ele>2645.6</ele>
        <time>2020-01-10T10:34:31Z</time>
      </trkpt>
      <trkpt lat="45.44572" lon="6.92588">
        <ele>2645.6</ele>
        <time>2020-01-10T10:34:35Z</time>
      </trkpt>
      <trkpt lat="45.44574" lon="6.92587">
        <ele>2652</ele>
        <time>2020-01-10T10:34:39Z</time>
      </trkpt>
      <trkpt lat="45.44576" lon="6.92587">
        <ele>2652</ele>
        <time>2020-01-10T10:34:42Z</time>
      </trkpt>
      <trkpt lat="45.44578" lon="6.92584">
        <ele>2652</ele>
        <time>2020-01-10T10:34:46Z</time>
      </trkpt>
      <trkpt lat="45.4458" lon="6.92583">
        <ele>2652.8</ele>
        <time>2020-01-10T10:34:49Z</time>
      </trkpt>
      <trkpt lat="45.44582" lon="6.92582">
        <ele>2652.8</ele>
        <time>2020-01-10T10:34:52Z</time>
      </trkpt>
      <trkpt lat="45.44584" lon="6.92581">
        <ele>2652.8</ele>
        <time>2020-01-10T10:34:57Z</time>
      </trkpt>
      <trkpt lat="45.44586" lon="6.9258">
        <ele>2652.8</ele>
        <time>2020-01-10T10:35:01Z</time>
      </trkpt>
      <trkpt lat="45.44588" lon="6.92578">
        <ele>2652.8</ele>
        <time>2020-01-10T10:35:06Z</time>
      </trkpt>
      <trkpt lat="45.4459" lon="6.92576">
        <ele>2656.8</ele>
        <time>2020-01-10T10:35:09Z</time>
      </trkpt>
      <trkpt lat="45.44592" lon="6.92576">
        <ele>2656.8</ele>
        <time>2020-01-10T10:35:11Z</time>
      </trkpt>
      <trkpt lat="45.44594" lon="6.92577">
        <ele>2656.8</ele>
        <time>2020-01-10T10:35:13Z</time>
      </trkpt>
      <trkpt lat="45.44596" lon="6.92576">
        <ele>2656.8</ele>
        <time>2020-01-10T10:35:18Z</time>
      </trkpt>
      <trkpt lat="45.44598" lon="6.92575">
        <ele>2656.8</ele>
        <time>2020-01-10T10:35:24Z</time>
      </trkpt>
      <trkpt lat="45.44601" lon="6.92574">
        <ele>2656.8</ele>
        <time>2020-01-10T10:35:27Z</time>
      </trkpt>
      <trkpt lat="45.44603" lon="6.92572">
        <ele>2656.8</ele>
        <time>2020-01-10T10:35:30Z</time>
      </trkpt>
      <trkpt lat="45.44604" lon="6.92572">
        <ele>2656.8</ele>
        <time>2020-01-10T10:35:33Z</time>
      </trkpt>
      <trkpt lat="45.44606" lon="6.92571">
        <ele>2656.8</ele>
        <time>2020-01-10T10:35:37Z</time>
      </trkpt>
      <trkpt lat="45.44609" lon="6.92572">
        <ele>2656.8</ele>
        <time>2020-01-10T10:35:40Z</time>
      </trkpt>
      <trkpt lat="45.44611" lon="6.92572">
        <ele>2656.8</ele>
        <time>2020-01-10T10:35:44Z</time>
      </trkpt>
      <trkpt lat="45.44613" lon="6.92573">
        <ele>2656.8</ele>
        <time>2020-01-10T10:35:46Z</time>
      </trkpt>
      <trkpt lat="45.44615" lon="6.92573">
        <ele>2656.8</ele>
        <time>2020-01-10T10:35:48Z</time>
      </trkpt>
      <trkpt lat="45.44618" lon="6.92572">
        <ele>2656.8</ele>
        <time>2020-01-10T10:35:52Z</time>
      </trkpt>
      <trkpt lat="45.4462" lon="6.92571">
        <ele>2656.8</ele>
        <time>2020-01-10T10:35:55Z</time>
      </trkpt>
      <trkpt lat="45.44622" lon="6.9257">
        <ele>2662.6</ele>
        <time>2020-01-10T10:35:59Z</time>
      </trkpt>
      <trkpt lat="45.44624" lon="6.9257">
        <ele>2662.6</ele>
        <time>2020-01-10T10:36:01Z</time>
      </trkpt>
      <trkpt lat="45.44626" lon="6.92571">
        <ele>2662.6</ele>
        <time>2020-01-10T10:36:03Z</time>
      </trkpt>
      <trkpt lat="45.44628" lon="6.92571">
        <ele>2662.6</ele>
        <time>2020-01-10T10:36:06Z</time>
      </trkpt>
      <trkpt lat="45.4463" lon="6.92571">
        <ele>2664.6</ele>
        <time>2020-01-10T10:36:09Z</time>
      </trkpt>
      <trkpt lat="45.44632" lon="6.92572">
        <ele>2664.6</ele>
        <time>2020-01-10T10:36:12Z</time>
      </trkpt>
      <trkpt lat="45.44634" lon="6.92572">
        <ele>2664.6</ele>
        <time>2020-01-10T10:36:15Z</time>
      </trkpt>
      <trkpt lat="45.44636" lon="6.92573">
        <ele>2664.6</ele>
        <time>2020-01-10T10:36:18Z</time>
      </trkpt>
      <trkpt lat="45.44638" lon="6.92574">
        <ele>2664.6</ele>
        <time>2020-01-10T10:36:20Z</time>
      </trkpt>
      <trkpt lat="45.4464" lon="6.92574">
        <ele>2664.6</ele>
        <time>2020-01-10T10:36:23Z</time>
      </trkpt>
      <trkpt lat="45.44642" lon="6.92575">
        <ele>2664.6</ele>
        <time>2020-01-10T10:36:25Z</time>
      </trkpt>
      <trkpt lat="45.44644" lon="6.92575">
        <ele>2664.6</ele>
        <time>2020-01-10T10:36:27Z</time>
      </trkpt>
      <trkpt lat="45.44646" lon="6.92575">
        <ele>2665.8</ele>
        <time>2020-01-10T10:36:29Z</time>
      </trkpt>
      <trkpt lat="45.44648" lon="6.92576">
        <ele>2665.8</ele>
        <time>2020-01-10T10:36:32Z</time>
      </trkpt>
      <trkpt lat="45.4465" lon="6.92576">
        <ele>2665.8</ele>
        <time>2020-01-10T10:36:36Z</time>
      </trkpt>
      <trkpt lat="45.44652" lon="6.92576">
        <ele>2668.2</ele>
        <time>2020-01-10T10:36:39Z</time>
      </trkpt>
      <trkpt lat="45.44653" lon="6.92576">
        <ele>2668.2</ele>
        <time>2020-01-10T10:36:43Z</time>
      </trkpt>
      <trkpt lat="45.44655" lon="6.92574">
        <ele>2668.2</ele>
        <time>2020-01-10T10:36:46Z</time>
      </trkpt>
      <trkpt lat="45.44657" lon="6.92573">
        <ele>2668.2</ele>
        <time>2020-01-10T10:36:48Z</time>
      </trkpt>
      <trkpt lat="45.44659" lon="6.92573">
        <ele>2668.2</ele>
        <time>2020-01-10T10:36:51Z</time>
      </trkpt>
      <trkpt lat="45.44661" lon="6.92572">
        <ele>2668.2</ele>
        <time>2020-01-10T10:36:54Z</time>
      </trkpt>
      <trkpt lat="45.44663" lon="6.92572">
        <ele>2668.2</ele>
        <time>2020-01-10T10:36:57Z</time>
      </trkpt>
      <trkpt lat="45.44666" lon="6.92572">
        <ele>2668.2</ele>
        <time>2020-01-10T10:37:00Z</time>
      </trkpt>
      <trkpt lat="45.44668" lon="6.92572">
        <ele>2668.2</ele>
        <time>2020-01-10T10:37:02Z</time>
      </trkpt>
      <trkpt lat="45.4467" lon="6.92573">
        <ele>2668.2</ele>
        <time>2020-01-10T10:37:05Z</time>
      </trkpt>
      <trkpt lat="45.44672" lon="6.92574">
        <ele>2668.2</ele>
        <time>2020-01-10T10:37:08Z</time>
      </trkpt>
      <trkpt lat="45.44674" lon="6.92577">
        <ele>2668.2</ele>
        <time>2020-01-10T10:37:11Z</time>
      </trkpt>
      <trkpt lat="45.44676" lon="6.9258">
        <ele>2668.2</ele>
        <time>2020-01-10T10:37:14Z</time>
      </trkpt>
      <trkpt lat="45.44677" lon="6.92582">
        <ele>2668.2</ele>
        <time>2020-01-10T10:37:17Z</time>
      </trkpt>
      <trkpt lat="45.4468" lon="6.92585">
        <ele>2668.2</ele>
        <time>2020-01-10T10:37:20Z</time>
      </trkpt>
      <trkpt lat="45.44681" lon="6.92587">
        <ele>2668.2</ele>
        <time>2020-01-10T10:37:22Z</time>
      </trkpt>
      <trkpt lat="45.44684" lon="6.92589">
        <ele>2668.2</ele>
        <time>2020-01-10T10:37:26Z</time>
      </trkpt>
      <trkpt lat="45.44685" lon="6.9259">
        <ele>2668.2</ele>
        <time>2020-01-10T10:37:30Z</time>
      </trkpt>
      <trkpt lat="45.44687" lon="6.92591">
        <ele>2668.2</ele>
        <time>2020-01-10T10:37:33Z</time>
      </trkpt>
      <trkpt lat="45.4469" lon="6.92592">
        <ele>2668.2</ele>
        <time>2020-01-10T10:37:36Z</time>
      </trkpt>
      <trkpt lat="45.44692" lon="6.92593">
        <ele>2668.2</ele>
        <time>2020-01-10T10:37:38Z</time>
      </trkpt>
      <trkpt lat="45.44694" lon="6.92594">
        <ele>2668.2</ele>
        <time>2020-01-10T10:37:42Z</time>
      </trkpt>
      <trkpt lat="45.44696" lon="6.92596">
        <ele>2668.2</ele>
        <time>2020-01-10T10:37:45Z</time>
      </trkpt>
      <trkpt lat="45.44698" lon="6.92598">
        <ele>2668.2</ele>
        <time>2020-01-10T10:37:48Z</time>
      </trkpt>
      <trkpt lat="45.447" lon="6.92599">
        <ele>2668.2</ele>
        <time>2020-01-10T10:37:51Z</time>
      </trkpt>
      <trkpt lat="45.44702" lon="6.926">
        <ele>2668.2</ele>
        <time>2020-01-10T10:37:54Z</time>
      </trkpt>
      <trkpt lat="45.44705" lon="6.92601">
        <ele>2668.2</ele>
        <time>2020-01-10T10:37:57Z</time>
      </trkpt>
      <trkpt lat="45.44707" lon="6.926">
        <ele>2668.2</ele>
        <time>2020-01-10T10:38:00Z</time>
      </trkpt>
      <trkpt lat="45.44709" lon="6.92601">
        <ele>2668.2</ele>
        <time>2020-01-10T10:38:03Z</time>
      </trkpt>
      <trkpt lat="45.44711" lon="6.92601">
        <ele>2668.2</ele>
        <time>2020-01-10T10:38:06Z</time>
      </trkpt>
      <trkpt lat="45.44714" lon="6.926">
        <ele>2673.8</ele>
        <time>2020-01-10T10:38:09Z</time>
      </trkpt>
      <trkpt lat="45.44717" lon="6.92599">
        <ele>2673.8</ele>
        <time>2020-01-10T10:38:12Z</time>
      </trkpt>
      <trkpt lat="45.44719" lon="6.92599">
        <ele>2673.8</ele>
        <time>2020-01-10T10:38:14Z</time>
      </trkpt>
      <trkpt lat="45.44721" lon="6.926">
        <ele>2673.8</ele>
        <time>2020-01-10T10:38:18Z</time>
      </trkpt>
      <trkpt lat="45.44724" lon="6.92599">
        <ele>2673.8</ele>
        <time>2020-01-10T10:38:21Z</time>
      </trkpt>
      <trkpt lat="45.44725" lon="6.92599">
        <ele>2673.8</ele>
        <time>2020-01-10T10:38:23Z</time>
      </trkpt>
      <trkpt lat="45.44727" lon="6.92599">
        <ele>2673.8</ele>
        <time>2020-01-10T10:38:26Z</time>
      </trkpt>
      <trkpt lat="45.4473" lon="6.926">
        <ele>2673.8</ele>
        <time>2020-01-10T10:38:30Z</time>
      </trkpt>
      <trkpt lat="45.44732" lon="6.926">
        <ele>2673.8</ele>
        <time>2020-01-10T10:38:33Z</time>
      </trkpt>
      <trkpt lat="45.44734" lon="6.92601">
        <ele>2673.8</ele>
        <time>2020-01-10T10:38:36Z</time>
      </trkpt>
      <trkpt lat="45.44737" lon="6.92602">
        <ele>2678</ele>
        <time>2020-01-10T10:38:39Z</time>
      </trkpt>
      <trkpt lat="45.44739" lon="6.92602">
        <ele>2678</ele>
        <time>2020-01-10T10:38:41Z</time>
      </trkpt>
      <trkpt lat="45.44741" lon="6.92602">
        <ele>2678</ele>
        <time>2020-01-10T10:38:44Z</time>
      </trkpt>
      <trkpt lat="45.44743" lon="6.92603">
        <ele>2678</ele>
        <time>2020-01-10T10:38:46Z</time>
      </trkpt>
      <trkpt lat="45.44745" lon="6.92604">
        <ele>2679</ele>
        <time>2020-01-10T10:38:49Z</time>
      </trkpt>
      <trkpt lat="45.44747" lon="6.92605">
        <ele>2679</ele>
        <time>2020-01-10T10:38:51Z</time>
      </trkpt>
      <trkpt lat="45.44749" lon="6.92606">
        <ele>2679</ele>
        <time>2020-01-10T10:38:53Z</time>
      </trkpt>
      <trkpt lat="45.4475" lon="6.92608">
        <ele>2679</ele>
        <time>2020-01-10T10:38:55Z</time>
      </trkpt>
      <trkpt lat="45.44751" lon="6.92611">
        <ele>2679</ele>
        <time>2020-01-10T10:38:58Z</time>
      </trkpt>
      <trkpt lat="45.44753" lon="6.92614">
        <ele>2679</ele>
        <time>2020-01-10T10:39:02Z</time>
      </trkpt>
      <trkpt lat="45.44754" lon="6.92617">
        <ele>2679</ele>
        <time>2020-01-10T10:39:05Z</time>
      </trkpt>
      <trkpt lat="45.44754" lon="6.9262">
        <ele>2683.2</ele>
        <time>2020-01-10T10:39:09Z</time>
      </trkpt>
      <trkpt lat="45.44756" lon="6.92622">
        <ele>2683.2</ele>
        <time>2020-01-10T10:39:12Z</time>
      </trkpt>
      <trkpt lat="45.44757" lon="6.92624">
        <ele>2683.2</ele>
        <time>2020-01-10T10:39:15Z</time>
      </trkpt>
      <trkpt lat="45.44758" lon="6.92627">
        <ele>2683.2</ele>
        <time>2020-01-10T10:39:20Z</time>
      </trkpt>
      <trkpt lat="45.44761" lon="6.92628">
        <ele>2683.2</ele>
        <time>2020-01-10T10:39:24Z</time>
      </trkpt>
      <trkpt lat="45.44763" lon="6.92629">
        <ele>2683.2</ele>
        <time>2020-01-10T10:39:27Z</time>
      </trkpt>
      <trkpt lat="45.44764" lon="6.9263">
        <ele>2687.2</ele>
        <time>2020-01-10T10:39:29Z</time>
      </trkpt>
      <trkpt lat="45.44767" lon="6.92631">
        <ele>2687.2</ele>
        <time>2020-01-10T10:39:32Z</time>
      </trkpt>
      <trkpt lat="45.44769" lon="6.92632">
        <ele>2687.2</ele>
        <time>2020-01-10T10:39:34Z</time>
      </trkpt>
      <trkpt lat="45.44771" lon="6.92633">
        <ele>2687.2</ele>
        <time>2020-01-10T10:39:36Z</time>
      </trkpt>
      <trkpt lat="45.44773" lon="6.92634">
        <ele>2686.6</ele>
        <time>2020-01-10T10:39:39Z</time>
      </trkpt>
      <trkpt lat="45.44775" lon="6.92635">
        <ele>2686.6</ele>
        <time>2020-01-10T10:39:41Z</time>
      </trkpt>
      <trkpt lat="45.44777" lon="6.92636">
        <ele>2686.6</ele>
        <time>2020-01-10T10:39:44Z</time>
      </trkpt>
      <trkpt lat="45.44779" lon="6.92636">
        <ele>2686.6</ele>
        <time>2020-01-10T10:39:47Z</time>
      </trkpt>
      <trkpt lat="45.44781" lon="6.92638">
        <ele>2686.6</ele>
        <time>2020-01-10T10:39:51Z</time>
      </trkpt>
      <trkpt lat="45.44783" lon="6.92638">
        <ele>2686.6</ele>
        <time>2020-01-10T10:39:54Z</time>
      </trkpt>
      <trkpt lat="45.44785" lon="6.92638">
        <ele>2686.6</ele>
        <time>2020-01-10T10:39:57Z</time>
      </trkpt>
      <trkpt lat="45.44787" lon="6.92639">
        <ele>2686.6</ele>
        <time>2020-01-10T10:40:00Z</time>
      </trkpt>
      <trkpt lat="45.44789" lon="6.92641">
        <ele>2686.6</ele>
        <time>2020-01-10T10:40:04Z</time>
      </trkpt>
      <trkpt lat="45.4479" lon="6.92643">
        <ele>2686.6</ele>
        <time>2020-01-10T10:40:08Z</time>
      </trkpt>
      <trkpt lat="45.44792" lon="6.92645">
        <ele>2686.6</ele>
        <time>2020-01-10T10:40:13Z</time>
      </trkpt>
      <trkpt lat="45.44794" lon="6.92646">
        <ele>2686.6</ele>
        <time>2020-01-10T10:40:18Z</time>
      </trkpt>
      <trkpt lat="45.44796" lon="6.92646">
        <ele>2686.6</ele>
        <time>2020-01-10T10:40:26Z</time>
      </trkpt>
      <trkpt lat="45.44798" lon="6.92646">
        <ele>2686.6</ele>
        <time>2020-01-10T10:40:33Z</time>
      </trkpt>
      <trkpt lat="45.448" lon="6.92644">
        <ele>2686.6</ele>
        <time>2020-01-10T10:40:37Z</time>
      </trkpt>
      <trkpt lat="45.44802" lon="6.92642">
        <ele>2686.6</ele>
        <time>2020-01-10T10:40:40Z</time>
      </trkpt>
      <trkpt lat="45.44803" lon="6.9264">
        <ele>2686.6</ele>
        <time>2020-01-10T10:40:42Z</time>
      </trkpt>
      <trkpt lat="45.44804" lon="6.92637">
        <ele>2686.6</ele>
        <time>2020-01-10T10:40:45Z</time>
      </trkpt>
      <trkpt lat="45.44807" lon="6.92634">
        <ele>2686.6</ele>
        <time>2020-01-10T10:40:48Z</time>
      </trkpt>
      <trkpt lat="45.44808" lon="6.92632">
        <ele>2686.6</ele>
        <time>2020-01-10T10:40:50Z</time>
      </trkpt>
      <trkpt lat="45.4481" lon="6.92631">
        <ele>2686.6</ele>
        <time>2020-01-10T10:40:52Z</time>
      </trkpt>
      <trkpt lat="45.44812" lon="6.9263">
        <ele>2686.6</ele>
        <time>2020-01-10T10:40:55Z</time>
      </trkpt>
      <trkpt lat="45.44814" lon="6.92629">
        <ele>2687.2</ele>
        <time>2020-01-10T10:40:59Z</time>
      </trkpt>
      <trkpt lat="45.44817" lon="6.92628">
        <ele>2687.2</ele>
        <time>2020-01-10T10:41:02Z</time>
      </trkpt>
      <trkpt lat="45.44819" lon="6.92627">
        <ele>2687.2</ele>
        <time>2020-01-10T10:41:05Z</time>
      </trkpt>
      <trkpt lat="45.44821" lon="6.92626">
        <ele>2687.2</ele>
        <time>2020-01-10T10:41:07Z</time>
      </trkpt>
      <trkpt lat="45.44823" lon="6.92624">
        <ele>2687.2</ele>
        <time>2020-01-10T10:41:10Z</time>
      </trkpt>
      <trkpt lat="45.44825" lon="6.92623">
        <ele>2687.2</ele>
        <time>2020-01-10T10:41:12Z</time>
      </trkpt>
      <trkpt lat="45.44827" lon="6.92622">
        <ele>2687.2</ele>
        <time>2020-01-10T10:41:14Z</time>
      </trkpt>
      <trkpt lat="45.44828" lon="6.92622">
        <ele>2687.2</ele>
        <time>2020-01-10T10:41:17Z</time>
      </trkpt>
      <trkpt lat="45.4483" lon="6.92622">
        <ele>2681.4</ele>
        <time>2020-01-10T10:41:19Z</time>
      </trkpt>
      <trkpt lat="45.44833" lon="6.92622">
        <ele>2681.4</ele>
        <time>2020-01-10T10:41:22Z</time>
      </trkpt>
      <trkpt lat="45.44835" lon="6.92621">
        <ele>2681.4</ele>
        <time>2020-01-10T10:41:25Z</time>
      </trkpt>
      <trkpt lat="45.44837" lon="6.9262">
        <ele>2681.4</ele>
        <time>2020-01-10T10:41:27Z</time>
      </trkpt>
      <trkpt lat="45.44839" lon="6.92619">
        <ele>2680.2</ele>
        <time>2020-01-10T10:41:29Z</time>
      </trkpt>
      <trkpt lat="45.44843" lon="6.92618">
        <ele>2680.2</ele>
        <time>2020-01-10T10:41:32Z</time>
      </trkpt>
      <trkpt lat="45.44845" lon="6.92618">
        <ele>2680.2</ele>
        <time>2020-01-10T10:41:34Z</time>
      </trkpt>
      <trkpt lat="45.44847" lon="6.92617">
        <ele>2680.2</ele>
        <time>2020-01-10T10:41:38Z</time>
      </trkpt>
      <trkpt lat="45.44849" lon="6.92616">
        <ele>2680.2</ele>
        <time>2020-01-10T10:41:40Z</time>
      </trkpt>
      <trkpt lat="45.44852" lon="6.92616">
        <ele>2680.2</ele>
        <time>2020-01-10T10:41:42Z</time>
      </trkpt>
      <trkpt lat="45.44855" lon="6.92617">
        <ele>2680.2</ele>
        <time>2020-01-10T10:41:45Z</time>
      </trkpt>
      <trkpt lat="45.44857" lon="6.92618">
        <ele>2680.2</ele>
        <time>2020-01-10T10:41:47Z</time>
      </trkpt>
      <trkpt lat="45.44859" lon="6.92618">
        <ele>2680.2</ele>
        <time>2020-01-10T10:41:49Z</time>
      </trkpt>
      <trkpt lat="45.44861" lon="6.92618">
        <ele>2680.2</ele>
        <time>2020-01-10T10:41:51Z</time>
      </trkpt>
      <trkpt lat="45.44863" lon="6.92618">
        <ele>2680.2</ele>
        <time>2020-01-10T10:41:53Z</time>
      </trkpt>
      <trkpt lat="45.44865" lon="6.92617">
        <ele>2680.2</ele>
        <time>2020-01-10T10:41:55Z</time>
      </trkpt>
      <trkpt lat="45.44867" lon="6.92616">
        <ele>2679</ele>
        <time>2020-01-10T10:41:59Z</time>
      </trkpt>
      <trkpt lat="45.44869" lon="6.92615">
        <ele>2679</ele>
        <time>2020-01-10T10:42:01Z</time>
      </trkpt>
      <trkpt lat="45.44871" lon="6.92613">
        <ele>2679</ele>
        <time>2020-01-10T10:42:04Z</time>
      </trkpt>
      <trkpt lat="45.44873" lon="6.92612">
        <ele>2679</ele>
        <time>2020-01-10T10:42:06Z</time>
      </trkpt>
      <trkpt lat="45.44875" lon="6.9261">
        <ele>2679</ele>
        <time>2020-01-10T10:42:09Z</time>
      </trkpt>
      <trkpt lat="45.44877" lon="6.92609">
        <ele>2679</ele>
        <time>2020-01-10T10:42:13Z</time>
      </trkpt>
      <trkpt lat="45.44879" lon="6.92608">
        <ele>2679</ele>
        <time>2020-01-10T10:42:17Z</time>
      </trkpt>
      <trkpt lat="45.44881" lon="6.92607">
        <ele>2679</ele>
        <time>2020-01-10T10:42:22Z</time>
      </trkpt>
      <trkpt lat="45.44883" lon="6.92607">
        <ele>2679</ele>
        <time>2020-01-10T10:42:26Z</time>
      </trkpt>
      <trkpt lat="45.44884" lon="6.92606">
        <ele>2684</ele>
        <time>2020-01-10T10:42:29Z</time>
      </trkpt>
      <trkpt lat="45.44886" lon="6.92606">
        <ele>2684</ele>
        <time>2020-01-10T10:42:33Z</time>
      </trkpt>
      <trkpt lat="45.44889" lon="6.92604">
        <ele>2684</ele>
        <time>2020-01-10T10:42:37Z</time>
      </trkpt>
      <trkpt lat="45.44891" lon="6.92603">
        <ele>2684</ele>
        <time>2020-01-10T10:42:40Z</time>
      </trkpt>
      <trkpt lat="45.44892" lon="6.92603">
        <ele>2684</ele>
        <time>2020-01-10T10:42:45Z</time>
      </trkpt>
      <trkpt lat="45.44895" lon="6.92603">
        <ele>2684</ele>
        <time>2020-01-10T10:42:50Z</time>
      </trkpt>
      <trkpt lat="45.44897" lon="6.92603">
        <ele>2684</ele>
        <time>2020-01-10T10:42:55Z</time>
      </trkpt>
      <trkpt lat="45.44899" lon="6.92603">
        <ele>2691</ele>
        <time>2020-01-10T10:42:59Z</time>
      </trkpt>
      <trkpt lat="45.44901" lon="6.92602">
        <ele>2691</ele>
        <time>2020-01-10T10:43:04Z</time>
      </trkpt>
      <trkpt lat="45.44903" lon="6.92601">
        <ele>2691</ele>
        <time>2020-01-10T10:43:08Z</time>
      </trkpt>
      <trkpt lat="45.44905" lon="6.92601">
        <ele>2691</ele>
        <time>2020-01-10T10:43:13Z</time>
      </trkpt>
      <trkpt lat="45.44907" lon="6.92602">
        <ele>2691</ele>
        <time>2020-01-10T10:43:23Z</time>
      </trkpt>
      <trkpt lat="45.44909" lon="6.92603">
        <ele>2691</ele>
        <time>2020-01-10T10:43:26Z</time>
      </trkpt>
      <trkpt lat="45.44911" lon="6.92602">
        <ele>2696.6</ele>
        <time>2020-01-10T10:43:29Z</time>
      </trkpt>
      <trkpt lat="45.44913" lon="6.92602">
        <ele>2696.6</ele>
        <time>2020-01-10T10:43:32Z</time>
      </trkpt>
      <trkpt lat="45.44916" lon="6.92601">
        <ele>2696.6</ele>
        <time>2020-01-10T10:43:35Z</time>
      </trkpt>
      <trkpt lat="45.44917" lon="6.92601">
        <ele>2696.6</ele>
        <time>2020-01-10T10:43:39Z</time>
      </trkpt>
      <trkpt lat="45.4492" lon="6.926">
        <ele>2696.6</ele>
        <time>2020-01-10T10:43:43Z</time>
      </trkpt>
      <trkpt lat="45.44922" lon="6.926">
        <ele>2696.6</ele>
        <time>2020-01-10T10:43:46Z</time>
      </trkpt>
      <trkpt lat="45.44924" lon="6.926">
        <ele>2696.6</ele>
        <time>2020-01-10T10:43:48Z</time>
      </trkpt>
      <trkpt lat="45.44926" lon="6.926">
        <ele>2696.6</ele>
        <time>2020-01-10T10:43:50Z</time>
      </trkpt>
      <trkpt lat="45.44929" lon="6.92601">
        <ele>2696.6</ele>
        <time>2020-01-10T10:43:53Z</time>
      </trkpt>
      <trkpt lat="45.44931" lon="6.92602">
        <ele>2696.6</ele>
        <time>2020-01-10T10:43:56Z</time>
      </trkpt>
      <trkpt lat="45.44932" lon="6.92602">
        <ele>2697</ele>
        <time>2020-01-10T10:43:59Z</time>
      </trkpt>
      <trkpt lat="45.44935" lon="6.92603">
        <ele>2697</ele>
        <time>2020-01-10T10:44:02Z</time>
      </trkpt>
      <trkpt lat="45.44937" lon="6.92603">
        <ele>2697</ele>
        <time>2020-01-10T10:44:04Z</time>
      </trkpt>
      <trkpt lat="45.44939" lon="6.92604">
        <ele>2697</ele>
        <time>2020-01-10T10:44:06Z</time>
      </trkpt>
      <trkpt lat="45.4494" lon="6.92604">
        <ele>2697</ele>
        <time>2020-01-10T10:44:08Z</time>
      </trkpt>
      <trkpt lat="45.44942" lon="6.92605">
        <ele>2697</ele>
        <time>2020-01-10T10:44:10Z</time>
      </trkpt>
      <trkpt lat="45.44945" lon="6.92606">
        <ele>2697</ele>
        <time>2020-01-10T10:44:13Z</time>
      </trkpt>
      <trkpt lat="45.44947" lon="6.92606">
        <ele>2697</ele>
        <time>2020-01-10T10:44:16Z</time>
      </trkpt>
      <trkpt lat="45.44948" lon="6.92605">
        <ele>2699.8</ele>
        <time>2020-01-10T10:44:19Z</time>
      </trkpt>
      <trkpt lat="45.4495" lon="6.92604">
        <ele>2699.8</ele>
        <time>2020-01-10T10:44:28Z</time>
      </trkpt>
      <trkpt lat="45.44952" lon="6.92602">
        <ele>2699.8</ele>
        <time>2020-01-10T10:44:31Z</time>
      </trkpt>
      <trkpt lat="45.44953" lon="6.926">
        <ele>2699.8</ele>
        <time>2020-01-10T10:44:33Z</time>
      </trkpt>
      <trkpt lat="45.44955" lon="6.92598">
        <ele>2699.8</ele>
        <time>2020-01-10T10:44:35Z</time>
      </trkpt>
      <trkpt lat="45.44956" lon="6.92595">
        <ele>2699.8</ele>
        <time>2020-01-10T10:44:37Z</time>
      </trkpt>
      <trkpt lat="45.44958" lon="6.92594">
        <ele>2699</ele>
        <time>2020-01-10T10:44:39Z</time>
      </trkpt>
      <trkpt lat="45.4496" lon="6.92592">
        <ele>2699</ele>
        <time>2020-01-10T10:44:41Z</time>
      </trkpt>
      <trkpt lat="45.44962" lon="6.9259">
        <ele>2699</ele>
        <time>2020-01-10T10:44:44Z</time>
      </trkpt>
      <trkpt lat="45.44964" lon="6.92588">
        <ele>2699</ele>
        <time>2020-01-10T10:44:46Z</time>
      </trkpt>
      <trkpt lat="45.44965" lon="6.92586">
        <ele>2699</ele>
        <time>2020-01-10T10:44:48Z</time>
      </trkpt>
      <trkpt lat="45.44967" lon="6.92585">
        <ele>2699</ele>
        <time>2020-01-10T10:44:50Z</time>
      </trkpt>
      <trkpt lat="45.4497" lon="6.92583">
        <ele>2699</ele>
        <time>2020-01-10T10:44:53Z</time>
      </trkpt>
      <trkpt lat="45.44972" lon="6.92582">
        <ele>2699</ele>
        <time>2020-01-10T10:44:56Z</time>
      </trkpt>
      <trkpt lat="45.44973" lon="6.92581">
        <ele>2696.8</ele>
        <time>2020-01-10T10:44:59Z</time>
      </trkpt>
      <trkpt lat="45.44976" lon="6.9258">
        <ele>2696.8</ele>
        <time>2020-01-10T10:45:02Z</time>
      </trkpt>
      <trkpt lat="45.44977" lon="6.92579">
        <ele>2696.8</ele>
        <time>2020-01-10T10:45:05Z</time>
      </trkpt>
      <trkpt lat="45.44979" lon="6.92576">
        <ele>2696.8</ele>
        <time>2020-01-10T10:45:08Z</time>
      </trkpt>
      <trkpt lat="45.44981" lon="6.92575">
        <ele>2696.8</ele>
        <time>2020-01-10T10:45:10Z</time>
      </trkpt>
      <trkpt lat="45.44983" lon="6.92575">
        <ele>2696.8</ele>
        <time>2020-01-10T10:45:12Z</time>
      </trkpt>
      <trkpt lat="45.44986" lon="6.92574">
        <ele>2696.8</ele>
        <time>2020-01-10T10:45:17Z</time>
      </trkpt>
      <trkpt lat="45.44988" lon="6.92574">
        <ele>2696.8</ele>
        <time>2020-01-10T10:45:20Z</time>
      </trkpt>
      <trkpt lat="45.44989" lon="6.92574">
        <ele>2696.8</ele>
        <time>2020-01-10T10:45:23Z</time>
      </trkpt>
      <trkpt lat="45.44991" lon="6.92574">
        <ele>2696.8</ele>
        <time>2020-01-10T10:45:27Z</time>
      </trkpt>
      <trkpt lat="45.44993" lon="6.92574">
        <ele>2696.8</ele>
        <time>2020-01-10T10:45:31Z</time>
      </trkpt>
      <trkpt lat="45.44995" lon="6.92575">
        <ele>2696.8</ele>
        <time>2020-01-10T10:45:35Z</time>
      </trkpt>
      <trkpt lat="45.44997" lon="6.92576">
        <ele>2696.8</ele>
        <time>2020-01-10T10:45:39Z</time>
      </trkpt>
      <trkpt lat="45.44998" lon="6.92578">
        <ele>2696.8</ele>
        <time>2020-01-10T10:45:43Z</time>
      </trkpt>
      <trkpt lat="45.45" lon="6.92579">
        <ele>2696.8</ele>
        <time>2020-01-10T10:45:48Z</time>
      </trkpt>
      <trkpt lat="45.45002" lon="6.9258">
        <ele>2696.8</ele>
        <time>2020-01-10T10:45:52Z</time>
      </trkpt>
      <trkpt lat="45.45004" lon="6.92579">
        <ele>2696.8</ele>
        <time>2020-01-10T10:45:55Z</time>
      </trkpt>
      <trkpt lat="45.45007" lon="6.9258">
        <ele>2701.2</ele>
        <time>2020-01-10T10:46:19Z</time>
      </trkpt>
      <trkpt lat="45.45009" lon="6.92579">
        <ele>2701.2</ele>
        <time>2020-01-10T10:46:21Z</time>
      </trkpt>
      <trkpt lat="45.45016" lon="6.92577">
        <ele>2701.2</ele>
        <time>2020-01-10T10:46:26Z</time>
      </trkpt>
      <trkpt lat="45.45019" lon="6.92576">
        <ele>2701.2</ele>
        <time>2020-01-10T10:46:28Z</time>
      </trkpt>
      <trkpt lat="45.45021" lon="6.92576">
        <ele>2701.2</ele>
        <time>2020-01-10T10:46:30Z</time>
      </trkpt>
      <trkpt lat="45.45023" lon="6.92575">
        <ele>2701.2</ele>
        <time>2020-01-10T10:46:32Z</time>
      </trkpt>
      <trkpt lat="45.45025" lon="6.92574">
        <ele>2701.2</ele>
        <time>2020-01-10T10:46:34Z</time>
      </trkpt>
      <trkpt lat="45.45027" lon="6.92573">
        <ele>2701.2</ele>
        <time>2020-01-10T10:46:37Z</time>
      </trkpt>
      <trkpt lat="45.45029" lon="6.92572">
        <ele>2704.6</ele>
        <time>2020-01-10T10:46:39Z</time>
      </trkpt>
      <trkpt lat="45.45031" lon="6.9257">
        <ele>2704.6</ele>
        <time>2020-01-10T10:46:42Z</time>
      </trkpt>
      <trkpt lat="45.45033" lon="6.92569">
        <ele>2704.6</ele>
        <time>2020-01-10T10:46:44Z</time>
      </trkpt>
      <trkpt lat="45.45034" lon="6.92567">
        <ele>2704.6</ele>
        <time>2020-01-10T10:46:46Z</time>
      </trkpt>
      <trkpt lat="45.45036" lon="6.92565">
        <ele>2705.4</ele>
        <time>2020-01-10T10:46:49Z</time>
      </trkpt>
      <trkpt lat="45.45037" lon="6.92563">
        <ele>2705.4</ele>
        <time>2020-01-10T10:46:51Z</time>
      </trkpt>
      <trkpt lat="45.45039" lon="6.92562">
        <ele>2705.4</ele>
        <time>2020-01-10T10:46:53Z</time>
      </trkpt>
      <trkpt lat="45.45041" lon="6.92561">
        <ele>2705.4</ele>
        <time>2020-01-10T10:46:56Z</time>
      </trkpt>
      <trkpt lat="45.45043" lon="6.9256">
        <ele>2705.6</ele>
        <time>2020-01-10T10:46:59Z</time>
      </trkpt>
      <trkpt lat="45.45044" lon="6.92559">
        <ele>2705.6</ele>
        <time>2020-01-10T10:47:02Z</time>
      </trkpt>
      <trkpt lat="45.45047" lon="6.92558">
        <ele>2705.6</ele>
        <time>2020-01-10T10:47:05Z</time>
      </trkpt>
      <trkpt lat="45.45049" lon="6.92557">
        <ele>2705.6</ele>
        <time>2020-01-10T10:47:07Z</time>
      </trkpt>
      <trkpt lat="45.45051" lon="6.92555">
        <ele>2705.6</ele>
        <time>2020-01-10T10:47:10Z</time>
      </trkpt>
      <trkpt lat="45.45052" lon="6.92554">
        <ele>2705.6</ele>
        <time>2020-01-10T10:47:12Z</time>
      </trkpt>
      <trkpt lat="45.45055" lon="6.92552">
        <ele>2705.6</ele>
        <time>2020-01-10T10:47:16Z</time>
      </trkpt>
      <trkpt lat="45.45057" lon="6.92552">
        <ele>2705.6</ele>
        <time>2020-01-10T10:47:20Z</time>
      </trkpt>
      <trkpt lat="45.45059" lon="6.9255">
        <ele>2705.6</ele>
        <time>2020-01-10T10:47:23Z</time>
      </trkpt>
      <trkpt lat="45.45061" lon="6.9255">
        <ele>2705.6</ele>
        <time>2020-01-10T10:47:25Z</time>
      </trkpt>
      <trkpt lat="45.45064" lon="6.92549">
        <ele>2705.6</ele>
        <time>2020-01-10T10:47:28Z</time>
      </trkpt>
      <trkpt lat="45.45067" lon="6.92548">
        <ele>2705.6</ele>
        <time>2020-01-10T10:47:32Z</time>
      </trkpt>
      <trkpt lat="45.45068" lon="6.92548">
        <ele>2705.6</ele>
        <time>2020-01-10T10:47:34Z</time>
      </trkpt>
      <trkpt lat="45.4507" lon="6.92549">
        <ele>2705.6</ele>
        <time>2020-01-10T10:47:50Z</time>
      </trkpt>
      <trkpt lat="45.45072" lon="6.92549">
        <ele>2705.6</ele>
        <time>2020-01-10T10:47:53Z</time>
      </trkpt>
      <trkpt lat="45.45075" lon="6.92549">
        <ele>2705.6</ele>
        <time>2020-01-10T10:47:57Z</time>
      </trkpt>
      <trkpt lat="45.45076" lon="6.92549">
        <ele>2705.6</ele>
        <time>2020-01-10T10:48:00Z</time>
      </trkpt>
      <trkpt lat="45.45078" lon="6.92549">
        <ele>2705.6</ele>
        <time>2020-01-10T10:48:03Z</time>
      </trkpt>
      <trkpt lat="45.4508" lon="6.92547">
        <ele>2705.6</ele>
        <time>2020-01-10T10:48:06Z</time>
      </trkpt>
      <trkpt lat="45.45082" lon="6.92547">
        <ele>2702.2</ele>
        <time>2020-01-10T10:48:09Z</time>
      </trkpt>
      <trkpt lat="45.45085" lon="6.92545">
        <ele>2702.2</ele>
        <time>2020-01-10T10:48:12Z</time>
      </trkpt>
      <trkpt lat="45.45088" lon="6.92544">
        <ele>2702.2</ele>
        <time>2020-01-10T10:48:14Z</time>
      </trkpt>
      <trkpt lat="45.4509" lon="6.92543">
        <ele>2702.2</ele>
        <time>2020-01-10T10:48:16Z</time>
      </trkpt>
      <trkpt lat="45.45092" lon="6.92544">
        <ele>2702.2</ele>
        <time>2020-01-10T10:48:18Z</time>
      </trkpt>
      <trkpt lat="45.45094" lon="6.92544">
        <ele>2702.2</ele>
        <time>2020-01-10T10:48:20Z</time>
      </trkpt>
      <trkpt lat="45.45096" lon="6.92545">
        <ele>2702.2</ele>
        <time>2020-01-10T10:48:23Z</time>
      </trkpt>
      <trkpt lat="45.45098" lon="6.92545">
        <ele>2702.2</ele>
        <time>2020-01-10T10:48:25Z</time>
      </trkpt>
      <trkpt lat="45.451" lon="6.92546">
        <ele>2702.2</ele>
        <time>2020-01-10T10:48:28Z</time>
      </trkpt>
      <trkpt lat="45.45103" lon="6.92546">
        <ele>2702.2</ele>
        <time>2020-01-10T10:48:31Z</time>
      </trkpt>
      <trkpt lat="45.45105" lon="6.92545">
        <ele>2702.2</ele>
        <time>2020-01-10T10:48:34Z</time>
      </trkpt>
      <trkpt lat="45.45107" lon="6.92545">
        <ele>2702.2</ele>
        <time>2020-01-10T10:48:37Z</time>
      </trkpt>
      <trkpt lat="45.45109" lon="6.92545">
        <ele>2702.2</ele>
        <time>2020-01-10T10:48:40Z</time>
      </trkpt>
      <trkpt lat="45.45112" lon="6.92545">
        <ele>2702.2</ele>
        <time>2020-01-10T10:48:42Z</time>
      </trkpt>
      <trkpt lat="45.45115" lon="6.92546">
        <ele>2702.2</ele>
        <time>2020-01-10T10:48:44Z</time>
      </trkpt>
      <trkpt lat="45.45116" lon="6.92546">
        <ele>2702.2</ele>
        <time>2020-01-10T10:48:47Z</time>
      </trkpt>
      <trkpt lat="45.45118" lon="6.92546">
        <ele>2702.2</ele>
        <time>2020-01-10T10:48:50Z</time>
      </trkpt>
      <trkpt lat="45.45121" lon="6.92547">
        <ele>2702.2</ele>
        <time>2020-01-10T10:48:52Z</time>
      </trkpt>
      <trkpt lat="45.45123" lon="6.92548">
        <ele>2702.2</ele>
        <time>2020-01-10T10:48:54Z</time>
      </trkpt>
      <trkpt lat="45.45125" lon="6.92548">
        <ele>2702.2</ele>
        <time>2020-01-10T10:48:56Z</time>
      </trkpt>
      <trkpt lat="45.45127" lon="6.92548">
        <ele>2700.6</ele>
        <time>2020-01-10T10:48:59Z</time>
      </trkpt>
      <trkpt lat="45.4513" lon="6.92548">
        <ele>2700.6</ele>
        <time>2020-01-10T10:49:02Z</time>
      </trkpt>
      <trkpt lat="45.45132" lon="6.92548">
        <ele>2700.6</ele>
        <time>2020-01-10T10:49:05Z</time>
      </trkpt>
      <trkpt lat="45.45134" lon="6.92548">
        <ele>2700.6</ele>
        <time>2020-01-10T10:49:08Z</time>
      </trkpt>
      <trkpt lat="45.45136" lon="6.92548">
        <ele>2700.6</ele>
        <time>2020-01-10T10:49:10Z</time>
      </trkpt>
      <trkpt lat="45.45138" lon="6.92547">
        <ele>2700.6</ele>
        <time>2020-01-10T10:49:12Z</time>
      </trkpt>
      <trkpt lat="45.4514" lon="6.92546">
        <ele>2700.6</ele>
        <time>2020-01-10T10:49:14Z</time>
      </trkpt>
      <trkpt lat="45.45143" lon="6.92545">
        <ele>2700.6</ele>
        <time>2020-01-10T10:49:17Z</time>
      </trkpt>
      <trkpt lat="45.45145" lon="6.92544">
        <ele>2700.6</ele>
        <time>2020-01-10T10:49:20Z</time>
      </trkpt>
      <trkpt lat="45.45147" lon="6.92543">
        <ele>2700.6</ele>
        <time>2020-01-10T10:49:22Z</time>
      </trkpt>
      <trkpt lat="45.4515" lon="6.92543">
        <ele>2700.6</ele>
        <time>2020-01-10T10:49:24Z</time>
      </trkpt>
      <trkpt lat="45.45152" lon="6.92543">
        <ele>2700.6</ele>
        <time>2020-01-10T10:49:26Z</time>
      </trkpt>
      <trkpt lat="45.45154" lon="6.92544">
        <ele>2700.6</ele>
        <time>2020-01-10T10:49:28Z</time>
      </trkpt>
      <trkpt lat="45.45156" lon="6.92544">
        <ele>2700.6</ele>
        <time>2020-01-10T10:49:31Z</time>
      </trkpt>
      <trkpt lat="45.45159" lon="6.92544">
        <ele>2700.6</ele>
        <time>2020-01-10T10:49:33Z</time>
      </trkpt>
      <trkpt lat="45.45161" lon="6.92544">
        <ele>2700.6</ele>
        <time>2020-01-10T10:49:36Z</time>
      </trkpt>
      <trkpt lat="45.45164" lon="6.92545">
        <ele>2700.6</ele>
        <time>2020-01-10T10:49:38Z</time>
      </trkpt>
      <trkpt lat="45.45166" lon="6.92545">
        <ele>2700.6</ele>
        <time>2020-01-10T10:49:40Z</time>
      </trkpt>
      <trkpt lat="45.45168" lon="6.92546">
        <ele>2700.6</ele>
        <time>2020-01-10T10:49:42Z</time>
      </trkpt>
      <trkpt lat="45.4517" lon="6.92546">
        <ele>2700.6</ele>
        <time>2020-01-10T10:49:44Z</time>
      </trkpt>
      <trkpt lat="45.45172" lon="6.92545">
        <ele>2700.6</ele>
        <time>2020-01-10T10:49:46Z</time>
      </trkpt>
      <trkpt lat="45.45174" lon="6.92545">
        <ele>2700.6</ele>
        <time>2020-01-10T10:49:48Z</time>
      </trkpt>
      <trkpt lat="45.45176" lon="6.92544">
        <ele>2700.6</ele>
        <time>2020-01-10T10:49:50Z</time>
      </trkpt>
      <trkpt lat="45.45178" lon="6.92544">
        <ele>2700.6</ele>
        <time>2020-01-10T10:49:52Z</time>
      </trkpt>
      <trkpt lat="45.4518" lon="6.92542">
        <ele>2700.6</ele>
        <time>2020-01-10T10:49:55Z</time>
      </trkpt>
      <trkpt lat="45.45182" lon="6.92542">
        <ele>2700.6</ele>
        <time>2020-01-10T10:49:57Z</time>
      </trkpt>
      <trkpt lat="45.45184" lon="6.9254">
        <ele>2703.2</ele>
        <time>2020-01-10T10:49:59Z</time>
      </trkpt>
      <trkpt lat="45.45186" lon="6.92539">
        <ele>2703.2</ele>
        <time>2020-01-10T10:50:01Z</time>
      </trkpt>
      <trkpt lat="45.45188" lon="6.92538">
        <ele>2703.2</ele>
        <time>2020-01-10T10:50:03Z</time>
      </trkpt>
      <trkpt lat="45.45189" lon="6.92535">
        <ele>2703.2</ele>
        <time>2020-01-10T10:50:05Z</time>
      </trkpt>
      <trkpt lat="45.4519" lon="6.92533">
        <ele>2703.2</ele>
        <time>2020-01-10T10:50:07Z</time>
      </trkpt>
      <trkpt lat="45.45192" lon="6.9253">
        <ele>2702</ele>
        <time>2020-01-10T10:50:09Z</time>
      </trkpt>
      <trkpt lat="45.45195" lon="6.92529">
        <ele>2702</ele>
        <time>2020-01-10T10:50:11Z</time>
      </trkpt>
      <trkpt lat="45.45198" lon="6.92527">
        <ele>2702</ele>
        <time>2020-01-10T10:50:13Z</time>
      </trkpt>
      <trkpt lat="45.452" lon="6.92526">
        <ele>2702</ele>
        <time>2020-01-10T10:50:15Z</time>
      </trkpt>
      <trkpt lat="45.45203" lon="6.92525">
        <ele>2702</ele>
        <time>2020-01-10T10:50:18Z</time>
      </trkpt>
      <trkpt lat="45.45204" lon="6.92523">
        <ele>2702</ele>
        <time>2020-01-10T10:50:20Z</time>
      </trkpt>
      <trkpt lat="45.45206" lon="6.92522">
        <ele>2702</ele>
        <time>2020-01-10T10:50:22Z</time>
      </trkpt>
      <trkpt lat="45.45208" lon="6.9252">
        <ele>2702</ele>
        <time>2020-01-10T10:50:24Z</time>
      </trkpt>
      <trkpt lat="45.4521" lon="6.92519">
        <ele>2702</ele>
        <time>2020-01-10T10:50:26Z</time>
      </trkpt>
      <trkpt lat="45.45212" lon="6.92517">
        <ele>2702</ele>
        <time>2020-01-10T10:50:28Z</time>
      </trkpt>
      <trkpt lat="45.45213" lon="6.92516">
        <ele>2702</ele>
        <time>2020-01-10T10:50:30Z</time>
      </trkpt>
      <trkpt lat="45.45215" lon="6.92513">
        <ele>2702</ele>
        <time>2020-01-10T10:50:32Z</time>
      </trkpt>
      <trkpt lat="45.45217" lon="6.92511">
        <ele>2702</ele>
        <time>2020-01-10T10:50:34Z</time>
      </trkpt>
      <trkpt lat="45.45219" lon="6.92509">
        <ele>2702</ele>
        <time>2020-01-10T10:50:36Z</time>
      </trkpt>
      <trkpt lat="45.4522" lon="6.92508">
        <ele>2702</ele>
        <time>2020-01-10T10:50:38Z</time>
      </trkpt>
      <trkpt lat="45.45222" lon="6.92506">
        <ele>2702</ele>
        <time>2020-01-10T10:50:40Z</time>
      </trkpt>
      <trkpt lat="45.45224" lon="6.92504">
        <ele>2702</ele>
        <time>2020-01-10T10:50:42Z</time>
      </trkpt>
      <trkpt lat="45.45226" lon="6.92503">
        <ele>2702</ele>
        <time>2020-01-10T10:50:44Z</time>
      </trkpt>
      <trkpt lat="45.45228" lon="6.925">
        <ele>2702</ele>
        <time>2020-01-10T10:50:46Z</time>
      </trkpt>
      <trkpt lat="45.45229" lon="6.92498">
        <ele>2702</ele>
        <time>2020-01-10T10:50:48Z</time>
      </trkpt>
      <trkpt lat="45.4523" lon="6.92495">
        <ele>2702</ele>
        <time>2020-01-10T10:50:50Z</time>
      </trkpt>
      <trkpt lat="45.45232" lon="6.92492">
        <ele>2702</ele>
        <time>2020-01-10T10:50:52Z</time>
      </trkpt>
      <trkpt lat="45.45233" lon="6.92489">
        <ele>2702</ele>
        <time>2020-01-10T10:50:54Z</time>
      </trkpt>
      <trkpt lat="45.45235" lon="6.92487">
        <ele>2702</ele>
        <time>2020-01-10T10:50:56Z</time>
      </trkpt>
      <trkpt lat="45.45237" lon="6.92484">
        <ele>2702</ele>
        <time>2020-01-10T10:50:58Z</time>
      </trkpt>
      <trkpt lat="45.45238" lon="6.92482">
        <ele>2702</ele>
        <time>2020-01-10T10:51:00Z</time>
      </trkpt>
      <trkpt lat="45.4524" lon="6.92479">
        <ele>2702</ele>
        <time>2020-01-10T10:51:02Z</time>
      </trkpt>
      <trkpt lat="45.45242" lon="6.92477">
        <ele>2702</ele>
        <time>2020-01-10T10:51:04Z</time>
      </trkpt>
      <trkpt lat="45.45244" lon="6.92475">
        <ele>2702</ele>
        <time>2020-01-10T10:51:06Z</time>
      </trkpt>
      <trkpt lat="45.45246" lon="6.92474">
        <ele>2702</ele>
        <time>2020-01-10T10:51:08Z</time>
      </trkpt>
      <trkpt lat="45.45248" lon="6.92473">
        <ele>2702</ele>
        <time>2020-01-10T10:51:10Z</time>
      </trkpt>
      <trkpt lat="45.4525" lon="6.92472">
        <ele>2702</ele>
        <time>2020-01-10T10:51:12Z</time>
      </trkpt>
      <trkpt lat="45.45252" lon="6.9247">
        <ele>2702</ele>
        <time>2020-01-10T10:51:13Z</time>
      </trkpt>
      <trkpt lat="45.45254" lon="6.92468">
        <ele>2702</ele>
        <time>2020-01-10T10:51:15Z</time>
      </trkpt>
      <trkpt lat="45.45256" lon="6.92466">
        <ele>2702</ele>
        <time>2020-01-10T10:51:17Z</time>
      </trkpt>
      <trkpt lat="45.45258" lon="6.92464">
        <ele>2690.2</ele>
        <time>2020-01-10T10:51:19Z</time>
      </trkpt>
      <trkpt lat="45.45261" lon="6.92462">
        <ele>2690.2</ele>
        <time>2020-01-10T10:51:21Z</time>
      </trkpt>
      <trkpt lat="45.45263" lon="6.9246">
        <ele>2690.2</ele>
        <time>2020-01-10T10:51:23Z</time>
      </trkpt>
      <trkpt lat="45.45265" lon="6.92458">
        <ele>2690.2</ele>
        <time>2020-01-10T10:51:25Z</time>
      </trkpt>
      <trkpt lat="45.45267" lon="6.92456">
        <ele>2690.2</ele>
        <time>2020-01-10T10:51:27Z</time>
      </trkpt>
      <trkpt lat="45.45268" lon="6.92453">
        <ele>2689.8</ele>
        <time>2020-01-10T10:51:29Z</time>
      </trkpt>
      <trkpt lat="45.4527" lon="6.92451">
        <ele>2689.8</ele>
        <time>2020-01-10T10:51:31Z</time>
      </trkpt>
      <trkpt lat="45.45272" lon="6.92449">
        <ele>2689.8</ele>
        <time>2020-01-10T10:51:33Z</time>
      </trkpt>
      <trkpt lat="45.45273" lon="6.92447">
        <ele>2689.8</ele>
        <time>2020-01-10T10:51:35Z</time>
      </trkpt>
      <trkpt lat="45.45274" lon="6.92445">
        <ele>2689.8</ele>
        <time>2020-01-10T10:51:37Z</time>
      </trkpt>
      <trkpt lat="45.45276" lon="6.92442">
        <ele>2688</ele>
        <time>2020-01-10T10:51:39Z</time>
      </trkpt>
      <trkpt lat="45.45278" lon="6.9244">
        <ele>2688</ele>
        <time>2020-01-10T10:51:41Z</time>
      </trkpt>
      <trkpt lat="45.45279" lon="6.92436">
        <ele>2688</ele>
        <time>2020-01-10T10:51:43Z</time>
      </trkpt>
      <trkpt lat="45.45281" lon="6.92434">
        <ele>2688</ele>
        <time>2020-01-10T10:51:45Z</time>
      </trkpt>
      <trkpt lat="45.45283" lon="6.92432">
        <ele>2688</ele>
        <time>2020-01-10T10:51:47Z</time>
      </trkpt>
      <trkpt lat="45.45285" lon="6.92429">
        <ele>2687.4</ele>
        <time>2020-01-10T10:51:49Z</time>
      </trkpt>
      <trkpt lat="45.45286" lon="6.92426">
        <ele>2687.4</ele>
        <time>2020-01-10T10:51:51Z</time>
      </trkpt>
      <trkpt lat="45.45287" lon="6.92422">
        <ele>2687.4</ele>
        <time>2020-01-10T10:51:53Z</time>
      </trkpt>
      <trkpt lat="45.45288" lon="6.92419">
        <ele>2687.4</ele>
        <time>2020-01-10T10:51:55Z</time>
      </trkpt>
      <trkpt lat="45.4529" lon="6.92415">
        <ele>2687.4</ele>
        <time>2020-01-10T10:51:57Z</time>
      </trkpt>
      <trkpt lat="45.45291" lon="6.92413">
        <ele>2687.4</ele>
        <time>2020-01-10T10:51:58Z</time>
      </trkpt>
      <trkpt lat="45.45292" lon="6.9241">
        <ele>2687.4</ele>
        <time>2020-01-10T10:52:00Z</time>
      </trkpt>
      <trkpt lat="45.45293" lon="6.92406">
        <ele>2687.4</ele>
        <time>2020-01-10T10:52:02Z</time>
      </trkpt>
      <trkpt lat="45.45295" lon="6.92404">
        <ele>2687.4</ele>
        <time>2020-01-10T10:52:04Z</time>
      </trkpt>
      <trkpt lat="45.45296" lon="6.924">
        <ele>2687.4</ele>
        <time>2020-01-10T10:52:06Z</time>
      </trkpt>
      <trkpt lat="45.45299" lon="6.92398">
        <ele>2687.4</ele>
        <time>2020-01-10T10:52:08Z</time>
      </trkpt>
      <trkpt lat="45.45301" lon="6.92395">
        <ele>2687.4</ele>
        <time>2020-01-10T10:52:10Z</time>
      </trkpt>
      <trkpt lat="45.45302" lon="6.92392">
        <ele>2687.4</ele>
        <time>2020-01-10T10:52:12Z</time>
      </trkpt>
      <trkpt lat="45.45303" lon="6.92388">
        <ele>2687.4</ele>
        <time>2020-01-10T10:52:14Z</time>
      </trkpt>
      <trkpt lat="45.45305" lon="6.92385">
        <ele>2687.4</ele>
        <time>2020-01-10T10:52:16Z</time>
      </trkpt>
      <trkpt lat="45.45306" lon="6.92382">
        <ele>2687.4</ele>
        <time>2020-01-10T10:52:18Z</time>
      </trkpt>
      <trkpt lat="45.45306" lon="6.92378">
        <ele>2687.4</ele>
        <time>2020-01-10T10:52:20Z</time>
      </trkpt>
      <trkpt lat="45.45308" lon="6.92374">
        <ele>2687.4</ele>
        <time>2020-01-10T10:52:22Z</time>
      </trkpt>
      <trkpt lat="45.45308" lon="6.9237">
        <ele>2687.4</ele>
        <time>2020-01-10T10:52:24Z</time>
      </trkpt>
      <trkpt lat="45.45309" lon="6.92366">
        <ele>2687.4</ele>
        <time>2020-01-10T10:52:26Z</time>
      </trkpt>
      <trkpt lat="45.4531" lon="6.92363">
        <ele>2687.4</ele>
        <time>2020-01-10T10:52:28Z</time>
      </trkpt>
      <trkpt lat="45.45311" lon="6.92359">
        <ele>2687.4</ele>
        <time>2020-01-10T10:52:30Z</time>
      </trkpt>
      <trkpt lat="45.45311" lon="6.92354">
        <ele>2687.4</ele>
        <time>2020-01-10T10:52:32Z</time>
      </trkpt>
      <trkpt lat="45.45313" lon="6.92351">
        <ele>2687.4</ele>
        <time>2020-01-10T10:52:34Z</time>
      </trkpt>
      <trkpt lat="45.45315" lon="6.92348">
        <ele>2687.4</ele>
        <time>2020-01-10T10:52:36Z</time>
      </trkpt>
      <trkpt lat="45.45316" lon="6.92345">
        <ele>2687.4</ele>
        <time>2020-01-10T10:52:38Z</time>
      </trkpt>
      <trkpt lat="45.45318" lon="6.92341">
        <ele>2687.4</ele>
        <time>2020-01-10T10:52:40Z</time>
      </trkpt>
      <trkpt lat="45.4532" lon="6.92338">
        <ele>2687.4</ele>
        <time>2020-01-10T10:52:42Z</time>
      </trkpt>
      <trkpt lat="45.45322" lon="6.92334">
        <ele>2687.4</ele>
        <time>2020-01-10T10:52:44Z</time>
      </trkpt>
      <trkpt lat="45.45324" lon="6.92331">
        <ele>2687.4</ele>
        <time>2020-01-10T10:52:46Z</time>
      </trkpt>
      <trkpt lat="45.45325" lon="6.92328">
        <ele>2687.4</ele>
        <time>2020-01-10T10:52:48Z</time>
      </trkpt>
      <trkpt lat="45.45327" lon="6.92324">
        <ele>2687.4</ele>
        <time>2020-01-10T10:52:50Z</time>
      </trkpt>
      <trkpt lat="45.45328" lon="6.92321">
        <ele>2687.4</ele>
        <time>2020-01-10T10:52:52Z</time>
      </trkpt>
      <trkpt lat="45.4533" lon="6.92318">
        <ele>2687.4</ele>
        <time>2020-01-10T10:52:54Z</time>
      </trkpt>
      <trkpt lat="45.45331" lon="6.92314">
        <ele>2687.4</ele>
        <time>2020-01-10T10:52:56Z</time>
      </trkpt>
      <trkpt lat="45.45332" lon="6.92312">
        <ele>2687.4</ele>
        <time>2020-01-10T10:52:57Z</time>
      </trkpt>
      <trkpt lat="45.45334" lon="6.92309">
        <ele>2669.6</ele>
        <time>2020-01-10T10:52:59Z</time>
      </trkpt>
      <trkpt lat="45.45335" lon="6.92306">
        <ele>2669.6</ele>
        <time>2020-01-10T10:53:01Z</time>
      </trkpt>
      <trkpt lat="45.45337" lon="6.92303">
        <ele>2669.6</ele>
        <time>2020-01-10T10:53:03Z</time>
      </trkpt>
      <trkpt lat="45.45339" lon="6.923">
        <ele>2669.6</ele>
        <time>2020-01-10T10:53:05Z</time>
      </trkpt>
      <trkpt lat="45.45341" lon="6.92297">
        <ele>2669.6</ele>
        <time>2020-01-10T10:53:07Z</time>
      </trkpt>
      <trkpt lat="45.45342" lon="6.92294">
        <ele>2668.4</ele>
        <time>2020-01-10T10:53:09Z</time>
      </trkpt>
      <trkpt lat="45.45343" lon="6.92291">
        <ele>2668.4</ele>
        <time>2020-01-10T10:53:11Z</time>
      </trkpt>
      <trkpt lat="45.45345" lon="6.92288">
        <ele>2668.4</ele>
        <time>2020-01-10T10:53:13Z</time>
      </trkpt>
      <trkpt lat="45.45346" lon="6.92286">
        <ele>2668.4</ele>
        <time>2020-01-10T10:53:15Z</time>
      </trkpt>
      <trkpt lat="45.45347" lon="6.92283">
        <ele>2668.4</ele>
        <time>2020-01-10T10:53:17Z</time>
      </trkpt>
      <trkpt lat="45.45348" lon="6.92279">
        <ele>2667.8</ele>
        <time>2020-01-10T10:53:19Z</time>
      </trkpt>
      <trkpt lat="45.45349" lon="6.92276">
        <ele>2667.8</ele>
        <time>2020-01-10T10:53:21Z</time>
      </trkpt>
      <trkpt lat="45.45349" lon="6.92273">
        <ele>2667.8</ele>
        <time>2020-01-10T10:53:23Z</time>
      </trkpt>
      <trkpt lat="45.45351" lon="6.9227">
        <ele>2667.8</ele>
        <time>2020-01-10T10:53:25Z</time>
      </trkpt>
      <trkpt lat="45.45351" lon="6.92267">
        <ele>2667.8</ele>
        <time>2020-01-10T10:53:27Z</time>
      </trkpt>
      <trkpt lat="45.45353" lon="6.92264">
        <ele>2666</ele>
        <time>2020-01-10T10:53:29Z</time>
      </trkpt>
      <trkpt lat="45.45354" lon="6.92261">
        <ele>2666</ele>
        <time>2020-01-10T10:53:31Z</time>
      </trkpt>
      <trkpt lat="45.45355" lon="6.92258">
        <ele>2666</ele>
        <time>2020-01-10T10:53:33Z</time>
      </trkpt>
      <trkpt lat="45.45356" lon="6.92255">
        <ele>2666</ele>
        <time>2020-01-10T10:53:35Z</time>
      </trkpt>
      <trkpt lat="45.45357" lon="6.92252">
        <ele>2666</ele>
        <time>2020-01-10T10:53:37Z</time>
      </trkpt>
      <trkpt lat="45.45358" lon="6.9225">
        <ele>2662.8</ele>
        <time>2020-01-10T10:53:39Z</time>
      </trkpt>
      <trkpt lat="45.45359" lon="6.92247">
        <ele>2662.8</ele>
        <time>2020-01-10T10:53:41Z</time>
      </trkpt>
      <trkpt lat="45.45359" lon="6.92244">
        <ele>2662.8</ele>
        <time>2020-01-10T10:53:43Z</time>
      </trkpt>
      <trkpt lat="45.4536" lon="6.92241">
        <ele>2662.8</ele>
        <time>2020-01-10T10:53:45Z</time>
      </trkpt>
      <trkpt lat="45.45362" lon="6.92238">
        <ele>2662.8</ele>
        <time>2020-01-10T10:53:48Z</time>
      </trkpt>
      <trkpt lat="45.45363" lon="6.92236">
        <ele>2662.8</ele>
        <time>2020-01-10T10:53:50Z</time>
      </trkpt>
      <trkpt lat="45.45363" lon="6.92233">
        <ele>2662.8</ele>
        <time>2020-01-10T10:53:52Z</time>
      </trkpt>
      <trkpt lat="45.45364" lon="6.9223">
        <ele>2662.8</ele>
        <time>2020-01-10T10:53:54Z</time>
      </trkpt>
      <trkpt lat="45.45365" lon="6.92227">
        <ele>2662.8</ele>
        <time>2020-01-10T10:53:56Z</time>
      </trkpt>
      <trkpt lat="45.45366" lon="6.92224">
        <ele>2662.8</ele>
        <time>2020-01-10T10:53:58Z</time>
      </trkpt>
      <trkpt lat="45.45367" lon="6.92222">
        <ele>2662.8</ele>
        <time>2020-01-10T10:54:00Z</time>
      </trkpt>
      <trkpt lat="45.45368" lon="6.92219">
        <ele>2662.8</ele>
        <time>2020-01-10T10:54:02Z</time>
      </trkpt>
      <trkpt lat="45.45369" lon="6.92217">
        <ele>2662.8</ele>
        <time>2020-01-10T10:54:04Z</time>
      </trkpt>
      <trkpt lat="45.45371" lon="6.92215">
        <ele>2662.8</ele>
        <time>2020-01-10T10:54:06Z</time>
      </trkpt>
      <trkpt lat="45.45373" lon="6.92212">
        <ele>2662.8</ele>
        <time>2020-01-10T10:54:08Z</time>
      </trkpt>
      <trkpt lat="45.45374" lon="6.9221">
        <ele>2662.8</ele>
        <time>2020-01-10T10:54:10Z</time>
      </trkpt>
      <trkpt lat="45.45374" lon="6.92206">
        <ele>2662.8</ele>
        <time>2020-01-10T10:54:13Z</time>
      </trkpt>
      <trkpt lat="45.45376" lon="6.92204">
        <ele>2662.8</ele>
        <time>2020-01-10T10:54:15Z</time>
      </trkpt>
      <trkpt lat="45.45378" lon="6.92202">
        <ele>2662.8</ele>
        <time>2020-01-10T10:54:17Z</time>
      </trkpt>
      <trkpt lat="45.45387" lon="6.92194">
        <ele>2662.8</ele>
        <time>2020-01-10T10:55:07Z</time>
      </trkpt>
      <trkpt lat="45.45389" lon="6.92191">
        <ele>2649.4</ele>
        <time>2020-01-10T10:55:09Z</time>
      </trkpt>
      <trkpt lat="45.45391" lon="6.92188">
        <ele>2649.4</ele>
        <time>2020-01-10T10:55:11Z</time>
      </trkpt>
      <trkpt lat="45.45395" lon="6.9218">
        <ele>2649.4</ele>
        <time>2020-01-10T10:55:17Z</time>
      </trkpt>
      <trkpt lat="45.45397" lon="6.92175">
        <ele>2649.4</ele>
        <time>2020-01-10T10:55:20Z</time>
      </trkpt>
      <trkpt lat="45.45398" lon="6.92173">
        <ele>2649.4</ele>
        <time>2020-01-10T10:55:22Z</time>
      </trkpt>
      <trkpt lat="45.454" lon="6.92171">
        <ele>2649.4</ele>
        <time>2020-01-10T10:55:24Z</time>
      </trkpt>
      <trkpt lat="45.45408" lon="6.92166">
        <ele>2649.4</ele>
        <time>2020-01-10T10:55:34Z</time>
      </trkpt>
      <trkpt lat="45.45409" lon="6.92162">
        <ele>2649.4</ele>
        <time>2020-01-10T10:55:37Z</time>
      </trkpt>
      <trkpt lat="45.4541" lon="6.9216">
        <ele>2657.6</ele>
        <time>2020-01-10T10:55:39Z</time>
      </trkpt>
      <trkpt lat="45.45409" lon="6.92157">
        <ele>2657.6</ele>
        <time>2020-01-10T10:55:41Z</time>
      </trkpt>
      <trkpt lat="45.45409" lon="6.92154">
        <ele>2657.6</ele>
        <time>2020-01-10T10:55:43Z</time>
      </trkpt>
      <trkpt lat="45.45409" lon="6.92152">
        <ele>2657.6</ele>
        <time>2020-01-10T10:55:45Z</time>
      </trkpt>
      <trkpt lat="45.45409" lon="6.92148">
        <ele>2657.6</ele>
        <time>2020-01-10T10:55:47Z</time>
      </trkpt>
      <trkpt lat="45.4541" lon="6.92145">
        <ele>2657.6</ele>
        <time>2020-01-10T10:55:50Z</time>
      </trkpt>
      <trkpt lat="45.45411" lon="6.92142">
        <ele>2657.6</ele>
        <time>2020-01-10T10:55:52Z</time>
      </trkpt>
      <trkpt lat="45.45413" lon="6.9214">
        <ele>2657.6</ele>
        <time>2020-01-10T10:55:55Z</time>
      </trkpt>
      <trkpt lat="45.45413" lon="6.92137">
        <ele>2657.6</ele>
        <time>2020-01-10T10:55:57Z</time>
      </trkpt>
      <trkpt lat="45.45414" lon="6.92135">
        <ele>2657.6</ele>
        <time>2020-01-10T10:56:00Z</time>
      </trkpt>
      <trkpt lat="45.45417" lon="6.92128">
        <ele>2657.6</ele>
        <time>2020-01-10T10:56:06Z</time>
      </trkpt>
      <trkpt lat="45.45419" lon="6.92126">
        <ele>2657.6</ele>
        <time>2020-01-10T10:56:08Z</time>
      </trkpt>
      <trkpt lat="45.4542" lon="6.92124">
        <ele>2657.6</ele>
        <time>2020-01-10T10:56:10Z</time>
      </trkpt>
      <trkpt lat="45.45422" lon="6.92122">
        <ele>2657.6</ele>
        <time>2020-01-10T10:56:13Z</time>
      </trkpt>
      <trkpt lat="45.45424" lon="6.92121">
        <ele>2657.6</ele>
        <time>2020-01-10T10:56:15Z</time>
      </trkpt>
      <trkpt lat="45.45426" lon="6.92119">
        <ele>2657.6</ele>
        <time>2020-01-10T10:56:18Z</time>
      </trkpt>
      <trkpt lat="45.45428" lon="6.92116">
        <ele>2657.6</ele>
        <time>2020-01-10T10:56:21Z</time>
      </trkpt>
      <trkpt lat="45.45431" lon="6.92114">
        <ele>2657.6</ele>
        <time>2020-01-10T10:56:24Z</time>
      </trkpt>
      <trkpt lat="45.45433" lon="6.92113">
        <ele>2657.6</ele>
        <time>2020-01-10T10:56:26Z</time>
      </trkpt>
      <trkpt lat="45.45434" lon="6.92112">
        <ele>2657.6</ele>
        <time>2020-01-10T10:56:28Z</time>
      </trkpt>
      <trkpt lat="45.45436" lon="6.9211">
        <ele>2657.6</ele>
        <time>2020-01-10T10:56:30Z</time>
      </trkpt>
      <trkpt lat="45.45439" lon="6.92108">
        <ele>2657.6</ele>
        <time>2020-01-10T10:56:32Z</time>
      </trkpt>
      <trkpt lat="45.45441" lon="6.92107">
        <ele>2657.6</ele>
        <time>2020-01-10T10:56:35Z</time>
      </trkpt>
      <trkpt lat="45.45443" lon="6.92105">
        <ele>2657.6</ele>
        <time>2020-01-10T10:56:37Z</time>
      </trkpt>
      <trkpt lat="45.45445" lon="6.92103">
        <ele>2673.2</ele>
        <time>2020-01-10T10:56:39Z</time>
      </trkpt>
      <trkpt lat="45.45447" lon="6.92101">
        <ele>2673.2</ele>
        <time>2020-01-10T10:56:42Z</time>
      </trkpt>
      <trkpt lat="45.45453" lon="6.92097">
        <ele>2673.2</ele>
        <time>2020-01-10T10:56:47Z</time>
      </trkpt>
      <trkpt lat="45.45455" lon="6.92097">
        <ele>2676</ele>
        <time>2020-01-10T10:56:49Z</time>
      </trkpt>
      <trkpt lat="45.45458" lon="6.92098">
        <ele>2676</ele>
        <time>2020-01-10T10:56:51Z</time>
      </trkpt>
      <trkpt lat="45.4546" lon="6.92098">
        <ele>2676</ele>
        <time>2020-01-10T10:56:53Z</time>
      </trkpt>
      <trkpt lat="45.45462" lon="6.92099">
        <ele>2676</ele>
        <time>2020-01-10T10:56:56Z</time>
      </trkpt>
      <trkpt lat="45.45464" lon="6.92098">
        <ele>2676</ele>
        <time>2020-01-10T10:56:58Z</time>
      </trkpt>
      <trkpt lat="45.45467" lon="6.92096">
        <ele>2676</ele>
        <time>2020-01-10T10:57:00Z</time>
      </trkpt>
      <trkpt lat="45.45469" lon="6.92096">
        <ele>2676</ele>
        <time>2020-01-10T10:57:02Z</time>
      </trkpt>
      <trkpt lat="45.45472" lon="6.92095">
        <ele>2676</ele>
        <time>2020-01-10T10:57:05Z</time>
      </trkpt>
      <trkpt lat="45.45475" lon="6.92094">
        <ele>2676</ele>
        <time>2020-01-10T10:57:08Z</time>
      </trkpt>
      <trkpt lat="45.45477" lon="6.92092">
        <ele>2676</ele>
        <time>2020-01-10T10:57:11Z</time>
      </trkpt>
      <trkpt lat="45.4548" lon="6.92092">
        <ele>2676</ele>
        <time>2020-01-10T10:57:14Z</time>
      </trkpt>
      <trkpt lat="45.45483" lon="6.92091">
        <ele>2676</ele>
        <time>2020-01-10T10:57:17Z</time>
      </trkpt>
      <trkpt lat="45.45486" lon="6.9209">
        <ele>2676</ele>
        <time>2020-01-10T10:57:20Z</time>
      </trkpt>
      <trkpt lat="45.45488" lon="6.92089">
        <ele>2676</ele>
        <time>2020-01-10T10:57:22Z</time>
      </trkpt>
      <trkpt lat="45.4549" lon="6.92088">
        <ele>2676</ele>
        <time>2020-01-10T10:57:26Z</time>
      </trkpt>
      <trkpt lat="45.45492" lon="6.92088">
        <ele>2686.6</ele>
        <time>2020-01-10T10:57:29Z</time>
      </trkpt>
      <trkpt lat="45.45494" lon="6.92088">
        <ele>2686.6</ele>
        <time>2020-01-10T10:57:31Z</time>
      </trkpt>
      <trkpt lat="45.45496" lon="6.92087">
        <ele>2686.6</ele>
        <time>2020-01-10T10:57:34Z</time>
      </trkpt>
      <trkpt lat="45.45499" lon="6.92086">
        <ele>2686.6</ele>
        <time>2020-01-10T10:57:37Z</time>
      </trkpt>
      <trkpt lat="45.45501" lon="6.92086">
        <ele>2689.2</ele>
        <time>2020-01-10T10:57:39Z</time>
      </trkpt>
      <trkpt lat="45.45504" lon="6.92085">
        <ele>2689.2</ele>
        <time>2020-01-10T10:57:42Z</time>
      </trkpt>
      <trkpt lat="45.45506" lon="6.92085">
        <ele>2689.2</ele>
        <time>2020-01-10T10:57:45Z</time>
      </trkpt>
      <trkpt lat="45.45508" lon="6.92083">
        <ele>2689.2</ele>
        <time>2020-01-10T10:57:48Z</time>
      </trkpt>
      <trkpt lat="45.4551" lon="6.92082">
        <ele>2689.2</ele>
        <time>2020-01-10T10:57:51Z</time>
      </trkpt>
      <trkpt lat="45.4552" lon="6.92077">
        <ele>2689.2</ele>
        <time>2020-01-10T10:58:04Z</time>
      </trkpt>
      <trkpt lat="45.4553" lon="6.92074">
        <ele>2689.2</ele>
        <time>2020-01-10T10:58:15Z</time>
      </trkpt>
      <trkpt lat="45.45539" lon="6.92071">
        <ele>2689.2</ele>
        <time>2020-01-10T10:58:23Z</time>
      </trkpt>
      <trkpt lat="45.45541" lon="6.9207">
        <ele>2689.2</ele>
        <time>2020-01-10T10:58:25Z</time>
      </trkpt>
      <trkpt lat="45.45547" lon="6.92066">
        <ele>2699.8</ele>
        <time>2020-01-10T10:58:29Z</time>
      </trkpt>
      <trkpt lat="45.45556" lon="6.92059">
        <ele>2699.8</ele>
        <time>2020-01-10T10:58:37Z</time>
      </trkpt>
      <trkpt lat="45.45559" lon="6.92058">
        <ele>2700.2</ele>
        <time>2020-01-10T10:58:39Z</time>
      </trkpt>
      <trkpt lat="45.45561" lon="6.92058">
        <ele>2700.2</ele>
        <time>2020-01-10T10:58:40Z</time>
      </trkpt>
      <trkpt lat="45.45563" lon="6.92058">
        <ele>2700.2</ele>
        <time>2020-01-10T10:58:41Z</time>
      </trkpt>
      <trkpt lat="45.45569" lon="6.92053">
        <ele>2700.2</ele>
        <time>2020-01-10T10:58:46Z</time>
      </trkpt>
      <trkpt lat="45.45577" lon="6.92044">
        <ele>2700.2</ele>
        <time>2020-01-10T10:58:54Z</time>
      </trkpt>
      <trkpt lat="45.45581" lon="6.92038">
        <ele>2700.2</ele>
        <time>2020-01-10T10:58:58Z</time>
      </trkpt>
      <trkpt lat="45.45583" lon="6.92036">
        <ele>2700.2</ele>
        <time>2020-01-10T10:59:00Z</time>
      </trkpt>
      <trkpt lat="45.45586" lon="6.92036">
        <ele>2700.2</ele>
        <time>2020-01-10T10:59:02Z</time>
      </trkpt>
      <trkpt lat="45.45589" lon="6.92037">
        <ele>2700.2</ele>
        <time>2020-01-10T10:59:04Z</time>
      </trkpt>
      <trkpt lat="45.45591" lon="6.92038">
        <ele>2700.2</ele>
        <time>2020-01-10T10:59:06Z</time>
      </trkpt>
      <trkpt lat="45.45593" lon="6.92036">
        <ele>2700.2</ele>
        <time>2020-01-10T11:00:32Z</time>
      </trkpt>
      <trkpt lat="45.45596" lon="6.9204">
        <ele>2700.2</ele>
        <time>2020-01-10T11:00:33Z</time>
      </trkpt>
      <trkpt lat="45.45601" lon="6.92045">
        <ele>2700.2</ele>
        <time>2020-01-10T11:00:34Z</time>
      </trkpt>
      <trkpt lat="45.45605" lon="6.92053">
        <ele>2700.2</ele>
        <time>2020-01-10T11:00:35Z</time>
      </trkpt>
      <trkpt lat="45.45613" lon="6.92062">
        <ele>2700.2</ele>
        <time>2020-01-10T11:00:36Z</time>
      </trkpt>
      <trkpt lat="45.45627" lon="6.92073">
        <ele>2700.2</ele>
        <time>2020-01-10T11:00:38Z</time>
      </trkpt>
      <trkpt lat="45.45645" lon="6.92079">
        <ele>2700.2</ele>
        <time>2020-01-10T11:00:40Z</time>
      </trkpt>
      <trkpt lat="45.45655" lon="6.92083">
        <ele>2700.2</ele>
        <time>2020-01-10T11:00:41Z</time>
      </trkpt>
      <trkpt lat="45.45665" lon="6.92094">
        <ele>2700.2</ele>
        <time>2020-01-10T11:00:42Z</time>
      </trkpt>
      <trkpt lat="45.4567" lon="6.92105">
        <ele>2700.2</ele>
        <time>2020-01-10T11:00:43Z</time>
      </trkpt>
      <trkpt lat="45.45676" lon="6.92119">
        <ele>2700.2</ele>
        <time>2020-01-10T11:00:44Z</time>
      </trkpt>
      <trkpt lat="45.45682" lon="6.92132">
        <ele>2700.2</ele>
        <time>2020-01-10T11:00:45Z</time>
      </trkpt>
      <trkpt lat="45.45691" lon="6.9214">
        <ele>2700.2</ele>
        <time>2020-01-10T11:00:46Z</time>
      </trkpt>
      <trkpt lat="45.45701" lon="6.92148">
        <ele>2700.2</ele>
        <time>2020-01-10T11:00:47Z</time>
      </trkpt>
      <trkpt lat="45.45713" lon="6.92154">
        <ele>2700.2</ele>
        <time>2020-01-10T11:00:48Z</time>
      </trkpt>
      <trkpt lat="45.45723" lon="6.92162">
        <ele>2655</ele>
        <time>2020-01-10T11:00:49Z</time>
      </trkpt>
      <trkpt lat="45.45733" lon="6.92173">
        <ele>2655</ele>
        <time>2020-01-10T11:00:50Z</time>
      </trkpt>
      <trkpt lat="45.45743" lon="6.92183">
        <ele>2655</ele>
        <time>2020-01-10T11:00:51Z</time>
      </trkpt>
      <trkpt lat="45.45753" lon="6.92191">
        <ele>2655</ele>
        <time>2020-01-10T11:00:52Z</time>
      </trkpt>
      <trkpt lat="45.45764" lon="6.92199">
        <ele>2655</ele>
        <time>2020-01-10T11:00:53Z</time>
      </trkpt>
      <trkpt lat="45.45773" lon="6.92208">
        <ele>2655</ele>
        <time>2020-01-10T11:00:54Z</time>
      </trkpt>
      <trkpt lat="45.4578" lon="6.92219">
        <ele>2655</ele>
        <time>2020-01-10T11:00:55Z</time>
      </trkpt>
      <trkpt lat="45.45788" lon="6.92227">
        <ele>2655</ele>
        <time>2020-01-10T11:00:56Z</time>
      </trkpt>
      <trkpt lat="45.45797" lon="6.92235">
        <ele>2655</ele>
        <time>2020-01-10T11:00:57Z</time>
      </trkpt>
      <trkpt lat="45.45813" lon="6.9225">
        <ele>2616</ele>
        <time>2020-01-10T11:00:59Z</time>
      </trkpt>
      <trkpt lat="45.45828" lon="6.9226">
        <ele>2616</ele>
        <time>2020-01-10T11:01:01Z</time>
      </trkpt>
      <trkpt lat="45.45838" lon="6.92252">
        <ele>2616</ele>
        <time>2020-01-10T11:01:03Z</time>
      </trkpt>
      <trkpt lat="45.45846" lon="6.92233">
        <ele>2616</ele>
        <time>2020-01-10T11:01:05Z</time>
      </trkpt>
      <trkpt lat="45.45853" lon="6.9221">
        <ele>2616</ele>
        <time>2020-01-10T11:01:07Z</time>
      </trkpt>
      <trkpt lat="45.45856" lon="6.92194">
        <ele>2616</ele>
        <time>2020-01-10T11:01:08Z</time>
      </trkpt>
      <trkpt lat="45.45862" lon="6.9218">
        <ele>2586.8</ele>
        <time>2020-01-10T11:01:09Z</time>
      </trkpt>
      <trkpt lat="45.45867" lon="6.92165">
        <ele>2586.8</ele>
        <time>2020-01-10T11:01:10Z</time>
      </trkpt>
      <trkpt lat="45.4587" lon="6.92146">
        <ele>2586.8</ele>
        <time>2020-01-10T11:01:11Z</time>
      </trkpt>
      <trkpt lat="45.4587" lon="6.92125">
        <ele>2586.8</ele>
        <time>2020-01-10T11:01:12Z</time>
      </trkpt>
      <trkpt lat="45.45873" lon="6.92103">
        <ele>2586.8</ele>
        <time>2020-01-10T11:01:13Z</time>
      </trkpt>
      <trkpt lat="45.4588" lon="6.92081">
        <ele>2586.8</ele>
        <time>2020-01-10T11:01:14Z</time>
      </trkpt>
      <trkpt lat="45.45887" lon="6.92059">
        <ele>2586.8</ele>
        <time>2020-01-10T11:01:15Z</time>
      </trkpt>
      <trkpt lat="45.45892" lon="6.92034">
        <ele>2586.8</ele>
        <time>2020-01-10T11:01:16Z</time>
      </trkpt>
      <trkpt lat="45.45894" lon="6.9201">
        <ele>2586.8</ele>
        <time>2020-01-10T11:01:17Z</time>
      </trkpt>
      <trkpt lat="45.45894" lon="6.91984">
        <ele>2586.8</ele>
        <time>2020-01-10T11:01:18Z</time>
      </trkpt>
      <trkpt lat="45.45895" lon="6.91961">
        <ele>2540.4</ele>
        <time>2020-01-10T11:01:19Z</time>
      </trkpt>
      <trkpt lat="45.45897" lon="6.91936">
        <ele>2540.4</ele>
        <time>2020-01-10T11:01:20Z</time>
      </trkpt>
      <trkpt lat="45.45901" lon="6.91913">
        <ele>2540.4</ele>
        <time>2020-01-10T11:01:21Z</time>
      </trkpt>
      <trkpt lat="45.45907" lon="6.91894">
        <ele>2540.4</ele>
        <time>2020-01-10T11:01:22Z</time>
      </trkpt>
      <trkpt lat="45.45917" lon="6.91882">
        <ele>2540.4</ele>
        <time>2020-01-10T11:01:23Z</time>
      </trkpt>
      <trkpt lat="45.45928" lon="6.91873">
        <ele>2540.4</ele>
        <time>2020-01-10T11:01:24Z</time>
      </trkpt>
      <trkpt lat="45.45938" lon="6.91862">
        <ele>2540.4</ele>
        <time>2020-01-10T11:01:25Z</time>
      </trkpt>
      <trkpt lat="45.45949" lon="6.91854">
        <ele>2540.4</ele>
        <time>2020-01-10T11:01:26Z</time>
      </trkpt>
      <trkpt lat="45.45963" lon="6.9185">
        <ele>2540.4</ele>
        <time>2020-01-10T11:01:27Z</time>
      </trkpt>
      <trkpt lat="45.45976" lon="6.91849">
        <ele>2540.4</ele>
        <time>2020-01-10T11:01:28Z</time>
      </trkpt>
      <trkpt lat="45.4599" lon="6.91846">
        <ele>2504</ele>
        <time>2020-01-10T11:01:29Z</time>
      </trkpt>
      <trkpt lat="45.46002" lon="6.91838">
        <ele>2504</ele>
        <time>2020-01-10T11:01:30Z</time>
      </trkpt>
      <trkpt lat="45.46014" lon="6.91825">
        <ele>2504</ele>
        <time>2020-01-10T11:01:31Z</time>
      </trkpt>
      <trkpt lat="45.46027" lon="6.91811">
        <ele>2504</ele>
        <time>2020-01-10T11:01:32Z</time>
      </trkpt>
      <trkpt lat="45.46041" lon="6.91792">
        <ele>2504</ele>
        <time>2020-01-10T11:01:33Z</time>
      </trkpt>
      <trkpt lat="45.46052" lon="6.91773">
        <ele>2504</ele>
        <time>2020-01-10T11:01:34Z</time>
      </trkpt>
      <trkpt lat="45.4606" lon="6.91752">
        <ele>2504</ele>
        <time>2020-01-10T11:01:35Z</time>
      </trkpt>
      <trkpt lat="45.46065" lon="6.91734">
        <ele>2504</ele>
        <time>2020-01-10T11:01:36Z</time>
      </trkpt>
      <trkpt lat="45.46068" lon="6.9171">
        <ele>2504</ele>
        <time>2020-01-10T11:01:37Z</time>
      </trkpt>
      <trkpt lat="45.46068" lon="6.91688">
        <ele>2504</ele>
        <time>2020-01-10T11:01:38Z</time>
      </trkpt>
      <trkpt lat="45.46069" lon="6.91667">
        <ele>2458.4</ele>
        <time>2020-01-10T11:01:39Z</time>
      </trkpt>
      <trkpt lat="45.4607" lon="6.91647">
        <ele>2458.4</ele>
        <time>2020-01-10T11:01:40Z</time>
      </trkpt>
      <trkpt lat="45.46069" lon="6.91627">
        <ele>2458.4</ele>
        <time>2020-01-10T11:01:41Z</time>
      </trkpt>
      <trkpt lat="45.4607" lon="6.91608">
        <ele>2458.4</ele>
        <time>2020-01-10T11:01:42Z</time>
      </trkpt>
      <trkpt lat="45.46074" lon="6.9159">
        <ele>2458.4</ele>
        <time>2020-01-10T11:01:43Z</time>
      </trkpt>
      <trkpt lat="45.46081" lon="6.91574">
        <ele>2458.4</ele>
        <time>2020-01-10T11:01:44Z</time>
      </trkpt>
      <trkpt lat="45.46091" lon="6.91554">
        <ele>2458.4</ele>
        <time>2020-01-10T11:01:45Z</time>
      </trkpt>
      <trkpt lat="45.46096" lon="6.91539">
        <ele>2458.4</ele>
        <time>2020-01-10T11:01:46Z</time>
      </trkpt>
      <trkpt lat="45.46104" lon="6.91522">
        <ele>2458.4</ele>
        <time>2020-01-10T11:01:47Z</time>
      </trkpt>
      <trkpt lat="45.46116" lon="6.9151">
        <ele>2458.4</ele>
        <time>2020-01-10T11:01:48Z</time>
      </trkpt>
      <trkpt lat="45.46126" lon="6.91503">
        <ele>2426.8</ele>
        <time>2020-01-10T11:01:49Z</time>
      </trkpt>
      <trkpt lat="45.46135" lon="6.91496">
        <ele>2426.8</ele>
        <time>2020-01-10T11:01:50Z</time>
      </trkpt>
      <trkpt lat="45.46145" lon="6.91474">
        <ele>2426.8</ele>
        <time>2020-01-10T11:01:52Z</time>
      </trkpt>
      <trkpt lat="45.46149" lon="6.91462">
        <ele>2426.8</ele>
        <time>2020-01-10T11:01:53Z</time>
      </trkpt>
      <trkpt lat="45.46163" lon="6.9145">
        <ele>2426.8</ele>
        <time>2020-01-10T11:01:55Z</time>
      </trkpt>
      <trkpt lat="45.46171" lon="6.91444">
        <ele>2426.8</ele>
        <time>2020-01-10T11:01:56Z</time>
      </trkpt>
      <trkpt lat="45.46175" lon="6.91432">
        <ele>2426.8</ele>
        <time>2020-01-10T11:01:57Z</time>
      </trkpt>
      <trkpt lat="45.46181" lon="6.91409">
        <ele>2395</ele>
        <time>2020-01-10T11:01:59Z</time>
      </trkpt>
      <trkpt lat="45.46188" lon="6.91401">
        <ele>2395</ele>
        <time>2020-01-10T11:02:00Z</time>
      </trkpt>
      <trkpt lat="45.46204" lon="6.91389">
        <ele>2395</ele>
        <time>2020-01-10T11:02:02Z</time>
      </trkpt>
      <trkpt lat="45.4621" lon="6.91378">
        <ele>2395</ele>
        <time>2020-01-10T11:02:03Z</time>
      </trkpt>
      <trkpt lat="45.46213" lon="6.91366">
        <ele>2395</ele>
        <time>2020-01-10T11:02:04Z</time>
      </trkpt>
      <trkpt lat="45.46218" lon="6.91354">
        <ele>2395</ele>
        <time>2020-01-10T11:02:05Z</time>
      </trkpt>
      <trkpt lat="45.46231" lon="6.91337">
        <ele>2395</ele>
        <time>2020-01-10T11:02:07Z</time>
      </trkpt>
      <trkpt lat="45.46233" lon="6.91319">
        <ele>2361.6</ele>
        <time>2020-01-10T11:02:09Z</time>
      </trkpt>
      <trkpt lat="45.46233" lon="6.913">
        <ele>2361.6</ele>
        <time>2020-01-10T11:02:11Z</time>
      </trkpt>
      <trkpt lat="45.46231" lon="6.9128">
        <ele>2361.6</ele>
        <time>2020-01-10T11:02:13Z</time>
      </trkpt>
      <trkpt lat="45.46236" lon="6.91266">
        <ele>2361.6</ele>
        <time>2020-01-10T11:02:15Z</time>
      </trkpt>
      <trkpt lat="45.46247" lon="6.91251">
        <ele>2361.6</ele>
        <time>2020-01-10T11:02:17Z</time>
      </trkpt>
      <trkpt lat="45.4626" lon="6.91248">
        <ele>2344.6</ele>
        <time>2020-01-10T11:02:19Z</time>
      </trkpt>
      <trkpt lat="45.46267" lon="6.91254">
        <ele>2344.6</ele>
        <time>2020-01-10T11:02:20Z</time>
      </trkpt>
      <trkpt lat="45.46273" lon="6.91256">
        <ele>2344.6</ele>
        <time>2020-01-10T11:02:21Z</time>
      </trkpt>
      <trkpt lat="45.46278" lon="6.91254">
        <ele>2344.6</ele>
        <time>2020-01-10T11:02:22Z</time>
      </trkpt>
      <trkpt lat="45.46286" lon="6.91251">
        <ele>2344.6</ele>
        <time>2020-01-10T11:02:23Z</time>
      </trkpt>
      <trkpt lat="45.46293" lon="6.91252">
        <ele>2344.6</ele>
        <time>2020-01-10T11:02:24Z</time>
      </trkpt>
      <trkpt lat="45.463" lon="6.91257">
        <ele>2344.6</ele>
        <time>2020-01-10T11:02:25Z</time>
      </trkpt>
      <trkpt lat="45.46306" lon="6.91265">
        <ele>2344.6</ele>
        <time>2020-01-10T11:02:26Z</time>
      </trkpt>
      <trkpt lat="45.46316" lon="6.91271">
        <ele>2344.6</ele>
        <time>2020-01-10T11:02:28Z</time>
      </trkpt>
      <trkpt lat="45.46328" lon="6.91268">
        <ele>2344.6</ele>
        <time>2020-01-10T11:02:30Z</time>
      </trkpt>
      <trkpt lat="45.46337" lon="6.9128">
        <ele>2344.6</ele>
        <time>2020-01-10T11:02:32Z</time>
      </trkpt>
      <trkpt lat="45.46346" lon="6.91288">
        <ele>2344.6</ele>
        <time>2020-01-10T11:02:34Z</time>
      </trkpt>
      <trkpt lat="45.46357" lon="6.91284">
        <ele>2344.6</ele>
        <time>2020-01-10T11:02:36Z</time>
      </trkpt>
      <trkpt lat="45.4637" lon="6.91289">
        <ele>2344.6</ele>
        <time>2020-01-10T11:02:38Z</time>
      </trkpt>
      <trkpt lat="45.4638" lon="6.91297">
        <ele>2344.6</ele>
        <time>2020-01-10T11:02:40Z</time>
      </trkpt>
      <trkpt lat="45.46393" lon="6.91295">
        <ele>2344.6</ele>
        <time>2020-01-10T11:02:43Z</time>
      </trkpt>
      <trkpt lat="45.46405" lon="6.91302">
        <ele>2344.6</ele>
        <time>2020-01-10T11:02:45Z</time>
      </trkpt>
      <trkpt lat="45.46416" lon="6.91315">
        <ele>2344.6</ele>
        <time>2020-01-10T11:02:47Z</time>
      </trkpt>
      <trkpt lat="45.46426" lon="6.91315">
        <ele>2267.6</ele>
        <time>2020-01-10T11:02:49Z</time>
      </trkpt>
      <trkpt lat="45.46441" lon="6.91318">
        <ele>2267.6</ele>
        <time>2020-01-10T11:02:51Z</time>
      </trkpt>
      <trkpt lat="45.46452" lon="6.91326">
        <ele>2267.6</ele>
        <time>2020-01-10T11:02:53Z</time>
      </trkpt>
      <trkpt lat="45.46461" lon="6.91324">
        <ele>2267.6</ele>
        <time>2020-01-10T11:02:55Z</time>
      </trkpt>
      <trkpt lat="45.46462" lon="6.9131">
        <ele>2267.6</ele>
        <time>2020-01-10T11:02:57Z</time>
      </trkpt>
      <trkpt lat="45.46467" lon="6.91294">
        <ele>2243.4</ele>
        <time>2020-01-10T11:02:59Z</time>
      </trkpt>
      <trkpt lat="45.46479" lon="6.91291">
        <ele>2243.4</ele>
        <time>2020-01-10T11:03:01Z</time>
      </trkpt>
      <trkpt lat="45.46489" lon="6.91285">
        <ele>2243.4</ele>
        <time>2020-01-10T11:03:03Z</time>
      </trkpt>
      <trkpt lat="45.46493" lon="6.91267">
        <ele>2243.4</ele>
        <time>2020-01-10T11:03:05Z</time>
      </trkpt>
      <trkpt lat="45.46503" lon="6.91258">
        <ele>2243.4</ele>
        <time>2020-01-10T11:03:07Z</time>
      </trkpt>
      <trkpt lat="45.46514" lon="6.91256">
        <ele>2214.6</ele>
        <time>2020-01-10T11:03:09Z</time>
      </trkpt>
      <trkpt lat="45.46523" lon="6.9125">
        <ele>2214.6</ele>
        <time>2020-01-10T11:03:12Z</time>
      </trkpt>
      <trkpt lat="45.46527" lon="6.91232">
        <ele>2214.6</ele>
        <time>2020-01-10T11:03:15Z</time>
      </trkpt>
      <trkpt lat="45.46539" lon="6.91231">
        <ele>2214.6</ele>
        <time>2020-01-10T11:03:18Z</time>
      </trkpt>
      <trkpt lat="45.46543" lon="6.91232">
        <ele>2214.6</ele>
        <time>2020-01-10T11:03:20Z</time>
      </trkpt>
      <trkpt lat="45.46551" lon="6.91226">
        <ele>2214.6</ele>
        <time>2020-01-10T11:03:33Z</time>
      </trkpt>
      <trkpt lat="45.46552" lon="6.91213">
        <ele>2214.6</ele>
        <time>2020-01-10T11:03:36Z</time>
      </trkpt>
      <trkpt lat="45.46556" lon="6.912">
        <ele>2214.6</ele>
        <time>2020-01-10T11:03:38Z</time>
      </trkpt>
      <trkpt lat="45.46564" lon="6.91193">
        <ele>2214.6</ele>
        <time>2020-01-10T11:03:40Z</time>
      </trkpt>
      <trkpt lat="45.46564" lon="6.91177">
        <ele>2214.6</ele>
        <time>2020-01-10T11:03:42Z</time>
      </trkpt>
      <trkpt lat="45.4657" lon="6.91164">
        <ele>2214.6</ele>
        <time>2020-01-10T11:03:44Z</time>
      </trkpt>
      <trkpt lat="45.46575" lon="6.91161">
        <ele>2214.6</ele>
        <time>2020-01-10T11:03:45Z</time>
      </trkpt>
      <trkpt lat="45.46584" lon="6.91152">
        <ele>2214.6</ele>
        <time>2020-01-10T11:03:47Z</time>
      </trkpt>
      <trkpt lat="45.46588" lon="6.91133">
        <ele>2150.8</ele>
        <time>2020-01-10T11:03:49Z</time>
      </trkpt>
      <trkpt lat="45.46601" lon="6.91121">
        <ele>2150.8</ele>
        <time>2020-01-10T11:03:51Z</time>
      </trkpt>
      <trkpt lat="45.46612" lon="6.91115">
        <ele>2150.8</ele>
        <time>2020-01-10T11:03:53Z</time>
      </trkpt>
      <trkpt lat="45.46623" lon="6.91105">
        <ele>2150.8</ele>
        <time>2020-01-10T11:03:55Z</time>
      </trkpt>
      <trkpt lat="45.46637" lon="6.91103">
        <ele>2150.8</ele>
        <time>2020-01-10T11:03:57Z</time>
      </trkpt>
      <trkpt lat="45.46652" lon="6.91099">
        <ele>2121.8</ele>
        <time>2020-01-10T11:03:59Z</time>
      </trkpt>
      <trkpt lat="45.46664" lon="6.91084">
        <ele>2121.8</ele>
        <time>2020-01-10T11:04:01Z</time>
      </trkpt>
      <trkpt lat="45.4667" lon="6.91073">
        <ele>2121.8</ele>
        <time>2020-01-10T11:04:02Z</time>
      </trkpt>
      <trkpt lat="45.46677" lon="6.91061">
        <ele>2121.8</ele>
        <time>2020-01-10T11:04:03Z</time>
      </trkpt>
      <trkpt lat="45.46685" lon="6.91049">
        <ele>2121.8</ele>
        <time>2020-01-10T11:04:04Z</time>
      </trkpt>
      <trkpt lat="45.46694" lon="6.91036">
        <ele>2121.8</ele>
        <time>2020-01-10T11:04:05Z</time>
      </trkpt>
      <trkpt lat="45.46704" lon="6.91023">
        <ele>2121.8</ele>
        <time>2020-01-10T11:04:06Z</time>
      </trkpt>
      <trkpt lat="45.46713" lon="6.91008">
        <ele>2121.8</ele>
        <time>2020-01-10T11:04:07Z</time>
      </trkpt>
      <trkpt lat="45.46723" lon="6.90994">
        <ele>2121.8</ele>
        <time>2020-01-10T11:04:08Z</time>
      </trkpt>
      <trkpt lat="45.46733" lon="6.90983">
        <ele>2099.8</ele>
        <time>2020-01-10T11:04:09Z</time>
      </trkpt>
      <trkpt lat="45.46744" lon="6.90977">
        <ele>2099.8</ele>
        <time>2020-01-10T11:04:10Z</time>
      </trkpt>
      <trkpt lat="45.46755" lon="6.90974">
        <ele>2099.8</ele>
        <time>2020-01-10T11:04:11Z</time>
      </trkpt>
      <trkpt lat="45.46769" lon="6.90977">
        <ele>2099.8</ele>
        <time>2020-01-10T11:04:13Z</time>
      </trkpt>
      <trkpt lat="45.46772" lon="6.90981">
        <ele>2099.8</ele>
        <time>2020-01-10T11:04:14Z</time>
      </trkpt>
      <trkpt lat="45.46774" lon="6.90984">
        <ele>2099.8</ele>
        <time>2020-01-10T11:04:15Z</time>
      </trkpt>
      <trkpt lat="45.46777" lon="6.90985">
        <ele>2099.8</ele>
        <time>2020-01-10T11:04:17Z</time>
      </trkpt>
    </trkseg>
  </trk>
</gpx>